<?xml version="1.0" encoding="UTF-8" standalone="no" ?>
<gpx xmlns="http://www.topografix.com/GPX/1/1" xmlns:xsi="http://www.w3.org/2001/XMLSchema-instance" xsi:schemaLocation="http://www.topografix.com/GPX/1/1 http://www.topografix.com/GPX/1/1/gpx.xsd" version="1.1" creator="VisuGPX - https://www.visugpx.com">
  <metadata>
    <name>mon gr20 - 27/06/2017</name>
    <desc><![CDATA[File with points/tracks from Locus Map/3.24.1]]></desc>
  </metadata>
  <trk>
    <name><![CDATA[2017-06-27 05:27:01]]></name>
    <trkseg>
      <trkpt lat="42.02793" lon="9.19438">
        <ele>1270.48</ele>
        <time>2017-06-27T03:27:01.911Z</time>
      </trkpt>
      <trkpt lat="42.02794" lon="9.19435">
        <ele>1273.1</ele>
        <time>2017-06-27T03:27:10.915Z</time>
      </trkpt>
      <trkpt lat="42.028" lon="9.19425">
        <ele>1290.35</ele>
        <time>2017-06-27T03:27:54.916Z</time>
      </trkpt>
      <trkpt lat="42.02799" lon="9.19425">
        <ele>1299.41</ele>
        <time>2017-06-27T03:28:19.916Z</time>
      </trkpt>
      <trkpt lat="42.02795" lon="9.19436">
        <ele>1299.02</ele>
        <time>2017-06-27T03:28:49.915Z</time>
      </trkpt>
      <trkpt lat="42.02787" lon="9.19441">
        <ele>1298.32</ele>
        <time>2017-06-27T03:29:31.916Z</time>
      </trkpt>
      <trkpt lat="42.02788" lon="9.19438">
        <ele>1298.1</ele>
        <time>2017-06-27T03:29:41.916Z</time>
      </trkpt>
      <trkpt lat="42.02788" lon="9.19431">
        <ele>1298.02</ele>
        <time>2017-06-27T03:30:05.916Z</time>
      </trkpt>
      <trkpt lat="42.02786" lon="9.1943">
        <ele>1298.2</ele>
        <time>2017-06-27T03:30:15.918Z</time>
      </trkpt>
      <trkpt lat="42.02786" lon="9.19432">
        <ele>1297.98</ele>
        <time>2017-06-27T03:30:45.918Z</time>
      </trkpt>
      <trkpt lat="42.02788" lon="9.19432">
        <ele>1297.6</ele>
        <time>2017-06-27T03:30:55.916Z</time>
      </trkpt>
      <trkpt lat="42.02786" lon="9.19427">
        <ele>1297.15</ele>
        <time>2017-06-27T03:31:43.916Z</time>
      </trkpt>
      <trkpt lat="42.02788" lon="9.19423">
        <ele>1296.9</ele>
        <time>2017-06-27T03:31:53.916Z</time>
      </trkpt>
      <trkpt lat="42.02785" lon="9.19424">
        <ele>1297.28</ele>
        <time>2017-06-27T03:32:37.916Z</time>
      </trkpt>
      <trkpt lat="42.02792" lon="9.19421">
        <ele>1297.9</ele>
        <time>2017-06-27T03:32:47.916Z</time>
      </trkpt>
      <trkpt lat="42.02794" lon="9.1942">
        <ele>1298.1</ele>
        <time>2017-06-27T03:32:57.918Z</time>
      </trkpt>
      <trkpt lat="42.02799" lon="9.19421">
        <ele>1298.4</ele>
        <time>2017-06-27T03:33:08.916Z</time>
      </trkpt>
      <trkpt lat="42.02799" lon="9.19419">
        <ele>1298.5</ele>
        <time>2017-06-27T03:33:18.916Z</time>
      </trkpt>
      <trkpt lat="42.02795" lon="9.19424">
        <ele>1298.58</ele>
        <time>2017-06-27T03:33:55.916Z</time>
      </trkpt>
      <trkpt lat="42.02789" lon="9.19426">
        <ele>1299.2</ele>
        <time>2017-06-27T03:34:05.916Z</time>
      </trkpt>
      <trkpt lat="42.02791" lon="9.19421">
        <ele>1298.15</ele>
        <time>2017-06-27T03:34:14.950Z</time>
      </trkpt>
      <trkpt lat="42.02792" lon="9.1942">
        <ele>1297.8</ele>
        <time>2017-06-27T03:34:24.916Z</time>
      </trkpt>
      <trkpt lat="42.02785" lon="9.1942">
        <ele>1297.33</ele>
        <time>2017-06-27T03:34:33.918Z</time>
      </trkpt>
      <trkpt lat="42.02783" lon="9.19425">
        <ele>1296.7</ele>
        <time>2017-06-27T03:35:03.918Z</time>
      </trkpt>
      <trkpt lat="42.02784" lon="9.19425">
        <ele>1296.3</ele>
        <time>2017-06-27T03:35:13.915Z</time>
      </trkpt>
      <trkpt lat="42.02784" lon="9.19423">
        <ele>1295.85</ele>
        <time>2017-06-27T03:35:39.917Z</time>
      </trkpt>
      <trkpt lat="42.02789" lon="9.19421">
        <ele>1293.1</ele>
        <time>2017-06-27T03:35:49.916Z</time>
      </trkpt>
      <trkpt lat="42.02788" lon="9.19422">
        <ele>1292.43</ele>
        <time>2017-06-27T03:35:59.916Z</time>
      </trkpt>
      <trkpt lat="42.02783" lon="9.19423">
        <ele>1292.6</ele>
        <time>2017-06-27T03:36:09.917Z</time>
      </trkpt>
      <trkpt lat="42.02782" lon="9.1941">
        <ele>1292.52</ele>
        <time>2017-06-27T03:36:34.915Z</time>
      </trkpt>
      <trkpt lat="42.0278" lon="9.19405">
        <ele>1292.67</ele>
        <time>2017-06-27T03:36:43.916Z</time>
      </trkpt>
      <trkpt lat="42.02787" lon="9.19401">
        <ele>1292.8</ele>
        <time>2017-06-27T03:36:52.941Z</time>
      </trkpt>
      <trkpt lat="42.02793" lon="9.19403">
        <ele>1292.89</ele>
        <time>2017-06-27T03:37:02.933Z</time>
      </trkpt>
      <trkpt lat="42.02795" lon="9.19406">
        <ele>1292.9</ele>
        <time>2017-06-27T03:37:11.987Z</time>
      </trkpt>
      <trkpt lat="42.02799" lon="9.19412">
        <ele>1293</ele>
        <time>2017-06-27T03:37:21.914Z</time>
      </trkpt>
      <trkpt lat="42.028" lon="9.19414">
        <ele>1292.92</ele>
        <time>2017-06-27T03:37:30.915Z</time>
      </trkpt>
      <trkpt lat="42.02805" lon="9.19414">
        <ele>1293.07</ele>
        <time>2017-06-27T03:37:51.933Z</time>
      </trkpt>
      <trkpt lat="42.02806" lon="9.19413">
        <ele>1293.2</ele>
        <time>2017-06-27T03:38:01.934Z</time>
      </trkpt>
      <trkpt lat="42.02798" lon="9.19407">
        <ele>1293.05</ele>
        <time>2017-06-27T03:38:18.915Z</time>
      </trkpt>
      <trkpt lat="42.02801" lon="9.1942">
        <ele>1292.75</ele>
        <time>2017-06-27T03:38:47.914Z</time>
      </trkpt>
      <trkpt lat="42.02794" lon="9.19409">
        <ele>1292.85</ele>
        <time>2017-06-27T03:39:09.917Z</time>
      </trkpt>
      <trkpt lat="42.02794" lon="9.19406">
        <ele>1292.9</ele>
        <time>2017-06-27T03:39:18.939Z</time>
      </trkpt>
      <trkpt lat="42.02787" lon="9.19401">
        <ele>1293.1</ele>
        <time>2017-06-27T03:39:27.940Z</time>
      </trkpt>
      <trkpt lat="42.02786" lon="9.19399">
        <ele>1293</ele>
        <time>2017-06-27T03:39:37.924Z</time>
      </trkpt>
      <trkpt lat="42.02794" lon="9.19405">
        <ele>1292.85</ele>
        <time>2017-06-27T03:39:54.917Z</time>
      </trkpt>
      <trkpt lat="42.02785" lon="9.1941">
        <ele>1292.72</ele>
        <time>2017-06-27T03:40:51.934Z</time>
      </trkpt>
      <trkpt lat="42.0278" lon="9.19418">
        <ele>1292.7</ele>
        <time>2017-06-27T03:41:01.935Z</time>
      </trkpt>
      <trkpt lat="42.02782" lon="9.19418">
        <ele>1292.18</ele>
        <time>2017-06-27T03:41:12.933Z</time>
      </trkpt>
      <trkpt lat="42.02783" lon="9.19428">
        <ele>1289.86</ele>
        <time>2017-06-27T03:41:22.915Z</time>
      </trkpt>
      <trkpt lat="42.02788" lon="9.19439">
        <ele>1287.34</ele>
        <time>2017-06-27T03:41:31.916Z</time>
      </trkpt>
      <trkpt lat="42.02795" lon="9.19442">
        <ele>1287.12</ele>
        <time>2017-06-27T03:41:41.918Z</time>
      </trkpt>
      <trkpt lat="42.02797" lon="9.19436">
        <ele>1287.91</ele>
        <time>2017-06-27T03:41:51.915Z</time>
      </trkpt>
      <trkpt lat="42.02797" lon="9.19429">
        <ele>1287.25</ele>
        <time>2017-06-27T03:42:54.932Z</time>
      </trkpt>
      <trkpt lat="42.02797" lon="9.19439">
        <ele>1288.3</ele>
        <time>2017-06-27T03:43:04.916Z</time>
      </trkpt>
      <trkpt lat="42.02794" lon="9.19437">
        <ele>1288.52</ele>
        <time>2017-06-27T03:43:15.917Z</time>
      </trkpt>
      <trkpt lat="42.02795" lon="9.19429">
        <ele>1288.7</ele>
        <time>2017-06-27T03:43:25.915Z</time>
      </trkpt>
      <trkpt lat="42.02792" lon="9.1943">
        <ele>1288.6</ele>
        <time>2017-06-27T03:44:01.915Z</time>
      </trkpt>
      <trkpt lat="42.02795" lon="9.19423">
        <ele>1289.02</ele>
        <time>2017-06-27T03:45:07.916Z</time>
      </trkpt>
      <trkpt lat="42.02798" lon="9.19418">
        <ele>1288.94</ele>
        <time>2017-06-27T03:45:17.915Z</time>
      </trkpt>
      <trkpt lat="42.02801" lon="9.19421">
        <ele>1288.89</ele>
        <time>2017-06-27T03:45:26.916Z</time>
      </trkpt>
      <trkpt lat="42.02801" lon="9.19429">
        <ele>1289</ele>
        <time>2017-06-27T03:45:36.916Z</time>
      </trkpt>
      <trkpt lat="42.02801" lon="9.19434">
        <ele>1288.71</ele>
        <time>2017-06-27T03:45:45.917Z</time>
      </trkpt>
      <trkpt lat="42.028" lon="9.19442">
        <ele>1287.71</ele>
        <time>2017-06-27T03:45:55.916Z</time>
      </trkpt>
      <trkpt lat="42.02798" lon="9.19448">
        <ele>1287.21</ele>
        <time>2017-06-27T03:46:05.945Z</time>
      </trkpt>
      <trkpt lat="42.02799" lon="9.19444">
        <ele>1286.68</ele>
        <time>2017-06-27T03:46:43.915Z</time>
      </trkpt>
      <trkpt lat="42.028" lon="9.19449">
        <ele>1286.6</ele>
        <time>2017-06-27T03:47:08.916Z</time>
      </trkpt>
      <trkpt lat="42.02802" lon="9.19448">
        <ele>1286.4</ele>
        <time>2017-06-27T03:47:18.915Z</time>
      </trkpt>
      <trkpt lat="42.02793" lon="9.19444">
        <ele>1286.92</ele>
        <time>2017-06-27T03:47:34.915Z</time>
      </trkpt>
      <trkpt lat="42.0279" lon="9.19443">
        <ele>1287.38</ele>
        <time>2017-06-27T03:48:07.916Z</time>
      </trkpt>
      <trkpt lat="42.02788" lon="9.19445">
        <ele>1287.3</ele>
        <time>2017-06-27T03:48:17.916Z</time>
      </trkpt>
      <trkpt lat="42.02793" lon="9.19452">
        <ele>1287.38</ele>
        <time>2017-06-27T03:48:53.916Z</time>
      </trkpt>
      <trkpt lat="42.02794" lon="9.19457">
        <ele>1287.11</ele>
        <time>2017-06-27T03:49:03.918Z</time>
      </trkpt>
      <trkpt lat="42.02796" lon="9.19458">
        <ele>1287</ele>
        <time>2017-06-27T03:49:13.916Z</time>
      </trkpt>
      <trkpt lat="42.02797" lon="9.19456">
        <ele>1287.15</ele>
        <time>2017-06-27T03:49:28.916Z</time>
      </trkpt>
      <trkpt lat="42.02801" lon="9.1947">
        <ele>1287.2</ele>
        <time>2017-06-27T03:49:38.914Z</time>
      </trkpt>
      <trkpt lat="42.02805" lon="9.19482">
        <ele>1287.3</ele>
        <time>2017-06-27T03:49:47.916Z</time>
      </trkpt>
      <trkpt lat="42.02813" lon="9.19489">
        <ele>1287.3</ele>
        <time>2017-06-27T03:49:56.917Z</time>
      </trkpt>
      <trkpt lat="42.02817" lon="9.19495">
        <ele>1287.3</ele>
        <time>2017-06-27T03:50:06.916Z</time>
      </trkpt>
      <trkpt lat="42.02821" lon="9.1949">
        <ele>1286.48</ele>
        <time>2017-06-27T03:50:30.009Z</time>
      </trkpt>
      <trkpt lat="42.02813" lon="9.19493">
        <ele>1285.61</ele>
        <time>2017-06-27T03:50:39.917Z</time>
      </trkpt>
      <trkpt lat="42.02806" lon="9.19496">
        <ele>1285.11</ele>
        <time>2017-06-27T03:50:49.916Z</time>
      </trkpt>
      <trkpt lat="42.02801" lon="9.19499">
        <ele>1284.53</ele>
        <time>2017-06-27T03:50:59.916Z</time>
      </trkpt>
      <trkpt lat="42.02794" lon="9.19503">
        <ele>1284.03</ele>
        <time>2017-06-27T03:51:09.917Z</time>
      </trkpt>
      <trkpt lat="42.02787" lon="9.19509">
        <ele>1283.6</ele>
        <time>2017-06-27T03:51:19.916Z</time>
      </trkpt>
      <trkpt lat="42.02781" lon="9.19514">
        <ele>1283.3</ele>
        <time>2017-06-27T03:51:29.916Z</time>
      </trkpt>
      <trkpt lat="42.02775" lon="9.19521">
        <ele>1283.2</ele>
        <time>2017-06-27T03:51:38.917Z</time>
      </trkpt>
      <trkpt lat="42.02768" lon="9.19527">
        <ele>1282.93</ele>
        <time>2017-06-27T03:51:48.915Z</time>
      </trkpt>
      <trkpt lat="42.02765" lon="9.1953">
        <ele>1282.8</ele>
        <time>2017-06-27T03:51:57.918Z</time>
      </trkpt>
      <trkpt lat="42.02753" lon="9.19538">
        <ele>1282.7</ele>
        <time>2017-06-27T03:52:07.916Z</time>
      </trkpt>
      <trkpt lat="42.02748" lon="9.19543">
        <ele>1282.8</ele>
        <time>2017-06-27T03:52:17.916Z</time>
      </trkpt>
      <trkpt lat="42.02745" lon="9.19548">
        <ele>1282.7</ele>
        <time>2017-06-27T03:52:27.918Z</time>
      </trkpt>
      <trkpt lat="42.02735" lon="9.19553">
        <ele>1282.5</ele>
        <time>2017-06-27T03:52:37.915Z</time>
      </trkpt>
      <trkpt lat="42.02727" lon="9.19558">
        <ele>1282.3</ele>
        <time>2017-06-27T03:52:46.916Z</time>
      </trkpt>
      <trkpt lat="42.02719" lon="9.19564">
        <ele>1282.57</ele>
        <time>2017-06-27T03:52:56.916Z</time>
      </trkpt>
      <trkpt lat="42.02713" lon="9.19572">
        <ele>1282.7</ele>
        <time>2017-06-27T03:53:06.916Z</time>
      </trkpt>
      <trkpt lat="42.02706" lon="9.19575">
        <ele>1283.25</ele>
        <time>2017-06-27T03:53:15.917Z</time>
      </trkpt>
      <trkpt lat="42.027" lon="9.19581">
        <ele>1284.06</ele>
        <time>2017-06-27T03:53:25.916Z</time>
      </trkpt>
      <trkpt lat="42.02692" lon="9.19583">
        <ele>1284.79</ele>
        <time>2017-06-27T03:53:35.916Z</time>
      </trkpt>
      <trkpt lat="42.0268" lon="9.1959">
        <ele>1285.64</ele>
        <time>2017-06-27T03:53:45.917Z</time>
      </trkpt>
      <trkpt lat="42.02676" lon="9.19597">
        <ele>1287.09</ele>
        <time>2017-06-27T03:53:55.916Z</time>
      </trkpt>
      <trkpt lat="42.02667" lon="9.19602">
        <ele>1287.3</ele>
        <time>2017-06-27T03:54:05.916Z</time>
      </trkpt>
      <trkpt lat="42.02658" lon="9.1961">
        <ele>1288.46</ele>
        <time>2017-06-27T03:54:15.917Z</time>
      </trkpt>
      <trkpt lat="42.02652" lon="9.19619">
        <ele>1289.85</ele>
        <time>2017-06-27T03:54:25.915Z</time>
      </trkpt>
      <trkpt lat="42.02647" lon="9.19626">
        <ele>1291.09</ele>
        <time>2017-06-27T03:54:35.916Z</time>
      </trkpt>
      <trkpt lat="42.02641" lon="9.19635">
        <ele>1291.77</ele>
        <time>2017-06-27T03:54:45.917Z</time>
      </trkpt>
      <trkpt lat="42.02637" lon="9.19647">
        <ele>1292.87</ele>
        <time>2017-06-27T03:54:55.916Z</time>
      </trkpt>
      <trkpt lat="42.02631" lon="9.19658">
        <ele>1293.77</ele>
        <time>2017-06-27T03:55:05.916Z</time>
      </trkpt>
      <trkpt lat="42.02625" lon="9.19665">
        <ele>1294.37</ele>
        <time>2017-06-27T03:55:15.918Z</time>
      </trkpt>
      <trkpt lat="42.02614" lon="9.19676">
        <ele>1295.57</ele>
        <time>2017-06-27T03:55:25.916Z</time>
      </trkpt>
      <trkpt lat="42.02608" lon="9.19683">
        <ele>1296.1</ele>
        <time>2017-06-27T03:55:35.916Z</time>
      </trkpt>
      <trkpt lat="42.02601" lon="9.1969">
        <ele>1296.59</ele>
        <time>2017-06-27T03:55:45.917Z</time>
      </trkpt>
      <trkpt lat="42.02594" lon="9.19697">
        <ele>1297.29</ele>
        <time>2017-06-27T03:55:55.916Z</time>
      </trkpt>
      <trkpt lat="42.02585" lon="9.19711">
        <ele>1298.46</ele>
        <time>2017-06-27T03:56:05.916Z</time>
      </trkpt>
      <trkpt lat="42.02577" lon="9.19717">
        <ele>1299.96</ele>
        <time>2017-06-27T03:56:15.918Z</time>
      </trkpt>
      <trkpt lat="42.02568" lon="9.19721">
        <ele>1301.37</ele>
        <time>2017-06-27T03:56:25.916Z</time>
      </trkpt>
      <trkpt lat="42.02557" lon="9.19725">
        <ele>1302.94</ele>
        <time>2017-06-27T03:56:35.916Z</time>
      </trkpt>
      <trkpt lat="42.02548" lon="9.19729">
        <ele>1304.73</ele>
        <time>2017-06-27T03:56:45.917Z</time>
      </trkpt>
      <trkpt lat="42.02538" lon="9.19732">
        <ele>1306.37</ele>
        <time>2017-06-27T03:56:55.916Z</time>
      </trkpt>
      <trkpt lat="42.02531" lon="9.19739">
        <ele>1308.46</ele>
        <time>2017-06-27T03:57:05.916Z</time>
      </trkpt>
      <trkpt lat="42.02523" lon="9.19746">
        <ele>1309.37</ele>
        <time>2017-06-27T03:57:15.917Z</time>
      </trkpt>
      <trkpt lat="42.02515" lon="9.19752">
        <ele>1310.07</ele>
        <time>2017-06-27T03:57:25.915Z</time>
      </trkpt>
      <trkpt lat="42.02509" lon="9.19757">
        <ele>1310.77</ele>
        <time>2017-06-27T03:57:34.916Z</time>
      </trkpt>
      <trkpt lat="42.02502" lon="9.1976">
        <ele>1312.06</ele>
        <time>2017-06-27T03:57:44.915Z</time>
      </trkpt>
      <trkpt lat="42.02494" lon="9.19763">
        <ele>1313.07</ele>
        <time>2017-06-27T03:57:53.916Z</time>
      </trkpt>
      <trkpt lat="42.02485" lon="9.19767">
        <ele>1313.95</ele>
        <time>2017-06-27T03:58:03.917Z</time>
      </trkpt>
      <trkpt lat="42.02474" lon="9.19768">
        <ele>1315.14</ele>
        <time>2017-06-27T03:58:13.916Z</time>
      </trkpt>
      <trkpt lat="42.02462" lon="9.19767">
        <ele>1316.67</ele>
        <time>2017-06-27T03:58:23.916Z</time>
      </trkpt>
      <trkpt lat="42.02449" lon="9.19768">
        <ele>1317.47</ele>
        <time>2017-06-27T03:58:33.965Z</time>
      </trkpt>
      <trkpt lat="42.02439" lon="9.19768">
        <ele>1318.17</ele>
        <time>2017-06-27T03:58:43.916Z</time>
      </trkpt>
      <trkpt lat="42.02431" lon="9.19772">
        <ele>1319.04</ele>
        <time>2017-06-27T03:58:53.916Z</time>
      </trkpt>
      <trkpt lat="42.02432" lon="9.19776">
        <ele>1319.75</ele>
        <time>2017-06-27T04:00:09.917Z</time>
      </trkpt>
      <trkpt lat="42.02429" lon="9.19778">
        <ele>1320</ele>
        <time>2017-06-27T04:00:19.916Z</time>
      </trkpt>
      <trkpt lat="42.02425" lon="9.19784">
        <ele>1320.07</ele>
        <time>2017-06-27T04:00:29.919Z</time>
      </trkpt>
      <trkpt lat="42.02425" lon="9.19789">
        <ele>1320.3</ele>
        <time>2017-06-27T04:00:38.943Z</time>
      </trkpt>
      <trkpt lat="42.0242" lon="9.19805">
        <ele>1320.87</ele>
        <time>2017-06-27T04:00:48.916Z</time>
      </trkpt>
      <trkpt lat="42.02417" lon="9.19816">
        <ele>1321.19</ele>
        <time>2017-06-27T04:00:57.917Z</time>
      </trkpt>
      <trkpt lat="42.02415" lon="9.19823">
        <ele>1321.49</ele>
        <time>2017-06-27T04:01:07.916Z</time>
      </trkpt>
      <trkpt lat="42.02413" lon="9.19834">
        <ele>1321.77</ele>
        <time>2017-06-27T04:01:17.916Z</time>
      </trkpt>
      <trkpt lat="42.02414" lon="9.1984">
        <ele>1322.2</ele>
        <time>2017-06-27T04:01:27.917Z</time>
      </trkpt>
      <trkpt lat="42.02412" lon="9.19849">
        <ele>1322.57</ele>
        <time>2017-06-27T04:01:38.916Z</time>
      </trkpt>
      <trkpt lat="42.02409" lon="9.19855">
        <ele>1323.09</ele>
        <time>2017-06-27T04:01:48.916Z</time>
      </trkpt>
      <trkpt lat="42.02409" lon="9.19864">
        <ele>1323.56</ele>
        <time>2017-06-27T04:01:57.918Z</time>
      </trkpt>
      <trkpt lat="42.02404" lon="9.19877">
        <ele>1324.39</ele>
        <time>2017-06-27T04:02:07.916Z</time>
      </trkpt>
      <trkpt lat="42.02404" lon="9.19884">
        <ele>1324.99</ele>
        <time>2017-06-27T04:02:17.916Z</time>
      </trkpt>
      <trkpt lat="42.02403" lon="9.19889">
        <ele>1325.67</ele>
        <time>2017-06-27T04:02:26.917Z</time>
      </trkpt>
      <trkpt lat="42.02402" lon="9.19895">
        <ele>1326.2</ele>
        <time>2017-06-27T04:02:36.943Z</time>
      </trkpt>
      <trkpt lat="42.024" lon="9.199">
        <ele>1327.2</ele>
        <time>2017-06-27T04:02:46.916Z</time>
      </trkpt>
      <trkpt lat="42.02403" lon="9.19909">
        <ele>1329.03</ele>
        <time>2017-06-27T04:02:56.916Z</time>
      </trkpt>
      <trkpt lat="42.02408" lon="9.19915">
        <ele>1331.56</ele>
        <time>2017-06-27T04:03:06.916Z</time>
      </trkpt>
      <trkpt lat="42.0241" lon="9.1992">
        <ele>1333.41</ele>
        <time>2017-06-27T04:03:15.918Z</time>
      </trkpt>
      <trkpt lat="42.02414" lon="9.19927">
        <ele>1335.66</ele>
        <time>2017-06-27T04:03:25.916Z</time>
      </trkpt>
      <trkpt lat="42.02419" lon="9.1993">
        <ele>1337.06</ele>
        <time>2017-06-27T04:03:35.916Z</time>
      </trkpt>
      <trkpt lat="42.02428" lon="9.19928">
        <ele>1339.7</ele>
        <time>2017-06-27T04:03:45.918Z</time>
      </trkpt>
      <trkpt lat="42.02434" lon="9.19927">
        <ele>1341.86</ele>
        <time>2017-06-27T04:03:55.916Z</time>
      </trkpt>
      <trkpt lat="42.02439" lon="9.19931">
        <ele>1344.03</ele>
        <time>2017-06-27T04:04:05.916Z</time>
      </trkpt>
      <trkpt lat="42.02443" lon="9.19934">
        <ele>1345.09</ele>
        <time>2017-06-27T04:04:15.918Z</time>
      </trkpt>
      <trkpt lat="42.02446" lon="9.19935">
        <ele>1346.3</ele>
        <time>2017-06-27T04:04:25.916Z</time>
      </trkpt>
      <trkpt lat="42.02452" lon="9.1994">
        <ele>1349.52</ele>
        <time>2017-06-27T04:04:47.916Z</time>
      </trkpt>
      <trkpt lat="42.02458" lon="9.19939">
        <ele>1352.88</ele>
        <time>2017-06-27T04:04:57.917Z</time>
      </trkpt>
      <trkpt lat="42.02462" lon="9.1994">
        <ele>1362.56</ele>
        <time>2017-06-27T04:05:07.916Z</time>
      </trkpt>
      <trkpt lat="42.02468" lon="9.19943">
        <ele>1378.94</ele>
        <time>2017-06-27T04:05:17.915Z</time>
      </trkpt>
      <trkpt lat="42.02477" lon="9.19941">
        <ele>1397.99</ele>
        <time>2017-06-27T04:05:26.916Z</time>
      </trkpt>
      <trkpt lat="42.02489" lon="9.19944">
        <ele>1412.25</ele>
        <time>2017-06-27T04:05:36.915Z</time>
      </trkpt>
      <trkpt lat="42.0249" lon="9.19946">
        <ele>1419.23</ele>
        <time>2017-06-27T04:05:45.917Z</time>
      </trkpt>
      <trkpt lat="42.02496" lon="9.19947">
        <ele>1424.84</ele>
        <time>2017-06-27T04:05:55.916Z</time>
      </trkpt>
      <trkpt lat="42.02505" lon="9.19946">
        <ele>1428.55</ele>
        <time>2017-06-27T04:06:05.916Z</time>
      </trkpt>
      <trkpt lat="42.0251" lon="9.19946">
        <ele>1430.52</ele>
        <time>2017-06-27T04:06:15.917Z</time>
      </trkpt>
      <trkpt lat="42.02517" lon="9.19944">
        <ele>1430.77</ele>
        <time>2017-06-27T04:06:25.916Z</time>
      </trkpt>
      <trkpt lat="42.02517" lon="9.19946">
        <ele>1428.54</ele>
        <time>2017-06-27T04:06:35.918Z</time>
      </trkpt>
      <trkpt lat="42.02518" lon="9.1995">
        <ele>1427.67</ele>
        <time>2017-06-27T04:06:45.918Z</time>
      </trkpt>
      <trkpt lat="42.02519" lon="9.19963">
        <ele>1424.65</ele>
        <time>2017-06-27T04:07:06.916Z</time>
      </trkpt>
      <trkpt lat="42.02519" lon="9.19966">
        <ele>1424.1</ele>
        <time>2017-06-27T04:07:15.917Z</time>
      </trkpt>
      <trkpt lat="42.02528" lon="9.19968">
        <ele>1428.22</ele>
        <time>2017-06-27T04:07:32.916Z</time>
      </trkpt>
      <trkpt lat="42.02534" lon="9.19968">
        <ele>1420.44</ele>
        <time>2017-06-27T04:07:42.916Z</time>
      </trkpt>
      <trkpt lat="42.02543" lon="9.19975">
        <ele>1412.15</ele>
        <time>2017-06-27T04:08:08.916Z</time>
      </trkpt>
      <trkpt lat="42.02545" lon="9.19982">
        <ele>1414.36</ele>
        <time>2017-06-27T04:08:17.917Z</time>
      </trkpt>
      <trkpt lat="42.02551" lon="9.19989">
        <ele>1411.55</ele>
        <time>2017-06-27T04:08:27.918Z</time>
      </trkpt>
      <trkpt lat="42.02555" lon="9.19994">
        <ele>1404.17</ele>
        <time>2017-06-27T04:08:37.916Z</time>
      </trkpt>
      <trkpt lat="42.02558" lon="9.19998">
        <ele>1402.8</ele>
        <time>2017-06-27T04:08:47.916Z</time>
      </trkpt>
      <trkpt lat="42.02566" lon="9.20002">
        <ele>1412.93</ele>
        <time>2017-06-27T04:09:01.916Z</time>
      </trkpt>
      <trkpt lat="42.02567" lon="9.20003">
        <ele>1423</ele>
        <time>2017-06-27T04:09:11.916Z</time>
      </trkpt>
      <trkpt lat="42.02569" lon="9.20007">
        <ele>1451.58</ele>
        <time>2017-06-27T04:09:56.916Z</time>
      </trkpt>
      <trkpt lat="42.02572" lon="9.20006">
        <ele>1450.29</ele>
        <time>2017-06-27T04:10:06.917Z</time>
      </trkpt>
      <trkpt lat="42.02578" lon="9.19996">
        <ele>1439.25</ele>
        <time>2017-06-27T04:10:29.917Z</time>
      </trkpt>
      <trkpt lat="42.02581" lon="9.19993">
        <ele>1435.9</ele>
        <time>2017-06-27T04:10:39.917Z</time>
      </trkpt>
      <trkpt lat="42.02584" lon="9.2">
        <ele>1423.3</ele>
        <time>2017-06-27T04:11:16.919Z</time>
      </trkpt>
      <trkpt lat="42.02583" lon="9.20004">
        <ele>1417.4</ele>
        <time>2017-06-27T04:11:26.915Z</time>
      </trkpt>
      <trkpt lat="42.02583" lon="9.2001">
        <ele>1413.12</ele>
        <time>2017-06-27T04:11:48.916Z</time>
      </trkpt>
      <trkpt lat="42.02582" lon="9.20011">
        <ele>1413.4</ele>
        <time>2017-06-27T04:11:58.914Z</time>
      </trkpt>
      <trkpt lat="42.02583" lon="9.20015">
        <ele>1424.65</ele>
        <time>2017-06-27T04:12:13.916Z</time>
      </trkpt>
      <trkpt lat="42.02585" lon="9.20019">
        <ele>1425.5</ele>
        <time>2017-06-27T04:12:23.916Z</time>
      </trkpt>
      <trkpt lat="42.02591" lon="9.20026">
        <ele>1429.28</ele>
        <time>2017-06-27T04:12:33.918Z</time>
      </trkpt>
      <trkpt lat="42.02595" lon="9.20034">
        <ele>1433.42</ele>
        <time>2017-06-27T04:12:43.916Z</time>
      </trkpt>
      <trkpt lat="42.026" lon="9.20045">
        <ele>1431.6</ele>
        <time>2017-06-27T04:12:53.916Z</time>
      </trkpt>
      <trkpt lat="42.02604" lon="9.20057">
        <ele>1426.84</ele>
        <time>2017-06-27T04:13:03.918Z</time>
      </trkpt>
      <trkpt lat="42.02607" lon="9.20066">
        <ele>1427.46</ele>
        <time>2017-06-27T04:13:13.916Z</time>
      </trkpt>
      <trkpt lat="42.02613" lon="9.20076">
        <ele>1430.6</ele>
        <time>2017-06-27T04:13:23.916Z</time>
      </trkpt>
      <trkpt lat="42.0262" lon="9.20083">
        <ele>1435.76</ele>
        <time>2017-06-27T04:13:33.917Z</time>
      </trkpt>
      <trkpt lat="42.02627" lon="9.20089">
        <ele>1439.85</ele>
        <time>2017-06-27T04:13:43.916Z</time>
      </trkpt>
      <trkpt lat="42.02636" lon="9.20088">
        <ele>1444.8</ele>
        <time>2017-06-27T04:13:53.916Z</time>
      </trkpt>
      <trkpt lat="42.02644" lon="9.20091">
        <ele>1448.16</ele>
        <time>2017-06-27T04:14:02.945Z</time>
      </trkpt>
      <trkpt lat="42.02649" lon="9.20094">
        <ele>1449.47</ele>
        <time>2017-06-27T04:14:12.916Z</time>
      </trkpt>
      <trkpt lat="42.02657" lon="9.20097">
        <ele>1452.43</ele>
        <time>2017-06-27T04:14:21.917Z</time>
      </trkpt>
      <trkpt lat="42.02663" lon="9.20103">
        <ele>1456.01</ele>
        <time>2017-06-27T04:14:31.916Z</time>
      </trkpt>
      <trkpt lat="42.0267" lon="9.20112">
        <ele>1454.15</ele>
        <time>2017-06-27T04:14:41.916Z</time>
      </trkpt>
      <trkpt lat="42.02675" lon="9.20123">
        <ele>1453.67</ele>
        <time>2017-06-27T04:14:51.918Z</time>
      </trkpt>
      <trkpt lat="42.02679" lon="9.20135">
        <ele>1449.03</ele>
        <time>2017-06-27T04:15:01.916Z</time>
      </trkpt>
      <trkpt lat="42.02682" lon="9.20144">
        <ele>1451.06</ele>
        <time>2017-06-27T04:15:11.916Z</time>
      </trkpt>
      <trkpt lat="42.02687" lon="9.20153">
        <ele>1455.99</ele>
        <time>2017-06-27T04:15:21.917Z</time>
      </trkpt>
      <trkpt lat="42.02688" lon="9.20158">
        <ele>1462.12</ele>
        <time>2017-06-27T04:15:31.948Z</time>
      </trkpt>
      <trkpt lat="42.02688" lon="9.20166">
        <ele>1467.05</ele>
        <time>2017-06-27T04:15:42.916Z</time>
      </trkpt>
      <trkpt lat="42.02689" lon="9.20174">
        <ele>1467.27</ele>
        <time>2017-06-27T04:15:51.918Z</time>
      </trkpt>
      <trkpt lat="42.0269" lon="9.20183">
        <ele>1464.27</ele>
        <time>2017-06-27T04:16:01.916Z</time>
      </trkpt>
      <trkpt lat="42.02687" lon="9.20193">
        <ele>1461.54</ele>
        <time>2017-06-27T04:16:11.916Z</time>
      </trkpt>
      <trkpt lat="42.02685" lon="9.20208">
        <ele>1462.99</ele>
        <time>2017-06-27T04:16:21.918Z</time>
      </trkpt>
      <trkpt lat="42.0268" lon="9.20212">
        <ele>1465.71</ele>
        <time>2017-06-27T04:16:31.914Z</time>
      </trkpt>
      <trkpt lat="42.02674" lon="9.20216">
        <ele>1462.88</ele>
        <time>2017-06-27T04:16:40.916Z</time>
      </trkpt>
      <trkpt lat="42.02672" lon="9.20222">
        <ele>1462.49</ele>
        <time>2017-06-27T04:16:50.916Z</time>
      </trkpt>
      <trkpt lat="42.02666" lon="9.20227">
        <ele>1467.02</ele>
        <time>2017-06-27T04:16:59.917Z</time>
      </trkpt>
      <trkpt lat="42.02663" lon="9.20233">
        <ele>1467.91</ele>
        <time>2017-06-27T04:17:09.918Z</time>
      </trkpt>
      <trkpt lat="42.02659" lon="9.20239">
        <ele>1469.4</ele>
        <time>2017-06-27T04:17:19.916Z</time>
      </trkpt>
      <trkpt lat="42.02655" lon="9.20247">
        <ele>1473.52</ele>
        <time>2017-06-27T04:17:34.916Z</time>
      </trkpt>
      <trkpt lat="42.02652" lon="9.20253">
        <ele>1475.91</ele>
        <time>2017-06-27T04:17:44.916Z</time>
      </trkpt>
      <trkpt lat="42.02652" lon="9.20262">
        <ele>1476</ele>
        <time>2017-06-27T04:17:54.916Z</time>
      </trkpt>
      <trkpt lat="42.02652" lon="9.20273">
        <ele>1476.78</ele>
        <time>2017-06-27T04:18:03.918Z</time>
      </trkpt>
      <trkpt lat="42.02652" lon="9.20282">
        <ele>1476.29</ele>
        <time>2017-06-27T04:18:13.916Z</time>
      </trkpt>
      <trkpt lat="42.02651" lon="9.2029">
        <ele>1475.76</ele>
        <time>2017-06-27T04:18:23.916Z</time>
      </trkpt>
      <trkpt lat="42.02648" lon="9.20296">
        <ele>1476.85</ele>
        <time>2017-06-27T04:18:33.918Z</time>
      </trkpt>
      <trkpt lat="42.02645" lon="9.20302">
        <ele>1477.83</ele>
        <time>2017-06-27T04:18:43.916Z</time>
      </trkpt>
      <trkpt lat="42.02643" lon="9.20306">
        <ele>1478.63</ele>
        <time>2017-06-27T04:18:53.915Z</time>
      </trkpt>
      <trkpt lat="42.02639" lon="9.20312">
        <ele>1480.29</ele>
        <time>2017-06-27T04:19:02.917Z</time>
      </trkpt>
      <trkpt lat="42.02638" lon="9.2032">
        <ele>1481.81</ele>
        <time>2017-06-27T04:19:12.916Z</time>
      </trkpt>
      <trkpt lat="42.02638" lon="9.20329">
        <ele>1481.2</ele>
        <time>2017-06-27T04:19:21.918Z</time>
      </trkpt>
      <trkpt lat="42.02635" lon="9.20335">
        <ele>1482.36</ele>
        <time>2017-06-27T04:19:31.916Z</time>
      </trkpt>
      <trkpt lat="42.02636" lon="9.2034">
        <ele>1483.1</ele>
        <time>2017-06-27T04:19:41.916Z</time>
      </trkpt>
      <trkpt lat="42.02637" lon="9.20349">
        <ele>1485.45</ele>
        <time>2017-06-27T04:19:51.945Z</time>
      </trkpt>
      <trkpt lat="42.02636" lon="9.20357">
        <ele>1485.2</ele>
        <time>2017-06-27T04:20:01.916Z</time>
      </trkpt>
      <trkpt lat="42.02634" lon="9.20368">
        <ele>1486.36</ele>
        <time>2017-06-27T04:20:11.916Z</time>
      </trkpt>
      <trkpt lat="42.02631" lon="9.20377">
        <ele>1491.26</ele>
        <time>2017-06-27T04:20:21.917Z</time>
      </trkpt>
      <trkpt lat="42.0263" lon="9.20383">
        <ele>1495.12</ele>
        <time>2017-06-27T04:20:31.915Z</time>
      </trkpt>
      <trkpt lat="42.02626" lon="9.2039">
        <ele>1498.2</ele>
        <time>2017-06-27T04:20:41.916Z</time>
      </trkpt>
      <trkpt lat="42.02622" lon="9.204">
        <ele>1500.19</ele>
        <time>2017-06-27T04:20:51.917Z</time>
      </trkpt>
      <trkpt lat="42.02617" lon="9.2041">
        <ele>1500.42</ele>
        <time>2017-06-27T04:21:01.915Z</time>
      </trkpt>
      <trkpt lat="42.02615" lon="9.20418">
        <ele>1501.44</ele>
        <time>2017-06-27T04:21:10.916Z</time>
      </trkpt>
      <trkpt lat="42.02616" lon="9.20428">
        <ele>1502.61</ele>
        <time>2017-06-27T04:21:20.915Z</time>
      </trkpt>
      <trkpt lat="42.02615" lon="9.20437">
        <ele>1504.89</ele>
        <time>2017-06-27T04:21:30.915Z</time>
      </trkpt>
      <trkpt lat="42.02614" lon="9.2044">
        <ele>1504.5</ele>
        <time>2017-06-27T04:21:39.918Z</time>
      </trkpt>
      <trkpt lat="42.02607" lon="9.2045">
        <ele>1504.59</ele>
        <time>2017-06-27T04:21:49.915Z</time>
      </trkpt>
      <trkpt lat="42.02607" lon="9.20455">
        <ele>1506.86</ele>
        <time>2017-06-27T04:21:59.916Z</time>
      </trkpt>
      <trkpt lat="42.02611" lon="9.20471">
        <ele>1506.42</ele>
        <time>2017-06-27T04:22:09.917Z</time>
      </trkpt>
      <trkpt lat="42.02618" lon="9.20486">
        <ele>1502.07</ele>
        <time>2017-06-27T04:22:19.916Z</time>
      </trkpt>
      <trkpt lat="42.02624" lon="9.20499">
        <ele>1500.51</ele>
        <time>2017-06-27T04:22:29.916Z</time>
      </trkpt>
      <trkpt lat="42.02628" lon="9.20512">
        <ele>1499.91</ele>
        <time>2017-06-27T04:22:39.917Z</time>
      </trkpt>
      <trkpt lat="42.02631" lon="9.20523">
        <ele>1501.14</ele>
        <time>2017-06-27T04:22:49.916Z</time>
      </trkpt>
      <trkpt lat="42.02633" lon="9.20535">
        <ele>1502.82</ele>
        <time>2017-06-27T04:22:59.916Z</time>
      </trkpt>
      <trkpt lat="42.02637" lon="9.20545">
        <ele>1502.13</ele>
        <time>2017-06-27T04:23:09.917Z</time>
      </trkpt>
      <trkpt lat="42.02642" lon="9.20554">
        <ele>1499.81</ele>
        <time>2017-06-27T04:23:19.917Z</time>
      </trkpt>
      <trkpt lat="42.02647" lon="9.20565">
        <ele>1498.27</ele>
        <time>2017-06-27T04:23:29.916Z</time>
      </trkpt>
      <trkpt lat="42.02653" lon="9.20574">
        <ele>1499.66</ele>
        <time>2017-06-27T04:23:39.918Z</time>
      </trkpt>
      <trkpt lat="42.02658" lon="9.20579">
        <ele>1495.86</ele>
        <time>2017-06-27T04:23:49.916Z</time>
      </trkpt>
      <trkpt lat="42.02664" lon="9.20579">
        <ele>1494.85</ele>
        <time>2017-06-27T04:23:59.916Z</time>
      </trkpt>
      <trkpt lat="42.02666" lon="9.2058">
        <ele>1495.5</ele>
        <time>2017-06-27T04:24:09.917Z</time>
      </trkpt>
      <trkpt lat="42.02677" lon="9.2058">
        <ele>1497.95</ele>
        <time>2017-06-27T04:24:19.916Z</time>
      </trkpt>
      <trkpt lat="42.02687" lon="9.20583">
        <ele>1498.59</ele>
        <time>2017-06-27T04:24:29.916Z</time>
      </trkpt>
      <trkpt lat="42.02698" lon="9.20587">
        <ele>1497.06</ele>
        <time>2017-06-27T04:24:39.917Z</time>
      </trkpt>
      <trkpt lat="42.02707" lon="9.20588">
        <ele>1494.93</ele>
        <time>2017-06-27T04:24:49.916Z</time>
      </trkpt>
      <trkpt lat="42.02715" lon="9.20594">
        <ele>1495.22</ele>
        <time>2017-06-27T04:24:58.917Z</time>
      </trkpt>
      <trkpt lat="42.02717" lon="9.2061">
        <ele>1491.39</ele>
        <time>2017-06-27T04:25:08.916Z</time>
      </trkpt>
      <trkpt lat="42.02722" lon="9.20619">
        <ele>1489.47</ele>
        <time>2017-06-27T04:25:18.917Z</time>
      </trkpt>
      <trkpt lat="42.02724" lon="9.2063">
        <ele>1489.09</ele>
        <time>2017-06-27T04:25:27.920Z</time>
      </trkpt>
      <trkpt lat="42.02723" lon="9.20633">
        <ele>1489.7</ele>
        <time>2017-06-27T04:25:37.916Z</time>
      </trkpt>
      <trkpt lat="42.02724" lon="9.20633">
        <ele>1496.98</ele>
        <time>2017-06-27T04:28:32.917Z</time>
      </trkpt>
      <trkpt lat="42.0272" lon="9.20635">
        <ele>1500.55</ele>
        <time>2017-06-27T04:28:42.916Z</time>
      </trkpt>
      <trkpt lat="42.02718" lon="9.20644">
        <ele>1500.67</ele>
        <time>2017-06-27T04:28:51.917Z</time>
      </trkpt>
      <trkpt lat="42.0271" lon="9.20654">
        <ele>1495.43</ele>
        <time>2017-06-27T04:29:01.915Z</time>
      </trkpt>
      <trkpt lat="42.02701" lon="9.20658">
        <ele>1494.18</ele>
        <time>2017-06-27T04:29:10.917Z</time>
      </trkpt>
      <trkpt lat="42.02695" lon="9.20672">
        <ele>1486.78</ele>
        <time>2017-06-27T04:29:20.916Z</time>
      </trkpt>
      <trkpt lat="42.02686" lon="9.20682">
        <ele>1480.46</ele>
        <time>2017-06-27T04:29:30.916Z</time>
      </trkpt>
      <trkpt lat="42.02679" lon="9.20689">
        <ele>1478.01</ele>
        <time>2017-06-27T04:29:39.918Z</time>
      </trkpt>
      <trkpt lat="42.0267" lon="9.207">
        <ele>1481.31</ele>
        <time>2017-06-27T04:29:49.916Z</time>
      </trkpt>
      <trkpt lat="42.02662" lon="9.20707">
        <ele>1484.81</ele>
        <time>2017-06-27T04:29:59.917Z</time>
      </trkpt>
      <trkpt lat="42.02657" lon="9.20716">
        <ele>1487.15</ele>
        <time>2017-06-27T04:30:09.918Z</time>
      </trkpt>
      <trkpt lat="42.02652" lon="9.20728">
        <ele>1489.22</ele>
        <time>2017-06-27T04:30:19.916Z</time>
      </trkpt>
      <trkpt lat="42.02647" lon="9.20741">
        <ele>1485.1</ele>
        <time>2017-06-27T04:30:29.915Z</time>
      </trkpt>
      <trkpt lat="42.02642" lon="9.2075">
        <ele>1484.66</ele>
        <time>2017-06-27T04:30:39.916Z</time>
      </trkpt>
      <trkpt lat="42.02633" lon="9.20758">
        <ele>1486.33</ele>
        <time>2017-06-27T04:30:49.913Z</time>
      </trkpt>
      <trkpt lat="42.0263" lon="9.20763">
        <ele>1488.53</ele>
        <time>2017-06-27T04:30:58.915Z</time>
      </trkpt>
      <trkpt lat="42.02626" lon="9.20773">
        <ele>1489.88</ele>
        <time>2017-06-27T04:31:08.915Z</time>
      </trkpt>
      <trkpt lat="42.0262" lon="9.20787">
        <ele>1488.56</ele>
        <time>2017-06-27T04:31:18.915Z</time>
      </trkpt>
      <trkpt lat="42.02617" lon="9.2079">
        <ele>1489.61</ele>
        <time>2017-06-27T04:31:27.916Z</time>
      </trkpt>
      <trkpt lat="42.0261" lon="9.20798">
        <ele>1491.97</ele>
        <time>2017-06-27T04:31:37.914Z</time>
      </trkpt>
      <trkpt lat="42.02599" lon="9.20807">
        <ele>1492.51</ele>
        <time>2017-06-27T04:31:47.914Z</time>
      </trkpt>
      <trkpt lat="42.02591" lon="9.20814">
        <ele>1492.98</ele>
        <time>2017-06-27T04:31:57.916Z</time>
      </trkpt>
      <trkpt lat="42.02586" lon="9.20818">
        <ele>1492.77</ele>
        <time>2017-06-27T04:32:06.932Z</time>
      </trkpt>
      <trkpt lat="42.02585" lon="9.20832">
        <ele>1503.98</ele>
        <time>2017-06-27T04:32:15.933Z</time>
      </trkpt>
      <trkpt lat="42.02582" lon="9.20851">
        <ele>1503.94</ele>
        <time>2017-06-27T04:32:25.933Z</time>
      </trkpt>
      <trkpt lat="42.02584" lon="9.20863">
        <ele>1506.84</ele>
        <time>2017-06-27T04:32:35.914Z</time>
      </trkpt>
      <trkpt lat="42.02585" lon="9.20879">
        <ele>1495.87</ele>
        <time>2017-06-27T04:32:45.916Z</time>
      </trkpt>
      <trkpt lat="42.02585" lon="9.20891">
        <ele>1489.56</ele>
        <time>2017-06-27T04:32:55.914Z</time>
      </trkpt>
      <trkpt lat="42.02578" lon="9.20906">
        <ele>1483.87</ele>
        <time>2017-06-27T04:33:04.915Z</time>
      </trkpt>
      <trkpt lat="42.02571" lon="9.20909">
        <ele>1491.2</ele>
        <time>2017-06-27T04:33:14.915Z</time>
      </trkpt>
      <trkpt lat="42.02567" lon="9.20908">
        <ele>1493.29</ele>
        <time>2017-06-27T04:33:24.914Z</time>
      </trkpt>
      <trkpt lat="42.0256" lon="9.2091">
        <ele>1492.71</ele>
        <time>2017-06-27T04:33:33.917Z</time>
      </trkpt>
      <trkpt lat="42.02552" lon="9.20917">
        <ele>1489.35</ele>
        <time>2017-06-27T04:33:43.915Z</time>
      </trkpt>
      <trkpt lat="42.02546" lon="9.20917">
        <ele>1489.46</ele>
        <time>2017-06-27T04:33:53.915Z</time>
      </trkpt>
      <trkpt lat="42.02536" lon="9.20917">
        <ele>1490.08</ele>
        <time>2017-06-27T04:34:03.916Z</time>
      </trkpt>
      <trkpt lat="42.02526" lon="9.2092">
        <ele>1493.18</ele>
        <time>2017-06-27T04:34:13.914Z</time>
      </trkpt>
      <trkpt lat="42.02516" lon="9.20926">
        <ele>1497.78</ele>
        <time>2017-06-27T04:34:22.915Z</time>
      </trkpt>
      <trkpt lat="42.02512" lon="9.20929">
        <ele>1500.11</ele>
        <time>2017-06-27T04:34:32.914Z</time>
      </trkpt>
      <trkpt lat="42.02506" lon="9.20933">
        <ele>1500.07</ele>
        <time>2017-06-27T04:34:41.915Z</time>
      </trkpt>
      <trkpt lat="42.02501" lon="9.20942">
        <ele>1498.86</ele>
        <time>2017-06-27T04:34:51.916Z</time>
      </trkpt>
      <trkpt lat="42.02493" lon="9.20949">
        <ele>1504.73</ele>
        <time>2017-06-27T04:35:00.935Z</time>
      </trkpt>
      <trkpt lat="42.02488" lon="9.20954">
        <ele>1507.12</ele>
        <time>2017-06-27T04:35:10.914Z</time>
      </trkpt>
      <trkpt lat="42.02485" lon="9.20961">
        <ele>1506.89</ele>
        <time>2017-06-27T04:35:19.915Z</time>
      </trkpt>
      <trkpt lat="42.02481" lon="9.20974">
        <ele>1506.55</ele>
        <time>2017-06-27T04:35:29.983Z</time>
      </trkpt>
      <trkpt lat="42.02474" lon="9.20982">
        <ele>1503.68</ele>
        <time>2017-06-27T04:35:39.916Z</time>
      </trkpt>
      <trkpt lat="42.02466" lon="9.20993">
        <ele>1502.8</ele>
        <time>2017-06-27T04:35:49.914Z</time>
      </trkpt>
      <trkpt lat="42.02463" lon="9.20999">
        <ele>1504.4</ele>
        <time>2017-06-27T04:35:58.915Z</time>
      </trkpt>
      <trkpt lat="42.02457" lon="9.21004">
        <ele>1505.13</ele>
        <time>2017-06-27T04:36:08.915Z</time>
      </trkpt>
      <trkpt lat="42.02451" lon="9.21006">
        <ele>1506</ele>
        <time>2017-06-27T04:36:18.914Z</time>
      </trkpt>
      <trkpt lat="42.02446" lon="9.21005">
        <ele>1508.16</ele>
        <time>2017-06-27T04:36:27.916Z</time>
      </trkpt>
      <trkpt lat="42.0244" lon="9.21002">
        <ele>1509.93</ele>
        <time>2017-06-27T04:36:37.915Z</time>
      </trkpt>
      <trkpt lat="42.02439" lon="9.21">
        <ele>1507.43</ele>
        <time>2017-06-27T04:36:47.915Z</time>
      </trkpt>
      <trkpt lat="42.02437" lon="9.20995">
        <ele>1506.87</ele>
        <time>2017-06-27T04:36:57.916Z</time>
      </trkpt>
      <trkpt lat="42.02432" lon="9.2099">
        <ele>1503.29</ele>
        <time>2017-06-27T04:37:07.915Z</time>
      </trkpt>
      <trkpt lat="42.02423" lon="9.20982">
        <ele>1505.37</ele>
        <time>2017-06-27T04:37:17.915Z</time>
      </trkpt>
      <trkpt lat="42.02415" lon="9.20979">
        <ele>1505.11</ele>
        <time>2017-06-27T04:37:27.916Z</time>
      </trkpt>
      <trkpt lat="42.02407" lon="9.20978">
        <ele>1504.27</ele>
        <time>2017-06-27T04:37:37.915Z</time>
      </trkpt>
      <trkpt lat="42.02397" lon="9.20979">
        <ele>1504.83</ele>
        <time>2017-06-27T04:37:47.915Z</time>
      </trkpt>
      <trkpt lat="42.02388" lon="9.20981">
        <ele>1504.11</ele>
        <time>2017-06-27T04:37:57.917Z</time>
      </trkpt>
      <trkpt lat="42.02382" lon="9.20986">
        <ele>1503.5</ele>
        <time>2017-06-27T04:38:07.915Z</time>
      </trkpt>
      <trkpt lat="42.02375" lon="9.20988">
        <ele>1503.9</ele>
        <time>2017-06-27T04:38:17.915Z</time>
      </trkpt>
      <trkpt lat="42.02367" lon="9.2099">
        <ele>1502.23</ele>
        <time>2017-06-27T04:38:27.916Z</time>
      </trkpt>
      <trkpt lat="42.0236" lon="9.20993">
        <ele>1503.17</ele>
        <time>2017-06-27T04:38:37.914Z</time>
      </trkpt>
      <trkpt lat="42.02351" lon="9.20998">
        <ele>1504.28</ele>
        <time>2017-06-27T04:38:47.915Z</time>
      </trkpt>
      <trkpt lat="42.02343" lon="9.21005">
        <ele>1508.74</ele>
        <time>2017-06-27T04:38:57.916Z</time>
      </trkpt>
      <trkpt lat="42.02337" lon="9.21011">
        <ele>1510.94</ele>
        <time>2017-06-27T04:39:07.915Z</time>
      </trkpt>
      <trkpt lat="42.02328" lon="9.21013">
        <ele>1515.86</ele>
        <time>2017-06-27T04:39:17.915Z</time>
      </trkpt>
      <trkpt lat="42.02328" lon="9.21009">
        <ele>1518.37</ele>
        <time>2017-06-27T04:39:27.917Z</time>
      </trkpt>
      <trkpt lat="42.02326" lon="9.21009">
        <ele>1521.7</ele>
        <time>2017-06-27T04:39:37.915Z</time>
      </trkpt>
      <trkpt lat="42.02317" lon="9.21006">
        <ele>1522.75</ele>
        <time>2017-06-27T04:39:57.917Z</time>
      </trkpt>
      <trkpt lat="42.02308" lon="9.21002">
        <ele>1517.5</ele>
        <time>2017-06-27T04:40:07.915Z</time>
      </trkpt>
      <trkpt lat="42.02301" lon="9.21">
        <ele>1518.43</ele>
        <time>2017-06-27T04:40:17.915Z</time>
      </trkpt>
      <trkpt lat="42.02297" lon="9.20999">
        <ele>1520.6</ele>
        <time>2017-06-27T04:40:27.916Z</time>
      </trkpt>
      <trkpt lat="42.02296" lon="9.20996">
        <ele>1526.75</ele>
        <time>2017-06-27T04:41:34.915Z</time>
      </trkpt>
      <trkpt lat="42.0229" lon="9.20998">
        <ele>1529.34</ele>
        <time>2017-06-27T04:41:44.935Z</time>
      </trkpt>
      <trkpt lat="42.02288" lon="9.20997">
        <ele>1529.4</ele>
        <time>2017-06-27T04:41:54.915Z</time>
      </trkpt>
      <trkpt lat="42.02287" lon="9.20989">
        <ele>1527.3</ele>
        <time>2017-06-27T04:42:05.915Z</time>
      </trkpt>
      <trkpt lat="42.02289" lon="9.20984">
        <ele>1527.99</ele>
        <time>2017-06-27T04:42:15.916Z</time>
      </trkpt>
      <trkpt lat="42.02287" lon="9.2098">
        <ele>1527.63</ele>
        <time>2017-06-27T04:42:25.914Z</time>
      </trkpt>
      <trkpt lat="42.02281" lon="9.20975">
        <ele>1527.52</ele>
        <time>2017-06-27T04:42:42.915Z</time>
      </trkpt>
      <trkpt lat="42.0227" lon="9.20972">
        <ele>1525.24</ele>
        <time>2017-06-27T04:42:51.916Z</time>
      </trkpt>
      <trkpt lat="42.02264" lon="9.20964">
        <ele>1527.79</ele>
        <time>2017-06-27T04:43:01.914Z</time>
      </trkpt>
      <trkpt lat="42.02262" lon="9.2096">
        <ele>1531.3</ele>
        <time>2017-06-27T04:43:10.915Z</time>
      </trkpt>
      <trkpt lat="42.0226" lon="9.20952">
        <ele>1537</ele>
        <time>2017-06-27T04:43:20.915Z</time>
      </trkpt>
      <trkpt lat="42.02257" lon="9.20951">
        <ele>1541.3</ele>
        <time>2017-06-27T04:43:30.915Z</time>
      </trkpt>
      <trkpt lat="42.02254" lon="9.20946">
        <ele>1538.9</ele>
        <time>2017-06-27T04:43:57.917Z</time>
      </trkpt>
      <trkpt lat="42.02248" lon="9.20942">
        <ele>1540.85</ele>
        <time>2017-06-27T04:44:07.915Z</time>
      </trkpt>
      <trkpt lat="42.02244" lon="9.20941">
        <ele>1542.1</ele>
        <time>2017-06-27T04:44:17.915Z</time>
      </trkpt>
      <trkpt lat="42.02237" lon="9.20934">
        <ele>1542.48</ele>
        <time>2017-06-27T04:44:33.916Z</time>
      </trkpt>
      <trkpt lat="42.02235" lon="9.20928">
        <ele>1541</ele>
        <time>2017-06-27T04:44:43.915Z</time>
      </trkpt>
      <trkpt lat="42.02234" lon="9.2092">
        <ele>1541.62</ele>
        <time>2017-06-27T04:44:53.915Z</time>
      </trkpt>
      <trkpt lat="42.02231" lon="9.20912">
        <ele>1541.68</ele>
        <time>2017-06-27T04:45:03.917Z</time>
      </trkpt>
      <trkpt lat="42.02229" lon="9.20905">
        <ele>1543.4</ele>
        <time>2017-06-27T04:45:13.914Z</time>
      </trkpt>
      <trkpt lat="42.02219" lon="9.20899">
        <ele>1546.04</ele>
        <time>2017-06-27T04:45:23.915Z</time>
      </trkpt>
      <trkpt lat="42.02212" lon="9.20901">
        <ele>1546.3</ele>
        <time>2017-06-27T04:45:33.916Z</time>
      </trkpt>
      <trkpt lat="42.02204" lon="9.20903">
        <ele>1546.3</ele>
        <time>2017-06-27T04:45:49.914Z</time>
      </trkpt>
      <trkpt lat="42.02199" lon="9.20904">
        <ele>1548.35</ele>
        <time>2017-06-27T04:45:58.915Z</time>
      </trkpt>
      <trkpt lat="42.02194" lon="9.20913">
        <ele>1548.17</ele>
        <time>2017-06-27T04:46:08.915Z</time>
      </trkpt>
      <trkpt lat="42.0219" lon="9.2092">
        <ele>1549.6</ele>
        <time>2017-06-27T04:46:18.915Z</time>
      </trkpt>
      <trkpt lat="42.02186" lon="9.20921">
        <ele>1551.27</ele>
        <time>2017-06-27T04:46:27.917Z</time>
      </trkpt>
      <trkpt lat="42.02178" lon="9.20927">
        <ele>1556.48</ele>
        <time>2017-06-27T04:46:49.915Z</time>
      </trkpt>
      <trkpt lat="42.02176" lon="9.2093">
        <ele>1558.42</ele>
        <time>2017-06-27T04:46:59.914Z</time>
      </trkpt>
      <trkpt lat="42.02171" lon="9.20932">
        <ele>1567.37</ele>
        <time>2017-06-27T04:47:18.916Z</time>
      </trkpt>
      <trkpt lat="42.02167" lon="9.20932">
        <ele>1570.9</ele>
        <time>2017-06-27T04:47:28.914Z</time>
      </trkpt>
      <trkpt lat="42.02162" lon="9.20937">
        <ele>1571.51</ele>
        <time>2017-06-27T04:47:37.915Z</time>
      </trkpt>
      <trkpt lat="42.02159" lon="9.2094">
        <ele>1571.48</ele>
        <time>2017-06-27T04:47:47.914Z</time>
      </trkpt>
      <trkpt lat="42.02158" lon="9.20941">
        <ele>1576.12</ele>
        <time>2017-06-27T04:48:12.915Z</time>
      </trkpt>
      <trkpt lat="42.02153" lon="9.20935">
        <ele>1576.63</ele>
        <time>2017-06-27T04:48:21.917Z</time>
      </trkpt>
      <trkpt lat="42.02152" lon="9.20934">
        <ele>1577</ele>
        <time>2017-06-27T04:48:31.914Z</time>
      </trkpt>
      <trkpt lat="42.02146" lon="9.20934">
        <ele>1579.1</ele>
        <time>2017-06-27T04:48:40.915Z</time>
      </trkpt>
      <trkpt lat="42.02145" lon="9.20934">
        <ele>1578</ele>
        <time>2017-06-27T04:48:50.914Z</time>
      </trkpt>
      <trkpt lat="42.02141" lon="9.20941">
        <ele>1579.6</ele>
        <time>2017-06-27T04:48:59.915Z</time>
      </trkpt>
      <trkpt lat="42.02138" lon="9.20941">
        <ele>1579.79</ele>
        <time>2017-06-27T04:49:09.916Z</time>
      </trkpt>
      <trkpt lat="42.02134" lon="9.20945">
        <ele>1581.1</ele>
        <time>2017-06-27T04:49:19.915Z</time>
      </trkpt>
      <trkpt lat="42.02132" lon="9.20947">
        <ele>1583.1</ele>
        <time>2017-06-27T04:49:29.915Z</time>
      </trkpt>
      <trkpt lat="42.0213" lon="9.2095">
        <ele>1586.86</ele>
        <time>2017-06-27T04:49:39.916Z</time>
      </trkpt>
      <trkpt lat="42.02124" lon="9.20958">
        <ele>1588.62</ele>
        <time>2017-06-27T04:49:59.915Z</time>
      </trkpt>
      <trkpt lat="42.02123" lon="9.20959">
        <ele>1592.5</ele>
        <time>2017-06-27T04:50:09.934Z</time>
      </trkpt>
      <trkpt lat="42.02117" lon="9.20974">
        <ele>1596.68</ele>
        <time>2017-06-27T04:50:19.916Z</time>
      </trkpt>
      <trkpt lat="42.02112" lon="9.20982">
        <ele>1599.39</ele>
        <time>2017-06-27T04:50:30.034Z</time>
      </trkpt>
      <trkpt lat="42.02107" lon="9.20985">
        <ele>1600.48</ele>
        <time>2017-06-27T04:50:39.917Z</time>
      </trkpt>
      <trkpt lat="42.02105" lon="9.20988">
        <ele>1603</ele>
        <time>2017-06-27T04:50:49.915Z</time>
      </trkpt>
      <trkpt lat="42.02102" lon="9.20994">
        <ele>1603.74</ele>
        <time>2017-06-27T04:50:59.915Z</time>
      </trkpt>
      <trkpt lat="42.02102" lon="9.21003">
        <ele>1603.97</ele>
        <time>2017-06-27T04:51:09.917Z</time>
      </trkpt>
      <trkpt lat="42.02102" lon="9.2101">
        <ele>1604.88</ele>
        <time>2017-06-27T04:51:19.943Z</time>
      </trkpt>
      <trkpt lat="42.02095" lon="9.21022">
        <ele>1605.75</ele>
        <time>2017-06-27T04:51:29.915Z</time>
      </trkpt>
      <trkpt lat="42.02092" lon="9.21031">
        <ele>1609.65</ele>
        <time>2017-06-27T04:51:39.917Z</time>
      </trkpt>
      <trkpt lat="42.02088" lon="9.21032">
        <ele>1615.6</ele>
        <time>2017-06-27T04:52:06.915Z</time>
      </trkpt>
      <trkpt lat="42.02085" lon="9.21037">
        <ele>1620.95</ele>
        <time>2017-06-27T04:52:15.917Z</time>
      </trkpt>
      <trkpt lat="42.0208" lon="9.21046">
        <ele>1624.8</ele>
        <time>2017-06-27T04:52:25.915Z</time>
      </trkpt>
      <trkpt lat="42.02075" lon="9.21052">
        <ele>1627.5</ele>
        <time>2017-06-27T04:52:35.915Z</time>
      </trkpt>
      <trkpt lat="42.02071" lon="9.21057">
        <ele>1626.98</ele>
        <time>2017-06-27T04:52:45.917Z</time>
      </trkpt>
      <trkpt lat="42.02068" lon="9.21057">
        <ele>1628.9</ele>
        <time>2017-06-27T04:52:55.915Z</time>
      </trkpt>
      <trkpt lat="42.02065" lon="9.21059">
        <ele>1632.29</ele>
        <time>2017-06-27T04:53:05.915Z</time>
      </trkpt>
      <trkpt lat="42.02062" lon="9.21063">
        <ele>1634.78</ele>
        <time>2017-06-27T04:53:15.917Z</time>
      </trkpt>
      <trkpt lat="42.02057" lon="9.21071">
        <ele>1632.97</ele>
        <time>2017-06-27T04:53:25.915Z</time>
      </trkpt>
      <trkpt lat="42.02052" lon="9.21083">
        <ele>1627.5</ele>
        <time>2017-06-27T04:53:35.915Z</time>
      </trkpt>
      <trkpt lat="42.02048" lon="9.21091">
        <ele>1627.51</ele>
        <time>2017-06-27T04:53:45.917Z</time>
      </trkpt>
      <trkpt lat="42.02045" lon="9.21097">
        <ele>1629.19</ele>
        <time>2017-06-27T04:53:55.915Z</time>
      </trkpt>
      <trkpt lat="42.02043" lon="9.21106">
        <ele>1632.87</ele>
        <time>2017-06-27T04:54:05.916Z</time>
      </trkpt>
      <trkpt lat="42.02042" lon="9.21111">
        <ele>1632.4</ele>
        <time>2017-06-27T04:54:15.917Z</time>
      </trkpt>
      <trkpt lat="42.02036" lon="9.21122">
        <ele>1629.18</ele>
        <time>2017-06-27T04:54:25.915Z</time>
      </trkpt>
      <trkpt lat="42.02033" lon="9.21131">
        <ele>1627.04</ele>
        <time>2017-06-27T04:54:35.916Z</time>
      </trkpt>
      <trkpt lat="42.02028" lon="9.21139">
        <ele>1628.19</ele>
        <time>2017-06-27T04:54:45.917Z</time>
      </trkpt>
      <trkpt lat="42.02024" lon="9.21146">
        <ele>1630.16</ele>
        <time>2017-06-27T04:54:55.915Z</time>
      </trkpt>
      <trkpt lat="42.02021" lon="9.21154">
        <ele>1633.47</ele>
        <time>2017-06-27T04:55:05.915Z</time>
      </trkpt>
      <trkpt lat="42.02018" lon="9.21162">
        <ele>1635.08</ele>
        <time>2017-06-27T04:56:12.915Z</time>
      </trkpt>
      <trkpt lat="42.02019" lon="9.21171">
        <ele>1639.49</ele>
        <time>2017-06-27T04:56:21.917Z</time>
      </trkpt>
      <trkpt lat="42.02017" lon="9.2118">
        <ele>1639.1</ele>
        <time>2017-06-27T04:56:31.915Z</time>
      </trkpt>
      <trkpt lat="42.02013" lon="9.21182">
        <ele>1644.7</ele>
        <time>2017-06-27T04:56:41.915Z</time>
      </trkpt>
      <trkpt lat="42.02014" lon="9.2119">
        <ele>1645.65</ele>
        <time>2017-06-27T04:56:51.917Z</time>
      </trkpt>
      <trkpt lat="42.0201" lon="9.21193">
        <ele>1644.21</ele>
        <time>2017-06-27T04:57:01.915Z</time>
      </trkpt>
      <trkpt lat="42.02009" lon="9.21198">
        <ele>1646.18</ele>
        <time>2017-06-27T04:57:11.915Z</time>
      </trkpt>
      <trkpt lat="42.0201" lon="9.21199">
        <ele>1645.9</ele>
        <time>2017-06-27T04:57:21.917Z</time>
      </trkpt>
      <trkpt lat="42.02005" lon="9.21207">
        <ele>1648.88</ele>
        <time>2017-06-27T04:57:31.915Z</time>
      </trkpt>
      <trkpt lat="42.02" lon="9.21215">
        <ele>1651.08</ele>
        <time>2017-06-27T04:57:48.916Z</time>
      </trkpt>
      <trkpt lat="42.01995" lon="9.21216">
        <ele>1651.58</ele>
        <time>2017-06-27T04:57:57.917Z</time>
      </trkpt>
      <trkpt lat="42.01989" lon="9.21222">
        <ele>1650.7</ele>
        <time>2017-06-27T04:58:07.915Z</time>
      </trkpt>
      <trkpt lat="42.01986" lon="9.21229">
        <ele>1651.31</ele>
        <time>2017-06-27T04:58:17.915Z</time>
      </trkpt>
      <trkpt lat="42.01982" lon="9.21237">
        <ele>1650.62</ele>
        <time>2017-06-27T04:58:27.917Z</time>
      </trkpt>
      <trkpt lat="42.01979" lon="9.21246">
        <ele>1649.59</ele>
        <time>2017-06-27T04:58:37.915Z</time>
      </trkpt>
      <trkpt lat="42.01979" lon="9.21256">
        <ele>1650.21</ele>
        <time>2017-06-27T04:58:47.915Z</time>
      </trkpt>
      <trkpt lat="42.0198" lon="9.21267">
        <ele>1650.14</ele>
        <time>2017-06-27T04:58:57.917Z</time>
      </trkpt>
      <trkpt lat="42.01976" lon="9.21279">
        <ele>1651.62</ele>
        <time>2017-06-27T04:59:07.915Z</time>
      </trkpt>
      <trkpt lat="42.01977" lon="9.2129">
        <ele>1651.73</ele>
        <time>2017-06-27T04:59:16.945Z</time>
      </trkpt>
      <trkpt lat="42.01974" lon="9.21302">
        <ele>1651.8</ele>
        <time>2017-06-27T04:59:26.915Z</time>
      </trkpt>
      <trkpt lat="42.01972" lon="9.21313">
        <ele>1651.72</ele>
        <time>2017-06-27T04:59:36.915Z</time>
      </trkpt>
      <trkpt lat="42.01971" lon="9.21323">
        <ele>1653.79</ele>
        <time>2017-06-27T04:59:45.917Z</time>
      </trkpt>
      <trkpt lat="42.01965" lon="9.2133">
        <ele>1652.19</ele>
        <time>2017-06-27T04:59:55.915Z</time>
      </trkpt>
      <trkpt lat="42.01964" lon="9.21336">
        <ele>1652.1</ele>
        <time>2017-06-27T05:00:05.926Z</time>
      </trkpt>
      <trkpt lat="42.01961" lon="9.21341">
        <ele>1650.77</ele>
        <time>2017-06-27T05:00:15.935Z</time>
      </trkpt>
      <trkpt lat="42.01961" lon="9.21349">
        <ele>1650.96</ele>
        <time>2017-06-27T05:00:25.915Z</time>
      </trkpt>
      <trkpt lat="42.01956" lon="9.21357">
        <ele>1651.17</ele>
        <time>2017-06-27T05:00:34.916Z</time>
      </trkpt>
      <trkpt lat="42.01952" lon="9.21365">
        <ele>1651.71</ele>
        <time>2017-06-27T05:00:44.915Z</time>
      </trkpt>
      <trkpt lat="42.0195" lon="9.21368">
        <ele>1653.5</ele>
        <time>2017-06-27T05:00:54.915Z</time>
      </trkpt>
      <trkpt lat="42.0195" lon="9.21376">
        <ele>1655.22</ele>
        <time>2017-06-27T05:01:05.913Z</time>
      </trkpt>
      <trkpt lat="42.01952" lon="9.21379">
        <ele>1655.8</ele>
        <time>2017-06-27T05:01:27.917Z</time>
      </trkpt>
      <trkpt lat="42.01954" lon="9.21382">
        <ele>1655.1</ele>
        <time>2017-06-27T05:01:37.915Z</time>
      </trkpt>
      <trkpt lat="42.01953" lon="9.21389">
        <ele>1655</ele>
        <time>2017-06-27T05:01:47.916Z</time>
      </trkpt>
      <trkpt lat="42.01952" lon="9.21397">
        <ele>1654.76</ele>
        <time>2017-06-27T05:01:56.945Z</time>
      </trkpt>
      <trkpt lat="42.01951" lon="9.21408">
        <ele>1656.75</ele>
        <time>2017-06-27T05:02:06.915Z</time>
      </trkpt>
      <trkpt lat="42.0195" lon="9.21412">
        <ele>1658.67</ele>
        <time>2017-06-27T05:02:15.917Z</time>
      </trkpt>
      <trkpt lat="42.01949" lon="9.21418">
        <ele>1660.05</ele>
        <time>2017-06-27T05:02:25.942Z</time>
      </trkpt>
      <trkpt lat="42.01946" lon="9.21425">
        <ele>1661.66</ele>
        <time>2017-06-27T05:02:35.915Z</time>
      </trkpt>
      <trkpt lat="42.01943" lon="9.2143">
        <ele>1663.72</ele>
        <time>2017-06-27T05:02:45.917Z</time>
      </trkpt>
      <trkpt lat="42.01939" lon="9.21436">
        <ele>1667.16</ele>
        <time>2017-06-27T05:02:55.915Z</time>
      </trkpt>
      <trkpt lat="42.01934" lon="9.21444">
        <ele>1669.3</ele>
        <time>2017-06-27T05:03:05.915Z</time>
      </trkpt>
      <trkpt lat="42.01931" lon="9.2145">
        <ele>1669.35</ele>
        <time>2017-06-27T05:03:14.916Z</time>
      </trkpt>
      <trkpt lat="42.0193" lon="9.21456">
        <ele>1670.37</ele>
        <time>2017-06-27T05:03:24.915Z</time>
      </trkpt>
      <trkpt lat="42.01931" lon="9.21462">
        <ele>1669.28</ele>
        <time>2017-06-27T05:03:33.917Z</time>
      </trkpt>
      <trkpt lat="42.01927" lon="9.21467">
        <ele>1671.91</ele>
        <time>2017-06-27T05:03:43.915Z</time>
      </trkpt>
      <trkpt lat="42.01924" lon="9.21473">
        <ele>1676.57</ele>
        <time>2017-06-27T05:03:53.915Z</time>
      </trkpt>
      <trkpt lat="42.01921" lon="9.2148">
        <ele>1679.09</ele>
        <time>2017-06-27T05:04:03.917Z</time>
      </trkpt>
      <trkpt lat="42.01918" lon="9.21484">
        <ele>1681.06</ele>
        <time>2017-06-27T05:04:13.916Z</time>
      </trkpt>
      <trkpt lat="42.01918" lon="9.21488">
        <ele>1682.9</ele>
        <time>2017-06-27T05:04:23.915Z</time>
      </trkpt>
      <trkpt lat="42.01916" lon="9.21496">
        <ele>1683.3</ele>
        <time>2017-06-27T05:04:33.917Z</time>
      </trkpt>
      <trkpt lat="42.01913" lon="9.21505">
        <ele>1684.59</ele>
        <time>2017-06-27T05:04:43.915Z</time>
      </trkpt>
      <trkpt lat="42.0191" lon="9.21512">
        <ele>1685.74</ele>
        <time>2017-06-27T05:04:53.916Z</time>
      </trkpt>
      <trkpt lat="42.01908" lon="9.21519">
        <ele>1686.18</ele>
        <time>2017-06-27T05:05:03.917Z</time>
      </trkpt>
      <trkpt lat="42.01905" lon="9.21528">
        <ele>1688.74</ele>
        <time>2017-06-27T05:05:13.915Z</time>
      </trkpt>
      <trkpt lat="42.01903" lon="9.21537">
        <ele>1686.43</ele>
        <time>2017-06-27T05:05:23.915Z</time>
      </trkpt>
      <trkpt lat="42.019" lon="9.21546">
        <ele>1685.75</ele>
        <time>2017-06-27T05:05:33.917Z</time>
      </trkpt>
      <trkpt lat="42.01896" lon="9.21554">
        <ele>1686.94</ele>
        <time>2017-06-27T05:05:43.915Z</time>
      </trkpt>
      <trkpt lat="42.01894" lon="9.2156">
        <ele>1689.18</ele>
        <time>2017-06-27T05:05:53.915Z</time>
      </trkpt>
      <trkpt lat="42.01891" lon="9.21571">
        <ele>1689.75</ele>
        <time>2017-06-27T05:06:20.915Z</time>
      </trkpt>
      <trkpt lat="42.01887" lon="9.21578">
        <ele>1689.46</ele>
        <time>2017-06-27T05:06:29.916Z</time>
      </trkpt>
      <trkpt lat="42.01885" lon="9.21582">
        <ele>1690.69</ele>
        <time>2017-06-27T05:06:39.918Z</time>
      </trkpt>
      <trkpt lat="42.01879" lon="9.21589">
        <ele>1694.13</ele>
        <time>2017-06-27T05:06:49.915Z</time>
      </trkpt>
      <trkpt lat="42.01878" lon="9.21595">
        <ele>1697.95</ele>
        <time>2017-06-27T05:06:59.935Z</time>
      </trkpt>
      <trkpt lat="42.01876" lon="9.21601">
        <ele>1699.21</ele>
        <time>2017-06-27T05:07:09.916Z</time>
      </trkpt>
      <trkpt lat="42.01875" lon="9.21607">
        <ele>1702.12</ele>
        <time>2017-06-27T05:07:19.915Z</time>
      </trkpt>
      <trkpt lat="42.01873" lon="9.21612">
        <ele>1704.37</ele>
        <time>2017-06-27T05:07:28.916Z</time>
      </trkpt>
      <trkpt lat="42.0187" lon="9.21617">
        <ele>1706.21</ele>
        <time>2017-06-27T05:07:38.913Z</time>
      </trkpt>
      <trkpt lat="42.01866" lon="9.21623">
        <ele>1708.45</ele>
        <time>2017-06-27T05:07:47.915Z</time>
      </trkpt>
      <trkpt lat="42.01862" lon="9.21629">
        <ele>1710.54</ele>
        <time>2017-06-27T05:07:56.916Z</time>
      </trkpt>
      <trkpt lat="42.0186" lon="9.21637">
        <ele>1711.52</ele>
        <time>2017-06-27T05:08:06.915Z</time>
      </trkpt>
      <trkpt lat="42.01859" lon="9.21636">
        <ele>1711.9</ele>
        <time>2017-06-27T05:08:15.917Z</time>
      </trkpt>
      <trkpt lat="42.01854" lon="9.21646">
        <ele>1712.43</ele>
        <time>2017-06-27T05:08:25.915Z</time>
      </trkpt>
      <trkpt lat="42.01851" lon="9.21655">
        <ele>1710.84</ele>
        <time>2017-06-27T05:08:35.915Z</time>
      </trkpt>
      <trkpt lat="42.01849" lon="9.21663">
        <ele>1710.78</ele>
        <time>2017-06-27T05:08:44.916Z</time>
      </trkpt>
      <trkpt lat="42.01851" lon="9.21669">
        <ele>1709.96</ele>
        <time>2017-06-27T05:08:54.915Z</time>
      </trkpt>
      <trkpt lat="42.01851" lon="9.21671">
        <ele>1710.9</ele>
        <time>2017-06-27T05:09:03.917Z</time>
      </trkpt>
      <trkpt lat="42.01857" lon="9.21665">
        <ele>1715.39</ele>
        <time>2017-06-27T05:09:13.915Z</time>
      </trkpt>
      <trkpt lat="42.01861" lon="9.21668">
        <ele>1717.3</ele>
        <time>2017-06-27T05:09:23.915Z</time>
      </trkpt>
      <trkpt lat="42.01862" lon="9.21674">
        <ele>1716.85</ele>
        <time>2017-06-27T05:09:33.918Z</time>
      </trkpt>
      <trkpt lat="42.01864" lon="9.21681">
        <ele>1714.24</ele>
        <time>2017-06-27T05:09:43.915Z</time>
      </trkpt>
      <trkpt lat="42.01861" lon="9.2169">
        <ele>1715.36</ele>
        <time>2017-06-27T05:09:53.915Z</time>
      </trkpt>
      <trkpt lat="42.01855" lon="9.21695">
        <ele>1719.01</ele>
        <time>2017-06-27T05:10:03.917Z</time>
      </trkpt>
      <trkpt lat="42.01853" lon="9.21699">
        <ele>1720.81</ele>
        <time>2017-06-27T05:10:13.915Z</time>
      </trkpt>
      <trkpt lat="42.01847" lon="9.21705">
        <ele>1722.5</ele>
        <time>2017-06-27T05:10:23.915Z</time>
      </trkpt>
      <trkpt lat="42.01842" lon="9.21708">
        <ele>1724.31</ele>
        <time>2017-06-27T05:10:32.916Z</time>
      </trkpt>
      <trkpt lat="42.01841" lon="9.21708">
        <ele>1724.67</ele>
        <time>2017-06-27T05:10:42.915Z</time>
      </trkpt>
      <trkpt lat="42.01843" lon="9.21713">
        <ele>1727.71</ele>
        <time>2017-06-27T05:10:51.918Z</time>
      </trkpt>
      <trkpt lat="42.01846" lon="9.21718">
        <ele>1729.94</ele>
        <time>2017-06-27T05:11:01.915Z</time>
      </trkpt>
      <trkpt lat="42.01848" lon="9.21718">
        <ele>1731.1</ele>
        <time>2017-06-27T05:11:11.915Z</time>
      </trkpt>
      <trkpt lat="42.01846" lon="9.21725">
        <ele>1734.18</ele>
        <time>2017-06-27T05:11:26.915Z</time>
      </trkpt>
      <trkpt lat="42.01843" lon="9.21729">
        <ele>1735.59</ele>
        <time>2017-06-27T05:11:36.915Z</time>
      </trkpt>
      <trkpt lat="42.01843" lon="9.21733">
        <ele>1736.24</ele>
        <time>2017-06-27T05:11:45.917Z</time>
      </trkpt>
      <trkpt lat="42.01845" lon="9.21735">
        <ele>1736.4</ele>
        <time>2017-06-27T05:11:55.915Z</time>
      </trkpt>
      <trkpt lat="42.01848" lon="9.21736">
        <ele>1737.06</ele>
        <time>2017-06-27T05:12:05.915Z</time>
      </trkpt>
      <trkpt lat="42.01851" lon="9.21738">
        <ele>1739</ele>
        <time>2017-06-27T05:12:14.916Z</time>
      </trkpt>
      <trkpt lat="42.01858" lon="9.21737">
        <ele>1740.58</ele>
        <time>2017-06-27T05:12:24.916Z</time>
      </trkpt>
      <trkpt lat="42.01862" lon="9.21741">
        <ele>1740.38</ele>
        <time>2017-06-27T05:12:33.917Z</time>
      </trkpt>
      <trkpt lat="42.0186" lon="9.21747">
        <ele>1742.5</ele>
        <time>2017-06-27T05:12:43.915Z</time>
      </trkpt>
      <trkpt lat="42.01864" lon="9.21751">
        <ele>1746.69</ele>
        <time>2017-06-27T05:12:53.916Z</time>
      </trkpt>
      <trkpt lat="42.01869" lon="9.21747">
        <ele>1748.41</ele>
        <time>2017-06-27T05:13:03.917Z</time>
      </trkpt>
      <trkpt lat="42.01872" lon="9.21748">
        <ele>1750.85</ele>
        <time>2017-06-27T05:13:14.915Z</time>
      </trkpt>
      <trkpt lat="42.01874" lon="9.21749">
        <ele>1754</ele>
        <time>2017-06-27T05:13:24.915Z</time>
      </trkpt>
      <trkpt lat="42.01878" lon="9.2175">
        <ele>1753.9</ele>
        <time>2017-06-27T05:13:33.917Z</time>
      </trkpt>
      <trkpt lat="42.01882" lon="9.21756">
        <ele>1754.18</ele>
        <time>2017-06-27T05:13:43.935Z</time>
      </trkpt>
      <trkpt lat="42.0188" lon="9.21762">
        <ele>1755.12</ele>
        <time>2017-06-27T05:13:53.915Z</time>
      </trkpt>
      <trkpt lat="42.01877" lon="9.21767">
        <ele>1756.55</ele>
        <time>2017-06-27T05:14:03.918Z</time>
      </trkpt>
      <trkpt lat="42.01874" lon="9.21772">
        <ele>1757.76</ele>
        <time>2017-06-27T05:14:12.938Z</time>
      </trkpt>
      <trkpt lat="42.01877" lon="9.21775">
        <ele>1758.16</ele>
        <time>2017-06-27T05:14:22.915Z</time>
      </trkpt>
      <trkpt lat="42.01877" lon="9.21779">
        <ele>1757.85</ele>
        <time>2017-06-27T05:14:33.917Z</time>
      </trkpt>
      <trkpt lat="42.01875" lon="9.21785">
        <ele>1755.89</ele>
        <time>2017-06-27T05:14:43.916Z</time>
      </trkpt>
      <trkpt lat="42.01871" lon="9.2179">
        <ele>1756.83</ele>
        <time>2017-06-27T05:14:53.915Z</time>
      </trkpt>
      <trkpt lat="42.01864" lon="9.21792">
        <ele>1759.42</ele>
        <time>2017-06-27T05:15:03.917Z</time>
      </trkpt>
      <trkpt lat="42.01864" lon="9.21796">
        <ele>1762.74</ele>
        <time>2017-06-27T05:15:13.915Z</time>
      </trkpt>
      <trkpt lat="42.01862" lon="9.218">
        <ele>1763.6</ele>
        <time>2017-06-27T05:15:25.915Z</time>
      </trkpt>
      <trkpt lat="42.01859" lon="9.21807">
        <ele>1765.12</ele>
        <time>2017-06-27T05:15:35.915Z</time>
      </trkpt>
      <trkpt lat="42.01856" lon="9.21813">
        <ele>1766.86</ele>
        <time>2017-06-27T05:15:45.917Z</time>
      </trkpt>
      <trkpt lat="42.01856" lon="9.21817">
        <ele>1766.36</ele>
        <time>2017-06-27T05:15:55.915Z</time>
      </trkpt>
      <trkpt lat="42.01854" lon="9.21822">
        <ele>1769.13</ele>
        <time>2017-06-27T05:16:05.916Z</time>
      </trkpt>
      <trkpt lat="42.01856" lon="9.21822">
        <ele>1772.2</ele>
        <time>2017-06-27T05:16:15.918Z</time>
      </trkpt>
      <trkpt lat="42.0186" lon="9.21821">
        <ele>1774.05</ele>
        <time>2017-06-27T05:16:25.915Z</time>
      </trkpt>
      <trkpt lat="42.0186" lon="9.21826">
        <ele>1775.77</ele>
        <time>2017-06-27T05:16:35.916Z</time>
      </trkpt>
      <trkpt lat="42.01857" lon="9.21834">
        <ele>1775.95</ele>
        <time>2017-06-27T05:16:45.917Z</time>
      </trkpt>
      <trkpt lat="42.01854" lon="9.2184">
        <ele>1775.57</ele>
        <time>2017-06-27T05:16:55.916Z</time>
      </trkpt>
      <trkpt lat="42.01856" lon="9.21843">
        <ele>1777.02</ele>
        <time>2017-06-27T05:17:05.922Z</time>
      </trkpt>
      <trkpt lat="42.01858" lon="9.21843">
        <ele>1778.7</ele>
        <time>2017-06-27T05:17:15.914Z</time>
      </trkpt>
      <trkpt lat="42.0186" lon="9.21848">
        <ele>1781.32</ele>
        <time>2017-06-27T05:17:24.915Z</time>
      </trkpt>
      <trkpt lat="42.01859" lon="9.21852">
        <ele>1784.5</ele>
        <time>2017-06-27T05:17:33.917Z</time>
      </trkpt>
      <trkpt lat="42.01855" lon="9.21857">
        <ele>1787.1</ele>
        <time>2017-06-27T05:17:43.915Z</time>
      </trkpt>
      <trkpt lat="42.01855" lon="9.21859">
        <ele>1787.5</ele>
        <time>2017-06-27T05:17:53.916Z</time>
      </trkpt>
      <trkpt lat="42.01854" lon="9.21862">
        <ele>1786.2</ele>
        <time>2017-06-27T05:18:03.917Z</time>
      </trkpt>
      <trkpt lat="42.01853" lon="9.21865">
        <ele>1786.13</ele>
        <time>2017-06-27T05:18:17.916Z</time>
      </trkpt>
      <trkpt lat="42.01857" lon="9.21867">
        <ele>1785.51</ele>
        <time>2017-06-27T05:18:27.917Z</time>
      </trkpt>
      <trkpt lat="42.01857" lon="9.21872">
        <ele>1786.98</ele>
        <time>2017-06-27T05:18:37.941Z</time>
      </trkpt>
      <trkpt lat="42.01858" lon="9.21878">
        <ele>1787.74</ele>
        <time>2017-06-27T05:18:46.955Z</time>
      </trkpt>
      <trkpt lat="42.01856" lon="9.21882">
        <ele>1790.4</ele>
        <time>2017-06-27T05:18:58.915Z</time>
      </trkpt>
      <trkpt lat="42.01856" lon="9.21883">
        <ele>1792</ele>
        <time>2017-06-27T05:19:08.915Z</time>
      </trkpt>
      <trkpt lat="42.01859" lon="9.21888">
        <ele>1793.72</ele>
        <time>2017-06-27T05:19:18.915Z</time>
      </trkpt>
      <trkpt lat="42.01865" lon="9.21886">
        <ele>1794.02</ele>
        <time>2017-06-27T05:19:31.915Z</time>
      </trkpt>
      <trkpt lat="42.01867" lon="9.21888">
        <ele>1796.4</ele>
        <time>2017-06-27T05:19:41.915Z</time>
      </trkpt>
      <trkpt lat="42.01867" lon="9.21893">
        <ele>1798.78</ele>
        <time>2017-06-27T05:19:51.917Z</time>
      </trkpt>
      <trkpt lat="42.01871" lon="9.21892">
        <ele>1800.39</ele>
        <time>2017-06-27T05:20:01.916Z</time>
      </trkpt>
      <trkpt lat="42.01876" lon="9.21896">
        <ele>1800.7</ele>
        <time>2017-06-27T05:20:11.916Z</time>
      </trkpt>
      <trkpt lat="42.0188" lon="9.21898">
        <ele>1801.63</ele>
        <time>2017-06-27T05:20:21.917Z</time>
      </trkpt>
      <trkpt lat="42.01883" lon="9.21902">
        <ele>1802.6</ele>
        <time>2017-06-27T05:20:31.916Z</time>
      </trkpt>
      <trkpt lat="42.01882" lon="9.21907">
        <ele>1804.42</ele>
        <time>2017-06-27T05:20:41.916Z</time>
      </trkpt>
      <trkpt lat="42.01878" lon="9.2191">
        <ele>1806.18</ele>
        <time>2017-06-27T05:20:51.917Z</time>
      </trkpt>
      <trkpt lat="42.01877" lon="9.21913">
        <ele>1808.96</ele>
        <time>2017-06-27T05:21:01.916Z</time>
      </trkpt>
      <trkpt lat="42.01875" lon="9.21917">
        <ele>1810.79</ele>
        <time>2017-06-27T05:21:11.915Z</time>
      </trkpt>
      <trkpt lat="42.01869" lon="9.21922">
        <ele>1813.81</ele>
        <time>2017-06-27T05:21:21.917Z</time>
      </trkpt>
      <trkpt lat="42.01865" lon="9.21927">
        <ele>1815.79</ele>
        <time>2017-06-27T05:21:31.915Z</time>
      </trkpt>
      <trkpt lat="42.01863" lon="9.21932">
        <ele>1815.98</ele>
        <time>2017-06-27T05:21:41.916Z</time>
      </trkpt>
      <trkpt lat="42.01859" lon="9.21937">
        <ele>1816.5</ele>
        <time>2017-06-27T05:21:51.937Z</time>
      </trkpt>
      <trkpt lat="42.01855" lon="9.21942">
        <ele>1817.99</ele>
        <time>2017-06-27T05:22:01.916Z</time>
      </trkpt>
      <trkpt lat="42.01851" lon="9.21948">
        <ele>1819.08</ele>
        <time>2017-06-27T05:22:10.945Z</time>
      </trkpt>
      <trkpt lat="42.01846" lon="9.21954">
        <ele>1819.72</ele>
        <time>2017-06-27T05:22:20.915Z</time>
      </trkpt>
      <trkpt lat="42.01846" lon="9.21957">
        <ele>1821.59</ele>
        <time>2017-06-27T05:22:30.916Z</time>
      </trkpt>
      <trkpt lat="42.01849" lon="9.21962">
        <ele>1822.8</ele>
        <time>2017-06-27T05:22:42.915Z</time>
      </trkpt>
      <trkpt lat="42.01848" lon="9.21967">
        <ele>1823.26</ele>
        <time>2017-06-27T05:22:51.917Z</time>
      </trkpt>
      <trkpt lat="42.01844" lon="9.21973">
        <ele>1824.9</ele>
        <time>2017-06-27T05:23:01.915Z</time>
      </trkpt>
      <trkpt lat="42.0184" lon="9.21978">
        <ele>1828.51</ele>
        <time>2017-06-27T05:23:11.915Z</time>
      </trkpt>
      <trkpt lat="42.01838" lon="9.21983">
        <ele>1828.66</ele>
        <time>2017-06-27T05:23:21.917Z</time>
      </trkpt>
      <trkpt lat="42.01836" lon="9.21987">
        <ele>1829.04</ele>
        <time>2017-06-27T05:23:31.915Z</time>
      </trkpt>
      <trkpt lat="42.01833" lon="9.21991">
        <ele>1831.31</ele>
        <time>2017-06-27T05:23:40.916Z</time>
      </trkpt>
      <trkpt lat="42.01828" lon="9.21996">
        <ele>1831.69</ele>
        <time>2017-06-27T05:23:50.915Z</time>
      </trkpt>
      <trkpt lat="42.01825" lon="9.22001">
        <ele>1833.26</ele>
        <time>2017-06-27T05:23:59.916Z</time>
      </trkpt>
      <trkpt lat="42.01823" lon="9.22009">
        <ele>1836.25</ele>
        <time>2017-06-27T05:24:09.918Z</time>
      </trkpt>
      <trkpt lat="42.01819" lon="9.22017">
        <ele>1838.25</ele>
        <time>2017-06-27T05:24:19.916Z</time>
      </trkpt>
      <trkpt lat="42.01816" lon="9.22022">
        <ele>1840.17</ele>
        <time>2017-06-27T05:24:29.915Z</time>
      </trkpt>
      <trkpt lat="42.01811" lon="9.2203">
        <ele>1841.32</ele>
        <time>2017-06-27T05:24:38.916Z</time>
      </trkpt>
      <trkpt lat="42.01806" lon="9.22038">
        <ele>1844.61</ele>
        <time>2017-06-27T05:24:48.915Z</time>
      </trkpt>
      <trkpt lat="42.01804" lon="9.22045">
        <ele>1845.38</ele>
        <time>2017-06-27T05:24:57.920Z</time>
      </trkpt>
      <trkpt lat="42.01803" lon="9.22047">
        <ele>1846.77</ele>
        <time>2017-06-27T05:25:15.917Z</time>
      </trkpt>
      <trkpt lat="42.018" lon="9.22048">
        <ele>1845.7</ele>
        <time>2017-06-27T05:25:25.914Z</time>
      </trkpt>
      <trkpt lat="42.01799" lon="9.22051">
        <ele>1846.45</ele>
        <time>2017-06-27T05:25:35.934Z</time>
      </trkpt>
      <trkpt lat="42.01797" lon="9.22053">
        <ele>1848</ele>
        <time>2017-06-27T05:25:45.919Z</time>
      </trkpt>
      <trkpt lat="42.01801" lon="9.22053">
        <ele>1849.19</ele>
        <time>2017-06-27T05:25:55.923Z</time>
      </trkpt>
      <trkpt lat="42.01799" lon="9.22051">
        <ele>1850.2</ele>
        <time>2017-06-27T05:27:26.916Z</time>
      </trkpt>
      <trkpt lat="42.01793" lon="9.2205">
        <ele>1852.12</ele>
        <time>2017-06-27T05:27:36.945Z</time>
      </trkpt>
      <trkpt lat="42.01788" lon="9.22054">
        <ele>1852.46</ele>
        <time>2017-06-27T05:27:46.916Z</time>
      </trkpt>
      <trkpt lat="42.01781" lon="9.22056">
        <ele>1850.62</ele>
        <time>2017-06-27T05:27:56.916Z</time>
      </trkpt>
      <trkpt lat="42.01771" lon="9.22055">
        <ele>1847.92</ele>
        <time>2017-06-27T05:28:06.916Z</time>
      </trkpt>
      <trkpt lat="42.01762" lon="9.22054">
        <ele>1847.57</ele>
        <time>2017-06-27T05:28:15.918Z</time>
      </trkpt>
      <trkpt lat="42.01753" lon="9.22059">
        <ele>1846.29</ele>
        <time>2017-06-27T05:28:25.914Z</time>
      </trkpt>
      <trkpt lat="42.01744" lon="9.22059">
        <ele>1843.9</ele>
        <time>2017-06-27T05:28:34.916Z</time>
      </trkpt>
      <trkpt lat="42.01733" lon="9.22058">
        <ele>1842.1</ele>
        <time>2017-06-27T05:28:44.916Z</time>
      </trkpt>
      <trkpt lat="42.01723" lon="9.22057">
        <ele>1840.84</ele>
        <time>2017-06-27T05:28:54.916Z</time>
      </trkpt>
      <trkpt lat="42.01716" lon="9.22058">
        <ele>1839.13</ele>
        <time>2017-06-27T05:29:03.920Z</time>
      </trkpt>
      <trkpt lat="42.01706" lon="9.22059">
        <ele>1839.86</ele>
        <time>2017-06-27T05:29:13.915Z</time>
      </trkpt>
      <trkpt lat="42.01697" lon="9.22062">
        <ele>1839.24</ele>
        <time>2017-06-27T05:29:22.916Z</time>
      </trkpt>
      <trkpt lat="42.01687" lon="9.2206">
        <ele>1838.28</ele>
        <time>2017-06-27T05:29:32.916Z</time>
      </trkpt>
      <trkpt lat="42.0168" lon="9.22055">
        <ele>1839.42</ele>
        <time>2017-06-27T05:29:42.916Z</time>
      </trkpt>
      <trkpt lat="42.0167" lon="9.22051">
        <ele>1841.49</ele>
        <time>2017-06-27T05:29:51.917Z</time>
      </trkpt>
      <trkpt lat="42.0166" lon="9.22042">
        <ele>1845</ele>
        <time>2017-06-27T05:30:01.916Z</time>
      </trkpt>
      <trkpt lat="42.0165" lon="9.22037">
        <ele>1844.56</ele>
        <time>2017-06-27T05:30:11.916Z</time>
      </trkpt>
      <trkpt lat="42.01639" lon="9.22032">
        <ele>1842.5</ele>
        <time>2017-06-27T05:30:21.919Z</time>
      </trkpt>
      <trkpt lat="42.01627" lon="9.22025">
        <ele>1842.13</ele>
        <time>2017-06-27T05:30:31.915Z</time>
      </trkpt>
      <trkpt lat="42.01618" lon="9.22021">
        <ele>1841.69</ele>
        <time>2017-06-27T05:30:40.916Z</time>
      </trkpt>
      <trkpt lat="42.01609" lon="9.22019">
        <ele>1842.14</ele>
        <time>2017-06-27T05:30:50.916Z</time>
      </trkpt>
      <trkpt lat="42.01601" lon="9.22015">
        <ele>1844.59</ele>
        <time>2017-06-27T05:31:00.916Z</time>
      </trkpt>
      <trkpt lat="42.01595" lon="9.22015">
        <ele>1844.42</ele>
        <time>2017-06-27T05:31:09.918Z</time>
      </trkpt>
      <trkpt lat="42.01586" lon="9.22012">
        <ele>1845.73</ele>
        <time>2017-06-27T05:31:19.916Z</time>
      </trkpt>
      <trkpt lat="42.01577" lon="9.2201">
        <ele>1845.34</ele>
        <time>2017-06-27T05:31:29.915Z</time>
      </trkpt>
      <trkpt lat="42.01564" lon="9.22004">
        <ele>1848.31</ele>
        <time>2017-06-27T05:31:39.918Z</time>
      </trkpt>
      <trkpt lat="42.01555" lon="9.21999">
        <ele>1848.08</ele>
        <time>2017-06-27T05:31:49.915Z</time>
      </trkpt>
      <trkpt lat="42.01544" lon="9.21995">
        <ele>1850.03</ele>
        <time>2017-06-27T05:31:59.915Z</time>
      </trkpt>
      <trkpt lat="42.01535" lon="9.21993">
        <ele>1847.91</ele>
        <time>2017-06-27T05:32:09.918Z</time>
      </trkpt>
      <trkpt lat="42.01526" lon="9.2199">
        <ele>1845.82</ele>
        <time>2017-06-27T05:32:19.915Z</time>
      </trkpt>
      <trkpt lat="42.01517" lon="9.21988">
        <ele>1845.86</ele>
        <time>2017-06-27T05:32:28.916Z</time>
      </trkpt>
      <trkpt lat="42.01507" lon="9.21986">
        <ele>1845.16</ele>
        <time>2017-06-27T05:32:38.915Z</time>
      </trkpt>
      <trkpt lat="42.01496" lon="9.21981">
        <ele>1846.87</ele>
        <time>2017-06-27T05:32:47.916Z</time>
      </trkpt>
      <trkpt lat="42.01486" lon="9.21974">
        <ele>1849.69</ele>
        <time>2017-06-27T05:32:57.918Z</time>
      </trkpt>
      <trkpt lat="42.01477" lon="9.21967">
        <ele>1851.05</ele>
        <time>2017-06-27T05:33:07.915Z</time>
      </trkpt>
      <trkpt lat="42.01469" lon="9.21963">
        <ele>1848.65</ele>
        <time>2017-06-27T05:33:16.916Z</time>
      </trkpt>
      <trkpt lat="42.01459" lon="9.21962">
        <ele>1848.12</ele>
        <time>2017-06-27T05:33:26.915Z</time>
      </trkpt>
      <trkpt lat="42.01449" lon="9.21961">
        <ele>1845.78</ele>
        <time>2017-06-27T05:33:36.915Z</time>
      </trkpt>
      <trkpt lat="42.01442" lon="9.21959">
        <ele>1844.08</ele>
        <time>2017-06-27T05:33:45.945Z</time>
      </trkpt>
      <trkpt lat="42.01431" lon="9.21954">
        <ele>1845.54</ele>
        <time>2017-06-27T05:33:55.916Z</time>
      </trkpt>
      <trkpt lat="42.0142" lon="9.21948">
        <ele>1846.76</ele>
        <time>2017-06-27T05:34:05.917Z</time>
      </trkpt>
      <trkpt lat="42.01409" lon="9.21941">
        <ele>1849.46</ele>
        <time>2017-06-27T05:34:15.917Z</time>
      </trkpt>
      <trkpt lat="42.01399" lon="9.21933">
        <ele>1850.97</ele>
        <time>2017-06-27T05:34:25.916Z</time>
      </trkpt>
      <trkpt lat="42.01391" lon="9.21927">
        <ele>1845.77</ele>
        <time>2017-06-27T05:34:35.915Z</time>
      </trkpt>
      <trkpt lat="42.01383" lon="9.21923">
        <ele>1846.21</ele>
        <time>2017-06-27T05:34:44.916Z</time>
      </trkpt>
      <trkpt lat="42.01376" lon="9.21927">
        <ele>1847.08</ele>
        <time>2017-06-27T05:34:54.915Z</time>
      </trkpt>
      <trkpt lat="42.01368" lon="9.21927">
        <ele>1846.24</ele>
        <time>2017-06-27T05:35:03.918Z</time>
      </trkpt>
      <trkpt lat="42.01357" lon="9.21922">
        <ele>1844.89</ele>
        <time>2017-06-27T05:35:13.915Z</time>
      </trkpt>
      <trkpt lat="42.01346" lon="9.21919">
        <ele>1845.59</ele>
        <time>2017-06-27T05:35:23.916Z</time>
      </trkpt>
      <trkpt lat="42.01337" lon="9.21914">
        <ele>1843.48</ele>
        <time>2017-06-27T05:35:33.918Z</time>
      </trkpt>
      <trkpt lat="42.01325" lon="9.2191">
        <ele>1847.37</ele>
        <time>2017-06-27T05:35:43.915Z</time>
      </trkpt>
      <trkpt lat="42.01316" lon="9.21908">
        <ele>1847.14</ele>
        <time>2017-06-27T05:35:53.916Z</time>
      </trkpt>
      <trkpt lat="42.01306" lon="9.21908">
        <ele>1846.8</ele>
        <time>2017-06-27T05:36:03.918Z</time>
      </trkpt>
      <trkpt lat="42.01296" lon="9.21908">
        <ele>1846.93</ele>
        <time>2017-06-27T05:36:13.916Z</time>
      </trkpt>
      <trkpt lat="42.01289" lon="9.21905">
        <ele>1848.46</ele>
        <time>2017-06-27T05:36:23.916Z</time>
      </trkpt>
      <trkpt lat="42.0128" lon="9.21904">
        <ele>1847.96</ele>
        <time>2017-06-27T05:36:33.918Z</time>
      </trkpt>
      <trkpt lat="42.01269" lon="9.21904">
        <ele>1850.03</ele>
        <time>2017-06-27T05:36:43.915Z</time>
      </trkpt>
      <trkpt lat="42.01259" lon="9.21901">
        <ele>1851.09</ele>
        <time>2017-06-27T05:36:53.913Z</time>
      </trkpt>
      <trkpt lat="42.01253" lon="9.21899">
        <ele>1851.99</ele>
        <time>2017-06-27T05:37:02.916Z</time>
      </trkpt>
      <trkpt lat="42.01245" lon="9.21899">
        <ele>1854.54</ele>
        <time>2017-06-27T05:37:11.917Z</time>
      </trkpt>
      <trkpt lat="42.01235" lon="9.21898">
        <ele>1856.22</ele>
        <time>2017-06-27T05:37:21.917Z</time>
      </trkpt>
      <trkpt lat="42.01225" lon="9.21889">
        <ele>1859.19</ele>
        <time>2017-06-27T05:37:31.916Z</time>
      </trkpt>
      <trkpt lat="42.01215" lon="9.21887">
        <ele>1857.89</ele>
        <time>2017-06-27T05:37:41.916Z</time>
      </trkpt>
      <trkpt lat="42.01204" lon="9.21881">
        <ele>1859.4</ele>
        <time>2017-06-27T05:37:51.919Z</time>
      </trkpt>
      <trkpt lat="42.01195" lon="9.21876">
        <ele>1859.49</ele>
        <time>2017-06-27T05:38:01.916Z</time>
      </trkpt>
      <trkpt lat="42.01184" lon="9.21872">
        <ele>1860.37</ele>
        <time>2017-06-27T05:38:11.916Z</time>
      </trkpt>
      <trkpt lat="42.01172" lon="9.21865">
        <ele>1860.6</ele>
        <time>2017-06-27T05:38:21.918Z</time>
      </trkpt>
      <trkpt lat="42.01163" lon="9.21865">
        <ele>1860.06</ele>
        <time>2017-06-27T05:38:31.915Z</time>
      </trkpt>
      <trkpt lat="42.01151" lon="9.21862">
        <ele>1859.73</ele>
        <time>2017-06-27T05:38:41.916Z</time>
      </trkpt>
      <trkpt lat="42.0114" lon="9.2186">
        <ele>1858.71</ele>
        <time>2017-06-27T05:38:51.918Z</time>
      </trkpt>
      <trkpt lat="42.01129" lon="9.21859">
        <ele>1857.35</ele>
        <time>2017-06-27T05:39:01.916Z</time>
      </trkpt>
      <trkpt lat="42.01118" lon="9.21863">
        <ele>1857.32</ele>
        <time>2017-06-27T05:39:11.916Z</time>
      </trkpt>
      <trkpt lat="42.01109" lon="9.21867">
        <ele>1857.45</ele>
        <time>2017-06-27T05:39:21.919Z</time>
      </trkpt>
      <trkpt lat="42.01097" lon="9.21869">
        <ele>1857.86</ele>
        <time>2017-06-27T05:39:31.916Z</time>
      </trkpt>
      <trkpt lat="42.01087" lon="9.2187">
        <ele>1855.39</ele>
        <time>2017-06-27T05:39:41.916Z</time>
      </trkpt>
      <trkpt lat="42.01078" lon="9.21873">
        <ele>1854.14</ele>
        <time>2017-06-27T05:39:51.918Z</time>
      </trkpt>
      <trkpt lat="42.01068" lon="9.21869">
        <ele>1851.66</ele>
        <time>2017-06-27T05:40:01.915Z</time>
      </trkpt>
      <trkpt lat="42.01061" lon="9.21869">
        <ele>1850.48</ele>
        <time>2017-06-27T05:40:10.916Z</time>
      </trkpt>
      <trkpt lat="42.01052" lon="9.21867">
        <ele>1850.24</ele>
        <time>2017-06-27T05:40:20.915Z</time>
      </trkpt>
      <trkpt lat="42.01044" lon="9.21864">
        <ele>1850.42</ele>
        <time>2017-06-27T05:40:29.959Z</time>
      </trkpt>
      <trkpt lat="42.01036" lon="9.21861">
        <ele>1852.37</ele>
        <time>2017-06-27T05:40:39.919Z</time>
      </trkpt>
      <trkpt lat="42.01032" lon="9.21854">
        <ele>1852.33</ele>
        <time>2017-06-27T05:40:49.915Z</time>
      </trkpt>
      <trkpt lat="42.01028" lon="9.21852">
        <ele>1849.4</ele>
        <time>2017-06-27T05:40:58.916Z</time>
      </trkpt>
      <trkpt lat="42.01024" lon="9.21853">
        <ele>1846.17</ele>
        <time>2017-06-27T05:41:08.915Z</time>
      </trkpt>
      <trkpt lat="42.01019" lon="9.21849">
        <ele>1844.31</ele>
        <time>2017-06-27T05:41:18.916Z</time>
      </trkpt>
      <trkpt lat="42.01014" lon="9.21843">
        <ele>1844.29</ele>
        <time>2017-06-27T05:41:27.917Z</time>
      </trkpt>
      <trkpt lat="42.0101" lon="9.21839">
        <ele>1843.05</ele>
        <time>2017-06-27T05:41:37.915Z</time>
      </trkpt>
      <trkpt lat="42.01005" lon="9.21838">
        <ele>1841.27</ele>
        <time>2017-06-27T05:41:47.915Z</time>
      </trkpt>
      <trkpt lat="42.01" lon="9.21839">
        <ele>1839.09</ele>
        <time>2017-06-27T05:41:57.917Z</time>
      </trkpt>
      <trkpt lat="42.00993" lon="9.21837">
        <ele>1836.07</ele>
        <time>2017-06-27T05:42:07.916Z</time>
      </trkpt>
      <trkpt lat="42.00987" lon="9.21835">
        <ele>1834.89</ele>
        <time>2017-06-27T05:42:17.915Z</time>
      </trkpt>
      <trkpt lat="42.00977" lon="9.21832">
        <ele>1834.13</ele>
        <time>2017-06-27T05:42:27.918Z</time>
      </trkpt>
      <trkpt lat="42.00965" lon="9.21833">
        <ele>1833.49</ele>
        <time>2017-06-27T05:42:37.915Z</time>
      </trkpt>
      <trkpt lat="42.00953" lon="9.21827">
        <ele>1834.66</ele>
        <time>2017-06-27T05:42:47.915Z</time>
      </trkpt>
      <trkpt lat="42.00945" lon="9.21822">
        <ele>1834.39</ele>
        <time>2017-06-27T05:42:57.918Z</time>
      </trkpt>
      <trkpt lat="42.00936" lon="9.21817">
        <ele>1833.91</ele>
        <time>2017-06-27T05:43:07.915Z</time>
      </trkpt>
      <trkpt lat="42.00934" lon="9.21817">
        <ele>1833.2</ele>
        <time>2017-06-27T05:43:17.916Z</time>
      </trkpt>
      <trkpt lat="42.00932" lon="9.21816">
        <ele>1833.48</ele>
        <time>2017-06-27T05:43:27.972Z</time>
      </trkpt>
      <trkpt lat="42.00928" lon="9.21823">
        <ele>1833.01</ele>
        <time>2017-06-27T05:43:37.915Z</time>
      </trkpt>
      <trkpt lat="42.00919" lon="9.21824">
        <ele>1828.57</ele>
        <time>2017-06-27T05:43:47.915Z</time>
      </trkpt>
      <trkpt lat="42.0091" lon="9.2182">
        <ele>1824.85</ele>
        <time>2017-06-27T05:43:57.917Z</time>
      </trkpt>
      <trkpt lat="42.00901" lon="9.21817">
        <ele>1822.09</ele>
        <time>2017-06-27T05:44:07.915Z</time>
      </trkpt>
      <trkpt lat="42.00893" lon="9.2182">
        <ele>1821.9</ele>
        <time>2017-06-27T05:44:16.916Z</time>
      </trkpt>
      <trkpt lat="42.00884" lon="9.21819">
        <ele>1822.54</ele>
        <time>2017-06-27T05:44:26.915Z</time>
      </trkpt>
      <trkpt lat="42.00877" lon="9.21814">
        <ele>1822.28</ele>
        <time>2017-06-27T05:44:36.916Z</time>
      </trkpt>
      <trkpt lat="42.00868" lon="9.2181">
        <ele>1822.08</ele>
        <time>2017-06-27T05:44:45.917Z</time>
      </trkpt>
      <trkpt lat="42.00865" lon="9.21806">
        <ele>1821.44</ele>
        <time>2017-06-27T05:44:55.915Z</time>
      </trkpt>
      <trkpt lat="42.00865" lon="9.21804">
        <ele>1822.43</ele>
        <time>2017-06-27T05:45:05.915Z</time>
      </trkpt>
      <trkpt lat="42.00865" lon="9.21805">
        <ele>1821.7</ele>
        <time>2017-06-27T05:45:15.920Z</time>
      </trkpt>
      <trkpt lat="42.00859" lon="9.2181">
        <ele>1817.69</ele>
        <time>2017-06-27T05:45:25.937Z</time>
      </trkpt>
      <trkpt lat="42.00853" lon="9.2182">
        <ele>1821.98</ele>
        <time>2017-06-27T05:45:35.921Z</time>
      </trkpt>
      <trkpt lat="42.00852" lon="9.21829">
        <ele>1819.6</ele>
        <time>2017-06-27T05:45:45.916Z</time>
      </trkpt>
      <trkpt lat="42.0085" lon="9.21834">
        <ele>1818.75</ele>
        <time>2017-06-27T05:46:19.912Z</time>
      </trkpt>
      <trkpt lat="42.00847" lon="9.21835">
        <ele>1821.42</ele>
        <time>2017-06-27T05:46:48.917Z</time>
      </trkpt>
      <trkpt lat="42.0085" lon="9.21841">
        <ele>1819.3</ele>
        <time>2017-06-27T05:46:58.915Z</time>
      </trkpt>
      <trkpt lat="42.00852" lon="9.21847">
        <ele>1819.76</ele>
        <time>2017-06-27T05:47:07.949Z</time>
      </trkpt>
      <trkpt lat="42.00853" lon="9.2185">
        <ele>1820.2</ele>
        <time>2017-06-27T05:47:17.911Z</time>
      </trkpt>
      <trkpt lat="42.00851" lon="9.21854">
        <ele>1820.69</ele>
        <time>2017-06-27T05:47:26.933Z</time>
      </trkpt>
      <trkpt lat="42.00854" lon="9.21854">
        <ele>1819.4</ele>
        <time>2017-06-27T05:47:50.917Z</time>
      </trkpt>
      <trkpt lat="42.00852" lon="9.21853">
        <ele>1814.33</ele>
        <time>2017-06-27T05:48:36.945Z</time>
      </trkpt>
      <trkpt lat="42.00856" lon="9.21853">
        <ele>1816.7</ele>
        <time>2017-06-27T05:49:18.917Z</time>
      </trkpt>
      <trkpt lat="42.00858" lon="9.21853">
        <ele>1817.4</ele>
        <time>2017-06-27T05:49:27.939Z</time>
      </trkpt>
      <trkpt lat="42.00856" lon="9.21851">
        <ele>1816.5</ele>
        <time>2017-06-27T05:50:08.916Z</time>
      </trkpt>
      <trkpt lat="42.00855" lon="9.21852">
        <ele>1818.3</ele>
        <time>2017-06-27T05:50:18.912Z</time>
      </trkpt>
      <trkpt lat="42.00853" lon="9.21857">
        <ele>1819.29</ele>
        <time>2017-06-27T05:50:27.913Z</time>
      </trkpt>
      <trkpt lat="42.00856" lon="9.21858">
        <ele>1815.25</ele>
        <time>2017-06-27T05:52:44.943Z</time>
      </trkpt>
      <trkpt lat="42.0086" lon="9.21853">
        <ele>1814.68</ele>
        <time>2017-06-27T05:52:54.912Z</time>
      </trkpt>
      <trkpt lat="42.00856" lon="9.21856">
        <ele>1819.35</ele>
        <time>2017-06-27T05:55:42.935Z</time>
      </trkpt>
      <trkpt lat="42.00857" lon="9.21856">
        <ele>1819.3</ele>
        <time>2017-06-27T05:55:52.934Z</time>
      </trkpt>
      <trkpt lat="42.00858" lon="9.21856">
        <ele>1825</ele>
        <time>2017-06-27T05:56:27.919Z</time>
      </trkpt>
      <trkpt lat="42.00857" lon="9.21857">
        <ele>1824.38</ele>
        <time>2017-06-27T06:02:08.934Z</time>
      </trkpt>
      <trkpt lat="42.00856" lon="9.21858">
        <ele>1825.6</ele>
        <time>2017-06-27T06:02:18.938Z</time>
      </trkpt>
      <trkpt lat="42.00852" lon="9.21856">
        <ele>1824.4</ele>
        <time>2017-06-27T06:02:28.935Z</time>
      </trkpt>
      <trkpt lat="42.00856" lon="9.21851">
        <ele>1823.38</ele>
        <time>2017-06-27T06:02:47.916Z</time>
      </trkpt>
      <trkpt lat="42.00859" lon="9.21853">
        <ele>1821.1</ele>
        <time>2017-06-27T06:02:57.916Z</time>
      </trkpt>
      <trkpt lat="42.00865" lon="9.21857">
        <ele>1822.2</ele>
        <time>2017-06-27T06:03:07.915Z</time>
      </trkpt>
      <trkpt lat="42.00865" lon="9.21859">
        <ele>1822.13</ele>
        <time>2017-06-27T06:03:17.916Z</time>
      </trkpt>
      <trkpt lat="42.00857" lon="9.2186">
        <ele>1818.99</ele>
        <time>2017-06-27T06:03:27.917Z</time>
      </trkpt>
      <trkpt lat="42.00853" lon="9.21856">
        <ele>1817.51</ele>
        <time>2017-06-27T06:03:37.916Z</time>
      </trkpt>
      <trkpt lat="42.00854" lon="9.21854">
        <ele>1823.4</ele>
        <time>2017-06-27T06:05:10.914Z</time>
      </trkpt>
      <trkpt lat="42.00857" lon="9.21854">
        <ele>1825.28</ele>
        <time>2017-06-27T06:05:47.914Z</time>
      </trkpt>
      <trkpt lat="42.00858" lon="9.21856">
        <ele>1824.3</ele>
        <time>2017-06-27T06:06:23.915Z</time>
      </trkpt>
      <trkpt lat="42.00857" lon="9.21855">
        <ele>1823.03</ele>
        <time>2017-06-27T06:06:36.915Z</time>
      </trkpt>
      <trkpt lat="42.0086" lon="9.21854">
        <ele>1820.25</ele>
        <time>2017-06-27T06:07:01.914Z</time>
      </trkpt>
      <trkpt lat="42.00855" lon="9.21853">
        <ele>1808.85</ele>
        <time>2017-06-27T06:07:43.914Z</time>
      </trkpt>
      <trkpt lat="42.00854" lon="9.21854">
        <ele>1805.3</ele>
        <time>2017-06-27T06:07:53.914Z</time>
      </trkpt>
      <trkpt lat="42.00853" lon="9.21854">
        <ele>1805.82</ele>
        <time>2017-06-27T06:08:07.914Z</time>
      </trkpt>
      <trkpt lat="42.00852" lon="9.21851">
        <ele>1806.3</ele>
        <time>2017-06-27T06:08:17.914Z</time>
      </trkpt>
      <trkpt lat="42.00853" lon="9.2185">
        <ele>1811.18</ele>
        <time>2017-06-27T06:09:14.914Z</time>
      </trkpt>
      <trkpt lat="42.00853" lon="9.21844">
        <ele>1811.43</ele>
        <time>2017-06-27T06:09:24.914Z</time>
      </trkpt>
      <trkpt lat="42.0085" lon="9.21834">
        <ele>1812.25</ele>
        <time>2017-06-27T06:09:33.917Z</time>
      </trkpt>
      <trkpt lat="42.00847" lon="9.21822">
        <ele>1812.85</ele>
        <time>2017-06-27T06:09:43.914Z</time>
      </trkpt>
      <trkpt lat="42.00845" lon="9.2181">
        <ele>1813.59</ele>
        <time>2017-06-27T06:09:53.914Z</time>
      </trkpt>
      <trkpt lat="42.00844" lon="9.21795">
        <ele>1812.31</ele>
        <time>2017-06-27T06:10:03.916Z</time>
      </trkpt>
      <trkpt lat="42.00839" lon="9.21781">
        <ele>1813.49</ele>
        <time>2017-06-27T06:10:13.914Z</time>
      </trkpt>
      <trkpt lat="42.00832" lon="9.2177">
        <ele>1811.6</ele>
        <time>2017-06-27T06:10:23.914Z</time>
      </trkpt>
      <trkpt lat="42.00823" lon="9.21763">
        <ele>1812.35</ele>
        <time>2017-06-27T06:10:33.916Z</time>
      </trkpt>
      <trkpt lat="42.00812" lon="9.21758">
        <ele>1813.86</ele>
        <time>2017-06-27T06:10:43.914Z</time>
      </trkpt>
      <trkpt lat="42.00803" lon="9.21745">
        <ele>1815.11</ele>
        <time>2017-06-27T06:10:53.914Z</time>
      </trkpt>
      <trkpt lat="42.00795" lon="9.21733">
        <ele>1815</ele>
        <time>2017-06-27T06:11:03.917Z</time>
      </trkpt>
      <trkpt lat="42.00787" lon="9.21723">
        <ele>1815.13</ele>
        <time>2017-06-27T06:11:13.914Z</time>
      </trkpt>
      <trkpt lat="42.0078" lon="9.21713">
        <ele>1815.35</ele>
        <time>2017-06-27T06:11:22.915Z</time>
      </trkpt>
      <trkpt lat="42.00776" lon="9.21699">
        <ele>1813.78</ele>
        <time>2017-06-27T06:11:32.914Z</time>
      </trkpt>
      <trkpt lat="42.00769" lon="9.21686">
        <ele>1814.31</ele>
        <time>2017-06-27T06:11:42.915Z</time>
      </trkpt>
      <trkpt lat="42.00766" lon="9.21675">
        <ele>1814.53</ele>
        <time>2017-06-27T06:11:51.917Z</time>
      </trkpt>
      <trkpt lat="42.00761" lon="9.21664">
        <ele>1813.65</ele>
        <time>2017-06-27T06:12:01.914Z</time>
      </trkpt>
      <trkpt lat="42.0076" lon="9.21651">
        <ele>1812.71</ele>
        <time>2017-06-27T06:12:11.914Z</time>
      </trkpt>
      <trkpt lat="42.00755" lon="9.21639">
        <ele>1811.51</ele>
        <time>2017-06-27T06:12:21.916Z</time>
      </trkpt>
      <trkpt lat="42.00749" lon="9.21631">
        <ele>1811.79</ele>
        <time>2017-06-27T06:12:31.912Z</time>
      </trkpt>
      <trkpt lat="42.00743" lon="9.21621">
        <ele>1814.24</ele>
        <time>2017-06-27T06:12:40.914Z</time>
      </trkpt>
      <trkpt lat="42.00736" lon="9.21609">
        <ele>1814.7</ele>
        <time>2017-06-27T06:12:50.914Z</time>
      </trkpt>
      <trkpt lat="42.0073" lon="9.21599">
        <ele>1815.23</ele>
        <time>2017-06-27T06:13:00.915Z</time>
      </trkpt>
      <trkpt lat="42.00725" lon="9.2159">
        <ele>1816.33</ele>
        <time>2017-06-27T06:13:09.916Z</time>
      </trkpt>
      <trkpt lat="42.00719" lon="9.2158">
        <ele>1817.63</ele>
        <time>2017-06-27T06:13:19.914Z</time>
      </trkpt>
      <trkpt lat="42.00717" lon="9.21573">
        <ele>1817.07</ele>
        <time>2017-06-27T06:13:29.940Z</time>
      </trkpt>
      <trkpt lat="42.00713" lon="9.21563">
        <ele>1819.95</ele>
        <time>2017-06-27T06:13:39.916Z</time>
      </trkpt>
      <trkpt lat="42.00706" lon="9.21553">
        <ele>1821.08</ele>
        <time>2017-06-27T06:13:49.914Z</time>
      </trkpt>
      <trkpt lat="42.007" lon="9.21543">
        <ele>1821.62</ele>
        <time>2017-06-27T06:13:59.914Z</time>
      </trkpt>
      <trkpt lat="42.00696" lon="9.21535">
        <ele>1824.33</ele>
        <time>2017-06-27T06:14:09.916Z</time>
      </trkpt>
      <trkpt lat="42.0069" lon="9.21526">
        <ele>1824.32</ele>
        <time>2017-06-27T06:14:19.935Z</time>
      </trkpt>
      <trkpt lat="42.00686" lon="9.21517">
        <ele>1824.92</ele>
        <time>2017-06-27T06:14:29.914Z</time>
      </trkpt>
      <trkpt lat="42.00682" lon="9.21506">
        <ele>1825.57</ele>
        <time>2017-06-27T06:14:39.916Z</time>
      </trkpt>
      <trkpt lat="42.00677" lon="9.215">
        <ele>1824.17</ele>
        <time>2017-06-27T06:14:49.914Z</time>
      </trkpt>
      <trkpt lat="42.00672" lon="9.2149">
        <ele>1823.56</ele>
        <time>2017-06-27T06:14:59.915Z</time>
      </trkpt>
      <trkpt lat="42.00664" lon="9.21484">
        <ele>1823.26</ele>
        <time>2017-06-27T06:15:09.916Z</time>
      </trkpt>
      <trkpt lat="42.00659" lon="9.21478">
        <ele>1823.56</ele>
        <time>2017-06-27T06:15:19.914Z</time>
      </trkpt>
      <trkpt lat="42.00652" lon="9.2147">
        <ele>1826.15</ele>
        <time>2017-06-27T06:15:29.929Z</time>
      </trkpt>
      <trkpt lat="42.00645" lon="9.21466">
        <ele>1828.43</ele>
        <time>2017-06-27T06:15:39.917Z</time>
      </trkpt>
      <trkpt lat="42.00637" lon="9.21464">
        <ele>1830.18</ele>
        <time>2017-06-27T06:15:49.914Z</time>
      </trkpt>
      <trkpt lat="42.0063" lon="9.21464">
        <ele>1832.01</ele>
        <time>2017-06-27T06:15:59.914Z</time>
      </trkpt>
      <trkpt lat="42.00624" lon="9.21464">
        <ele>1832.02</ele>
        <time>2017-06-27T06:16:09.916Z</time>
      </trkpt>
      <trkpt lat="42.00617" lon="9.21461">
        <ele>1833.43</ele>
        <time>2017-06-27T06:16:19.914Z</time>
      </trkpt>
      <trkpt lat="42.00609" lon="9.21459">
        <ele>1832.75</ele>
        <time>2017-06-27T06:16:29.914Z</time>
      </trkpt>
      <trkpt lat="42.00601" lon="9.21456">
        <ele>1834.82</ele>
        <time>2017-06-27T06:16:39.916Z</time>
      </trkpt>
      <trkpt lat="42.00594" lon="9.21448">
        <ele>1834.29</ele>
        <time>2017-06-27T06:16:49.914Z</time>
      </trkpt>
      <trkpt lat="42.00585" lon="9.21444">
        <ele>1835.23</ele>
        <time>2017-06-27T06:16:59.914Z</time>
      </trkpt>
      <trkpt lat="42.00577" lon="9.21433">
        <ele>1836.56</ele>
        <time>2017-06-27T06:17:09.917Z</time>
      </trkpt>
      <trkpt lat="42.00572" lon="9.21426">
        <ele>1837.11</ele>
        <time>2017-06-27T06:17:19.914Z</time>
      </trkpt>
      <trkpt lat="42.00566" lon="9.21416">
        <ele>1838.61</ele>
        <time>2017-06-27T06:17:29.914Z</time>
      </trkpt>
      <trkpt lat="42.00557" lon="9.21409">
        <ele>1839.91</ele>
        <time>2017-06-27T06:17:39.916Z</time>
      </trkpt>
      <trkpt lat="42.00547" lon="9.21402">
        <ele>1838.21</ele>
        <time>2017-06-27T06:17:49.914Z</time>
      </trkpt>
      <trkpt lat="42.00537" lon="9.21399">
        <ele>1839.96</ele>
        <time>2017-06-27T06:17:59.914Z</time>
      </trkpt>
      <trkpt lat="42.00527" lon="9.21399">
        <ele>1840.26</ele>
        <time>2017-06-27T06:18:08.915Z</time>
      </trkpt>
      <trkpt lat="42.00517" lon="9.21397">
        <ele>1840.81</ele>
        <time>2017-06-27T06:18:18.915Z</time>
      </trkpt>
      <trkpt lat="42.00509" lon="9.21396">
        <ele>1843.55</ele>
        <time>2017-06-27T06:18:27.917Z</time>
      </trkpt>
      <trkpt lat="42.005" lon="9.21399">
        <ele>1844.13</ele>
        <time>2017-06-27T06:18:37.914Z</time>
      </trkpt>
      <trkpt lat="42.00492" lon="9.21403">
        <ele>1846.22</ele>
        <time>2017-06-27T06:18:47.914Z</time>
      </trkpt>
      <trkpt lat="42.00483" lon="9.21405">
        <ele>1846.89</ele>
        <time>2017-06-27T06:18:57.917Z</time>
      </trkpt>
      <trkpt lat="42.00472" lon="9.21404">
        <ele>1848.22</ele>
        <time>2017-06-27T06:19:07.914Z</time>
      </trkpt>
      <trkpt lat="42.00462" lon="9.21403">
        <ele>1848.21</ele>
        <time>2017-06-27T06:19:17.914Z</time>
      </trkpt>
      <trkpt lat="42.00452" lon="9.21402">
        <ele>1845.88</ele>
        <time>2017-06-27T06:19:27.916Z</time>
      </trkpt>
      <trkpt lat="42.00442" lon="9.214">
        <ele>1846.07</ele>
        <time>2017-06-27T06:19:37.914Z</time>
      </trkpt>
      <trkpt lat="42.00432" lon="9.21403">
        <ele>1846.77</ele>
        <time>2017-06-27T06:19:47.914Z</time>
      </trkpt>
      <trkpt lat="42.00423" lon="9.21409">
        <ele>1847.37</ele>
        <time>2017-06-27T06:19:57.916Z</time>
      </trkpt>
      <trkpt lat="42.00416" lon="9.21413">
        <ele>1847.21</ele>
        <time>2017-06-27T06:20:07.914Z</time>
      </trkpt>
      <trkpt lat="42.0041" lon="9.21411">
        <ele>1851.82</ele>
        <time>2017-06-27T06:20:17.914Z</time>
      </trkpt>
      <trkpt lat="42.00404" lon="9.21407">
        <ele>1852.36</ele>
        <time>2017-06-27T06:20:27.916Z</time>
      </trkpt>
      <trkpt lat="42.00397" lon="9.21411">
        <ele>1852.65</ele>
        <time>2017-06-27T06:20:37.914Z</time>
      </trkpt>
      <trkpt lat="42.00391" lon="9.21413">
        <ele>1854.29</ele>
        <time>2017-06-27T06:20:47.914Z</time>
      </trkpt>
      <trkpt lat="42.00388" lon="9.21418">
        <ele>1855.94</ele>
        <time>2017-06-27T06:20:57.916Z</time>
      </trkpt>
      <trkpt lat="42.00384" lon="9.21426">
        <ele>1855.53</ele>
        <time>2017-06-27T06:21:07.914Z</time>
      </trkpt>
      <trkpt lat="42.00382" lon="9.21431">
        <ele>1857.23</ele>
        <time>2017-06-27T06:21:17.914Z</time>
      </trkpt>
      <trkpt lat="42.00376" lon="9.21434">
        <ele>1859.65</ele>
        <time>2017-06-27T06:21:27.916Z</time>
      </trkpt>
      <trkpt lat="42.00375" lon="9.21439">
        <ele>1861.52</ele>
        <time>2017-06-27T06:21:37.914Z</time>
      </trkpt>
      <trkpt lat="42.0037" lon="9.21439">
        <ele>1864.07</ele>
        <time>2017-06-27T06:21:46.915Z</time>
      </trkpt>
      <trkpt lat="42.00367" lon="9.21435">
        <ele>1865.04</ele>
        <time>2017-06-27T06:21:56.914Z</time>
      </trkpt>
      <trkpt lat="42.00364" lon="9.21431">
        <ele>1865.56</ele>
        <time>2017-06-27T06:22:06.914Z</time>
      </trkpt>
      <trkpt lat="42.0036" lon="9.21429">
        <ele>1865.52</ele>
        <time>2017-06-27T06:22:15.917Z</time>
      </trkpt>
      <trkpt lat="42.00357" lon="9.21424">
        <ele>1866.8</ele>
        <time>2017-06-27T06:22:25.914Z</time>
      </trkpt>
      <trkpt lat="42.00356" lon="9.21424">
        <ele>1867.3</ele>
        <time>2017-06-27T06:22:35.913Z</time>
      </trkpt>
      <trkpt lat="42.00354" lon="9.21426">
        <ele>1871.7</ele>
        <time>2017-06-27T06:22:44.945Z</time>
      </trkpt>
      <trkpt lat="42.00349" lon="9.21431">
        <ele>1874.21</ele>
        <time>2017-06-27T06:22:54.914Z</time>
      </trkpt>
      <trkpt lat="42.00345" lon="9.2143">
        <ele>1874.18</ele>
        <time>2017-06-27T06:23:03.917Z</time>
      </trkpt>
      <trkpt lat="42.00337" lon="9.21426">
        <ele>1874.75</ele>
        <time>2017-06-27T06:23:13.914Z</time>
      </trkpt>
      <trkpt lat="42.00333" lon="9.21426">
        <ele>1876.4</ele>
        <time>2017-06-27T06:23:23.914Z</time>
      </trkpt>
      <trkpt lat="42.00329" lon="9.21428">
        <ele>1878.14</ele>
        <time>2017-06-27T06:23:33.916Z</time>
      </trkpt>
      <trkpt lat="42.00324" lon="9.21433">
        <ele>1880.24</ele>
        <time>2017-06-27T06:23:43.913Z</time>
      </trkpt>
      <trkpt lat="42.00322" lon="9.21438">
        <ele>1881.62</ele>
        <time>2017-06-27T06:23:53.913Z</time>
      </trkpt>
      <trkpt lat="42.00322" lon="9.21445">
        <ele>1882.14</ele>
        <time>2017-06-27T06:24:03.916Z</time>
      </trkpt>
      <trkpt lat="42.00318" lon="9.21446">
        <ele>1882.8</ele>
        <time>2017-06-27T06:24:13.913Z</time>
      </trkpt>
      <trkpt lat="42.00311" lon="9.21446">
        <ele>1883.55</ele>
        <time>2017-06-27T06:24:23.913Z</time>
      </trkpt>
      <trkpt lat="42.00309" lon="9.21445">
        <ele>1886.77</ele>
        <time>2017-06-27T06:24:33.915Z</time>
      </trkpt>
      <trkpt lat="42.00307" lon="9.21448">
        <ele>1891.22</ele>
        <time>2017-06-27T06:24:45.915Z</time>
      </trkpt>
      <trkpt lat="42.00303" lon="9.21453">
        <ele>1894.55</ele>
        <time>2017-06-27T06:24:55.913Z</time>
      </trkpt>
      <trkpt lat="42.00301" lon="9.21457">
        <ele>1894.67</ele>
        <time>2017-06-27T06:25:05.911Z</time>
      </trkpt>
      <trkpt lat="42.00299" lon="9.21461">
        <ele>1893.2</ele>
        <time>2017-06-27T06:25:14.913Z</time>
      </trkpt>
      <trkpt lat="42.00295" lon="9.21465">
        <ele>1894.56</ele>
        <time>2017-06-27T06:25:24.913Z</time>
      </trkpt>
      <trkpt lat="42.00294" lon="9.2147">
        <ele>1896.18</ele>
        <time>2017-06-27T06:25:33.915Z</time>
      </trkpt>
      <trkpt lat="42.00289" lon="9.21475">
        <ele>1894.8</ele>
        <time>2017-06-27T06:25:43.913Z</time>
      </trkpt>
      <trkpt lat="42.00285" lon="9.21477">
        <ele>1895.33</ele>
        <time>2017-06-27T06:25:52.914Z</time>
      </trkpt>
      <trkpt lat="42.00282" lon="9.2148">
        <ele>1897.83</ele>
        <time>2017-06-27T06:26:02.913Z</time>
      </trkpt>
      <trkpt lat="42.00276" lon="9.21485">
        <ele>1898.43</ele>
        <time>2017-06-27T06:26:12.913Z</time>
      </trkpt>
      <trkpt lat="42.00273" lon="9.21494">
        <ele>1899.09</ele>
        <time>2017-06-27T06:26:21.915Z</time>
      </trkpt>
      <trkpt lat="42.00269" lon="9.21499">
        <ele>1902.45</ele>
        <time>2017-06-27T06:26:31.913Z</time>
      </trkpt>
      <trkpt lat="42.00265" lon="9.21504">
        <ele>1902.37</ele>
        <time>2017-06-27T06:26:41.913Z</time>
      </trkpt>
      <trkpt lat="42.00259" lon="9.21502">
        <ele>1902.53</ele>
        <time>2017-06-27T06:26:51.915Z</time>
      </trkpt>
      <trkpt lat="42.00255" lon="9.21501">
        <ele>1903.54</ele>
        <time>2017-06-27T06:27:01.913Z</time>
      </trkpt>
      <trkpt lat="42.00252" lon="9.21498">
        <ele>1905.5</ele>
        <time>2017-06-27T06:27:11.913Z</time>
      </trkpt>
      <trkpt lat="42.0025" lon="9.21499">
        <ele>1906.9</ele>
        <time>2017-06-27T06:27:21.915Z</time>
      </trkpt>
      <trkpt lat="42.00245" lon="9.21495">
        <ele>1908.8</ele>
        <time>2017-06-27T06:27:31.911Z</time>
      </trkpt>
      <trkpt lat="42.00242" lon="9.21495">
        <ele>1911.32</ele>
        <time>2017-06-27T06:27:40.913Z</time>
      </trkpt>
      <trkpt lat="42.0024" lon="9.21496">
        <ele>1913.3</ele>
        <time>2017-06-27T06:27:49.914Z</time>
      </trkpt>
      <trkpt lat="42.00237" lon="9.21502">
        <ele>1914.91</ele>
        <time>2017-06-27T06:27:59.913Z</time>
      </trkpt>
      <trkpt lat="42.00232" lon="9.21511">
        <ele>1915.14</ele>
        <time>2017-06-27T06:28:08.914Z</time>
      </trkpt>
      <trkpt lat="42.00225" lon="9.2152">
        <ele>1915.58</ele>
        <time>2017-06-27T06:28:18.913Z</time>
      </trkpt>
      <trkpt lat="42.00222" lon="9.21524">
        <ele>1916.17</ele>
        <time>2017-06-27T06:28:27.915Z</time>
      </trkpt>
      <trkpt lat="42.00216" lon="9.2153">
        <ele>1916.45</ele>
        <time>2017-06-27T06:28:37.913Z</time>
      </trkpt>
      <trkpt lat="42.00212" lon="9.21538">
        <ele>1918.24</ele>
        <time>2017-06-27T06:28:47.913Z</time>
      </trkpt>
      <trkpt lat="42.00209" lon="9.21544">
        <ele>1920.65</ele>
        <time>2017-06-27T06:28:57.915Z</time>
      </trkpt>
      <trkpt lat="42.00203" lon="9.21549">
        <ele>1922.39</ele>
        <time>2017-06-27T06:29:07.913Z</time>
      </trkpt>
      <trkpt lat="42.00199" lon="9.21557">
        <ele>1922.89</ele>
        <time>2017-06-27T06:29:17.913Z</time>
      </trkpt>
      <trkpt lat="42.00199" lon="9.2156">
        <ele>1924.4</ele>
        <time>2017-06-27T06:29:27.915Z</time>
      </trkpt>
      <trkpt lat="42.00193" lon="9.21565">
        <ele>1925.55</ele>
        <time>2017-06-27T06:29:37.913Z</time>
      </trkpt>
      <trkpt lat="42.00188" lon="9.21568">
        <ele>1925.85</ele>
        <time>2017-06-27T06:29:46.925Z</time>
      </trkpt>
      <trkpt lat="42.00182" lon="9.21572">
        <ele>1926.15</ele>
        <time>2017-06-27T06:29:56.913Z</time>
      </trkpt>
      <trkpt lat="42.00178" lon="9.21575">
        <ele>1926.35</ele>
        <time>2017-06-27T06:30:06.913Z</time>
      </trkpt>
      <trkpt lat="42.00177" lon="9.21579">
        <ele>1927.64</ele>
        <time>2017-06-27T06:30:15.916Z</time>
      </trkpt>
      <trkpt lat="42.00176" lon="9.21583">
        <ele>1931.15</ele>
        <time>2017-06-27T06:30:25.913Z</time>
      </trkpt>
      <trkpt lat="42.00169" lon="9.21584">
        <ele>1934.59</ele>
        <time>2017-06-27T06:30:35.914Z</time>
      </trkpt>
      <trkpt lat="42.00165" lon="9.21586">
        <ele>1936.99</ele>
        <time>2017-06-27T06:30:45.916Z</time>
      </trkpt>
      <trkpt lat="42.00161" lon="9.21585">
        <ele>1938.31</ele>
        <time>2017-06-27T06:30:55.913Z</time>
      </trkpt>
      <trkpt lat="42.00157" lon="9.21588">
        <ele>1940.27</ele>
        <time>2017-06-27T06:31:05.914Z</time>
      </trkpt>
      <trkpt lat="42.00158" lon="9.21592">
        <ele>1940.89</ele>
        <time>2017-06-27T06:31:15.916Z</time>
      </trkpt>
      <trkpt lat="42.00162" lon="9.216">
        <ele>1942.44</ele>
        <time>2017-06-27T06:31:25.914Z</time>
      </trkpt>
      <trkpt lat="42.00158" lon="9.21606">
        <ele>1940.52</ele>
        <time>2017-06-27T06:31:35.913Z</time>
      </trkpt>
      <trkpt lat="42.00153" lon="9.21607">
        <ele>1940.59</ele>
        <time>2017-06-27T06:31:45.916Z</time>
      </trkpt>
      <trkpt lat="42.00146" lon="9.21607">
        <ele>1942.17</ele>
        <time>2017-06-27T06:31:55.914Z</time>
      </trkpt>
      <trkpt lat="42.0014" lon="9.21605">
        <ele>1944.72</ele>
        <time>2017-06-27T06:32:05.914Z</time>
      </trkpt>
      <trkpt lat="42.00137" lon="9.21604">
        <ele>1946.4</ele>
        <time>2017-06-27T06:32:15.916Z</time>
      </trkpt>
      <trkpt lat="42.00132" lon="9.21602">
        <ele>1948.12</ele>
        <time>2017-06-27T06:32:25.913Z</time>
      </trkpt>
      <trkpt lat="42.00127" lon="9.21601">
        <ele>1948.77</ele>
        <time>2017-06-27T06:32:35.911Z</time>
      </trkpt>
      <trkpt lat="42.00128" lon="9.21604">
        <ele>1949.28</ele>
        <time>2017-06-27T06:32:44.913Z</time>
      </trkpt>
      <trkpt lat="42.00122" lon="9.21604">
        <ele>1949.22</ele>
        <time>2017-06-27T06:32:56.913Z</time>
      </trkpt>
      <trkpt lat="42.0012" lon="9.21604">
        <ele>1949.79</ele>
        <time>2017-06-27T06:33:05.914Z</time>
      </trkpt>
      <trkpt lat="42.00118" lon="9.21605">
        <ele>1951.98</ele>
        <time>2017-06-27T06:33:15.916Z</time>
      </trkpt>
      <trkpt lat="42.00114" lon="9.21604">
        <ele>1953.37</ele>
        <time>2017-06-27T06:33:25.913Z</time>
      </trkpt>
      <trkpt lat="42.00108" lon="9.21601">
        <ele>1955.18</ele>
        <time>2017-06-27T06:33:35.913Z</time>
      </trkpt>
      <trkpt lat="42.00105" lon="9.21599">
        <ele>1958.77</ele>
        <time>2017-06-27T06:33:45.917Z</time>
      </trkpt>
      <trkpt lat="42.00105" lon="9.21601">
        <ele>1959.8</ele>
        <time>2017-06-27T06:33:55.913Z</time>
      </trkpt>
      <trkpt lat="42.00104" lon="9.21604">
        <ele>1961.6</ele>
        <time>2017-06-27T06:34:05.913Z</time>
      </trkpt>
      <trkpt lat="42.00102" lon="9.21606">
        <ele>1962.06</ele>
        <time>2017-06-27T06:34:15.916Z</time>
      </trkpt>
      <trkpt lat="42.00098" lon="9.21608">
        <ele>1962.4</ele>
        <time>2017-06-27T06:34:25.913Z</time>
      </trkpt>
      <trkpt lat="42.00096" lon="9.2161">
        <ele>1961.3</ele>
        <time>2017-06-27T06:34:35.913Z</time>
      </trkpt>
      <trkpt lat="42.00093" lon="9.21611">
        <ele>1960.83</ele>
        <time>2017-06-27T06:34:45.915Z</time>
      </trkpt>
      <trkpt lat="42.00085" lon="9.21614">
        <ele>1965.08</ele>
        <time>2017-06-27T06:35:32.913Z</time>
      </trkpt>
      <trkpt lat="42.00082" lon="9.21615">
        <ele>1966.1</ele>
        <time>2017-06-27T06:35:42.913Z</time>
      </trkpt>
      <trkpt lat="42.00076" lon="9.21615">
        <ele>1970.3</ele>
        <time>2017-06-27T06:36:05.913Z</time>
      </trkpt>
      <trkpt lat="42.00076" lon="9.21617">
        <ele>1971.81</ele>
        <time>2017-06-27T06:36:15.915Z</time>
      </trkpt>
      <trkpt lat="42.00076" lon="9.2162">
        <ele>1973.1</ele>
        <time>2017-06-27T06:36:25.913Z</time>
      </trkpt>
      <trkpt lat="42.00076" lon="9.21627">
        <ele>1976.38</ele>
        <time>2017-06-27T06:36:35.913Z</time>
      </trkpt>
      <trkpt lat="42.00073" lon="9.21629">
        <ele>1976.88</ele>
        <time>2017-06-27T06:36:44.914Z</time>
      </trkpt>
      <trkpt lat="42.00066" lon="9.21628">
        <ele>1979.9</ele>
        <time>2017-06-27T06:37:16.913Z</time>
      </trkpt>
      <trkpt lat="42.00062" lon="9.21624">
        <ele>1983.13</ele>
        <time>2017-06-27T06:37:33.915Z</time>
      </trkpt>
      <trkpt lat="42.00057" lon="9.2162">
        <ele>1985.16</ele>
        <time>2017-06-27T06:37:43.913Z</time>
      </trkpt>
      <trkpt lat="42.00053" lon="9.2162">
        <ele>1985.69</ele>
        <time>2017-06-27T06:37:53.935Z</time>
      </trkpt>
      <trkpt lat="42.00049" lon="9.21622">
        <ele>1985.3</ele>
        <time>2017-06-27T06:38:03.916Z</time>
      </trkpt>
      <trkpt lat="42.00044" lon="9.21623">
        <ele>1983.23</ele>
        <time>2017-06-27T06:38:13.914Z</time>
      </trkpt>
      <trkpt lat="42.00037" lon="9.21622">
        <ele>1980.24</ele>
        <time>2017-06-27T06:38:23.913Z</time>
      </trkpt>
      <trkpt lat="42.00036" lon="9.21622">
        <ele>1978.8</ele>
        <time>2017-06-27T06:38:33.915Z</time>
      </trkpt>
      <trkpt lat="42.00033" lon="9.21618">
        <ele>1982.62</ele>
        <time>2017-06-27T06:38:57.916Z</time>
      </trkpt>
      <trkpt lat="42.00027" lon="9.21618">
        <ele>1984.77</ele>
        <time>2017-06-27T06:39:07.913Z</time>
      </trkpt>
      <trkpt lat="42.00025" lon="9.21616">
        <ele>1985.8</ele>
        <time>2017-06-27T06:39:22.913Z</time>
      </trkpt>
      <trkpt lat="42.00025" lon="9.21615">
        <ele>1985.5</ele>
        <time>2017-06-27T06:39:32.913Z</time>
      </trkpt>
      <trkpt lat="42.00023" lon="9.21613">
        <ele>1979.58</ele>
        <time>2017-06-27T06:39:55.913Z</time>
      </trkpt>
      <trkpt lat="42.0002" lon="9.21616">
        <ele>1976.98</ele>
        <time>2017-06-27T06:40:05.911Z</time>
      </trkpt>
      <trkpt lat="42.00018" lon="9.21614">
        <ele>1977.1</ele>
        <time>2017-06-27T06:40:14.913Z</time>
      </trkpt>
      <trkpt lat="42.00012" lon="9.21609">
        <ele>1977.5</ele>
        <time>2017-06-27T06:40:24.913Z</time>
      </trkpt>
      <trkpt lat="42.00007" lon="9.21601">
        <ele>1976.37</ele>
        <time>2017-06-27T06:40:33.915Z</time>
      </trkpt>
      <trkpt lat="42.00002" lon="9.21599">
        <ele>1974.75</ele>
        <time>2017-06-27T06:40:43.913Z</time>
      </trkpt>
      <trkpt lat="41.99995" lon="9.21595">
        <ele>1974.38</ele>
        <time>2017-06-27T06:40:53.913Z</time>
      </trkpt>
      <trkpt lat="41.9999" lon="9.21592">
        <ele>1974.84</ele>
        <time>2017-06-27T06:41:03.915Z</time>
      </trkpt>
      <trkpt lat="41.99988" lon="9.21589">
        <ele>1974.9</ele>
        <time>2017-06-27T06:41:13.913Z</time>
      </trkpt>
      <trkpt lat="41.99983" lon="9.21585">
        <ele>1975.66</ele>
        <time>2017-06-27T06:41:23.913Z</time>
      </trkpt>
      <trkpt lat="41.99979" lon="9.21581">
        <ele>1978.32</ele>
        <time>2017-06-27T06:41:33.916Z</time>
      </trkpt>
      <trkpt lat="41.99974" lon="9.21583">
        <ele>1980.71</ele>
        <time>2017-06-27T06:41:43.913Z</time>
      </trkpt>
      <trkpt lat="41.99968" lon="9.21582">
        <ele>1978.9</ele>
        <time>2017-06-27T06:42:10.913Z</time>
      </trkpt>
      <trkpt lat="41.99967" lon="9.21582">
        <ele>1978.8</ele>
        <time>2017-06-27T06:42:20.913Z</time>
      </trkpt>
      <trkpt lat="41.99964" lon="9.21577">
        <ele>1975.2</ele>
        <time>2017-06-27T06:42:30.912Z</time>
      </trkpt>
      <trkpt lat="41.99965" lon="9.21576">
        <ele>1971.7</ele>
        <time>2017-06-27T06:42:39.915Z</time>
      </trkpt>
      <trkpt lat="41.99964" lon="9.21577">
        <ele>1975</ele>
        <time>2017-06-27T06:42:54.913Z</time>
      </trkpt>
      <trkpt lat="41.99963" lon="9.21576">
        <ele>1976.1</ele>
        <time>2017-06-27T06:43:03.915Z</time>
      </trkpt>
      <trkpt lat="41.99957" lon="9.21578">
        <ele>1976.55</ele>
        <time>2017-06-27T06:43:22.913Z</time>
      </trkpt>
      <trkpt lat="41.99956" lon="9.21577">
        <ele>1972.48</ele>
        <time>2017-06-27T06:43:32.913Z</time>
      </trkpt>
      <trkpt lat="41.9995" lon="9.21579">
        <ele>1969.8</ele>
        <time>2017-06-27T06:44:10.913Z</time>
      </trkpt>
      <trkpt lat="41.99947" lon="9.21579">
        <ele>1965.83</ele>
        <time>2017-06-27T06:44:20.913Z</time>
      </trkpt>
      <trkpt lat="41.99946" lon="9.21581">
        <ele>1966.5</ele>
        <time>2017-06-27T06:44:30.913Z</time>
      </trkpt>
      <trkpt lat="41.99946" lon="9.21583">
        <ele>1965.11</ele>
        <time>2017-06-27T06:44:39.915Z</time>
      </trkpt>
      <trkpt lat="41.99942" lon="9.21588">
        <ele>1963.28</ele>
        <time>2017-06-27T06:45:01.913Z</time>
      </trkpt>
      <trkpt lat="41.99941" lon="9.21588">
        <ele>1961.3</ele>
        <time>2017-06-27T06:45:11.913Z</time>
      </trkpt>
      <trkpt lat="41.99935" lon="9.21589">
        <ele>1957.85</ele>
        <time>2017-06-27T06:45:21.915Z</time>
      </trkpt>
      <trkpt lat="41.99931" lon="9.21588">
        <ele>1954.11</ele>
        <time>2017-06-27T06:45:31.913Z</time>
      </trkpt>
      <trkpt lat="41.99927" lon="9.21588">
        <ele>1953.42</ele>
        <time>2017-06-27T06:45:41.913Z</time>
      </trkpt>
      <trkpt lat="41.99922" lon="9.21588">
        <ele>1951.93</ele>
        <time>2017-06-27T06:45:53.913Z</time>
      </trkpt>
      <trkpt lat="41.99919" lon="9.21591">
        <ele>1952.12</ele>
        <time>2017-06-27T06:46:03.915Z</time>
      </trkpt>
      <trkpt lat="41.99914" lon="9.21596">
        <ele>1955.03</ele>
        <time>2017-06-27T06:46:13.913Z</time>
      </trkpt>
      <trkpt lat="41.99907" lon="9.21594">
        <ele>1956.18</ele>
        <time>2017-06-27T06:46:53.913Z</time>
      </trkpt>
      <trkpt lat="41.999" lon="9.21593">
        <ele>1955.56</ele>
        <time>2017-06-27T06:47:02.914Z</time>
      </trkpt>
      <trkpt lat="41.99896" lon="9.21592">
        <ele>1954.58</ele>
        <time>2017-06-27T06:47:12.913Z</time>
      </trkpt>
      <trkpt lat="41.99894" lon="9.21593">
        <ele>1953.9</ele>
        <time>2017-06-27T06:47:39.915Z</time>
      </trkpt>
      <trkpt lat="41.9989" lon="9.21592">
        <ele>1952.53</ele>
        <time>2017-06-27T06:47:51.915Z</time>
      </trkpt>
      <trkpt lat="41.99886" lon="9.21589">
        <ele>1951.24</ele>
        <time>2017-06-27T06:48:01.913Z</time>
      </trkpt>
      <trkpt lat="41.99881" lon="9.21584">
        <ele>1951.08</ele>
        <time>2017-06-27T06:48:26.913Z</time>
      </trkpt>
      <trkpt lat="41.99884" lon="9.2158">
        <ele>1951.38</ele>
        <time>2017-06-27T06:48:53.913Z</time>
      </trkpt>
      <trkpt lat="41.99879" lon="9.21576">
        <ele>1953.02</ele>
        <time>2017-06-27T06:49:13.913Z</time>
      </trkpt>
      <trkpt lat="41.99875" lon="9.21575">
        <ele>1954.27</ele>
        <time>2017-06-27T06:49:23.913Z</time>
      </trkpt>
      <trkpt lat="41.99873" lon="9.21572">
        <ele>1954.7</ele>
        <time>2017-06-27T06:49:33.915Z</time>
      </trkpt>
      <trkpt lat="41.99869" lon="9.21573">
        <ele>1954.97</ele>
        <time>2017-06-27T06:49:43.913Z</time>
      </trkpt>
      <trkpt lat="41.99866" lon="9.21575">
        <ele>1955.3</ele>
        <time>2017-06-27T06:49:53.912Z</time>
      </trkpt>
      <trkpt lat="41.99859" lon="9.21576">
        <ele>1955.67</ele>
        <time>2017-06-27T06:50:02.913Z</time>
      </trkpt>
      <trkpt lat="41.99855" lon="9.21575">
        <ele>1955.9</ele>
        <time>2017-06-27T06:50:12.913Z</time>
      </trkpt>
      <trkpt lat="41.99852" lon="9.21574">
        <ele>1956.17</ele>
        <time>2017-06-27T06:50:21.914Z</time>
      </trkpt>
      <trkpt lat="41.99849" lon="9.21572">
        <ele>1956.9</ele>
        <time>2017-06-27T06:50:31.980Z</time>
      </trkpt>
      <trkpt lat="41.99844" lon="9.21571">
        <ele>1957.4</ele>
        <time>2017-06-27T06:50:41.912Z</time>
      </trkpt>
      <trkpt lat="41.99841" lon="9.2157">
        <ele>1957.2</ele>
        <time>2017-06-27T06:50:51.914Z</time>
      </trkpt>
      <trkpt lat="41.99837" lon="9.21574">
        <ele>1957.03</ele>
        <time>2017-06-27T06:51:01.912Z</time>
      </trkpt>
      <trkpt lat="41.9983" lon="9.21575">
        <ele>1956.43</ele>
        <time>2017-06-27T06:51:11.912Z</time>
      </trkpt>
      <trkpt lat="41.99826" lon="9.21575">
        <ele>1955.8</ele>
        <time>2017-06-27T06:51:21.928Z</time>
      </trkpt>
      <trkpt lat="41.99822" lon="9.21577">
        <ele>1955.73</ele>
        <time>2017-06-27T06:51:32.911Z</time>
      </trkpt>
      <trkpt lat="41.9982" lon="9.21578">
        <ele>1955.7</ele>
        <time>2017-06-27T06:51:42.911Z</time>
      </trkpt>
      <trkpt lat="41.99822" lon="9.21576">
        <ele>1955.79</ele>
        <time>2017-06-27T06:51:51.913Z</time>
      </trkpt>
      <trkpt lat="41.99819" lon="9.21584">
        <ele>1955.8</ele>
        <time>2017-06-27T06:52:01.911Z</time>
      </trkpt>
      <trkpt lat="41.99817" lon="9.21581">
        <ele>1956.02</ele>
        <time>2017-06-27T06:52:12.911Z</time>
      </trkpt>
      <trkpt lat="41.99816" lon="9.21581">
        <ele>1956.1</ele>
        <time>2017-06-27T06:52:21.913Z</time>
      </trkpt>
      <trkpt lat="41.99808" lon="9.21587">
        <ele>1956.1</ele>
        <time>2017-06-27T06:53:27.913Z</time>
      </trkpt>
      <trkpt lat="41.99805" lon="9.21587">
        <ele>1956.2</ele>
        <time>2017-06-27T06:53:37.911Z</time>
      </trkpt>
      <trkpt lat="41.998" lon="9.21586">
        <ele>1956.4</ele>
        <time>2017-06-27T06:53:46.912Z</time>
      </trkpt>
      <trkpt lat="41.99802" lon="9.21591">
        <ele>1956.47</ele>
        <time>2017-06-27T06:53:58.911Z</time>
      </trkpt>
      <trkpt lat="41.99797" lon="9.21595">
        <ele>1956.7</ele>
        <time>2017-06-27T06:54:08.912Z</time>
      </trkpt>
      <trkpt lat="41.99794" lon="9.21593">
        <ele>1956.9</ele>
        <time>2017-06-27T06:54:18.911Z</time>
      </trkpt>
      <trkpt lat="41.99794" lon="9.21591">
        <ele>1956.98</ele>
        <time>2017-06-27T06:54:55.911Z</time>
      </trkpt>
      <trkpt lat="41.9979" lon="9.21599">
        <ele>1957.2</ele>
        <time>2017-06-27T06:55:05.909Z</time>
      </trkpt>
      <trkpt lat="41.99785" lon="9.216">
        <ele>1957.4</ele>
        <time>2017-06-27T06:55:14.911Z</time>
      </trkpt>
      <trkpt lat="41.9978" lon="9.21597">
        <ele>1957.69</ele>
        <time>2017-06-27T06:55:23.912Z</time>
      </trkpt>
      <trkpt lat="41.99777" lon="9.21594">
        <ele>1957.9</ele>
        <time>2017-06-27T06:55:33.914Z</time>
      </trkpt>
      <trkpt lat="41.99773" lon="9.21593">
        <ele>1958.05</ele>
        <time>2017-06-27T06:55:43.913Z</time>
      </trkpt>
      <trkpt lat="41.99769" lon="9.21593">
        <ele>1958.57</ele>
        <time>2017-06-27T06:55:53.912Z</time>
      </trkpt>
      <trkpt lat="41.99767" lon="9.21593">
        <ele>1959.1</ele>
        <time>2017-06-27T06:56:03.914Z</time>
      </trkpt>
      <trkpt lat="41.99759" lon="9.21604">
        <ele>1963.08</ele>
        <time>2017-06-27T06:56:13.912Z</time>
      </trkpt>
      <trkpt lat="41.99758" lon="9.2161">
        <ele>1966.8</ele>
        <time>2017-06-27T06:56:23.912Z</time>
      </trkpt>
      <trkpt lat="41.99757" lon="9.21613">
        <ele>1968.58</ele>
        <time>2017-06-27T06:56:33.914Z</time>
      </trkpt>
      <trkpt lat="41.99757" lon="9.21616">
        <ele>1967.83</ele>
        <time>2017-06-27T06:56:43.911Z</time>
      </trkpt>
      <trkpt lat="41.99754" lon="9.21621">
        <ele>1967.31</ele>
        <time>2017-06-27T06:56:52.912Z</time>
      </trkpt>
      <trkpt lat="41.99747" lon="9.21632">
        <ele>1978.38</ele>
        <time>2017-06-27T06:57:02.912Z</time>
      </trkpt>
      <trkpt lat="41.99742" lon="9.21636">
        <ele>1981.51</ele>
        <time>2017-06-27T06:57:12.912Z</time>
      </trkpt>
      <trkpt lat="41.99739" lon="9.21639">
        <ele>1980.7</ele>
        <time>2017-06-27T06:57:21.914Z</time>
      </trkpt>
      <trkpt lat="41.9973" lon="9.21643">
        <ele>1982.63</ele>
        <time>2017-06-27T06:57:31.912Z</time>
      </trkpt>
      <trkpt lat="41.99721" lon="9.21649">
        <ele>1978.97</ele>
        <time>2017-06-27T06:57:41.912Z</time>
      </trkpt>
      <trkpt lat="41.99715" lon="9.21654">
        <ele>1979.47</ele>
        <time>2017-06-27T06:57:51.914Z</time>
      </trkpt>
      <trkpt lat="41.99713" lon="9.21658">
        <ele>1980.34</ele>
        <time>2017-06-27T06:58:00.921Z</time>
      </trkpt>
      <trkpt lat="41.9971" lon="9.21661">
        <ele>1981.07</ele>
        <time>2017-06-27T06:58:10.913Z</time>
      </trkpt>
      <trkpt lat="41.99707" lon="9.21664">
        <ele>1982.41</ele>
        <time>2017-06-27T06:58:20.913Z</time>
      </trkpt>
      <trkpt lat="41.99706" lon="9.2167">
        <ele>1984.23</ele>
        <time>2017-06-27T06:58:30.912Z</time>
      </trkpt>
      <trkpt lat="41.99703" lon="9.21666">
        <ele>1983.78</ele>
        <time>2017-06-27T06:58:55.912Z</time>
      </trkpt>
      <trkpt lat="41.99698" lon="9.21672">
        <ele>1986.67</ele>
        <time>2017-06-27T06:59:05.911Z</time>
      </trkpt>
      <trkpt lat="41.99695" lon="9.21676">
        <ele>1989.49</ele>
        <time>2017-06-27T06:59:14.912Z</time>
      </trkpt>
      <trkpt lat="41.99689" lon="9.21686">
        <ele>1993.48</ele>
        <time>2017-06-27T06:59:49.911Z</time>
      </trkpt>
      <trkpt lat="41.99688" lon="9.21686">
        <ele>1994.6</ele>
        <time>2017-06-27T06:59:58.912Z</time>
      </trkpt>
      <trkpt lat="41.99686" lon="9.2169">
        <ele>2000.29</ele>
        <time>2017-06-27T07:00:08.912Z</time>
      </trkpt>
      <trkpt lat="41.99681" lon="9.21694">
        <ele>2000.78</ele>
        <time>2017-06-27T07:00:18.912Z</time>
      </trkpt>
      <trkpt lat="41.9968" lon="9.21701">
        <ele>1998.2</ele>
        <time>2017-06-27T07:00:27.914Z</time>
      </trkpt>
      <trkpt lat="41.99679" lon="9.21703">
        <ele>1998.2</ele>
        <time>2017-06-27T07:00:37.912Z</time>
      </trkpt>
      <trkpt lat="41.99675" lon="9.21708">
        <ele>2001.12</ele>
        <time>2017-06-27T07:00:47.910Z</time>
      </trkpt>
      <trkpt lat="41.99674" lon="9.21713">
        <ele>2000.53</ele>
        <time>2017-06-27T07:00:56.912Z</time>
      </trkpt>
      <trkpt lat="41.99672" lon="9.21723">
        <ele>2000.2</ele>
        <time>2017-06-27T07:01:06.940Z</time>
      </trkpt>
      <trkpt lat="41.99667" lon="9.21725">
        <ele>1998.69</ele>
        <time>2017-06-27T07:01:16.912Z</time>
      </trkpt>
      <trkpt lat="41.99663" lon="9.21729">
        <ele>1997.7</ele>
        <time>2017-06-27T07:01:26.912Z</time>
      </trkpt>
      <trkpt lat="41.99659" lon="9.21732">
        <ele>1997.05</ele>
        <time>2017-06-27T07:01:47.912Z</time>
      </trkpt>
      <trkpt lat="41.99656" lon="9.21733">
        <ele>1998.88</ele>
        <time>2017-06-27T07:01:57.914Z</time>
      </trkpt>
      <trkpt lat="41.99654" lon="9.21738">
        <ele>2000.09</ele>
        <time>2017-06-27T07:02:07.912Z</time>
      </trkpt>
      <trkpt lat="41.99653" lon="9.21743">
        <ele>1999.05</ele>
        <time>2017-06-27T07:02:32.912Z</time>
      </trkpt>
      <trkpt lat="41.99652" lon="9.21748">
        <ele>1994.56</ele>
        <time>2017-06-27T07:02:42.912Z</time>
      </trkpt>
      <trkpt lat="41.99653" lon="9.21754">
        <ele>1996.72</ele>
        <time>2017-06-27T07:02:51.914Z</time>
      </trkpt>
      <trkpt lat="41.99652" lon="9.21761">
        <ele>1997.32</ele>
        <time>2017-06-27T07:03:01.912Z</time>
      </trkpt>
      <trkpt lat="41.99651" lon="9.21768">
        <ele>1996.14</ele>
        <time>2017-06-27T07:03:11.912Z</time>
      </trkpt>
      <trkpt lat="41.99649" lon="9.21772">
        <ele>1996.49</ele>
        <time>2017-06-27T07:03:21.914Z</time>
      </trkpt>
      <trkpt lat="41.99649" lon="9.21776">
        <ele>2000.59</ele>
        <time>2017-06-27T07:03:31.912Z</time>
      </trkpt>
      <trkpt lat="41.99648" lon="9.21782">
        <ele>2001.39</ele>
        <time>2017-06-27T07:03:41.912Z</time>
      </trkpt>
      <trkpt lat="41.99647" lon="9.21793">
        <ele>2000.52</ele>
        <time>2017-06-27T07:03:51.914Z</time>
      </trkpt>
      <trkpt lat="41.99652" lon="9.21799">
        <ele>1996.47</ele>
        <time>2017-06-27T07:04:01.912Z</time>
      </trkpt>
      <trkpt lat="41.9965" lon="9.21808">
        <ele>1992.1</ele>
        <time>2017-06-27T07:04:11.912Z</time>
      </trkpt>
      <trkpt lat="41.99643" lon="9.21812">
        <ele>1989.24</ele>
        <time>2017-06-27T07:04:20.913Z</time>
      </trkpt>
      <trkpt lat="41.99639" lon="9.21819">
        <ele>1988.47</ele>
        <time>2017-06-27T07:04:30.912Z</time>
      </trkpt>
      <trkpt lat="41.99633" lon="9.21824">
        <ele>1987.76</ele>
        <time>2017-06-27T07:04:39.914Z</time>
      </trkpt>
      <trkpt lat="41.99629" lon="9.21823">
        <ele>1987.3</ele>
        <time>2017-06-27T07:04:48.920Z</time>
      </trkpt>
      <trkpt lat="41.9963" lon="9.21822">
        <ele>1990.95</ele>
        <time>2017-06-27T07:05:43.915Z</time>
      </trkpt>
      <trkpt lat="41.99631" lon="9.21821">
        <ele>1992.6</ele>
        <time>2017-06-27T07:05:52.930Z</time>
      </trkpt>
      <trkpt lat="41.99621" lon="9.21822">
        <ele>1990.58</ele>
        <time>2017-06-27T07:08:03.914Z</time>
      </trkpt>
      <trkpt lat="41.99616" lon="9.2182">
        <ele>1989.44</ele>
        <time>2017-06-27T07:08:13.912Z</time>
      </trkpt>
      <trkpt lat="41.9961" lon="9.2182">
        <ele>1988.6</ele>
        <time>2017-06-27T07:08:23.911Z</time>
      </trkpt>
      <trkpt lat="41.99605" lon="9.21809">
        <ele>1988.2</ele>
        <time>2017-06-27T07:08:32.912Z</time>
      </trkpt>
      <trkpt lat="41.99599" lon="9.21801">
        <ele>1981.78</ele>
        <time>2017-06-27T07:08:42.912Z</time>
      </trkpt>
      <trkpt lat="41.99593" lon="9.21795">
        <ele>1977.37</ele>
        <time>2017-06-27T07:08:51.913Z</time>
      </trkpt>
      <trkpt lat="41.99589" lon="9.21796">
        <ele>1979.4</ele>
        <time>2017-06-27T07:09:01.912Z</time>
      </trkpt>
      <trkpt lat="41.99583" lon="9.21794">
        <ele>1981.02</ele>
        <time>2017-06-27T07:09:11.912Z</time>
      </trkpt>
      <trkpt lat="41.9958" lon="9.21798">
        <ele>1982.6</ele>
        <time>2017-06-27T07:09:21.932Z</time>
      </trkpt>
      <trkpt lat="41.99574" lon="9.21795">
        <ele>1982.66</ele>
        <time>2017-06-27T07:09:31.912Z</time>
      </trkpt>
      <trkpt lat="41.99568" lon="9.21792">
        <ele>1984.12</ele>
        <time>2017-06-27T07:09:41.911Z</time>
      </trkpt>
      <trkpt lat="41.99563" lon="9.21788">
        <ele>1981.29</ele>
        <time>2017-06-27T07:09:50.915Z</time>
      </trkpt>
      <trkpt lat="41.99562" lon="9.21788">
        <ele>1980.97</ele>
        <time>2017-06-27T07:10:00.913Z</time>
      </trkpt>
      <trkpt lat="41.99554" lon="9.21781">
        <ele>1979.99</ele>
        <time>2017-06-27T07:10:10.911Z</time>
      </trkpt>
      <trkpt lat="41.9955" lon="9.21779">
        <ele>1982.67</ele>
        <time>2017-06-27T07:10:19.914Z</time>
      </trkpt>
      <trkpt lat="41.99548" lon="9.21777">
        <ele>1985.23</ele>
        <time>2017-06-27T07:10:29.911Z</time>
      </trkpt>
      <trkpt lat="41.99549" lon="9.21781">
        <ele>1981.55</ele>
        <time>2017-06-27T07:10:39.913Z</time>
      </trkpt>
      <trkpt lat="41.99548" lon="9.21781">
        <ele>1981.7</ele>
        <time>2017-06-27T07:10:49.911Z</time>
      </trkpt>
      <trkpt lat="41.99544" lon="9.21789">
        <ele>1975.67</ele>
        <time>2017-06-27T07:10:59.911Z</time>
      </trkpt>
      <trkpt lat="41.99539" lon="9.2179">
        <ele>1973.78</ele>
        <time>2017-06-27T07:11:09.912Z</time>
      </trkpt>
      <trkpt lat="41.99536" lon="9.21796">
        <ele>1971.63</ele>
        <time>2017-06-27T07:11:19.911Z</time>
      </trkpt>
      <trkpt lat="41.99537" lon="9.21797">
        <ele>1973.54</ele>
        <time>2017-06-27T07:11:28.912Z</time>
      </trkpt>
      <trkpt lat="41.99534" lon="9.21798">
        <ele>1970.48</ele>
        <time>2017-06-27T07:11:38.911Z</time>
      </trkpt>
      <trkpt lat="41.99531" lon="9.21799">
        <ele>1966.24</ele>
        <time>2017-06-27T07:11:48.911Z</time>
      </trkpt>
      <trkpt lat="41.99528" lon="9.21797">
        <ele>1964.53</ele>
        <time>2017-06-27T07:11:57.912Z</time>
      </trkpt>
      <trkpt lat="41.99527" lon="9.21798">
        <ele>1963.63</ele>
        <time>2017-06-27T07:12:07.911Z</time>
      </trkpt>
      <trkpt lat="41.99524" lon="9.21796">
        <ele>1963.42</ele>
        <time>2017-06-27T07:12:17.911Z</time>
      </trkpt>
      <trkpt lat="41.99519" lon="9.21796">
        <ele>1965.09</ele>
        <time>2017-06-27T07:12:27.912Z</time>
      </trkpt>
      <trkpt lat="41.99521" lon="9.21803">
        <ele>1961.71</ele>
        <time>2017-06-27T07:12:37.911Z</time>
      </trkpt>
      <trkpt lat="41.99521" lon="9.21805">
        <ele>1959.71</ele>
        <time>2017-06-27T07:12:47.911Z</time>
      </trkpt>
      <trkpt lat="41.99518" lon="9.21813">
        <ele>1959.29</ele>
        <time>2017-06-27T07:12:57.913Z</time>
      </trkpt>
      <trkpt lat="41.99513" lon="9.21819">
        <ele>1959.48</ele>
        <time>2017-06-27T07:13:07.926Z</time>
      </trkpt>
      <trkpt lat="41.99508" lon="9.21813">
        <ele>1956.46</ele>
        <time>2017-06-27T07:13:17.911Z</time>
      </trkpt>
      <trkpt lat="41.99502" lon="9.2181">
        <ele>1954.06</ele>
        <time>2017-06-27T07:13:27.911Z</time>
      </trkpt>
      <trkpt lat="41.99498" lon="9.21807">
        <ele>1954.55</ele>
        <time>2017-06-27T07:13:37.911Z</time>
      </trkpt>
      <trkpt lat="41.99494" lon="9.21802">
        <ele>1953.35</ele>
        <time>2017-06-27T07:13:47.911Z</time>
      </trkpt>
      <trkpt lat="41.99489" lon="9.21795">
        <ele>1949.59</ele>
        <time>2017-06-27T07:13:57.913Z</time>
      </trkpt>
      <trkpt lat="41.99484" lon="9.21794">
        <ele>1948.45</ele>
        <time>2017-06-27T07:14:07.911Z</time>
      </trkpt>
      <trkpt lat="41.99481" lon="9.21794">
        <ele>1948.14</ele>
        <time>2017-06-27T07:14:17.911Z</time>
      </trkpt>
      <trkpt lat="41.99479" lon="9.21795">
        <ele>1947.32</ele>
        <time>2017-06-27T07:14:27.913Z</time>
      </trkpt>
      <trkpt lat="41.99476" lon="9.21791">
        <ele>1942.88</ele>
        <time>2017-06-27T07:14:37.911Z</time>
      </trkpt>
      <trkpt lat="41.9947" lon="9.21786">
        <ele>1939.56</ele>
        <time>2017-06-27T07:14:47.911Z</time>
      </trkpt>
      <trkpt lat="41.99465" lon="9.21783">
        <ele>1941.75</ele>
        <time>2017-06-27T07:14:57.911Z</time>
      </trkpt>
      <trkpt lat="41.99462" lon="9.2178">
        <ele>1942.11</ele>
        <time>2017-06-27T07:15:07.911Z</time>
      </trkpt>
      <trkpt lat="41.99456" lon="9.21774">
        <ele>1943.47</ele>
        <time>2017-06-27T07:15:17.911Z</time>
      </trkpt>
      <trkpt lat="41.99454" lon="9.21772">
        <ele>1941.02</ele>
        <time>2017-06-27T07:15:27.913Z</time>
      </trkpt>
      <trkpt lat="41.99452" lon="9.21776">
        <ele>1940.3</ele>
        <time>2017-06-27T07:15:37.911Z</time>
      </trkpt>
      <trkpt lat="41.99447" lon="9.21775">
        <ele>1936.99</ele>
        <time>2017-06-27T07:15:47.911Z</time>
      </trkpt>
      <trkpt lat="41.99445" lon="9.21774">
        <ele>1936.91</ele>
        <time>2017-06-27T07:15:57.913Z</time>
      </trkpt>
      <trkpt lat="41.9944" lon="9.21771">
        <ele>1936.55</ele>
        <time>2017-06-27T07:16:07.911Z</time>
      </trkpt>
      <trkpt lat="41.99439" lon="9.21765">
        <ele>1933.04</ele>
        <time>2017-06-27T07:16:17.911Z</time>
      </trkpt>
      <trkpt lat="41.99435" lon="9.21761">
        <ele>1933.57</ele>
        <time>2017-06-27T07:16:27.913Z</time>
      </trkpt>
      <trkpt lat="41.99433" lon="9.21761">
        <ele>1933.92</ele>
        <time>2017-06-27T07:16:36.935Z</time>
      </trkpt>
      <trkpt lat="41.9943" lon="9.21762">
        <ele>1931.4</ele>
        <time>2017-06-27T07:16:46.911Z</time>
      </trkpt>
      <trkpt lat="41.99424" lon="9.21763">
        <ele>1932.15</ele>
        <time>2017-06-27T07:16:57.925Z</time>
      </trkpt>
      <trkpt lat="41.99419" lon="9.21762">
        <ele>1929.48</ele>
        <time>2017-06-27T07:17:07.911Z</time>
      </trkpt>
      <trkpt lat="41.9941" lon="9.21763">
        <ele>1927.57</ele>
        <time>2017-06-27T07:17:17.912Z</time>
      </trkpt>
      <trkpt lat="41.99403" lon="9.21756">
        <ele>1924.47</ele>
        <time>2017-06-27T07:17:27.917Z</time>
      </trkpt>
      <trkpt lat="41.99394" lon="9.21748">
        <ele>1924.39</ele>
        <time>2017-06-27T07:17:37.912Z</time>
      </trkpt>
      <trkpt lat="41.99391" lon="9.21746">
        <ele>1922.53</ele>
        <time>2017-06-27T07:17:47.911Z</time>
      </trkpt>
      <trkpt lat="41.99387" lon="9.21743">
        <ele>1919.62</ele>
        <time>2017-06-27T07:17:57.911Z</time>
      </trkpt>
      <trkpt lat="41.99379" lon="9.21746">
        <ele>1917.79</ele>
        <time>2017-06-27T07:18:07.912Z</time>
      </trkpt>
      <trkpt lat="41.99371" lon="9.21745">
        <ele>1917.4</ele>
        <time>2017-06-27T07:18:17.934Z</time>
      </trkpt>
      <trkpt lat="41.99362" lon="9.21737">
        <ele>1913.56</ele>
        <time>2017-06-27T07:18:27.913Z</time>
      </trkpt>
      <trkpt lat="41.99353" lon="9.21735">
        <ele>1910.82</ele>
        <time>2017-06-27T07:18:37.910Z</time>
      </trkpt>
      <trkpt lat="41.99342" lon="9.21733">
        <ele>1913.92</ele>
        <time>2017-06-27T07:18:46.921Z</time>
      </trkpt>
      <trkpt lat="41.99331" lon="9.21734">
        <ele>1913.56</ele>
        <time>2017-06-27T07:18:55.925Z</time>
      </trkpt>
      <trkpt lat="41.99323" lon="9.21732">
        <ele>1911.44</ele>
        <time>2017-06-27T07:19:05.911Z</time>
      </trkpt>
      <trkpt lat="41.99315" lon="9.21729">
        <ele>1912.13</ele>
        <time>2017-06-27T07:19:14.912Z</time>
      </trkpt>
      <trkpt lat="41.99306" lon="9.2173">
        <ele>1911.65</ele>
        <time>2017-06-27T07:19:24.911Z</time>
      </trkpt>
      <trkpt lat="41.99303" lon="9.21729">
        <ele>1907.35</ele>
        <time>2017-06-27T07:19:33.914Z</time>
      </trkpt>
      <trkpt lat="41.99297" lon="9.21734">
        <ele>1905.34</ele>
        <time>2017-06-27T07:19:43.911Z</time>
      </trkpt>
      <trkpt lat="41.99289" lon="9.2174">
        <ele>1902.73</ele>
        <time>2017-06-27T07:19:53.909Z</time>
      </trkpt>
      <trkpt lat="41.99284" lon="9.21746">
        <ele>1896.63</ele>
        <time>2017-06-27T07:20:02.911Z</time>
      </trkpt>
      <trkpt lat="41.99275" lon="9.21752">
        <ele>1896.81</ele>
        <time>2017-06-27T07:20:12.912Z</time>
      </trkpt>
      <trkpt lat="41.99266" lon="9.21764">
        <ele>1906.84</ele>
        <time>2017-06-27T07:20:21.913Z</time>
      </trkpt>
      <trkpt lat="41.99256" lon="9.21768">
        <ele>1908.18</ele>
        <time>2017-06-27T07:20:31.911Z</time>
      </trkpt>
      <trkpt lat="41.99246" lon="9.21773">
        <ele>1909.71</ele>
        <time>2017-06-27T07:20:41.911Z</time>
      </trkpt>
      <trkpt lat="41.99236" lon="9.21776">
        <ele>1914.18</ele>
        <time>2017-06-27T07:20:51.912Z</time>
      </trkpt>
      <trkpt lat="41.99227" lon="9.21778">
        <ele>1914.23</ele>
        <time>2017-06-27T07:21:01.912Z</time>
      </trkpt>
      <trkpt lat="41.99218" lon="9.21781">
        <ele>1914.25</ele>
        <time>2017-06-27T07:21:11.914Z</time>
      </trkpt>
      <trkpt lat="41.99213" lon="9.21787">
        <ele>1914.4</ele>
        <time>2017-06-27T07:21:21.913Z</time>
      </trkpt>
      <trkpt lat="41.99211" lon="9.21795">
        <ele>1916.53</ele>
        <time>2017-06-27T07:21:31.911Z</time>
      </trkpt>
      <trkpt lat="41.99206" lon="9.21807">
        <ele>1916.53</ele>
        <time>2017-06-27T07:21:41.911Z</time>
      </trkpt>
      <trkpt lat="41.992" lon="9.21815">
        <ele>1912.01</ele>
        <time>2017-06-27T07:21:50.912Z</time>
      </trkpt>
      <trkpt lat="41.99195" lon="9.21827">
        <ele>1910.93</ele>
        <time>2017-06-27T07:22:00.910Z</time>
      </trkpt>
      <trkpt lat="41.99191" lon="9.21831">
        <ele>1909.27</ele>
        <time>2017-06-27T07:22:09.970Z</time>
      </trkpt>
      <trkpt lat="41.99186" lon="9.21833">
        <ele>1907.29</ele>
        <time>2017-06-27T07:22:19.911Z</time>
      </trkpt>
      <trkpt lat="41.99182" lon="9.21833">
        <ele>1907.8</ele>
        <time>2017-06-27T07:22:29.911Z</time>
      </trkpt>
      <trkpt lat="41.99181" lon="9.21831">
        <ele>1904.5</ele>
        <time>2017-06-27T07:22:47.911Z</time>
      </trkpt>
      <trkpt lat="41.9918" lon="9.21829">
        <ele>1902.3</ele>
        <time>2017-06-27T07:22:57.912Z</time>
      </trkpt>
      <trkpt lat="41.99177" lon="9.21832">
        <ele>1905.39</ele>
        <time>2017-06-27T07:23:07.911Z</time>
      </trkpt>
      <trkpt lat="41.99177" lon="9.21831">
        <ele>1904.3</ele>
        <time>2017-06-27T07:23:25.911Z</time>
      </trkpt>
      <trkpt lat="41.99178" lon="9.2183">
        <ele>1901.28</ele>
        <time>2017-06-27T07:23:41.910Z</time>
      </trkpt>
      <trkpt lat="41.99173" lon="9.21834">
        <ele>1911.7</ele>
        <time>2017-06-27T07:24:24.911Z</time>
      </trkpt>
      <trkpt lat="41.99172" lon="9.21837">
        <ele>1918.47</ele>
        <time>2017-06-27T07:24:40.945Z</time>
      </trkpt>
      <trkpt lat="41.99173" lon="9.21838">
        <ele>1919.1</ele>
        <time>2017-06-27T07:24:50.911Z</time>
      </trkpt>
      <trkpt lat="41.99174" lon="9.21838">
        <ele>1918.58</ele>
        <time>2017-06-27T07:25:44.911Z</time>
      </trkpt>
      <trkpt lat="41.99174" lon="9.21836">
        <ele>1921</ele>
        <time>2017-06-27T07:27:15.913Z</time>
      </trkpt>
      <trkpt lat="41.99175" lon="9.21833">
        <ele>1919.72</ele>
        <time>2017-06-27T07:27:55.911Z</time>
      </trkpt>
      <trkpt lat="41.99175" lon="9.21831">
        <ele>1915.58</ele>
        <time>2017-06-27T07:28:05.911Z</time>
      </trkpt>
      <trkpt lat="41.99173" lon="9.21838">
        <ele>1915.95</ele>
        <time>2017-06-27T07:29:17.911Z</time>
      </trkpt>
      <trkpt lat="41.99172" lon="9.21833">
        <ele>1915.02</ele>
        <time>2017-06-27T07:30:28.910Z</time>
      </trkpt>
      <trkpt lat="41.99169" lon="9.21835">
        <ele>1916.82</ele>
        <time>2017-06-27T07:30:38.910Z</time>
      </trkpt>
      <trkpt lat="41.99162" lon="9.21839">
        <ele>1916.7</ele>
        <time>2017-06-27T07:30:47.911Z</time>
      </trkpt>
      <trkpt lat="41.99159" lon="9.21849">
        <ele>1914.83</ele>
        <time>2017-06-27T07:30:57.913Z</time>
      </trkpt>
      <trkpt lat="41.99148" lon="9.21846">
        <ele>1912.11</ele>
        <time>2017-06-27T07:31:07.910Z</time>
      </trkpt>
      <trkpt lat="41.99141" lon="9.21847">
        <ele>1913.02</ele>
        <time>2017-06-27T07:31:17.911Z</time>
      </trkpt>
      <trkpt lat="41.99135" lon="9.21853">
        <ele>1910.08</ele>
        <time>2017-06-27T07:31:27.913Z</time>
      </trkpt>
      <trkpt lat="41.99129" lon="9.2186">
        <ele>1908.94</ele>
        <time>2017-06-27T07:31:37.908Z</time>
      </trkpt>
      <trkpt lat="41.99121" lon="9.21863">
        <ele>1909.17</ele>
        <time>2017-06-27T07:31:46.910Z</time>
      </trkpt>
      <trkpt lat="41.99111" lon="9.21861">
        <ele>1905.87</ele>
        <time>2017-06-27T07:31:56.910Z</time>
      </trkpt>
      <trkpt lat="41.99103" lon="9.21858">
        <ele>1903.95</ele>
        <time>2017-06-27T07:32:06.935Z</time>
      </trkpt>
      <trkpt lat="41.99094" lon="9.21858">
        <ele>1898.13</ele>
        <time>2017-06-27T07:32:16.938Z</time>
      </trkpt>
      <trkpt lat="41.99087" lon="9.21856">
        <ele>1898.04</ele>
        <time>2017-06-27T07:32:26.911Z</time>
      </trkpt>
      <trkpt lat="41.9908" lon="9.21851">
        <ele>1897.14</ele>
        <time>2017-06-27T07:32:36.911Z</time>
      </trkpt>
      <trkpt lat="41.99072" lon="9.21848">
        <ele>1896.39</ele>
        <time>2017-06-27T07:32:45.912Z</time>
      </trkpt>
      <trkpt lat="41.99064" lon="9.21846">
        <ele>1896.67</ele>
        <time>2017-06-27T07:32:55.910Z</time>
      </trkpt>
      <trkpt lat="41.99058" lon="9.21842">
        <ele>1896.12</ele>
        <time>2017-06-27T07:33:04.911Z</time>
      </trkpt>
      <trkpt lat="41.99054" lon="9.21842">
        <ele>1896.96</ele>
        <time>2017-06-27T07:33:14.910Z</time>
      </trkpt>
      <trkpt lat="41.99048" lon="9.21843">
        <ele>1899.23</ele>
        <time>2017-06-27T07:33:23.911Z</time>
      </trkpt>
      <trkpt lat="41.99042" lon="9.2186">
        <ele>1886.27</ele>
        <time>2017-06-27T07:33:33.912Z</time>
      </trkpt>
      <trkpt lat="41.99037" lon="9.21853">
        <ele>1896.28</ele>
        <time>2017-06-27T07:33:43.911Z</time>
      </trkpt>
      <trkpt lat="41.9903" lon="9.21851">
        <ele>1898.55</ele>
        <time>2017-06-27T07:33:53.910Z</time>
      </trkpt>
      <trkpt lat="41.99029" lon="9.21849">
        <ele>1899.29</ele>
        <time>2017-06-27T07:34:02.911Z</time>
      </trkpt>
      <trkpt lat="41.99028" lon="9.21848">
        <ele>1898.49</ele>
        <time>2017-06-27T07:34:12.911Z</time>
      </trkpt>
      <trkpt lat="41.99023" lon="9.21852">
        <ele>1898.46</ele>
        <time>2017-06-27T07:34:21.913Z</time>
      </trkpt>
      <trkpt lat="41.99018" lon="9.21853">
        <ele>1896.3</ele>
        <time>2017-06-27T07:34:31.910Z</time>
      </trkpt>
      <trkpt lat="41.99013" lon="9.21856">
        <ele>1896.05</ele>
        <time>2017-06-27T07:34:40.911Z</time>
      </trkpt>
      <trkpt lat="41.99006" lon="9.21865">
        <ele>1895.14</ele>
        <time>2017-06-27T07:34:50.911Z</time>
      </trkpt>
      <trkpt lat="41.99" lon="9.21867">
        <ele>1894.24</ele>
        <time>2017-06-27T07:35:00.911Z</time>
      </trkpt>
      <trkpt lat="41.98996" lon="9.21865">
        <ele>1893.11</ele>
        <time>2017-06-27T07:35:09.913Z</time>
      </trkpt>
      <trkpt lat="41.98997" lon="9.21874">
        <ele>1889.58</ele>
        <time>2017-06-27T07:35:19.910Z</time>
      </trkpt>
      <trkpt lat="41.98991" lon="9.21875">
        <ele>1888.46</ele>
        <time>2017-06-27T07:35:28.911Z</time>
      </trkpt>
      <trkpt lat="41.98985" lon="9.21876">
        <ele>1886.92</ele>
        <time>2017-06-27T07:35:38.911Z</time>
      </trkpt>
      <trkpt lat="41.98978" lon="9.21872">
        <ele>1890.78</ele>
        <time>2017-06-27T07:35:48.910Z</time>
      </trkpt>
      <trkpt lat="41.98976" lon="9.21883">
        <ele>1891.38</ele>
        <time>2017-06-27T07:36:35.910Z</time>
      </trkpt>
      <trkpt lat="41.98979" lon="9.21888">
        <ele>1889.67</ele>
        <time>2017-06-27T07:36:45.912Z</time>
      </trkpt>
      <trkpt lat="41.98975" lon="9.21885">
        <ele>1884.91</ele>
        <time>2017-06-27T07:36:55.910Z</time>
      </trkpt>
      <trkpt lat="41.98972" lon="9.21888">
        <ele>1885.23</ele>
        <time>2017-06-27T07:37:05.910Z</time>
      </trkpt>
      <trkpt lat="41.98971" lon="9.21883">
        <ele>1881.05</ele>
        <time>2017-06-27T07:37:21.912Z</time>
      </trkpt>
      <trkpt lat="41.9897" lon="9.2188">
        <ele>1874.59</ele>
        <time>2017-06-27T07:37:31.910Z</time>
      </trkpt>
      <trkpt lat="41.98969" lon="9.2188">
        <ele>1873.9</ele>
        <time>2017-06-27T07:37:41.910Z</time>
      </trkpt>
      <trkpt lat="41.98968" lon="9.21889">
        <ele>1878.08</ele>
        <time>2017-06-27T07:37:51.912Z</time>
      </trkpt>
      <trkpt lat="41.98955" lon="9.21903">
        <ele>1892.89</ele>
        <time>2017-06-27T07:38:01.910Z</time>
      </trkpt>
      <trkpt lat="41.98953" lon="9.21904">
        <ele>1891.6</ele>
        <time>2017-06-27T07:38:10.911Z</time>
      </trkpt>
      <trkpt lat="41.98951" lon="9.21905">
        <ele>1888.98</ele>
        <time>2017-06-27T07:38:19.935Z</time>
      </trkpt>
      <trkpt lat="41.9895" lon="9.2191">
        <ele>1882.13</ele>
        <time>2017-06-27T07:38:29.910Z</time>
      </trkpt>
      <trkpt lat="41.98952" lon="9.21917">
        <ele>1876.22</ele>
        <time>2017-06-27T07:38:39.914Z</time>
      </trkpt>
      <trkpt lat="41.9895" lon="9.21925">
        <ele>1870.68</ele>
        <time>2017-06-27T07:38:49.910Z</time>
      </trkpt>
      <trkpt lat="41.98947" lon="9.21929">
        <ele>1867.19</ele>
        <time>2017-06-27T07:38:59.911Z</time>
      </trkpt>
      <trkpt lat="41.98944" lon="9.2193">
        <ele>1866.5</ele>
        <time>2017-06-27T07:39:09.912Z</time>
      </trkpt>
      <trkpt lat="41.98943" lon="9.21933">
        <ele>1864.9</ele>
        <time>2017-06-27T07:39:19.910Z</time>
      </trkpt>
      <trkpt lat="41.98941" lon="9.21934">
        <ele>1860.85</ele>
        <time>2017-06-27T07:39:29.920Z</time>
      </trkpt>
      <trkpt lat="41.98937" lon="9.21938">
        <ele>1858.86</ele>
        <time>2017-06-27T07:39:39.912Z</time>
      </trkpt>
      <trkpt lat="41.98932" lon="9.2194">
        <ele>1857.89</ele>
        <time>2017-06-27T07:39:49.910Z</time>
      </trkpt>
      <trkpt lat="41.98931" lon="9.21941">
        <ele>1856.2</ele>
        <time>2017-06-27T07:39:59.910Z</time>
      </trkpt>
      <trkpt lat="41.98927" lon="9.21945">
        <ele>1853.2</ele>
        <time>2017-06-27T07:40:08.925Z</time>
      </trkpt>
      <trkpt lat="41.98921" lon="9.21943">
        <ele>1853.22</ele>
        <time>2017-06-27T07:40:41.911Z</time>
      </trkpt>
      <trkpt lat="41.98917" lon="9.21946">
        <ele>1853.88</ele>
        <time>2017-06-27T07:40:51.912Z</time>
      </trkpt>
      <trkpt lat="41.98911" lon="9.21946">
        <ele>1852.93</ele>
        <time>2017-06-27T07:41:01.911Z</time>
      </trkpt>
      <trkpt lat="41.98906" lon="9.21948">
        <ele>1851.7</ele>
        <time>2017-06-27T07:41:11.910Z</time>
      </trkpt>
      <trkpt lat="41.98902" lon="9.21948">
        <ele>1853.37</ele>
        <time>2017-06-27T07:41:21.912Z</time>
      </trkpt>
      <trkpt lat="41.98898" lon="9.21949">
        <ele>1851.29</ele>
        <time>2017-06-27T07:41:31.910Z</time>
      </trkpt>
      <trkpt lat="41.98889" lon="9.2195">
        <ele>1850.58</ele>
        <time>2017-06-27T07:42:24.910Z</time>
      </trkpt>
      <trkpt lat="41.98885" lon="9.2195">
        <ele>1849.59</ele>
        <time>2017-06-27T07:42:33.913Z</time>
      </trkpt>
      <trkpt lat="41.98881" lon="9.21948">
        <ele>1848.05</ele>
        <time>2017-06-27T07:42:44.910Z</time>
      </trkpt>
      <trkpt lat="41.98877" lon="9.21954">
        <ele>1846.4</ele>
        <time>2017-06-27T07:42:54.911Z</time>
      </trkpt>
      <trkpt lat="41.98875" lon="9.21956">
        <ele>1845.73</ele>
        <time>2017-06-27T07:43:03.913Z</time>
      </trkpt>
      <trkpt lat="41.98871" lon="9.21965">
        <ele>1843.83</ele>
        <time>2017-06-27T07:43:13.910Z</time>
      </trkpt>
      <trkpt lat="41.98866" lon="9.21968">
        <ele>1840.09</ele>
        <time>2017-06-27T07:43:22.926Z</time>
      </trkpt>
      <trkpt lat="41.98862" lon="9.21971">
        <ele>1839.26</ele>
        <time>2017-06-27T07:43:32.911Z</time>
      </trkpt>
      <trkpt lat="41.98855" lon="9.21975">
        <ele>1836.5</ele>
        <time>2017-06-27T07:43:42.910Z</time>
      </trkpt>
      <trkpt lat="41.98849" lon="9.2198">
        <ele>1834.39</ele>
        <time>2017-06-27T07:43:51.913Z</time>
      </trkpt>
      <trkpt lat="41.98841" lon="9.21986">
        <ele>1832.72</ele>
        <time>2017-06-27T07:44:01.910Z</time>
      </trkpt>
      <trkpt lat="41.98832" lon="9.21989">
        <ele>1830.25</ele>
        <time>2017-06-27T07:44:11.910Z</time>
      </trkpt>
      <trkpt lat="41.98825" lon="9.21991">
        <ele>1827.47</ele>
        <time>2017-06-27T07:44:21.913Z</time>
      </trkpt>
      <trkpt lat="41.98817" lon="9.21992">
        <ele>1825.18</ele>
        <time>2017-06-27T07:44:31.910Z</time>
      </trkpt>
      <trkpt lat="41.98812" lon="9.21993">
        <ele>1824.61</ele>
        <time>2017-06-27T07:44:40.911Z</time>
      </trkpt>
      <trkpt lat="41.98804" lon="9.21991">
        <ele>1823.14</ele>
        <time>2017-06-27T07:44:50.911Z</time>
      </trkpt>
      <trkpt lat="41.98798" lon="9.21989">
        <ele>1822.34</ele>
        <time>2017-06-27T07:44:59.912Z</time>
      </trkpt>
      <trkpt lat="41.98791" lon="9.21989">
        <ele>1821.25</ele>
        <time>2017-06-27T07:45:09.914Z</time>
      </trkpt>
      <trkpt lat="41.98785" lon="9.21983">
        <ele>1821.66</ele>
        <time>2017-06-27T07:45:19.911Z</time>
      </trkpt>
      <trkpt lat="41.98777" lon="9.21975">
        <ele>1819.52</ele>
        <time>2017-06-27T07:45:29.911Z</time>
      </trkpt>
      <trkpt lat="41.98769" lon="9.21969">
        <ele>1820.28</ele>
        <time>2017-06-27T07:45:39.913Z</time>
      </trkpt>
      <trkpt lat="41.9876" lon="9.21965">
        <ele>1819.2</ele>
        <time>2017-06-27T07:45:49.911Z</time>
      </trkpt>
      <trkpt lat="41.98753" lon="9.21959">
        <ele>1818.16</ele>
        <time>2017-06-27T07:45:59.910Z</time>
      </trkpt>
      <trkpt lat="41.98743" lon="9.21952">
        <ele>1817.18</ele>
        <time>2017-06-27T07:46:09.913Z</time>
      </trkpt>
      <trkpt lat="41.98736" lon="9.21948">
        <ele>1816.28</ele>
        <time>2017-06-27T07:46:19.910Z</time>
      </trkpt>
      <trkpt lat="41.98732" lon="9.21939">
        <ele>1816.91</ele>
        <time>2017-06-27T07:46:29.910Z</time>
      </trkpt>
      <trkpt lat="41.98727" lon="9.21938">
        <ele>1820.54</ele>
        <time>2017-06-27T07:46:38.911Z</time>
      </trkpt>
      <trkpt lat="41.98717" lon="9.21939">
        <ele>1819.51</ele>
        <time>2017-06-27T07:46:48.909Z</time>
      </trkpt>
      <trkpt lat="41.98709" lon="9.21942">
        <ele>1816.65</ele>
        <time>2017-06-27T07:46:57.912Z</time>
      </trkpt>
      <trkpt lat="41.98702" lon="9.21941">
        <ele>1813.83</ele>
        <time>2017-06-27T07:47:07.909Z</time>
      </trkpt>
      <trkpt lat="41.98694" lon="9.21933">
        <ele>1812.43</ele>
        <time>2017-06-27T07:47:16.910Z</time>
      </trkpt>
      <trkpt lat="41.98688" lon="9.21931">
        <ele>1808.64</ele>
        <time>2017-06-27T07:47:26.910Z</time>
      </trkpt>
      <trkpt lat="41.98682" lon="9.2193">
        <ele>1805.93</ele>
        <time>2017-06-27T07:47:36.910Z</time>
      </trkpt>
      <trkpt lat="41.98678" lon="9.21922">
        <ele>1804.37</ele>
        <time>2017-06-27T07:47:45.911Z</time>
      </trkpt>
      <trkpt lat="41.98674" lon="9.21917">
        <ele>1803.36</ele>
        <time>2017-06-27T07:47:55.910Z</time>
      </trkpt>
      <trkpt lat="41.98668" lon="9.21912">
        <ele>1802.64</ele>
        <time>2017-06-27T07:48:05.910Z</time>
      </trkpt>
      <trkpt lat="41.98665" lon="9.2191">
        <ele>1800.87</ele>
        <time>2017-06-27T07:48:15.912Z</time>
      </trkpt>
      <trkpt lat="41.98661" lon="9.21908">
        <ele>1800.03</ele>
        <time>2017-06-27T07:48:25.935Z</time>
      </trkpt>
      <trkpt lat="41.98658" lon="9.21902">
        <ele>1794.89</ele>
        <time>2017-06-27T07:48:35.910Z</time>
      </trkpt>
      <trkpt lat="41.98656" lon="9.21902">
        <ele>1795.1</ele>
        <time>2017-06-27T07:48:45.912Z</time>
      </trkpt>
      <trkpt lat="41.98653" lon="9.21898">
        <ele>1795.48</ele>
        <time>2017-06-27T07:48:55.910Z</time>
      </trkpt>
      <trkpt lat="41.9865" lon="9.21896">
        <ele>1792.88</ele>
        <time>2017-06-27T07:49:05.910Z</time>
      </trkpt>
      <trkpt lat="41.98647" lon="9.21891">
        <ele>1790.38</ele>
        <time>2017-06-27T07:49:15.913Z</time>
      </trkpt>
      <trkpt lat="41.98644" lon="9.21889">
        <ele>1787.05</ele>
        <time>2017-06-27T07:49:25.909Z</time>
      </trkpt>
      <trkpt lat="41.98641" lon="9.2189">
        <ele>1785.13</ele>
        <time>2017-06-27T07:49:34.910Z</time>
      </trkpt>
      <trkpt lat="41.98637" lon="9.21891">
        <ele>1784</ele>
        <time>2017-06-27T07:49:44.909Z</time>
      </trkpt>
      <trkpt lat="41.98636" lon="9.21884">
        <ele>1783.36</ele>
        <time>2017-06-27T07:49:53.910Z</time>
      </trkpt>
      <trkpt lat="41.98632" lon="9.21888">
        <ele>1781.46</ele>
        <time>2017-06-27T07:50:03.912Z</time>
      </trkpt>
      <trkpt lat="41.98631" lon="9.21889">
        <ele>1781.7</ele>
        <time>2017-06-27T07:50:13.909Z</time>
      </trkpt>
      <trkpt lat="41.98631" lon="9.21891">
        <ele>1782.9</ele>
        <time>2017-06-27T07:51:01.910Z</time>
      </trkpt>
      <trkpt lat="41.98626" lon="9.21895">
        <ele>1783.56</ele>
        <time>2017-06-27T07:51:11.910Z</time>
      </trkpt>
      <trkpt lat="41.98622" lon="9.21899">
        <ele>1780.91</ele>
        <time>2017-06-27T07:51:21.912Z</time>
      </trkpt>
      <trkpt lat="41.9862" lon="9.219">
        <ele>1778.07</ele>
        <time>2017-06-27T07:51:31.909Z</time>
      </trkpt>
      <trkpt lat="41.98616" lon="9.21902">
        <ele>1774.5</ele>
        <time>2017-06-27T07:51:40.910Z</time>
      </trkpt>
      <trkpt lat="41.9861" lon="9.21901">
        <ele>1772.64</ele>
        <time>2017-06-27T07:51:50.909Z</time>
      </trkpt>
      <trkpt lat="41.98603" lon="9.21898">
        <ele>1770.94</ele>
        <time>2017-06-27T07:52:00.914Z</time>
      </trkpt>
      <trkpt lat="41.986" lon="9.21898">
        <ele>1768.5</ele>
        <time>2017-06-27T07:52:10.910Z</time>
      </trkpt>
      <trkpt lat="41.98592" lon="9.21896">
        <ele>1766.08</ele>
        <time>2017-06-27T07:52:20.910Z</time>
      </trkpt>
      <trkpt lat="41.98591" lon="9.219">
        <ele>1766.97</ele>
        <time>2017-06-27T07:52:38.910Z</time>
      </trkpt>
      <trkpt lat="41.98583" lon="9.21903">
        <ele>1767.37</ele>
        <time>2017-06-27T07:52:48.909Z</time>
      </trkpt>
      <trkpt lat="41.98575" lon="9.21903">
        <ele>1767.79</ele>
        <time>2017-06-27T07:52:57.911Z</time>
      </trkpt>
      <trkpt lat="41.98573" lon="9.21905">
        <ele>1767.8</ele>
        <time>2017-06-27T07:53:07.909Z</time>
      </trkpt>
      <trkpt lat="41.98572" lon="9.21907">
        <ele>1768.65</ele>
        <time>2017-06-27T07:53:17.909Z</time>
      </trkpt>
      <trkpt lat="41.98572" lon="9.21908">
        <ele>1769.37</ele>
        <time>2017-06-27T07:53:26.950Z</time>
      </trkpt>
      <trkpt lat="41.98572" lon="9.21899">
        <ele>1776.4</ele>
        <time>2017-06-27T07:53:36.910Z</time>
      </trkpt>
      <trkpt lat="41.98571" lon="9.21902">
        <ele>1777.2</ele>
        <time>2017-06-27T07:53:45.912Z</time>
      </trkpt>
      <trkpt lat="41.98571" lon="9.21905">
        <ele>1776.82</ele>
        <time>2017-06-27T07:54:01.910Z</time>
      </trkpt>
      <trkpt lat="41.9857" lon="9.21905">
        <ele>1774.81</ele>
        <time>2017-06-27T07:54:10.911Z</time>
      </trkpt>
      <trkpt lat="41.98569" lon="9.21906">
        <ele>1775.51</ele>
        <time>2017-06-27T07:54:38.910Z</time>
      </trkpt>
      <trkpt lat="41.98568" lon="9.21907">
        <ele>1772.1</ele>
        <time>2017-06-27T07:55:00.910Z</time>
      </trkpt>
      <trkpt lat="41.98565" lon="9.21911">
        <ele>1769.14</ele>
        <time>2017-06-27T07:55:09.935Z</time>
      </trkpt>
      <trkpt lat="41.98565" lon="9.21905">
        <ele>1760.05</ele>
        <time>2017-06-27T07:55:26.911Z</time>
      </trkpt>
      <trkpt lat="41.98559" lon="9.21919">
        <ele>1764.19</ele>
        <time>2017-06-27T07:55:36.910Z</time>
      </trkpt>
      <trkpt lat="41.98555" lon="9.21928">
        <ele>1768.74</ele>
        <time>2017-06-27T07:55:45.912Z</time>
      </trkpt>
      <trkpt lat="41.98554" lon="9.21931">
        <ele>1768.84</ele>
        <time>2017-06-27T07:55:55.910Z</time>
      </trkpt>
      <trkpt lat="41.98551" lon="9.21939">
        <ele>1766.41</ele>
        <time>2017-06-27T07:56:05.911Z</time>
      </trkpt>
      <trkpt lat="41.98551" lon="9.21943">
        <ele>1761.41</ele>
        <time>2017-06-27T07:56:15.912Z</time>
      </trkpt>
      <trkpt lat="41.98549" lon="9.21953">
        <ele>1759.99</ele>
        <time>2017-06-27T07:56:25.911Z</time>
      </trkpt>
      <trkpt lat="41.98546" lon="9.21958">
        <ele>1758.24</ele>
        <time>2017-06-27T07:56:35.911Z</time>
      </trkpt>
      <trkpt lat="41.98543" lon="9.21956">
        <ele>1753.92</ele>
        <time>2017-06-27T07:56:45.912Z</time>
      </trkpt>
      <trkpt lat="41.98537" lon="9.21955">
        <ele>1754.24</ele>
        <time>2017-06-27T07:56:55.910Z</time>
      </trkpt>
      <trkpt lat="41.98531" lon="9.21957">
        <ele>1751.31</ele>
        <time>2017-06-27T07:57:05.910Z</time>
      </trkpt>
      <trkpt lat="41.9853" lon="9.21958">
        <ele>1746.43</ele>
        <time>2017-06-27T07:57:15.912Z</time>
      </trkpt>
      <trkpt lat="41.98528" lon="9.21957">
        <ele>1744.1</ele>
        <time>2017-06-27T07:57:25.910Z</time>
      </trkpt>
      <trkpt lat="41.98527" lon="9.21958">
        <ele>1739.28</ele>
        <time>2017-06-27T07:57:35.910Z</time>
      </trkpt>
      <trkpt lat="41.98525" lon="9.21951">
        <ele>1741.68</ele>
        <time>2017-06-27T07:57:44.911Z</time>
      </trkpt>
      <trkpt lat="41.98527" lon="9.21945">
        <ele>1738.75</ele>
        <time>2017-06-27T07:57:56.911Z</time>
      </trkpt>
      <trkpt lat="41.98523" lon="9.21947">
        <ele>1737.85</ele>
        <time>2017-06-27T07:58:06.910Z</time>
      </trkpt>
      <trkpt lat="41.98522" lon="9.21944">
        <ele>1728.96</ele>
        <time>2017-06-27T07:58:15.912Z</time>
      </trkpt>
      <trkpt lat="41.98523" lon="9.21946">
        <ele>1729.91</ele>
        <time>2017-06-27T07:58:25.911Z</time>
      </trkpt>
      <trkpt lat="41.98524" lon="9.21944">
        <ele>1725.25</ele>
        <time>2017-06-27T07:58:35.910Z</time>
      </trkpt>
      <trkpt lat="41.98526" lon="9.21943">
        <ele>1722.9</ele>
        <time>2017-06-27T07:58:45.912Z</time>
      </trkpt>
      <trkpt lat="41.98525" lon="9.21932">
        <ele>1727.33</ele>
        <time>2017-06-27T07:58:55.910Z</time>
      </trkpt>
      <trkpt lat="41.98519" lon="9.21931">
        <ele>1733.42</ele>
        <time>2017-06-27T07:59:04.911Z</time>
      </trkpt>
      <trkpt lat="41.9852" lon="9.21925">
        <ele>1728.9</ele>
        <time>2017-06-27T07:59:14.910Z</time>
      </trkpt>
      <trkpt lat="41.98521" lon="9.21924">
        <ele>1726.2</ele>
        <time>2017-06-27T07:59:24.910Z</time>
      </trkpt>
      <trkpt lat="41.98515" lon="9.2192">
        <ele>1728.72</ele>
        <time>2017-06-27T07:59:33.912Z</time>
      </trkpt>
      <trkpt lat="41.98508" lon="9.21919">
        <ele>1734.11</ele>
        <time>2017-06-27T07:59:43.910Z</time>
      </trkpt>
      <trkpt lat="41.98508" lon="9.21916">
        <ele>1734.9</ele>
        <time>2017-06-27T07:59:53.910Z</time>
      </trkpt>
      <trkpt lat="41.98503" lon="9.21911">
        <ele>1736.5</ele>
        <time>2017-06-27T08:00:03.912Z</time>
      </trkpt>
      <trkpt lat="41.98508" lon="9.21914">
        <ele>1717.04</ele>
        <time>2017-06-27T08:00:12.935Z</time>
      </trkpt>
      <trkpt lat="41.98517" lon="9.21919">
        <ele>1698.5</ele>
        <time>2017-06-27T08:00:22.911Z</time>
      </trkpt>
      <trkpt lat="41.9851" lon="9.21909">
        <ele>1725.22</ele>
        <time>2017-06-27T08:00:32.910Z</time>
      </trkpt>
      <trkpt lat="41.98504" lon="9.21903">
        <ele>1730.2</ele>
        <time>2017-06-27T08:00:42.910Z</time>
      </trkpt>
      <trkpt lat="41.98501" lon="9.21896">
        <ele>1728.5</ele>
        <time>2017-06-27T08:00:51.911Z</time>
      </trkpt>
      <trkpt lat="41.98501" lon="9.2191">
        <ele>1726.06</ele>
        <time>2017-06-27T08:01:01.909Z</time>
      </trkpt>
      <trkpt lat="41.98494" lon="9.21909">
        <ele>1724.48</ele>
        <time>2017-06-27T08:01:10.910Z</time>
      </trkpt>
      <trkpt lat="41.9849" lon="9.21906">
        <ele>1720.16</ele>
        <time>2017-06-27T08:01:19.914Z</time>
      </trkpt>
      <trkpt lat="41.98487" lon="9.21908">
        <ele>1717.25</ele>
        <time>2017-06-27T08:01:29.910Z</time>
      </trkpt>
      <trkpt lat="41.98486" lon="9.2191">
        <ele>1716.07</ele>
        <time>2017-06-27T08:01:39.911Z</time>
      </trkpt>
      <trkpt lat="41.98487" lon="9.21911">
        <ele>1716.93</ele>
        <time>2017-06-27T08:01:49.909Z</time>
      </trkpt>
      <trkpt lat="41.98486" lon="9.2191">
        <ele>1715.67</ele>
        <time>2017-06-27T08:01:59.909Z</time>
      </trkpt>
      <trkpt lat="41.98486" lon="9.21911">
        <ele>1715.2</ele>
        <time>2017-06-27T08:02:08.911Z</time>
      </trkpt>
      <trkpt lat="41.98481" lon="9.21912">
        <ele>1713.18</ele>
        <time>2017-06-27T08:02:33.909Z</time>
      </trkpt>
      <trkpt lat="41.98482" lon="9.21913">
        <ele>1713.43</ele>
        <time>2017-06-27T08:02:43.910Z</time>
      </trkpt>
      <trkpt lat="41.98483" lon="9.21908">
        <ele>1714.38</ele>
        <time>2017-06-27T08:03:01.909Z</time>
      </trkpt>
      <trkpt lat="41.98482" lon="9.21911">
        <ele>1714.82</ele>
        <time>2017-06-27T08:03:17.910Z</time>
      </trkpt>
      <trkpt lat="41.98478" lon="9.21911">
        <ele>1714.61</ele>
        <time>2017-06-27T08:03:27.911Z</time>
      </trkpt>
      <trkpt lat="41.98477" lon="9.2191">
        <ele>1715.15</ele>
        <time>2017-06-27T08:03:39.911Z</time>
      </trkpt>
      <trkpt lat="41.98476" lon="9.21912">
        <ele>1714.9</ele>
        <time>2017-06-27T08:03:49.909Z</time>
      </trkpt>
      <trkpt lat="41.98471" lon="9.21917">
        <ele>1714.3</ele>
        <time>2017-06-27T08:04:20.909Z</time>
      </trkpt>
      <trkpt lat="41.98467" lon="9.21923">
        <ele>1713.72</ele>
        <time>2017-06-27T08:05:02.909Z</time>
      </trkpt>
      <trkpt lat="41.98464" lon="9.21919">
        <ele>1713.39</ele>
        <time>2017-06-27T08:05:11.910Z</time>
      </trkpt>
      <trkpt lat="41.98462" lon="9.21919">
        <ele>1713.79</ele>
        <time>2017-06-27T08:05:21.912Z</time>
      </trkpt>
      <trkpt lat="41.9846" lon="9.21919">
        <ele>1713.13</ele>
        <time>2017-06-27T08:05:31.909Z</time>
      </trkpt>
      <trkpt lat="41.98454" lon="9.21919">
        <ele>1712.58</ele>
        <time>2017-06-27T08:06:07.907Z</time>
      </trkpt>
      <trkpt lat="41.9845" lon="9.2192">
        <ele>1710.89</ele>
        <time>2017-06-27T08:06:16.910Z</time>
      </trkpt>
      <trkpt lat="41.98445" lon="9.21921">
        <ele>1710.54</ele>
        <time>2017-06-27T08:06:26.909Z</time>
      </trkpt>
      <trkpt lat="41.98445" lon="9.21916">
        <ele>1710.18</ele>
        <time>2017-06-27T08:06:38.910Z</time>
      </trkpt>
      <trkpt lat="41.98445" lon="9.21918">
        <ele>1709.3</ele>
        <time>2017-06-27T08:06:48.909Z</time>
      </trkpt>
      <trkpt lat="41.9844" lon="9.21919">
        <ele>1707.43</ele>
        <time>2017-06-27T08:06:57.911Z</time>
      </trkpt>
      <trkpt lat="41.98438" lon="9.21921">
        <ele>1707.7</ele>
        <time>2017-06-27T08:07:07.909Z</time>
      </trkpt>
      <trkpt lat="41.98435" lon="9.21923">
        <ele>1706.1</ele>
        <time>2017-06-27T08:07:16.910Z</time>
      </trkpt>
      <trkpt lat="41.98431" lon="9.21925">
        <ele>1705.71</ele>
        <time>2017-06-27T08:07:26.909Z</time>
      </trkpt>
      <trkpt lat="41.98429" lon="9.21922">
        <ele>1706.05</ele>
        <time>2017-06-27T08:07:40.909Z</time>
      </trkpt>
      <trkpt lat="41.98428" lon="9.21922">
        <ele>1706.5</ele>
        <time>2017-06-27T08:07:50.909Z</time>
      </trkpt>
      <trkpt lat="41.98424" lon="9.21923">
        <ele>1706.87</ele>
        <time>2017-06-27T08:08:00.907Z</time>
      </trkpt>
      <trkpt lat="41.98421" lon="9.21923">
        <ele>1707</ele>
        <time>2017-06-27T08:08:09.912Z</time>
      </trkpt>
      <trkpt lat="41.98415" lon="9.21925">
        <ele>1706.92</ele>
        <time>2017-06-27T08:08:19.909Z</time>
      </trkpt>
      <trkpt lat="41.98409" lon="9.21925">
        <ele>1707.1</ele>
        <time>2017-06-27T08:08:29.909Z</time>
      </trkpt>
      <trkpt lat="41.98407" lon="9.21925">
        <ele>1707.18</ele>
        <time>2017-06-27T08:08:39.911Z</time>
      </trkpt>
      <trkpt lat="41.98402" lon="9.21926">
        <ele>1707.87</ele>
        <time>2017-06-27T08:08:49.908Z</time>
      </trkpt>
      <trkpt lat="41.98402" lon="9.21923">
        <ele>1707.8</ele>
        <time>2017-06-27T08:08:59.908Z</time>
      </trkpt>
      <trkpt lat="41.98396" lon="9.21921">
        <ele>1708.18</ele>
        <time>2017-06-27T08:09:08.909Z</time>
      </trkpt>
      <trkpt lat="41.98393" lon="9.21924">
        <ele>1708.59</ele>
        <time>2017-06-27T08:09:18.908Z</time>
      </trkpt>
      <trkpt lat="41.9839" lon="9.21924">
        <ele>1709.2</ele>
        <time>2017-06-27T08:09:27.910Z</time>
      </trkpt>
      <trkpt lat="41.98384" lon="9.21923">
        <ele>1709.35</ele>
        <time>2017-06-27T08:09:47.908Z</time>
      </trkpt>
      <trkpt lat="41.98378" lon="9.21928">
        <ele>1709.1</ele>
        <time>2017-06-27T08:09:57.910Z</time>
      </trkpt>
      <trkpt lat="41.98372" lon="9.21931">
        <ele>1709.22</ele>
        <time>2017-06-27T08:10:07.906Z</time>
      </trkpt>
      <trkpt lat="41.98368" lon="9.21933">
        <ele>1708.13</ele>
        <time>2017-06-27T08:10:23.909Z</time>
      </trkpt>
      <trkpt lat="41.98369" lon="9.21936">
        <ele>1707.8</ele>
        <time>2017-06-27T08:10:33.913Z</time>
      </trkpt>
      <trkpt lat="41.98363" lon="9.21943">
        <ele>1707.75</ele>
        <time>2017-06-27T08:10:42.928Z</time>
      </trkpt>
      <trkpt lat="41.98359" lon="9.21944">
        <ele>1706.9</ele>
        <time>2017-06-27T08:10:52.909Z</time>
      </trkpt>
      <trkpt lat="41.98356" lon="9.21945">
        <ele>1702.55</ele>
        <time>2017-06-27T08:11:05.909Z</time>
      </trkpt>
      <trkpt lat="41.98353" lon="9.21943">
        <ele>1701.52</ele>
        <time>2017-06-27T08:11:15.910Z</time>
      </trkpt>
      <trkpt lat="41.98352" lon="9.21949">
        <ele>1697.66</ele>
        <time>2017-06-27T08:11:25.909Z</time>
      </trkpt>
      <trkpt lat="41.98347" lon="9.2195">
        <ele>1691.1</ele>
        <time>2017-06-27T08:11:35.911Z</time>
      </trkpt>
      <trkpt lat="41.98346" lon="9.21951">
        <ele>1694.7</ele>
        <time>2017-06-27T08:12:02.908Z</time>
      </trkpt>
      <trkpt lat="41.9835" lon="9.21965">
        <ele>1657.7</ele>
        <time>2017-06-27T08:12:11.909Z</time>
      </trkpt>
      <trkpt lat="41.98342" lon="9.21967">
        <ele>1663.92</ele>
        <time>2017-06-27T08:12:20.914Z</time>
      </trkpt>
      <trkpt lat="41.98338" lon="9.21961">
        <ele>1675.22</ele>
        <time>2017-06-27T08:12:55.909Z</time>
      </trkpt>
      <trkpt lat="41.98339" lon="9.21961">
        <ele>1677.9</ele>
        <time>2017-06-27T08:13:04.910Z</time>
      </trkpt>
      <trkpt lat="41.98337" lon="9.21958">
        <ele>1682.48</ele>
        <time>2017-06-27T08:13:20.907Z</time>
      </trkpt>
      <trkpt lat="41.98333" lon="9.21953">
        <ele>1692.3</ele>
        <time>2017-06-27T08:13:30.056Z</time>
      </trkpt>
      <trkpt lat="41.98327" lon="9.2195">
        <ele>1692.82</ele>
        <time>2017-06-27T08:13:39.909Z</time>
      </trkpt>
      <trkpt lat="41.98321" lon="9.2195">
        <ele>1695.52</ele>
        <time>2017-06-27T08:13:49.907Z</time>
      </trkpt>
      <trkpt lat="41.98315" lon="9.21948">
        <ele>1697.49</ele>
        <time>2017-06-27T08:13:58.908Z</time>
      </trkpt>
      <trkpt lat="41.98316" lon="9.21952">
        <ele>1696</ele>
        <time>2017-06-27T08:14:08.914Z</time>
      </trkpt>
      <trkpt lat="41.98313" lon="9.21953">
        <ele>1693.41</ele>
        <time>2017-06-27T08:14:18.907Z</time>
      </trkpt>
      <trkpt lat="41.9831" lon="9.21959">
        <ele>1699.4</ele>
        <time>2017-06-27T08:14:29.922Z</time>
      </trkpt>
      <trkpt lat="41.98305" lon="9.21952">
        <ele>1706.38</ele>
        <time>2017-06-27T08:14:51.908Z</time>
      </trkpt>
      <trkpt lat="41.98291" lon="9.2195">
        <ele>1707.34</ele>
        <time>2017-06-27T08:15:01.905Z</time>
      </trkpt>
      <trkpt lat="41.98286" lon="9.21945">
        <ele>1710.07</ele>
        <time>2017-06-27T08:15:11.905Z</time>
      </trkpt>
      <trkpt lat="41.98281" lon="9.21943">
        <ele>1707.48</ele>
        <time>2017-06-27T08:15:20.943Z</time>
      </trkpt>
      <trkpt lat="41.98279" lon="9.21937">
        <ele>1711.97</ele>
        <time>2017-06-27T08:15:30.945Z</time>
      </trkpt>
      <trkpt lat="41.98276" lon="9.21937">
        <ele>1713.48</ele>
        <time>2017-06-27T08:15:41.907Z</time>
      </trkpt>
      <trkpt lat="41.98277" lon="9.21938">
        <ele>1717.7</ele>
        <time>2017-06-27T08:15:51.932Z</time>
      </trkpt>
      <trkpt lat="41.98269" lon="9.21941">
        <ele>1712.9</ele>
        <time>2017-06-27T08:16:01.910Z</time>
      </trkpt>
      <trkpt lat="41.98268" lon="9.21944">
        <ele>1710.4</ele>
        <time>2017-06-27T08:16:10.928Z</time>
      </trkpt>
      <trkpt lat="41.98265" lon="9.21951">
        <ele>1711.46</ele>
        <time>2017-06-27T08:16:20.910Z</time>
      </trkpt>
      <trkpt lat="41.98262" lon="9.21959">
        <ele>1715.98</ele>
        <time>2017-06-27T08:16:30.924Z</time>
      </trkpt>
      <trkpt lat="41.98259" lon="9.21969">
        <ele>1715.71</ele>
        <time>2017-06-27T08:16:39.934Z</time>
      </trkpt>
      <trkpt lat="41.98257" lon="9.21975">
        <ele>1713.96</ele>
        <time>2017-06-27T08:16:48.935Z</time>
      </trkpt>
      <trkpt lat="41.98254" lon="9.21983">
        <ele>1705.07</ele>
        <time>2017-06-27T08:16:58.934Z</time>
      </trkpt>
      <trkpt lat="41.98252" lon="9.21994">
        <ele>1701.96</ele>
        <time>2017-06-27T08:17:08.909Z</time>
      </trkpt>
      <trkpt lat="41.98242" lon="9.21994">
        <ele>1708.58</ele>
        <time>2017-06-27T08:17:18.909Z</time>
      </trkpt>
      <trkpt lat="41.98238" lon="9.21999">
        <ele>1707.39</ele>
        <time>2017-06-27T08:17:27.912Z</time>
      </trkpt>
      <trkpt lat="41.9823" lon="9.22007">
        <ele>1707.05</ele>
        <time>2017-06-27T08:17:37.909Z</time>
      </trkpt>
      <trkpt lat="41.98223" lon="9.22015">
        <ele>1701.93</ele>
        <time>2017-06-27T08:17:47.909Z</time>
      </trkpt>
      <trkpt lat="41.98217" lon="9.22017">
        <ele>1698.85</ele>
        <time>2017-06-27T08:17:57.910Z</time>
      </trkpt>
      <trkpt lat="41.98214" lon="9.22018">
        <ele>1696.9</ele>
        <time>2017-06-27T08:18:07.909Z</time>
      </trkpt>
      <trkpt lat="41.98216" lon="9.22024">
        <ele>1692.89</ele>
        <time>2017-06-27T08:18:16.941Z</time>
      </trkpt>
      <trkpt lat="41.98214" lon="9.22025">
        <ele>1693</ele>
        <time>2017-06-27T08:18:26.908Z</time>
      </trkpt>
      <trkpt lat="41.98211" lon="9.22029">
        <ele>1694.58</ele>
        <time>2017-06-27T08:18:35.909Z</time>
      </trkpt>
      <trkpt lat="41.98211" lon="9.22039">
        <ele>1695.5</ele>
        <time>2017-06-27T08:18:44.911Z</time>
      </trkpt>
      <trkpt lat="41.98208" lon="9.22042">
        <ele>1696.82</ele>
        <time>2017-06-27T08:18:54.909Z</time>
      </trkpt>
      <trkpt lat="41.98203" lon="9.22045">
        <ele>1698.66</ele>
        <time>2017-06-27T08:19:03.934Z</time>
      </trkpt>
      <trkpt lat="41.98199" lon="9.22047">
        <ele>1700.07</ele>
        <time>2017-06-27T08:19:13.908Z</time>
      </trkpt>
      <trkpt lat="41.98192" lon="9.22048">
        <ele>1701.39</ele>
        <time>2017-06-27T08:19:23.908Z</time>
      </trkpt>
      <trkpt lat="41.98187" lon="9.22049">
        <ele>1701.46</ele>
        <time>2017-06-27T08:19:33.911Z</time>
      </trkpt>
      <trkpt lat="41.98182" lon="9.2205">
        <ele>1701.22</ele>
        <time>2017-06-27T08:19:43.908Z</time>
      </trkpt>
      <trkpt lat="41.98177" lon="9.22052">
        <ele>1700.2</ele>
        <time>2017-06-27T08:19:53.907Z</time>
      </trkpt>
      <trkpt lat="41.98172" lon="9.22052">
        <ele>1700.43</ele>
        <time>2017-06-27T08:20:02.908Z</time>
      </trkpt>
      <trkpt lat="41.98167" lon="9.22056">
        <ele>1697.72</ele>
        <time>2017-06-27T08:20:12.909Z</time>
      </trkpt>
      <trkpt lat="41.98165" lon="9.22055">
        <ele>1696.28</ele>
        <time>2017-06-27T08:20:21.910Z</time>
      </trkpt>
      <trkpt lat="41.98163" lon="9.22053">
        <ele>1695.6</ele>
        <time>2017-06-27T08:20:31.908Z</time>
      </trkpt>
      <trkpt lat="41.98162" lon="9.22052">
        <ele>1696.5</ele>
        <time>2017-06-27T08:20:41.908Z</time>
      </trkpt>
      <trkpt lat="41.98161" lon="9.22053">
        <ele>1695.83</ele>
        <time>2017-06-27T08:20:55.908Z</time>
      </trkpt>
      <trkpt lat="41.9816" lon="9.22053">
        <ele>1696.11</ele>
        <time>2017-06-27T08:21:16.908Z</time>
      </trkpt>
      <trkpt lat="41.98156" lon="9.22055">
        <ele>1696.09</ele>
        <time>2017-06-27T08:21:26.908Z</time>
      </trkpt>
      <trkpt lat="41.98155" lon="9.22059">
        <ele>1696.1</ele>
        <time>2017-06-27T08:21:36.908Z</time>
      </trkpt>
      <trkpt lat="41.98153" lon="9.2206">
        <ele>1696.4</ele>
        <time>2017-06-27T08:21:45.910Z</time>
      </trkpt>
      <trkpt lat="41.98149" lon="9.22063">
        <ele>1696.3</ele>
        <time>2017-06-27T08:21:55.925Z</time>
      </trkpt>
      <trkpt lat="41.98145" lon="9.22069">
        <ele>1695.91</ele>
        <time>2017-06-27T08:22:05.908Z</time>
      </trkpt>
      <trkpt lat="41.98143" lon="9.22069">
        <ele>1695.81</ele>
        <time>2017-06-27T08:22:15.910Z</time>
      </trkpt>
      <trkpt lat="41.9814" lon="9.22074">
        <ele>1695.77</ele>
        <time>2017-06-27T08:22:25.908Z</time>
      </trkpt>
      <trkpt lat="41.98138" lon="9.22075">
        <ele>1695.75</ele>
        <time>2017-06-27T08:22:38.925Z</time>
      </trkpt>
      <trkpt lat="41.98134" lon="9.22079">
        <ele>1694.94</ele>
        <time>2017-06-27T08:22:48.908Z</time>
      </trkpt>
      <trkpt lat="41.9813" lon="9.2209">
        <ele>1693.76</ele>
        <time>2017-06-27T08:22:57.910Z</time>
      </trkpt>
      <trkpt lat="41.98129" lon="9.22096">
        <ele>1693.13</ele>
        <time>2017-06-27T08:23:07.908Z</time>
      </trkpt>
      <trkpt lat="41.98125" lon="9.221">
        <ele>1692.71</ele>
        <time>2017-06-27T08:23:17.908Z</time>
      </trkpt>
      <trkpt lat="41.9812" lon="9.22101">
        <ele>1691.73</ele>
        <time>2017-06-27T08:23:27.910Z</time>
      </trkpt>
      <trkpt lat="41.98118" lon="9.22108">
        <ele>1690.88</ele>
        <time>2017-06-27T08:23:36.935Z</time>
      </trkpt>
      <trkpt lat="41.98115" lon="9.22111">
        <ele>1688.59</ele>
        <time>2017-06-27T08:23:46.908Z</time>
      </trkpt>
      <trkpt lat="41.98111" lon="9.22115">
        <ele>1687.97</ele>
        <time>2017-06-27T08:23:56.908Z</time>
      </trkpt>
      <trkpt lat="41.98105" lon="9.2212">
        <ele>1687.1</ele>
        <time>2017-06-27T08:24:06.908Z</time>
      </trkpt>
      <trkpt lat="41.98102" lon="9.22125">
        <ele>1686.86</ele>
        <time>2017-06-27T08:24:15.909Z</time>
      </trkpt>
      <trkpt lat="41.98102" lon="9.22132">
        <ele>1686.98</ele>
        <time>2017-06-27T08:24:25.908Z</time>
      </trkpt>
      <trkpt lat="41.98099" lon="9.2214">
        <ele>1682.09</ele>
        <time>2017-06-27T08:24:35.908Z</time>
      </trkpt>
      <trkpt lat="41.98097" lon="9.22147">
        <ele>1678.03</ele>
        <time>2017-06-27T08:24:45.910Z</time>
      </trkpt>
      <trkpt lat="41.98095" lon="9.22145">
        <ele>1675.98</ele>
        <time>2017-06-27T08:24:54.928Z</time>
      </trkpt>
      <trkpt lat="41.98093" lon="9.22146">
        <ele>1674.95</ele>
        <time>2017-06-27T08:25:07.907Z</time>
      </trkpt>
      <trkpt lat="41.98088" lon="9.22148">
        <ele>1674.28</ele>
        <time>2017-06-27T08:25:16.919Z</time>
      </trkpt>
      <trkpt lat="41.98084" lon="9.22153">
        <ele>1671.14</ele>
        <time>2017-06-27T08:25:26.908Z</time>
      </trkpt>
      <trkpt lat="41.9808" lon="9.22155">
        <ele>1664.93</ele>
        <time>2017-06-27T08:25:36.909Z</time>
      </trkpt>
      <trkpt lat="41.98073" lon="9.22156">
        <ele>1663.03</ele>
        <time>2017-06-27T08:25:45.911Z</time>
      </trkpt>
      <trkpt lat="41.98064" lon="9.2216">
        <ele>1661.7</ele>
        <time>2017-06-27T08:25:55.908Z</time>
      </trkpt>
      <trkpt lat="41.98057" lon="9.22162">
        <ele>1657.28</ele>
        <time>2017-06-27T08:26:05.909Z</time>
      </trkpt>
      <trkpt lat="41.98054" lon="9.22165">
        <ele>1651.27</ele>
        <time>2017-06-27T08:26:15.911Z</time>
      </trkpt>
      <trkpt lat="41.98046" lon="9.2217">
        <ele>1651.7</ele>
        <time>2017-06-27T08:26:25.909Z</time>
      </trkpt>
      <trkpt lat="41.98037" lon="9.22168">
        <ele>1652.1</ele>
        <time>2017-06-27T08:26:35.909Z</time>
      </trkpt>
      <trkpt lat="41.98034" lon="9.22159">
        <ele>1651.23</ele>
        <time>2017-06-27T08:26:45.911Z</time>
      </trkpt>
      <trkpt lat="41.98026" lon="9.22153">
        <ele>1649.2</ele>
        <time>2017-06-27T08:26:55.908Z</time>
      </trkpt>
      <trkpt lat="41.9802" lon="9.22154">
        <ele>1645.65</ele>
        <time>2017-06-27T08:27:05.908Z</time>
      </trkpt>
      <trkpt lat="41.98015" lon="9.22155">
        <ele>1641.53</ele>
        <time>2017-06-27T08:27:14.909Z</time>
      </trkpt>
      <trkpt lat="41.9801" lon="9.22156">
        <ele>1642.38</ele>
        <time>2017-06-27T08:27:24.908Z</time>
      </trkpt>
      <trkpt lat="41.98007" lon="9.22158">
        <ele>1639.86</ele>
        <time>2017-06-27T08:27:33.910Z</time>
      </trkpt>
      <trkpt lat="41.98003" lon="9.22154">
        <ele>1641</ele>
        <time>2017-06-27T08:27:43.909Z</time>
      </trkpt>
      <trkpt lat="41.98" lon="9.22152">
        <ele>1638.4</ele>
        <time>2017-06-27T08:27:58.908Z</time>
      </trkpt>
      <trkpt lat="41.97994" lon="9.2215">
        <ele>1636.64</ele>
        <time>2017-06-27T08:28:07.909Z</time>
      </trkpt>
      <trkpt lat="41.97987" lon="9.22153">
        <ele>1636.8</ele>
        <time>2017-06-27T08:28:17.908Z</time>
      </trkpt>
      <trkpt lat="41.97982" lon="9.22146">
        <ele>1639.02</ele>
        <time>2017-06-27T08:28:27.910Z</time>
      </trkpt>
      <trkpt lat="41.97978" lon="9.22147">
        <ele>1651.32</ele>
        <time>2017-06-27T08:32:07.906Z</time>
      </trkpt>
      <trkpt lat="41.97978" lon="9.22147">
        <ele>1655.7</ele>
        <time>2017-06-27T08:32:16.908Z</time>
      </trkpt>
      <trkpt lat="41.97975" lon="9.22147">
        <ele>1654.87</ele>
        <time>2017-06-27T08:32:28.908Z</time>
      </trkpt>
      <trkpt lat="41.9798" lon="9.22132">
        <ele>1638.43</ele>
        <time>2017-06-27T08:32:38.082Z</time>
      </trkpt>
      <trkpt lat="41.97991" lon="9.22124">
        <ele>1616.1</ele>
        <time>2017-06-27T08:32:47.909Z</time>
      </trkpt>
      <trkpt lat="41.97989" lon="9.22131">
        <ele>1614.5</ele>
        <time>2017-06-27T08:32:57.910Z</time>
      </trkpt>
      <trkpt lat="41.97985" lon="9.22136">
        <ele>1617.79</ele>
        <time>2017-06-27T08:33:07.908Z</time>
      </trkpt>
      <trkpt lat="41.97983" lon="9.22139">
        <ele>1622.75</ele>
        <time>2017-06-27T08:33:32.908Z</time>
      </trkpt>
      <trkpt lat="41.97978" lon="9.22143">
        <ele>1634.67</ele>
        <time>2017-06-27T08:33:50.909Z</time>
      </trkpt>
      <trkpt lat="41.97976" lon="9.22145">
        <ele>1641.2</ele>
        <time>2017-06-27T08:34:00.908Z</time>
      </trkpt>
      <trkpt lat="41.97976" lon="9.22148">
        <ele>1642.32</ele>
        <time>2017-06-27T08:34:23.909Z</time>
      </trkpt>
      <trkpt lat="41.97974" lon="9.22149">
        <ele>1644.65</ele>
        <time>2017-06-27T08:34:34.908Z</time>
      </trkpt>
      <trkpt lat="41.97978" lon="9.22137">
        <ele>1633.62</ele>
        <time>2017-06-27T08:34:54.906Z</time>
      </trkpt>
      <trkpt lat="41.97983" lon="9.22134">
        <ele>1627.67</ele>
        <time>2017-06-27T08:35:04.905Z</time>
      </trkpt>
      <trkpt lat="41.97981" lon="9.22138">
        <ele>1631.85</ele>
        <time>2017-06-27T08:35:22.909Z</time>
      </trkpt>
      <trkpt lat="41.97983" lon="9.22132">
        <ele>1622.43</ele>
        <time>2017-06-27T08:35:32.905Z</time>
      </trkpt>
      <trkpt lat="41.97973" lon="9.22148">
        <ele>1632.13</ele>
        <time>2017-06-27T08:35:42.905Z</time>
      </trkpt>
      <trkpt lat="41.9797" lon="9.22151">
        <ele>1630.67</ele>
        <time>2017-06-27T08:35:51.908Z</time>
      </trkpt>
      <trkpt lat="41.97973" lon="9.2215">
        <ele>1638.08</ele>
        <time>2017-06-27T08:36:01.333Z</time>
      </trkpt>
      <trkpt lat="41.97979" lon="9.22148">
        <ele>1643.32</ele>
        <time>2017-06-27T08:36:10.924Z</time>
      </trkpt>
      <trkpt lat="41.97982" lon="9.22148">
        <ele>1644</ele>
        <time>2017-06-27T08:36:20.907Z</time>
      </trkpt>
      <trkpt lat="41.97984" lon="9.22147">
        <ele>1644.69</ele>
        <time>2017-06-27T08:36:29.953Z</time>
      </trkpt>
      <trkpt lat="41.97986" lon="9.22147">
        <ele>1647.4</ele>
        <time>2017-06-27T08:36:42.950Z</time>
      </trkpt>
      <trkpt lat="41.97979" lon="9.22144">
        <ele>1636.3</ele>
        <time>2017-06-27T08:36:52.903Z</time>
      </trkpt>
      <trkpt lat="41.97977" lon="9.2214">
        <ele>1635.5</ele>
        <time>2017-06-27T08:37:01.908Z</time>
      </trkpt>
      <trkpt lat="41.9798" lon="9.22147">
        <ele>1642.85</ele>
        <time>2017-06-27T08:37:28.907Z</time>
      </trkpt>
      <trkpt lat="41.97981" lon="9.22147">
        <ele>1650.98</ele>
        <time>2017-06-27T08:38:16.903Z</time>
      </trkpt>
      <trkpt lat="41.9798" lon="9.22148">
        <ele>1651.5</ele>
        <time>2017-06-27T08:43:20.906Z</time>
      </trkpt>
      <trkpt lat="41.97981" lon="9.22148">
        <ele>1649.62</ele>
        <time>2017-06-27T08:44:12.906Z</time>
      </trkpt>
      <trkpt lat="41.97988" lon="9.22162">
        <ele>1642.92</ele>
        <time>2017-06-27T08:55:15.904Z</time>
      </trkpt>
      <trkpt lat="41.9799" lon="9.22146">
        <ele>1603.05</ele>
        <time>2017-06-27T08:55:25.901Z</time>
      </trkpt>
      <trkpt lat="41.97989" lon="9.22145">
        <ele>1603.57</ele>
        <time>2017-06-27T08:55:34.907Z</time>
      </trkpt>
      <trkpt lat="41.97982" lon="9.22131">
        <ele>1606.15</ele>
        <time>2017-06-27T08:56:59.905Z</time>
      </trkpt>
      <trkpt lat="41.97983" lon="9.22124">
        <ele>1599.5</ele>
        <time>2017-06-27T08:57:08.923Z</time>
      </trkpt>
      <trkpt lat="41.97983" lon="9.22125">
        <ele>1599.65</ele>
        <time>2017-06-27T08:57:47.902Z</time>
      </trkpt>
      <trkpt lat="41.9798" lon="9.22128">
        <ele>1605.95</ele>
        <time>2017-06-27T08:58:14.921Z</time>
      </trkpt>
      <trkpt lat="41.97978" lon="9.22136">
        <ele>1622.04</ele>
        <time>2017-06-27T08:58:24.905Z</time>
      </trkpt>
      <trkpt lat="41.97981" lon="9.22144">
        <ele>1631.25</ele>
        <time>2017-06-27T09:05:30.903Z</time>
      </trkpt>
      <trkpt lat="41.9798" lon="9.22144">
        <ele>1634.7</ele>
        <time>2017-06-27T09:06:03.906Z</time>
      </trkpt>
      <trkpt lat="41.97972" lon="9.22147">
        <ele>1647.15</ele>
        <time>2017-06-27T09:08:02.904Z</time>
      </trkpt>
      <trkpt lat="41.9797" lon="9.22149">
        <ele>1658.12</ele>
        <time>2017-06-27T09:08:13.903Z</time>
      </trkpt>
      <trkpt lat="41.97972" lon="9.2215">
        <ele>1659.7</ele>
        <time>2017-06-27T09:10:26.903Z</time>
      </trkpt>
      <trkpt lat="41.9798" lon="9.22145">
        <ele>1652.02</ele>
        <time>2017-06-27T09:12:27.932Z</time>
      </trkpt>
      <trkpt lat="41.97979" lon="9.22143">
        <ele>1649.25</ele>
        <time>2017-06-27T09:12:59.903Z</time>
      </trkpt>
      <trkpt lat="41.97979" lon="9.22136">
        <ele>1648.33</ele>
        <time>2017-06-27T09:13:08.904Z</time>
      </trkpt>
      <trkpt lat="41.97979" lon="9.22128">
        <ele>1642.82</ele>
        <time>2017-06-27T09:13:18.903Z</time>
      </trkpt>
      <trkpt lat="41.97976" lon="9.22129">
        <ele>1640.74</ele>
        <time>2017-06-27T09:13:27.905Z</time>
      </trkpt>
      <trkpt lat="41.97974" lon="9.22127">
        <ele>1638.61</ele>
        <time>2017-06-27T09:13:37.903Z</time>
      </trkpt>
      <trkpt lat="41.97967" lon="9.22126">
        <ele>1635.86</ele>
        <time>2017-06-27T09:13:47.903Z</time>
      </trkpt>
      <trkpt lat="41.97958" lon="9.22123">
        <ele>1633.4</ele>
        <time>2017-06-27T09:13:57.905Z</time>
      </trkpt>
      <trkpt lat="41.97948" lon="9.22122">
        <ele>1631</ele>
        <time>2017-06-27T09:14:06.925Z</time>
      </trkpt>
      <trkpt lat="41.97938" lon="9.22121">
        <ele>1628.7</ele>
        <time>2017-06-27T09:14:16.901Z</time>
      </trkpt>
      <trkpt lat="41.97928" lon="9.22117">
        <ele>1626.27</ele>
        <time>2017-06-27T09:14:26.902Z</time>
      </trkpt>
      <trkpt lat="41.97921" lon="9.22118">
        <ele>1624.17</ele>
        <time>2017-06-27T09:14:36.901Z</time>
      </trkpt>
      <trkpt lat="41.97913" lon="9.22126">
        <ele>1622.29</ele>
        <time>2017-06-27T09:14:45.903Z</time>
      </trkpt>
      <trkpt lat="41.97899" lon="9.22128">
        <ele>1621.79</ele>
        <time>2017-06-27T09:14:55.902Z</time>
      </trkpt>
      <trkpt lat="41.97887" lon="9.22127">
        <ele>1621.7</ele>
        <time>2017-06-27T09:15:05.902Z</time>
      </trkpt>
      <trkpt lat="41.97879" lon="9.22131">
        <ele>1623.92</ele>
        <time>2017-06-27T09:15:15.904Z</time>
      </trkpt>
      <trkpt lat="41.97871" lon="9.22136">
        <ele>1622.51</ele>
        <time>2017-06-27T09:15:25.902Z</time>
      </trkpt>
      <trkpt lat="41.97862" lon="9.22145">
        <ele>1621.98</ele>
        <time>2017-06-27T09:15:35.902Z</time>
      </trkpt>
      <trkpt lat="41.97849" lon="9.2215">
        <ele>1622.83</ele>
        <time>2017-06-27T09:15:45.904Z</time>
      </trkpt>
      <trkpt lat="41.97839" lon="9.22153">
        <ele>1623.7</ele>
        <time>2017-06-27T09:15:55.902Z</time>
      </trkpt>
      <trkpt lat="41.97831" lon="9.22161">
        <ele>1625.15</ele>
        <time>2017-06-27T09:16:05.902Z</time>
      </trkpt>
      <trkpt lat="41.97819" lon="9.22166">
        <ele>1624.92</ele>
        <time>2017-06-27T09:16:15.904Z</time>
      </trkpt>
      <trkpt lat="41.97809" lon="9.22169">
        <ele>1628.5</ele>
        <time>2017-06-27T09:16:25.901Z</time>
      </trkpt>
      <trkpt lat="41.978" lon="9.22167">
        <ele>1626.35</ele>
        <time>2017-06-27T09:16:34.902Z</time>
      </trkpt>
      <trkpt lat="41.9779" lon="9.22157">
        <ele>1627.64</ele>
        <time>2017-06-27T09:16:44.901Z</time>
      </trkpt>
      <trkpt lat="41.97783" lon="9.22151">
        <ele>1626.55</ele>
        <time>2017-06-27T09:16:53.902Z</time>
      </trkpt>
      <trkpt lat="41.97775" lon="9.22144">
        <ele>1624.59</ele>
        <time>2017-06-27T09:17:03.904Z</time>
      </trkpt>
      <trkpt lat="41.97768" lon="9.22135">
        <ele>1621.72</ele>
        <time>2017-06-27T09:17:13.901Z</time>
      </trkpt>
      <trkpt lat="41.97761" lon="9.22127">
        <ele>1619.16</ele>
        <time>2017-06-27T09:17:22.902Z</time>
      </trkpt>
      <trkpt lat="41.97749" lon="9.22125">
        <ele>1617.33</ele>
        <time>2017-06-27T09:17:32.902Z</time>
      </trkpt>
      <trkpt lat="41.97738" lon="9.2212">
        <ele>1615.05</ele>
        <time>2017-06-27T09:17:42.902Z</time>
      </trkpt>
      <trkpt lat="41.97729" lon="9.22116">
        <ele>1613</ele>
        <time>2017-06-27T09:17:51.904Z</time>
      </trkpt>
      <trkpt lat="41.97721" lon="9.22117">
        <ele>1613</ele>
        <time>2017-06-27T09:18:01.902Z</time>
      </trkpt>
      <trkpt lat="41.97711" lon="9.2212">
        <ele>1611.42</ele>
        <time>2017-06-27T09:18:11.901Z</time>
      </trkpt>
      <trkpt lat="41.97702" lon="9.22127">
        <ele>1610.59</ele>
        <time>2017-06-27T09:18:21.904Z</time>
      </trkpt>
      <trkpt lat="41.97692" lon="9.22134">
        <ele>1608.5</ele>
        <time>2017-06-27T09:18:31.901Z</time>
      </trkpt>
      <trkpt lat="41.97682" lon="9.22138">
        <ele>1608.43</ele>
        <time>2017-06-27T09:18:41.931Z</time>
      </trkpt>
      <trkpt lat="41.9767" lon="9.22147">
        <ele>1607.72</ele>
        <time>2017-06-27T09:18:51.904Z</time>
      </trkpt>
      <trkpt lat="41.9766" lon="9.22154">
        <ele>1605.18</ele>
        <time>2017-06-27T09:19:01.901Z</time>
      </trkpt>
      <trkpt lat="41.9765" lon="9.22159">
        <ele>1604.39</ele>
        <time>2017-06-27T09:19:10.902Z</time>
      </trkpt>
      <trkpt lat="41.9764" lon="9.22168">
        <ele>1609.32</ele>
        <time>2017-06-27T09:19:20.901Z</time>
      </trkpt>
      <trkpt lat="41.9763" lon="9.22169">
        <ele>1610.46</ele>
        <time>2017-06-27T09:19:30.902Z</time>
      </trkpt>
      <trkpt lat="41.97622" lon="9.22175">
        <ele>1611.35</ele>
        <time>2017-06-27T09:19:39.904Z</time>
      </trkpt>
      <trkpt lat="41.9761" lon="9.22178">
        <ele>1607.35</ele>
        <time>2017-06-27T09:19:49.901Z</time>
      </trkpt>
      <trkpt lat="41.97602" lon="9.22184">
        <ele>1608.26</ele>
        <time>2017-06-27T09:19:58.902Z</time>
      </trkpt>
      <trkpt lat="41.97595" lon="9.22186">
        <ele>1607.74</ele>
        <time>2017-06-27T09:20:08.901Z</time>
      </trkpt>
      <trkpt lat="41.97585" lon="9.22186">
        <ele>1609.17</ele>
        <time>2017-06-27T09:20:18.902Z</time>
      </trkpt>
      <trkpt lat="41.97575" lon="9.22189">
        <ele>1609.05</ele>
        <time>2017-06-27T09:20:27.903Z</time>
      </trkpt>
      <trkpt lat="41.97568" lon="9.22194">
        <ele>1608.64</ele>
        <time>2017-06-27T09:20:37.900Z</time>
      </trkpt>
      <trkpt lat="41.97562" lon="9.22201">
        <ele>1609.65</ele>
        <time>2017-06-27T09:20:46.901Z</time>
      </trkpt>
      <trkpt lat="41.97552" lon="9.22207">
        <ele>1610.36</ele>
        <time>2017-06-27T09:20:56.901Z</time>
      </trkpt>
      <trkpt lat="41.97541" lon="9.22212">
        <ele>1610.15</ele>
        <time>2017-06-27T09:21:06.901Z</time>
      </trkpt>
      <trkpt lat="41.97532" lon="9.22212">
        <ele>1609.9</ele>
        <time>2017-06-27T09:21:15.904Z</time>
      </trkpt>
      <trkpt lat="41.97523" lon="9.22212">
        <ele>1611.36</ele>
        <time>2017-06-27T09:21:25.902Z</time>
      </trkpt>
      <trkpt lat="41.97516" lon="9.22215">
        <ele>1612.03</ele>
        <time>2017-06-27T09:21:35.901Z</time>
      </trkpt>
      <trkpt lat="41.97508" lon="9.22216">
        <ele>1612.11</ele>
        <time>2017-06-27T09:21:45.903Z</time>
      </trkpt>
      <trkpt lat="41.97498" lon="9.22221">
        <ele>1610.21</ele>
        <time>2017-06-27T09:21:55.901Z</time>
      </trkpt>
      <trkpt lat="41.97489" lon="9.22225">
        <ele>1610.53</ele>
        <time>2017-06-27T09:22:05.902Z</time>
      </trkpt>
      <trkpt lat="41.97482" lon="9.22228">
        <ele>1610.73</ele>
        <time>2017-06-27T09:22:15.903Z</time>
      </trkpt>
      <trkpt lat="41.97472" lon="9.2223">
        <ele>1609.24</ele>
        <time>2017-06-27T09:22:25.902Z</time>
      </trkpt>
      <trkpt lat="41.97464" lon="9.22232">
        <ele>1610.18</ele>
        <time>2017-06-27T09:22:35.902Z</time>
      </trkpt>
      <trkpt lat="41.97456" lon="9.22236">
        <ele>1610.88</ele>
        <time>2017-06-27T09:22:45.904Z</time>
      </trkpt>
      <trkpt lat="41.97451" lon="9.22235">
        <ele>1613.14</ele>
        <time>2017-06-27T09:22:55.902Z</time>
      </trkpt>
      <trkpt lat="41.97446" lon="9.22233">
        <ele>1615.68</ele>
        <time>2017-06-27T09:23:05.901Z</time>
      </trkpt>
      <trkpt lat="41.97439" lon="9.22233">
        <ele>1616.55</ele>
        <time>2017-06-27T09:23:15.904Z</time>
      </trkpt>
      <trkpt lat="41.97434" lon="9.22239">
        <ele>1618.75</ele>
        <time>2017-06-27T09:23:25.901Z</time>
      </trkpt>
      <trkpt lat="41.97429" lon="9.22247">
        <ele>1622.61</ele>
        <time>2017-06-27T09:23:35.902Z</time>
      </trkpt>
      <trkpt lat="41.97421" lon="9.22251">
        <ele>1624.18</ele>
        <time>2017-06-27T09:23:45.903Z</time>
      </trkpt>
      <trkpt lat="41.97415" lon="9.22255">
        <ele>1622.34</ele>
        <time>2017-06-27T09:23:55.902Z</time>
      </trkpt>
      <trkpt lat="41.97408" lon="9.22258">
        <ele>1623.09</ele>
        <time>2017-06-27T09:24:05.902Z</time>
      </trkpt>
      <trkpt lat="41.97402" lon="9.22264">
        <ele>1623.22</ele>
        <time>2017-06-27T09:24:15.904Z</time>
      </trkpt>
      <trkpt lat="41.97395" lon="9.22273">
        <ele>1625.82</ele>
        <time>2017-06-27T09:24:25.901Z</time>
      </trkpt>
      <trkpt lat="41.97388" lon="9.22282">
        <ele>1629.69</ele>
        <time>2017-06-27T09:24:35.901Z</time>
      </trkpt>
      <trkpt lat="41.97381" lon="9.22291">
        <ele>1633.09</ele>
        <time>2017-06-27T09:24:45.910Z</time>
      </trkpt>
      <trkpt lat="41.97377" lon="9.22298">
        <ele>1636.58</ele>
        <time>2017-06-27T09:24:55.901Z</time>
      </trkpt>
      <trkpt lat="41.97369" lon="9.22304">
        <ele>1638.91</ele>
        <time>2017-06-27T09:25:05.901Z</time>
      </trkpt>
      <trkpt lat="41.97363" lon="9.22306">
        <ele>1638.5</ele>
        <time>2017-06-27T09:25:15.902Z</time>
      </trkpt>
      <trkpt lat="41.97356" lon="9.22311">
        <ele>1637.24</ele>
        <time>2017-06-27T09:25:25.900Z</time>
      </trkpt>
      <trkpt lat="41.9735" lon="9.22318">
        <ele>1637.03</ele>
        <time>2017-06-27T09:25:35.900Z</time>
      </trkpt>
      <trkpt lat="41.97344" lon="9.22323">
        <ele>1635.97</ele>
        <time>2017-06-27T09:25:45.902Z</time>
      </trkpt>
      <trkpt lat="41.97337" lon="9.22328">
        <ele>1635.5</ele>
        <time>2017-06-27T09:25:55.900Z</time>
      </trkpt>
      <trkpt lat="41.9733" lon="9.22325">
        <ele>1638.19</ele>
        <time>2017-06-27T09:26:05.900Z</time>
      </trkpt>
      <trkpt lat="41.97325" lon="9.22322">
        <ele>1643.79</ele>
        <time>2017-06-27T09:26:15.902Z</time>
      </trkpt>
      <trkpt lat="41.9732" lon="9.22321">
        <ele>1644.57</ele>
        <time>2017-06-27T09:26:25.900Z</time>
      </trkpt>
      <trkpt lat="41.97313" lon="9.22324">
        <ele>1645.16</ele>
        <time>2017-06-27T09:26:35.900Z</time>
      </trkpt>
      <trkpt lat="41.97311" lon="9.2233">
        <ele>1648.04</ele>
        <time>2017-06-27T09:26:45.902Z</time>
      </trkpt>
      <trkpt lat="41.9731" lon="9.2233">
        <ele>1642.12</ele>
        <time>2017-06-27T09:27:24.897Z</time>
      </trkpt>
      <trkpt lat="41.97309" lon="9.2233">
        <ele>1639.8</ele>
        <time>2017-06-27T09:27:33.934Z</time>
      </trkpt>
      <trkpt lat="41.97308" lon="9.22329">
        <ele>1643.18</ele>
        <time>2017-06-27T09:28:05.900Z</time>
      </trkpt>
      <trkpt lat="41.97302" lon="9.22336">
        <ele>1646.04</ele>
        <time>2017-06-27T09:28:15.902Z</time>
      </trkpt>
      <trkpt lat="41.97298" lon="9.22347">
        <ele>1644.6</ele>
        <time>2017-06-27T09:28:25.900Z</time>
      </trkpt>
      <trkpt lat="41.97288" lon="9.22357">
        <ele>1638.67</ele>
        <time>2017-06-27T09:28:35.900Z</time>
      </trkpt>
      <trkpt lat="41.97279" lon="9.22362">
        <ele>1632.96</ele>
        <time>2017-06-27T09:28:45.902Z</time>
      </trkpt>
      <trkpt lat="41.97269" lon="9.22366">
        <ele>1627.72</ele>
        <time>2017-06-27T09:28:55.900Z</time>
      </trkpt>
      <trkpt lat="41.9726" lon="9.22372">
        <ele>1627.98</ele>
        <time>2017-06-27T09:29:05.900Z</time>
      </trkpt>
      <trkpt lat="41.97252" lon="9.22379">
        <ele>1627.84</ele>
        <time>2017-06-27T09:29:15.925Z</time>
      </trkpt>
      <trkpt lat="41.97245" lon="9.22386">
        <ele>1627.43</ele>
        <time>2017-06-27T09:29:25.900Z</time>
      </trkpt>
      <trkpt lat="41.97239" lon="9.22394">
        <ele>1626.67</ele>
        <time>2017-06-27T09:29:35.900Z</time>
      </trkpt>
      <trkpt lat="41.97231" lon="9.22398">
        <ele>1623.64</ele>
        <time>2017-06-27T09:29:44.903Z</time>
      </trkpt>
      <trkpt lat="41.97226" lon="9.22404">
        <ele>1621.63</ele>
        <time>2017-06-27T09:29:54.900Z</time>
      </trkpt>
      <trkpt lat="41.97217" lon="9.22408">
        <ele>1621.1</ele>
        <time>2017-06-27T09:30:03.902Z</time>
      </trkpt>
      <trkpt lat="41.97208" lon="9.22413">
        <ele>1620.46</ele>
        <time>2017-06-27T09:30:13.900Z</time>
      </trkpt>
      <trkpt lat="41.97199" lon="9.22419">
        <ele>1619.97</ele>
        <time>2017-06-27T09:30:23.900Z</time>
      </trkpt>
      <trkpt lat="41.9719" lon="9.22428">
        <ele>1619.39</ele>
        <time>2017-06-27T09:30:33.903Z</time>
      </trkpt>
      <trkpt lat="41.97183" lon="9.22435">
        <ele>1615.48</ele>
        <time>2017-06-27T09:30:43.900Z</time>
      </trkpt>
      <trkpt lat="41.97176" lon="9.22437">
        <ele>1614.21</ele>
        <time>2017-06-27T09:30:53.900Z</time>
      </trkpt>
      <trkpt lat="41.97167" lon="9.22443">
        <ele>1613.75</ele>
        <time>2017-06-27T09:31:03.902Z</time>
      </trkpt>
      <trkpt lat="41.97161" lon="9.22448">
        <ele>1613.26</ele>
        <time>2017-06-27T09:31:13.900Z</time>
      </trkpt>
      <trkpt lat="41.97153" lon="9.22454">
        <ele>1612.51</ele>
        <time>2017-06-27T09:31:23.900Z</time>
      </trkpt>
      <trkpt lat="41.97143" lon="9.22456">
        <ele>1611.89</ele>
        <time>2017-06-27T09:31:33.902Z</time>
      </trkpt>
      <trkpt lat="41.97133" lon="9.22458">
        <ele>1612.55</ele>
        <time>2017-06-27T09:31:43.900Z</time>
      </trkpt>
      <trkpt lat="41.97122" lon="9.22463">
        <ele>1610.96</ele>
        <time>2017-06-27T09:31:53.900Z</time>
      </trkpt>
      <trkpt lat="41.97117" lon="9.22466">
        <ele>1606.6</ele>
        <time>2017-06-27T09:32:02.901Z</time>
      </trkpt>
      <trkpt lat="41.97108" lon="9.22465">
        <ele>1603.46</ele>
        <time>2017-06-27T09:32:12.900Z</time>
      </trkpt>
      <trkpt lat="41.971" lon="9.22468">
        <ele>1602.81</ele>
        <time>2017-06-27T09:32:21.903Z</time>
      </trkpt>
      <trkpt lat="41.97093" lon="9.22469">
        <ele>1599.54</ele>
        <time>2017-06-27T09:32:31.900Z</time>
      </trkpt>
      <trkpt lat="41.97084" lon="9.22469">
        <ele>1598.84</ele>
        <time>2017-06-27T09:32:41.900Z</time>
      </trkpt>
      <trkpt lat="41.97075" lon="9.22472">
        <ele>1596.95</ele>
        <time>2017-06-27T09:32:51.902Z</time>
      </trkpt>
      <trkpt lat="41.97068" lon="9.22477">
        <ele>1595.56</ele>
        <time>2017-06-27T09:33:01.900Z</time>
      </trkpt>
      <trkpt lat="41.9706" lon="9.22475">
        <ele>1593.98</ele>
        <time>2017-06-27T09:33:11.900Z</time>
      </trkpt>
      <trkpt lat="41.97052" lon="9.22477">
        <ele>1589.68</ele>
        <time>2017-06-27T09:33:21.903Z</time>
      </trkpt>
      <trkpt lat="41.97043" lon="9.22476">
        <ele>1588.56</ele>
        <time>2017-06-27T09:33:31.900Z</time>
      </trkpt>
      <trkpt lat="41.97035" lon="9.22473">
        <ele>1588.63</ele>
        <time>2017-06-27T09:33:41.900Z</time>
      </trkpt>
      <trkpt lat="41.97026" lon="9.22474">
        <ele>1587.84</ele>
        <time>2017-06-27T09:33:51.903Z</time>
      </trkpt>
      <trkpt lat="41.97018" lon="9.22473">
        <ele>1588.6</ele>
        <time>2017-06-27T09:34:01.900Z</time>
      </trkpt>
      <trkpt lat="41.97011" lon="9.22474">
        <ele>1587.58</ele>
        <time>2017-06-27T09:34:11.900Z</time>
      </trkpt>
      <trkpt lat="41.97002" lon="9.22468">
        <ele>1583.26</ele>
        <time>2017-06-27T09:34:21.902Z</time>
      </trkpt>
      <trkpt lat="41.96993" lon="9.22465">
        <ele>1582.5</ele>
        <time>2017-06-27T09:34:31.900Z</time>
      </trkpt>
      <trkpt lat="41.96985" lon="9.22463">
        <ele>1579.14</ele>
        <time>2017-06-27T09:34:41.900Z</time>
      </trkpt>
      <trkpt lat="41.96979" lon="9.22459">
        <ele>1576.6</ele>
        <time>2017-06-27T09:34:51.902Z</time>
      </trkpt>
      <trkpt lat="41.96975" lon="9.22458">
        <ele>1572.12</ele>
        <time>2017-06-27T09:35:01.900Z</time>
      </trkpt>
      <trkpt lat="41.96969" lon="9.22457">
        <ele>1570.14</ele>
        <time>2017-06-27T09:35:10.901Z</time>
      </trkpt>
      <trkpt lat="41.96965" lon="9.22455">
        <ele>1568.77</ele>
        <time>2017-06-27T09:35:20.901Z</time>
      </trkpt>
      <trkpt lat="41.96961" lon="9.22454">
        <ele>1566.31</ele>
        <time>2017-06-27T09:35:30.900Z</time>
      </trkpt>
      <trkpt lat="41.96956" lon="9.22453">
        <ele>1565.2</ele>
        <time>2017-06-27T09:35:39.903Z</time>
      </trkpt>
      <trkpt lat="41.96948" lon="9.22453">
        <ele>1566.24</ele>
        <time>2017-06-27T09:35:49.900Z</time>
      </trkpt>
      <trkpt lat="41.96941" lon="9.22456">
        <ele>1565.58</ele>
        <time>2017-06-27T09:35:59.925Z</time>
      </trkpt>
      <trkpt lat="41.96935" lon="9.22458">
        <ele>1564.56</ele>
        <time>2017-06-27T09:36:09.903Z</time>
      </trkpt>
      <trkpt lat="41.96927" lon="9.22461">
        <ele>1561.51</ele>
        <time>2017-06-27T09:36:19.901Z</time>
      </trkpt>
      <trkpt lat="41.96918" lon="9.2246">
        <ele>1560.27</ele>
        <time>2017-06-27T09:36:29.900Z</time>
      </trkpt>
      <trkpt lat="41.9691" lon="9.22461">
        <ele>1561.88</ele>
        <time>2017-06-27T09:36:39.903Z</time>
      </trkpt>
      <trkpt lat="41.96904" lon="9.22463">
        <ele>1560.73</ele>
        <time>2017-06-27T09:36:49.900Z</time>
      </trkpt>
      <trkpt lat="41.96894" lon="9.22461">
        <ele>1557.78</ele>
        <time>2017-06-27T09:36:59.900Z</time>
      </trkpt>
      <trkpt lat="41.96887" lon="9.22459">
        <ele>1558.11</ele>
        <time>2017-06-27T09:37:08.901Z</time>
      </trkpt>
      <trkpt lat="41.96878" lon="9.22456">
        <ele>1557.79</ele>
        <time>2017-06-27T09:37:18.900Z</time>
      </trkpt>
      <trkpt lat="41.96869" lon="9.22454">
        <ele>1556.93</ele>
        <time>2017-06-27T09:37:27.903Z</time>
      </trkpt>
      <trkpt lat="41.96863" lon="9.22454">
        <ele>1555.33</ele>
        <time>2017-06-27T09:37:37.901Z</time>
      </trkpt>
      <trkpt lat="41.96861" lon="9.22456">
        <ele>1553.4</ele>
        <time>2017-06-27T09:37:47.901Z</time>
      </trkpt>
      <trkpt lat="41.96857" lon="9.22458">
        <ele>1555.03</ele>
        <time>2017-06-27T09:37:57.903Z</time>
      </trkpt>
      <trkpt lat="41.96847" lon="9.22458">
        <ele>1559.64</ele>
        <time>2017-06-27T09:38:07.900Z</time>
      </trkpt>
      <trkpt lat="41.96838" lon="9.22455">
        <ele>1557.68</ele>
        <time>2017-06-27T09:38:16.935Z</time>
      </trkpt>
      <trkpt lat="41.96829" lon="9.22451">
        <ele>1558.52</ele>
        <time>2017-06-27T09:38:26.901Z</time>
      </trkpt>
      <trkpt lat="41.96816" lon="9.22445">
        <ele>1553.69</ele>
        <time>2017-06-27T09:38:36.901Z</time>
      </trkpt>
      <trkpt lat="41.96807" lon="9.22444">
        <ele>1549.67</ele>
        <time>2017-06-27T09:38:45.903Z</time>
      </trkpt>
      <trkpt lat="41.96796" lon="9.22443">
        <ele>1548.94</ele>
        <time>2017-06-27T09:38:55.900Z</time>
      </trkpt>
      <trkpt lat="41.96787" lon="9.22441">
        <ele>1550.91</ele>
        <time>2017-06-27T09:39:04.901Z</time>
      </trkpt>
      <trkpt lat="41.96779" lon="9.2244">
        <ele>1552.92</ele>
        <time>2017-06-27T09:39:14.900Z</time>
      </trkpt>
      <trkpt lat="41.96767" lon="9.22438">
        <ele>1553.78</ele>
        <time>2017-06-27T09:39:24.900Z</time>
      </trkpt>
      <trkpt lat="41.96759" lon="9.22434">
        <ele>1556.55</ele>
        <time>2017-06-27T09:39:33.903Z</time>
      </trkpt>
      <trkpt lat="41.96751" lon="9.22432">
        <ele>1556.27</ele>
        <time>2017-06-27T09:39:43.900Z</time>
      </trkpt>
      <trkpt lat="41.96744" lon="9.22426">
        <ele>1556.33</ele>
        <time>2017-06-27T09:39:53.899Z</time>
      </trkpt>
      <trkpt lat="41.96737" lon="9.2242">
        <ele>1555.4</ele>
        <time>2017-06-27T09:40:02.900Z</time>
      </trkpt>
      <trkpt lat="41.96723" lon="9.22413">
        <ele>1554.46</ele>
        <time>2017-06-27T09:40:12.899Z</time>
      </trkpt>
      <trkpt lat="41.96714" lon="9.22407">
        <ele>1551.79</ele>
        <time>2017-06-27T09:40:21.902Z</time>
      </trkpt>
      <trkpt lat="41.96706" lon="9.22401">
        <ele>1548</ele>
        <time>2017-06-27T09:40:31.962Z</time>
      </trkpt>
      <trkpt lat="41.96697" lon="9.22395">
        <ele>1546.86</ele>
        <time>2017-06-27T09:40:41.900Z</time>
      </trkpt>
      <trkpt lat="41.96689" lon="9.22391">
        <ele>1546.78</ele>
        <time>2017-06-27T09:40:51.902Z</time>
      </trkpt>
      <trkpt lat="41.96679" lon="9.22388">
        <ele>1547</ele>
        <time>2017-06-27T09:41:01.899Z</time>
      </trkpt>
      <trkpt lat="41.96669" lon="9.22387">
        <ele>1543.61</ele>
        <time>2017-06-27T09:41:10.900Z</time>
      </trkpt>
      <trkpt lat="41.96661" lon="9.22389">
        <ele>1541.09</ele>
        <time>2017-06-27T09:41:20.900Z</time>
      </trkpt>
      <trkpt lat="41.96651" lon="9.22391">
        <ele>1539.1</ele>
        <time>2017-06-27T09:41:30.900Z</time>
      </trkpt>
      <trkpt lat="41.96643" lon="9.22392">
        <ele>1539.17</ele>
        <time>2017-06-27T09:41:39.921Z</time>
      </trkpt>
      <trkpt lat="41.96633" lon="9.22392">
        <ele>1538.45</ele>
        <time>2017-06-27T09:41:49.899Z</time>
      </trkpt>
      <trkpt lat="41.96629" lon="9.22392">
        <ele>1535.48</ele>
        <time>2017-06-27T09:41:58.900Z</time>
      </trkpt>
      <trkpt lat="41.9662" lon="9.22393">
        <ele>1532.35</ele>
        <time>2017-06-27T09:42:08.899Z</time>
      </trkpt>
      <trkpt lat="41.96613" lon="9.22395">
        <ele>1530.89</ele>
        <time>2017-06-27T09:42:17.900Z</time>
      </trkpt>
      <trkpt lat="41.96607" lon="9.22396">
        <ele>1531.29</ele>
        <time>2017-06-27T09:42:27.902Z</time>
      </trkpt>
      <trkpt lat="41.96599" lon="9.22394">
        <ele>1528.67</ele>
        <time>2017-06-27T09:42:37.899Z</time>
      </trkpt>
      <trkpt lat="41.96593" lon="9.22396">
        <ele>1525.37</ele>
        <time>2017-06-27T09:42:46.900Z</time>
      </trkpt>
      <trkpt lat="41.96582" lon="9.22396">
        <ele>1522.5</ele>
        <time>2017-06-27T09:42:56.899Z</time>
      </trkpt>
      <trkpt lat="41.96579" lon="9.22387">
        <ele>1522.17</ele>
        <time>2017-06-27T09:43:05.900Z</time>
      </trkpt>
      <trkpt lat="41.96575" lon="9.22381">
        <ele>1518.41</ele>
        <time>2017-06-27T09:43:15.902Z</time>
      </trkpt>
      <trkpt lat="41.96569" lon="9.22377">
        <ele>1515.13</ele>
        <time>2017-06-27T09:43:25.900Z</time>
      </trkpt>
      <trkpt lat="41.96562" lon="9.22376">
        <ele>1512.51</ele>
        <time>2017-06-27T09:43:35.900Z</time>
      </trkpt>
      <trkpt lat="41.96554" lon="9.22378">
        <ele>1511.22</ele>
        <time>2017-06-27T09:43:45.902Z</time>
      </trkpt>
      <trkpt lat="41.96545" lon="9.22382">
        <ele>1508.17</ele>
        <time>2017-06-27T09:43:55.900Z</time>
      </trkpt>
      <trkpt lat="41.96539" lon="9.22388">
        <ele>1508.24</ele>
        <time>2017-06-27T09:44:05.900Z</time>
      </trkpt>
      <trkpt lat="41.96538" lon="9.22394">
        <ele>1509</ele>
        <time>2017-06-27T09:44:15.899Z</time>
      </trkpt>
      <trkpt lat="41.96533" lon="9.224">
        <ele>1507.44</ele>
        <time>2017-06-27T09:44:24.945Z</time>
      </trkpt>
      <trkpt lat="41.96527" lon="9.22399">
        <ele>1506.92</ele>
        <time>2017-06-27T09:44:34.927Z</time>
      </trkpt>
      <trkpt lat="41.96527" lon="9.22398">
        <ele>1507</ele>
        <time>2017-06-27T09:44:43.947Z</time>
      </trkpt>
      <trkpt lat="41.96528" lon="9.22395">
        <ele>1509.1</ele>
        <time>2017-06-27T09:45:00.900Z</time>
      </trkpt>
      <trkpt lat="41.96527" lon="9.22396">
        <ele>1511.75</ele>
        <time>2017-06-27T09:45:24.900Z</time>
      </trkpt>
      <trkpt lat="41.96525" lon="9.22404">
        <ele>1518.68</ele>
        <time>2017-06-27T09:47:08.900Z</time>
      </trkpt>
      <trkpt lat="41.96523" lon="9.22405">
        <ele>1517.4</ele>
        <time>2017-06-27T09:47:18.900Z</time>
      </trkpt>
      <trkpt lat="41.96519" lon="9.22407">
        <ele>1512.38</ele>
        <time>2017-06-27T09:47:53.900Z</time>
      </trkpt>
      <trkpt lat="41.96513" lon="9.22411">
        <ele>1508.68</ele>
        <time>2017-06-27T09:48:03.903Z</time>
      </trkpt>
      <trkpt lat="41.96509" lon="9.22418">
        <ele>1508.62</ele>
        <time>2017-06-27T09:48:13.900Z</time>
      </trkpt>
      <trkpt lat="41.96502" lon="9.22422">
        <ele>1505.9</ele>
        <time>2017-06-27T09:48:23.900Z</time>
      </trkpt>
      <trkpt lat="41.96496" lon="9.22425">
        <ele>1503.21</ele>
        <time>2017-06-27T09:48:33.902Z</time>
      </trkpt>
      <trkpt lat="41.96491" lon="9.22426">
        <ele>1502.73</ele>
        <time>2017-06-27T09:48:43.899Z</time>
      </trkpt>
      <trkpt lat="41.96484" lon="9.22421">
        <ele>1501.04</ele>
        <time>2017-06-27T09:48:52.900Z</time>
      </trkpt>
      <trkpt lat="41.96478" lon="9.22418">
        <ele>1501.48</ele>
        <time>2017-06-27T09:49:02.899Z</time>
      </trkpt>
      <trkpt lat="41.9647" lon="9.22417">
        <ele>1504.04</ele>
        <time>2017-06-27T09:49:12.899Z</time>
      </trkpt>
      <trkpt lat="41.96461" lon="9.22413">
        <ele>1505.3</ele>
        <time>2017-06-27T09:49:21.901Z</time>
      </trkpt>
      <trkpt lat="41.96454" lon="9.22414">
        <ele>1506.89</ele>
        <time>2017-06-27T09:49:31.900Z</time>
      </trkpt>
      <trkpt lat="41.96447" lon="9.22414">
        <ele>1508.67</ele>
        <time>2017-06-27T09:49:41.899Z</time>
      </trkpt>
      <trkpt lat="41.9644" lon="9.2241">
        <ele>1509.89</ele>
        <time>2017-06-27T09:49:51.901Z</time>
      </trkpt>
      <trkpt lat="41.96436" lon="9.22411">
        <ele>1509.5</ele>
        <time>2017-06-27T09:50:01.899Z</time>
      </trkpt>
      <trkpt lat="41.9643" lon="9.22406">
        <ele>1510.07</ele>
        <time>2017-06-27T09:50:11.900Z</time>
      </trkpt>
      <trkpt lat="41.96424" lon="9.22403">
        <ele>1510.82</ele>
        <time>2017-06-27T09:50:21.901Z</time>
      </trkpt>
      <trkpt lat="41.96419" lon="9.22407">
        <ele>1516.75</ele>
        <time>2017-06-27T09:50:31.900Z</time>
      </trkpt>
      <trkpt lat="41.96416" lon="9.22414">
        <ele>1518.56</ele>
        <time>2017-06-27T09:50:41.900Z</time>
      </trkpt>
      <trkpt lat="41.96413" lon="9.22412">
        <ele>1519.1</ele>
        <time>2017-06-27T09:50:51.902Z</time>
      </trkpt>
      <trkpt lat="41.96406" lon="9.22414">
        <ele>1521.04</ele>
        <time>2017-06-27T09:51:01.900Z</time>
      </trkpt>
      <trkpt lat="41.96402" lon="9.22418">
        <ele>1519.29</ele>
        <time>2017-06-27T09:51:11.900Z</time>
      </trkpt>
      <trkpt lat="41.96397" lon="9.22415">
        <ele>1518.38</ele>
        <time>2017-06-27T09:51:21.931Z</time>
      </trkpt>
      <trkpt lat="41.96393" lon="9.22412">
        <ele>1518.49</ele>
        <time>2017-06-27T09:51:31.900Z</time>
      </trkpt>
      <trkpt lat="41.96392" lon="9.2241">
        <ele>1517.2</ele>
        <time>2017-06-27T09:51:41.899Z</time>
      </trkpt>
      <trkpt lat="41.96391" lon="9.22418">
        <ele>1517.63</ele>
        <time>2017-06-27T09:51:51.902Z</time>
      </trkpt>
      <trkpt lat="41.96383" lon="9.22421">
        <ele>1518.07</ele>
        <time>2017-06-27T09:52:01.900Z</time>
      </trkpt>
      <trkpt lat="41.96376" lon="9.22421">
        <ele>1516.15</ele>
        <time>2017-06-27T09:52:11.899Z</time>
      </trkpt>
      <trkpt lat="41.9637" lon="9.22423">
        <ele>1515.33</ele>
        <time>2017-06-27T09:52:21.901Z</time>
      </trkpt>
      <trkpt lat="41.96361" lon="9.22419">
        <ele>1516.32</ele>
        <time>2017-06-27T09:52:31.900Z</time>
      </trkpt>
      <trkpt lat="41.96353" lon="9.22417">
        <ele>1515.32</ele>
        <time>2017-06-27T09:52:41.899Z</time>
      </trkpt>
      <trkpt lat="41.96345" lon="9.22414">
        <ele>1516.5</ele>
        <time>2017-06-27T09:52:51.901Z</time>
      </trkpt>
      <trkpt lat="41.96338" lon="9.22414">
        <ele>1514.15</ele>
        <time>2017-06-27T09:53:01.899Z</time>
      </trkpt>
      <trkpt lat="41.96334" lon="9.22416">
        <ele>1513.83</ele>
        <time>2017-06-27T09:53:10.900Z</time>
      </trkpt>
      <trkpt lat="41.96329" lon="9.22419">
        <ele>1511.54</ele>
        <time>2017-06-27T09:53:20.899Z</time>
      </trkpt>
      <trkpt lat="41.96323" lon="9.22423">
        <ele>1511.11</ele>
        <time>2017-06-27T09:53:29.900Z</time>
      </trkpt>
      <trkpt lat="41.96315" lon="9.22424">
        <ele>1509.02</ele>
        <time>2017-06-27T09:53:39.901Z</time>
      </trkpt>
      <trkpt lat="41.96308" lon="9.22426">
        <ele>1509.38</ele>
        <time>2017-06-27T09:53:49.899Z</time>
      </trkpt>
      <trkpt lat="41.96301" lon="9.22424">
        <ele>1509.86</ele>
        <time>2017-06-27T09:53:59.899Z</time>
      </trkpt>
      <trkpt lat="41.96294" lon="9.22421">
        <ele>1511.27</ele>
        <time>2017-06-27T09:54:09.901Z</time>
      </trkpt>
      <trkpt lat="41.96286" lon="9.22421">
        <ele>1511.08</ele>
        <time>2017-06-27T09:54:19.899Z</time>
      </trkpt>
      <trkpt lat="41.96278" lon="9.22419">
        <ele>1510.79</ele>
        <time>2017-06-27T09:54:29.899Z</time>
      </trkpt>
      <trkpt lat="41.9627" lon="9.22417">
        <ele>1511.8</ele>
        <time>2017-06-27T09:54:39.901Z</time>
      </trkpt>
      <trkpt lat="41.96259" lon="9.2242">
        <ele>1510.7</ele>
        <time>2017-06-27T09:54:49.899Z</time>
      </trkpt>
      <trkpt lat="41.96251" lon="9.22424">
        <ele>1510.73</ele>
        <time>2017-06-27T09:54:59.908Z</time>
      </trkpt>
      <trkpt lat="41.96241" lon="9.22427">
        <ele>1511.72</ele>
        <time>2017-06-27T09:55:09.902Z</time>
      </trkpt>
      <trkpt lat="41.96235" lon="9.22431">
        <ele>1511.41</ele>
        <time>2017-06-27T09:55:19.900Z</time>
      </trkpt>
      <trkpt lat="41.96228" lon="9.2244">
        <ele>1510.69</ele>
        <time>2017-06-27T09:55:29.899Z</time>
      </trkpt>
      <trkpt lat="41.96223" lon="9.22447">
        <ele>1510.88</ele>
        <time>2017-06-27T09:55:39.902Z</time>
      </trkpt>
      <trkpt lat="41.96218" lon="9.22455">
        <ele>1511.77</ele>
        <time>2017-06-27T09:55:49.901Z</time>
      </trkpt>
      <trkpt lat="41.96212" lon="9.22465">
        <ele>1513.22</ele>
        <time>2017-06-27T09:55:59.901Z</time>
      </trkpt>
      <trkpt lat="41.96208" lon="9.22473">
        <ele>1513.17</ele>
        <time>2017-06-27T09:56:09.902Z</time>
      </trkpt>
      <trkpt lat="41.96206" lon="9.22482">
        <ele>1511.51</ele>
        <time>2017-06-27T09:56:19.900Z</time>
      </trkpt>
      <trkpt lat="41.96202" lon="9.22494">
        <ele>1512.55</ele>
        <time>2017-06-27T09:56:29.900Z</time>
      </trkpt>
      <trkpt lat="41.96202" lon="9.22495">
        <ele>1512.8</ele>
        <time>2017-06-27T09:56:39.901Z</time>
      </trkpt>
      <trkpt lat="41.96196" lon="9.22504">
        <ele>1518.12</ele>
        <time>2017-06-27T09:56:53.898Z</time>
      </trkpt>
      <trkpt lat="41.96192" lon="9.22511">
        <ele>1521.18</ele>
        <time>2017-06-27T09:57:03.901Z</time>
      </trkpt>
      <trkpt lat="41.96187" lon="9.22513">
        <ele>1528.05</ele>
        <time>2017-06-27T09:57:13.898Z</time>
      </trkpt>
      <trkpt lat="41.96183" lon="9.22514">
        <ele>1532.6</ele>
        <time>2017-06-27T09:57:23.898Z</time>
      </trkpt>
      <trkpt lat="41.9618" lon="9.22513">
        <ele>1531.21</ele>
        <time>2017-06-27T09:57:32.899Z</time>
      </trkpt>
      <trkpt lat="41.96174" lon="9.22513">
        <ele>1531.54</ele>
        <time>2017-06-27T09:57:42.898Z</time>
      </trkpt>
      <trkpt lat="41.96169" lon="9.22516">
        <ele>1533.2</ele>
        <time>2017-06-27T09:57:51.901Z</time>
      </trkpt>
      <trkpt lat="41.96164" lon="9.22517">
        <ele>1534.69</ele>
        <time>2017-06-27T09:58:01.899Z</time>
      </trkpt>
      <trkpt lat="41.9616" lon="9.22519">
        <ele>1537.25</ele>
        <time>2017-06-27T09:58:11.899Z</time>
      </trkpt>
      <trkpt lat="41.96151" lon="9.22523">
        <ele>1534.12</ele>
        <time>2017-06-27T09:58:21.901Z</time>
      </trkpt>
      <trkpt lat="41.96144" lon="9.22526">
        <ele>1535.45</ele>
        <time>2017-06-27T09:58:31.898Z</time>
      </trkpt>
      <trkpt lat="41.96136" lon="9.22526">
        <ele>1534.8</ele>
        <time>2017-06-27T09:58:41.898Z</time>
      </trkpt>
      <trkpt lat="41.96131" lon="9.22527">
        <ele>1541.14</ele>
        <time>2017-06-27T09:58:51.901Z</time>
      </trkpt>
      <trkpt lat="41.96125" lon="9.22526">
        <ele>1540.76</ele>
        <time>2017-06-27T09:59:01.899Z</time>
      </trkpt>
      <trkpt lat="41.96121" lon="9.22528">
        <ele>1542.7</ele>
        <time>2017-06-27T09:59:11.898Z</time>
      </trkpt>
      <trkpt lat="41.96116" lon="9.22529">
        <ele>1541.7</ele>
        <time>2017-06-27T09:59:21.901Z</time>
      </trkpt>
      <trkpt lat="41.96111" lon="9.22531">
        <ele>1543.7</ele>
        <time>2017-06-27T09:59:31.898Z</time>
      </trkpt>
      <trkpt lat="41.9611" lon="9.22526">
        <ele>1551.28</ele>
        <time>2017-06-27T10:00:01.898Z</time>
      </trkpt>
      <trkpt lat="41.96109" lon="9.22524">
        <ele>1556.2</ele>
        <time>2017-06-27T10:00:11.898Z</time>
      </trkpt>
      <trkpt lat="41.96103" lon="9.22523">
        <ele>1556.65</ele>
        <time>2017-06-27T10:00:20.899Z</time>
      </trkpt>
      <trkpt lat="41.96097" lon="9.22528">
        <ele>1561.78</ele>
        <time>2017-06-27T10:01:20.898Z</time>
      </trkpt>
      <trkpt lat="41.96095" lon="9.22535">
        <ele>1564</ele>
        <time>2017-06-27T10:02:29.898Z</time>
      </trkpt>
      <trkpt lat="41.96093" lon="9.22541">
        <ele>1559.26</ele>
        <time>2017-06-27T10:02:39.901Z</time>
      </trkpt>
      <trkpt lat="41.96088" lon="9.22546">
        <ele>1550.38</ele>
        <time>2017-06-27T10:02:49.898Z</time>
      </trkpt>
      <trkpt lat="41.96086" lon="9.22554">
        <ele>1550.09</ele>
        <time>2017-06-27T10:02:59.898Z</time>
      </trkpt>
      <trkpt lat="41.96079" lon="9.22564">
        <ele>1552.26</ele>
        <time>2017-06-27T10:03:09.901Z</time>
      </trkpt>
      <trkpt lat="41.96073" lon="9.22569">
        <ele>1551.44</ele>
        <time>2017-06-27T10:03:19.898Z</time>
      </trkpt>
      <trkpt lat="41.9607" lon="9.22575">
        <ele>1549.09</ele>
        <time>2017-06-27T10:03:29.898Z</time>
      </trkpt>
      <trkpt lat="41.96067" lon="9.22578">
        <ele>1547.3</ele>
        <time>2017-06-27T10:03:39.901Z</time>
      </trkpt>
      <trkpt lat="41.96058" lon="9.22586">
        <ele>1548.74</ele>
        <time>2017-06-27T10:03:49.899Z</time>
      </trkpt>
      <trkpt lat="41.96054" lon="9.2259">
        <ele>1550.78</ele>
        <time>2017-06-27T10:03:59.898Z</time>
      </trkpt>
      <trkpt lat="41.96048" lon="9.22595">
        <ele>1553.22</ele>
        <time>2017-06-27T10:04:08.899Z</time>
      </trkpt>
      <trkpt lat="41.96043" lon="9.22602">
        <ele>1555.69</ele>
        <time>2017-06-27T10:04:18.898Z</time>
      </trkpt>
      <trkpt lat="41.96042" lon="9.22606">
        <ele>1556.7</ele>
        <time>2017-06-27T10:04:27.900Z</time>
      </trkpt>
      <trkpt lat="41.9604" lon="9.22614">
        <ele>1557.06</ele>
        <time>2017-06-27T10:04:36.925Z</time>
      </trkpt>
      <trkpt lat="41.96035" lon="9.22621">
        <ele>1558.89</ele>
        <time>2017-06-27T10:04:46.898Z</time>
      </trkpt>
      <trkpt lat="41.96034" lon="9.22628">
        <ele>1558.95</ele>
        <time>2017-06-27T10:04:56.898Z</time>
      </trkpt>
      <trkpt lat="41.96036" lon="9.22635">
        <ele>1560.89</ele>
        <time>2017-06-27T10:05:05.899Z</time>
      </trkpt>
      <trkpt lat="41.9603" lon="9.2264">
        <ele>1562.72</ele>
        <time>2017-06-27T10:05:15.901Z</time>
      </trkpt>
      <trkpt lat="41.96027" lon="9.22646">
        <ele>1568.08</ele>
        <time>2017-06-27T10:05:25.898Z</time>
      </trkpt>
      <trkpt lat="41.96021" lon="9.22649">
        <ele>1569.68</ele>
        <time>2017-06-27T10:05:35.897Z</time>
      </trkpt>
      <trkpt lat="41.96015" lon="9.22654">
        <ele>1570.86</ele>
        <time>2017-06-27T10:05:44.898Z</time>
      </trkpt>
      <trkpt lat="41.96009" lon="9.2266">
        <ele>1572.25</ele>
        <time>2017-06-27T10:05:53.899Z</time>
      </trkpt>
      <trkpt lat="41.96007" lon="9.22661">
        <ele>1574.7</ele>
        <time>2017-06-27T10:06:03.900Z</time>
      </trkpt>
      <trkpt lat="41.95999" lon="9.22667">
        <ele>1576.32</ele>
        <time>2017-06-27T10:06:13.898Z</time>
      </trkpt>
      <trkpt lat="41.95996" lon="9.2267">
        <ele>1579.13</ele>
        <time>2017-06-27T10:06:22.912Z</time>
      </trkpt>
      <trkpt lat="41.95998" lon="9.22668">
        <ele>1583.35</ele>
        <time>2017-06-27T10:06:36.898Z</time>
      </trkpt>
      <trkpt lat="41.95998" lon="9.22666">
        <ele>1586</ele>
        <time>2017-06-27T10:06:45.901Z</time>
      </trkpt>
      <trkpt lat="41.95993" lon="9.2266">
        <ele>1585.47</ele>
        <time>2017-06-27T10:06:57.901Z</time>
      </trkpt>
      <trkpt lat="41.95988" lon="9.22661">
        <ele>1587.1</ele>
        <time>2017-06-27T10:07:07.898Z</time>
      </trkpt>
      <trkpt lat="41.95983" lon="9.22663">
        <ele>1587.49</ele>
        <time>2017-06-27T10:07:16.899Z</time>
      </trkpt>
      <trkpt lat="41.9598" lon="9.22665">
        <ele>1590</ele>
        <time>2017-06-27T10:07:26.898Z</time>
      </trkpt>
      <trkpt lat="41.95977" lon="9.22659">
        <ele>1593.38</ele>
        <time>2017-06-27T10:07:43.898Z</time>
      </trkpt>
      <trkpt lat="41.95979" lon="9.22654">
        <ele>1594.5</ele>
        <time>2017-06-27T10:07:53.898Z</time>
      </trkpt>
      <trkpt lat="41.95981" lon="9.2265">
        <ele>1594.27</ele>
        <time>2017-06-27T10:08:02.899Z</time>
      </trkpt>
      <trkpt lat="41.95985" lon="9.22645">
        <ele>1597.34</ele>
        <time>2017-06-27T10:08:12.898Z</time>
      </trkpt>
      <trkpt lat="41.95985" lon="9.22643">
        <ele>1599.1</ele>
        <time>2017-06-27T10:08:21.901Z</time>
      </trkpt>
      <trkpt lat="41.95987" lon="9.22638">
        <ele>1602.5</ele>
        <time>2017-06-27T10:08:31.899Z</time>
      </trkpt>
      <trkpt lat="41.9599" lon="9.2263">
        <ele>1602.27</ele>
        <time>2017-06-27T10:08:41.899Z</time>
      </trkpt>
      <trkpt lat="41.95992" lon="9.22622">
        <ele>1603.49</ele>
        <time>2017-06-27T10:08:50.920Z</time>
      </trkpt>
      <trkpt lat="41.95993" lon="9.22613">
        <ele>1603.49</ele>
        <time>2017-06-27T10:09:00.897Z</time>
      </trkpt>
      <trkpt lat="41.95989" lon="9.22616">
        <ele>1602.98</ele>
        <time>2017-06-27T10:09:16.898Z</time>
      </trkpt>
      <trkpt lat="41.95984" lon="9.22619">
        <ele>1602.01</ele>
        <time>2017-06-27T10:09:26.898Z</time>
      </trkpt>
      <trkpt lat="41.95978" lon="9.22624">
        <ele>1604.7</ele>
        <time>2017-06-27T10:09:36.898Z</time>
      </trkpt>
      <trkpt lat="41.95973" lon="9.22627">
        <ele>1604.19</ele>
        <time>2017-06-27T10:09:45.900Z</time>
      </trkpt>
      <trkpt lat="41.95964" lon="9.2263">
        <ele>1605.9</ele>
        <time>2017-06-27T10:09:55.898Z</time>
      </trkpt>
      <trkpt lat="41.95957" lon="9.22632">
        <ele>1606.9</ele>
        <time>2017-06-27T10:10:05.898Z</time>
      </trkpt>
      <trkpt lat="41.95951" lon="9.2263">
        <ele>1609.41</ele>
        <time>2017-06-27T10:10:15.900Z</time>
      </trkpt>
      <trkpt lat="41.95943" lon="9.22629">
        <ele>1609.92</ele>
        <time>2017-06-27T10:10:25.897Z</time>
      </trkpt>
      <trkpt lat="41.95937" lon="9.22627">
        <ele>1612.89</ele>
        <time>2017-06-27T10:10:35.897Z</time>
      </trkpt>
      <trkpt lat="41.95931" lon="9.22626">
        <ele>1613.85</ele>
        <time>2017-06-27T10:10:45.900Z</time>
      </trkpt>
      <trkpt lat="41.95923" lon="9.22628">
        <ele>1614.53</ele>
        <time>2017-06-27T10:10:55.897Z</time>
      </trkpt>
      <trkpt lat="41.95913" lon="9.22625">
        <ele>1614.5</ele>
        <time>2017-06-27T10:11:04.898Z</time>
      </trkpt>
      <trkpt lat="41.95904" lon="9.22624">
        <ele>1615.78</ele>
        <time>2017-06-27T10:11:14.897Z</time>
      </trkpt>
      <trkpt lat="41.95895" lon="9.22623">
        <ele>1615.72</ele>
        <time>2017-06-27T10:11:23.898Z</time>
      </trkpt>
      <trkpt lat="41.95886" lon="9.22622">
        <ele>1615.2</ele>
        <time>2017-06-27T10:11:33.899Z</time>
      </trkpt>
      <trkpt lat="41.95878" lon="9.2262">
        <ele>1614.47</ele>
        <time>2017-06-27T10:11:43.897Z</time>
      </trkpt>
      <trkpt lat="41.95871" lon="9.22616">
        <ele>1614.28</ele>
        <time>2017-06-27T10:11:53.897Z</time>
      </trkpt>
      <trkpt lat="41.95865" lon="9.22612">
        <ele>1614.49</ele>
        <time>2017-06-27T10:12:03.899Z</time>
      </trkpt>
      <trkpt lat="41.95856" lon="9.2261">
        <ele>1614.31</ele>
        <time>2017-06-27T10:12:13.897Z</time>
      </trkpt>
      <trkpt lat="41.95849" lon="9.22611">
        <ele>1613.53</ele>
        <time>2017-06-27T10:12:23.897Z</time>
      </trkpt>
      <trkpt lat="41.95839" lon="9.22611">
        <ele>1613.64</ele>
        <time>2017-06-27T10:12:33.896Z</time>
      </trkpt>
      <trkpt lat="41.9583" lon="9.22612">
        <ele>1614.17</ele>
        <time>2017-06-27T10:12:42.897Z</time>
      </trkpt>
      <trkpt lat="41.95824" lon="9.22611">
        <ele>1614.47</ele>
        <time>2017-06-27T10:12:51.899Z</time>
      </trkpt>
      <trkpt lat="41.95814" lon="9.22608">
        <ele>1614.18</ele>
        <time>2017-06-27T10:13:01.935Z</time>
      </trkpt>
      <trkpt lat="41.95806" lon="9.22605">
        <ele>1613.7</ele>
        <time>2017-06-27T10:13:11.897Z</time>
      </trkpt>
      <trkpt lat="41.95793" lon="9.22607">
        <ele>1613.13</ele>
        <time>2017-06-27T10:13:21.899Z</time>
      </trkpt>
      <trkpt lat="41.95784" lon="9.22606">
        <ele>1613</ele>
        <time>2017-06-27T10:13:31.897Z</time>
      </trkpt>
      <trkpt lat="41.9578" lon="9.22607">
        <ele>1613.1</ele>
        <time>2017-06-27T10:13:41.897Z</time>
      </trkpt>
      <trkpt lat="41.95777" lon="9.22608">
        <ele>1612.95</ele>
        <time>2017-06-27T10:13:56.897Z</time>
      </trkpt>
      <trkpt lat="41.95768" lon="9.22611">
        <ele>1612.9</ele>
        <time>2017-06-27T10:14:06.897Z</time>
      </trkpt>
      <trkpt lat="41.95765" lon="9.22604">
        <ele>1612.8</ele>
        <time>2017-06-27T10:14:15.899Z</time>
      </trkpt>
      <trkpt lat="41.9576" lon="9.22601">
        <ele>1612.61</ele>
        <time>2017-06-27T10:14:25.897Z</time>
      </trkpt>
      <trkpt lat="41.95759" lon="9.22603">
        <ele>1612.4</ele>
        <time>2017-06-27T10:14:35.897Z</time>
      </trkpt>
      <trkpt lat="41.95754" lon="9.22598">
        <ele>1612.01</ele>
        <time>2017-06-27T10:14:45.899Z</time>
      </trkpt>
      <trkpt lat="41.95749" lon="9.22602">
        <ele>1612</ele>
        <time>2017-06-27T10:14:55.897Z</time>
      </trkpt>
      <trkpt lat="41.95746" lon="9.22602">
        <ele>1612.2</ele>
        <time>2017-06-27T10:15:05.925Z</time>
      </trkpt>
      <trkpt lat="41.9575" lon="9.22598">
        <ele>1613.18</ele>
        <time>2017-06-27T10:15:18.897Z</time>
      </trkpt>
      <trkpt lat="41.95749" lon="9.22596">
        <ele>1613.6</ele>
        <time>2017-06-27T10:15:27.899Z</time>
      </trkpt>
      <trkpt lat="41.95743" lon="9.22591">
        <ele>1614.2</ele>
        <time>2017-06-27T10:15:44.897Z</time>
      </trkpt>
      <trkpt lat="41.95739" lon="9.22591">
        <ele>1614.57</ele>
        <time>2017-06-27T10:15:54.897Z</time>
      </trkpt>
      <trkpt lat="41.95734" lon="9.22594">
        <ele>1614.9</ele>
        <time>2017-06-27T10:16:03.899Z</time>
      </trkpt>
      <trkpt lat="41.95725" lon="9.22594">
        <ele>1615.99</ele>
        <time>2017-06-27T10:16:13.895Z</time>
      </trkpt>
      <trkpt lat="41.95721" lon="9.22591">
        <ele>1616.49</ele>
        <time>2017-06-27T10:16:23.102Z</time>
      </trkpt>
      <trkpt lat="41.95712" lon="9.22592">
        <ele>1617.25</ele>
        <time>2017-06-27T10:16:32.897Z</time>
      </trkpt>
      <trkpt lat="41.95708" lon="9.22593">
        <ele>1618.39</ele>
        <time>2017-06-27T10:16:42.897Z</time>
      </trkpt>
      <trkpt lat="41.95705" lon="9.22595">
        <ele>1618.9</ele>
        <time>2017-06-27T10:16:51.899Z</time>
      </trkpt>
      <trkpt lat="41.95696" lon="9.22599">
        <ele>1623.02</ele>
        <time>2017-06-27T10:17:01.897Z</time>
      </trkpt>
      <trkpt lat="41.95686" lon="9.22605">
        <ele>1625.04</ele>
        <time>2017-06-27T10:17:11.897Z</time>
      </trkpt>
      <trkpt lat="41.95678" lon="9.22614">
        <ele>1627.03</ele>
        <time>2017-06-27T10:17:21.899Z</time>
      </trkpt>
      <trkpt lat="41.95667" lon="9.22622">
        <ele>1626.71</ele>
        <time>2017-06-27T10:17:31.897Z</time>
      </trkpt>
      <trkpt lat="41.95661" lon="9.22627">
        <ele>1620.52</ele>
        <time>2017-06-27T10:17:41.897Z</time>
      </trkpt>
      <trkpt lat="41.95656" lon="9.22625">
        <ele>1613.71</ele>
        <time>2017-06-27T10:17:51.899Z</time>
      </trkpt>
      <trkpt lat="41.95654" lon="9.22631">
        <ele>1613.2</ele>
        <time>2017-06-27T10:18:01.898Z</time>
      </trkpt>
      <trkpt lat="41.95654" lon="9.22633">
        <ele>1615.1</ele>
        <time>2017-06-27T10:18:11.897Z</time>
      </trkpt>
      <trkpt lat="41.95657" lon="9.2264">
        <ele>1619.75</ele>
        <time>2017-06-27T10:18:21.899Z</time>
      </trkpt>
      <trkpt lat="41.95652" lon="9.22649">
        <ele>1621.75</ele>
        <time>2017-06-27T10:18:31.897Z</time>
      </trkpt>
      <trkpt lat="41.95649" lon="9.2266">
        <ele>1620.08</ele>
        <time>2017-06-27T10:18:41.898Z</time>
      </trkpt>
      <trkpt lat="41.95648" lon="9.22669">
        <ele>1621.81</ele>
        <time>2017-06-27T10:18:51.899Z</time>
      </trkpt>
      <trkpt lat="41.95647" lon="9.22671">
        <ele>1624.3</ele>
        <time>2017-06-27T10:19:01.897Z</time>
      </trkpt>
      <trkpt lat="41.95645" lon="9.22675">
        <ele>1628.3</ele>
        <time>2017-06-27T10:19:11.897Z</time>
      </trkpt>
      <trkpt lat="41.95643" lon="9.22674">
        <ele>1631.9</ele>
        <time>2017-06-27T10:19:21.899Z</time>
      </trkpt>
      <trkpt lat="41.95637" lon="9.22664">
        <ele>1639.85</ele>
        <time>2017-06-27T10:20:05.897Z</time>
      </trkpt>
      <trkpt lat="41.95637" lon="9.22659">
        <ele>1641.7</ele>
        <time>2017-06-27T10:20:15.899Z</time>
      </trkpt>
      <trkpt lat="41.95637" lon="9.22649">
        <ele>1643.56</ele>
        <time>2017-06-27T10:20:25.897Z</time>
      </trkpt>
      <trkpt lat="41.95636" lon="9.22642">
        <ele>1646.43</ele>
        <time>2017-06-27T10:20:35.895Z</time>
      </trkpt>
      <trkpt lat="41.95634" lon="9.22642">
        <ele>1645</ele>
        <time>2017-06-27T10:20:44.897Z</time>
      </trkpt>
      <trkpt lat="41.95637" lon="9.22635">
        <ele>1650.29</ele>
        <time>2017-06-27T10:20:53.898Z</time>
      </trkpt>
      <trkpt lat="41.95636" lon="9.22627">
        <ele>1646.76</ele>
        <time>2017-06-27T10:21:03.900Z</time>
      </trkpt>
      <trkpt lat="41.95635" lon="9.22626">
        <ele>1645.9</ele>
        <time>2017-06-27T10:21:13.898Z</time>
      </trkpt>
      <trkpt lat="41.95626" lon="9.22631">
        <ele>1646.42</ele>
        <time>2017-06-27T10:21:28.897Z</time>
      </trkpt>
      <trkpt lat="41.95627" lon="9.22629">
        <ele>1647.26</ele>
        <time>2017-06-27T10:21:38.897Z</time>
      </trkpt>
      <trkpt lat="41.95627" lon="9.22626">
        <ele>1647.4</ele>
        <time>2017-06-27T10:21:48.897Z</time>
      </trkpt>
      <trkpt lat="41.95626" lon="9.22629">
        <ele>1652.28</ele>
        <time>2017-06-27T10:22:17.898Z</time>
      </trkpt>
      <trkpt lat="41.95622" lon="9.22632">
        <ele>1659.14</ele>
        <time>2017-06-27T10:22:27.899Z</time>
      </trkpt>
      <trkpt lat="41.95621" lon="9.22634">
        <ele>1661.7</ele>
        <time>2017-06-27T10:22:37.898Z</time>
      </trkpt>
      <trkpt lat="41.95616" lon="9.22631">
        <ele>1663.9</ele>
        <time>2017-06-27T10:22:47.898Z</time>
      </trkpt>
      <trkpt lat="41.95609" lon="9.22623">
        <ele>1664.65</ele>
        <time>2017-06-27T10:23:23.897Z</time>
      </trkpt>
      <trkpt lat="41.95612" lon="9.22622">
        <ele>1666.9</ele>
        <time>2017-06-27T10:23:33.899Z</time>
      </trkpt>
      <trkpt lat="41.95609" lon="9.22623">
        <ele>1669.05</ele>
        <time>2017-06-27T10:23:43.896Z</time>
      </trkpt>
      <trkpt lat="41.95604" lon="9.22623">
        <ele>1672.56</ele>
        <time>2017-06-27T10:23:52.897Z</time>
      </trkpt>
      <trkpt lat="41.956" lon="9.22619">
        <ele>1674.61</ele>
        <time>2017-06-27T10:24:01.898Z</time>
      </trkpt>
      <trkpt lat="41.95597" lon="9.22617">
        <ele>1678.9</ele>
        <time>2017-06-27T10:24:11.897Z</time>
      </trkpt>
      <trkpt lat="41.95596" lon="9.22616">
        <ele>1679.4</ele>
        <time>2017-06-27T10:24:21.899Z</time>
      </trkpt>
      <trkpt lat="41.95588" lon="9.22611">
        <ele>1677.11</ele>
        <time>2017-06-27T10:24:31.897Z</time>
      </trkpt>
      <trkpt lat="41.95583" lon="9.22608">
        <ele>1674.9</ele>
        <time>2017-06-27T10:24:41.897Z</time>
      </trkpt>
      <trkpt lat="41.95582" lon="9.22604">
        <ele>1669.65</ele>
        <time>2017-06-27T10:25:59.897Z</time>
      </trkpt>
      <trkpt lat="41.95579" lon="9.22605">
        <ele>1664.88</ele>
        <time>2017-06-27T10:27:38.897Z</time>
      </trkpt>
      <trkpt lat="41.9558" lon="9.22603">
        <ele>1663.5</ele>
        <time>2017-06-27T10:27:48.897Z</time>
      </trkpt>
      <trkpt lat="41.95576" lon="9.22595">
        <ele>1664.73</ele>
        <time>2017-06-27T10:27:57.898Z</time>
      </trkpt>
      <trkpt lat="41.95572" lon="9.2259">
        <ele>1665.4</ele>
        <time>2017-06-27T10:28:07.897Z</time>
      </trkpt>
      <trkpt lat="41.95569" lon="9.22586">
        <ele>1667.13</ele>
        <time>2017-06-27T10:28:21.899Z</time>
      </trkpt>
      <trkpt lat="41.95561" lon="9.22576">
        <ele>1666.28</ele>
        <time>2017-06-27T10:28:31.896Z</time>
      </trkpt>
      <trkpt lat="41.95553" lon="9.2258">
        <ele>1666.48</ele>
        <time>2017-06-27T10:28:41.896Z</time>
      </trkpt>
      <trkpt lat="41.95547" lon="9.22576">
        <ele>1664.96</ele>
        <time>2017-06-27T10:28:51.899Z</time>
      </trkpt>
      <trkpt lat="41.95541" lon="9.22577">
        <ele>1662.53</ele>
        <time>2017-06-27T10:29:01.897Z</time>
      </trkpt>
      <trkpt lat="41.95539" lon="9.22573">
        <ele>1660.63</ele>
        <time>2017-06-27T10:29:11.897Z</time>
      </trkpt>
      <trkpt lat="41.95533" lon="9.22575">
        <ele>1660.59</ele>
        <time>2017-06-27T10:29:21.898Z</time>
      </trkpt>
      <trkpt lat="41.95525" lon="9.22582">
        <ele>1664.11</ele>
        <time>2017-06-27T10:29:31.897Z</time>
      </trkpt>
      <trkpt lat="41.95517" lon="9.22589">
        <ele>1662.69</ele>
        <time>2017-06-27T10:29:41.896Z</time>
      </trkpt>
      <trkpt lat="41.95515" lon="9.22599">
        <ele>1663.63</ele>
        <time>2017-06-27T10:29:50.897Z</time>
      </trkpt>
      <trkpt lat="41.9551" lon="9.226">
        <ele>1666.81</ele>
        <time>2017-06-27T10:30:00.896Z</time>
      </trkpt>
      <trkpt lat="41.95505" lon="9.22602">
        <ele>1666.65</ele>
        <time>2017-06-27T10:30:09.899Z</time>
      </trkpt>
      <trkpt lat="41.955" lon="9.22604">
        <ele>1669.74</ele>
        <time>2017-06-27T10:30:19.897Z</time>
      </trkpt>
      <trkpt lat="41.95494" lon="9.22603">
        <ele>1669</ele>
        <time>2017-06-27T10:30:29.897Z</time>
      </trkpt>
      <trkpt lat="41.95488" lon="9.22599">
        <ele>1667.59</ele>
        <time>2017-06-27T10:30:39.898Z</time>
      </trkpt>
      <trkpt lat="41.9548" lon="9.22589">
        <ele>1666.15</ele>
        <time>2017-06-27T10:30:49.897Z</time>
      </trkpt>
      <trkpt lat="41.95474" lon="9.22586">
        <ele>1664.39</ele>
        <time>2017-06-27T10:30:59.897Z</time>
      </trkpt>
      <trkpt lat="41.95469" lon="9.22583">
        <ele>1664.93</ele>
        <time>2017-06-27T10:31:09.899Z</time>
      </trkpt>
      <trkpt lat="41.95465" lon="9.22581">
        <ele>1664.4</ele>
        <time>2017-06-27T10:31:19.897Z</time>
      </trkpt>
      <trkpt lat="41.95461" lon="9.22578">
        <ele>1663</ele>
        <time>2017-06-27T10:31:29.896Z</time>
      </trkpt>
      <trkpt lat="41.95453" lon="9.2258">
        <ele>1665.03</ele>
        <time>2017-06-27T10:31:38.897Z</time>
      </trkpt>
      <trkpt lat="41.95455" lon="9.22581">
        <ele>1669.2</ele>
        <time>2017-06-27T10:31:48.897Z</time>
      </trkpt>
      <trkpt lat="41.95453" lon="9.22582">
        <ele>1670.32</ele>
        <time>2017-06-27T10:31:57.899Z</time>
      </trkpt>
      <trkpt lat="41.95447" lon="9.22578">
        <ele>1670.41</ele>
        <time>2017-06-27T10:32:07.897Z</time>
      </trkpt>
      <trkpt lat="41.95443" lon="9.22573">
        <ele>1670.33</ele>
        <time>2017-06-27T10:32:17.897Z</time>
      </trkpt>
      <trkpt lat="41.95436" lon="9.22568">
        <ele>1667.97</ele>
        <time>2017-06-27T10:32:27.899Z</time>
      </trkpt>
      <trkpt lat="41.95431" lon="9.22561">
        <ele>1665.6</ele>
        <time>2017-06-27T10:32:37.897Z</time>
      </trkpt>
      <trkpt lat="41.95433" lon="9.22559">
        <ele>1664.8</ele>
        <time>2017-06-27T10:32:47.897Z</time>
      </trkpt>
      <trkpt lat="41.95435" lon="9.22565">
        <ele>1671.02</ele>
        <time>2017-06-27T10:33:00.897Z</time>
      </trkpt>
      <trkpt lat="41.95437" lon="9.22562">
        <ele>1672.34</ele>
        <time>2017-06-27T10:33:09.899Z</time>
      </trkpt>
      <trkpt lat="41.95441" lon="9.22557">
        <ele>1673.02</ele>
        <time>2017-06-27T10:33:19.897Z</time>
      </trkpt>
      <trkpt lat="41.95437" lon="9.22554">
        <ele>1676.2</ele>
        <time>2017-06-27T10:33:29.897Z</time>
      </trkpt>
      <trkpt lat="41.95431" lon="9.22549">
        <ele>1684.2</ele>
        <time>2017-06-27T10:33:39.899Z</time>
      </trkpt>
      <trkpt lat="41.95428" lon="9.22549">
        <ele>1682.4</ele>
        <time>2017-06-27T10:33:49.897Z</time>
      </trkpt>
      <trkpt lat="41.9542" lon="9.22546">
        <ele>1683.24</ele>
        <time>2017-06-27T10:33:59.897Z</time>
      </trkpt>
      <trkpt lat="41.95418" lon="9.22543">
        <ele>1685.9</ele>
        <time>2017-06-27T10:34:09.899Z</time>
      </trkpt>
      <trkpt lat="41.95415" lon="9.22539">
        <ele>1686.4</ele>
        <time>2017-06-27T10:34:19.897Z</time>
      </trkpt>
      <trkpt lat="41.95409" lon="9.22535">
        <ele>1689.41</ele>
        <time>2017-06-27T10:34:29.896Z</time>
      </trkpt>
      <trkpt lat="41.95407" lon="9.22535">
        <ele>1690.3</ele>
        <time>2017-06-27T10:34:38.897Z</time>
      </trkpt>
      <trkpt lat="41.95404" lon="9.22532">
        <ele>1689.4</ele>
        <time>2017-06-27T10:34:48.897Z</time>
      </trkpt>
      <trkpt lat="41.95401" lon="9.22531">
        <ele>1688.2</ele>
        <time>2017-06-27T10:34:57.899Z</time>
      </trkpt>
      <trkpt lat="41.95395" lon="9.22526">
        <ele>1686.93</ele>
        <time>2017-06-27T10:35:07.897Z</time>
      </trkpt>
      <trkpt lat="41.95391" lon="9.22526">
        <ele>1685.31</ele>
        <time>2017-06-27T10:35:17.897Z</time>
      </trkpt>
      <trkpt lat="41.95385" lon="9.22525">
        <ele>1684.6</ele>
        <time>2017-06-27T10:35:27.898Z</time>
      </trkpt>
      <trkpt lat="41.95383" lon="9.22522">
        <ele>1684.31</ele>
        <time>2017-06-27T10:35:37.895Z</time>
      </trkpt>
      <trkpt lat="41.95378" lon="9.22524">
        <ele>1684.84</ele>
        <time>2017-06-27T10:35:46.897Z</time>
      </trkpt>
      <trkpt lat="41.9537" lon="9.22525">
        <ele>1689.42</ele>
        <time>2017-06-27T10:35:56.897Z</time>
      </trkpt>
      <trkpt lat="41.95368" lon="9.22524">
        <ele>1690.24</ele>
        <time>2017-06-27T10:36:06.896Z</time>
      </trkpt>
      <trkpt lat="41.95372" lon="9.22519">
        <ele>1690.76</ele>
        <time>2017-06-27T10:36:15.900Z</time>
      </trkpt>
      <trkpt lat="41.9538" lon="9.22518">
        <ele>1692.66</ele>
        <time>2017-06-27T10:36:25.896Z</time>
      </trkpt>
      <trkpt lat="41.95384" lon="9.22516">
        <ele>1694.17</ele>
        <time>2017-06-27T10:36:34.897Z</time>
      </trkpt>
      <trkpt lat="41.95385" lon="9.22511">
        <ele>1694.4</ele>
        <time>2017-06-27T10:36:44.896Z</time>
      </trkpt>
      <trkpt lat="41.95384" lon="9.22504">
        <ele>1694.78</ele>
        <time>2017-06-27T10:36:54.895Z</time>
      </trkpt>
      <trkpt lat="41.95385" lon="9.225">
        <ele>1694.95</ele>
        <time>2017-06-27T10:37:03.897Z</time>
      </trkpt>
      <trkpt lat="41.95377" lon="9.22497">
        <ele>1694.99</ele>
        <time>2017-06-27T10:37:13.897Z</time>
      </trkpt>
      <trkpt lat="41.95365" lon="9.22505">
        <ele>1704.74</ele>
        <time>2017-06-27T10:37:23.896Z</time>
      </trkpt>
      <trkpt lat="41.95363" lon="9.22503">
        <ele>1707.76</ele>
        <time>2017-06-27T10:37:33.897Z</time>
      </trkpt>
      <trkpt lat="41.9536" lon="9.22498">
        <ele>1705.82</ele>
        <time>2017-06-27T10:37:43.895Z</time>
      </trkpt>
      <trkpt lat="41.95357" lon="9.22495">
        <ele>1705.04</ele>
        <time>2017-06-27T10:37:52.896Z</time>
      </trkpt>
      <trkpt lat="41.95355" lon="9.22492">
        <ele>1705.1</ele>
        <time>2017-06-27T10:38:02.895Z</time>
      </trkpt>
      <trkpt lat="41.95353" lon="9.22488">
        <ele>1704.1</ele>
        <time>2017-06-27T10:38:12.920Z</time>
      </trkpt>
      <trkpt lat="41.95349" lon="9.22482">
        <ele>1704.16</ele>
        <time>2017-06-27T10:38:22.895Z</time>
      </trkpt>
      <trkpt lat="41.95352" lon="9.22481">
        <ele>1704.23</ele>
        <time>2017-06-27T10:38:32.894Z</time>
      </trkpt>
      <trkpt lat="41.95351" lon="9.2248">
        <ele>1705</ele>
        <time>2017-06-27T10:38:41.895Z</time>
      </trkpt>
      <trkpt lat="41.95339" lon="9.22471">
        <ele>1705.52</ele>
        <time>2017-06-27T10:38:51.897Z</time>
      </trkpt>
      <trkpt lat="41.95341" lon="9.22468">
        <ele>1706.55</ele>
        <time>2017-06-27T10:39:01.895Z</time>
      </trkpt>
      <trkpt lat="41.95341" lon="9.22467">
        <ele>1707.2</ele>
        <time>2017-06-27T10:39:11.895Z</time>
      </trkpt>
      <trkpt lat="41.95349" lon="9.22465">
        <ele>1709.72</ele>
        <time>2017-06-27T10:39:21.896Z</time>
      </trkpt>
      <trkpt lat="41.95352" lon="9.22464">
        <ele>1710.84</ele>
        <time>2017-06-27T10:39:31.895Z</time>
      </trkpt>
      <trkpt lat="41.95356" lon="9.22464">
        <ele>1711.42</ele>
        <time>2017-06-27T10:39:41.895Z</time>
      </trkpt>
      <trkpt lat="41.95355" lon="9.22465">
        <ele>1712.49</ele>
        <time>2017-06-27T10:39:51.896Z</time>
      </trkpt>
      <trkpt lat="41.95356" lon="9.22461">
        <ele>1712.58</ele>
        <time>2017-06-27T10:40:36.895Z</time>
      </trkpt>
      <trkpt lat="41.95357" lon="9.22461">
        <ele>1712.5</ele>
        <time>2017-06-27T10:40:45.896Z</time>
      </trkpt>
      <trkpt lat="41.95361" lon="9.2246">
        <ele>1712.5</ele>
        <time>2017-06-27T10:40:55.895Z</time>
      </trkpt>
      <trkpt lat="41.95356" lon="9.2245">
        <ele>1712.05</ele>
        <time>2017-06-27T10:43:49.895Z</time>
      </trkpt>
      <trkpt lat="41.95346" lon="9.22447">
        <ele>1711.9</ele>
        <time>2017-06-27T10:43:59.895Z</time>
      </trkpt>
      <trkpt lat="41.95339" lon="9.22442">
        <ele>1711.9</ele>
        <time>2017-06-27T10:44:09.896Z</time>
      </trkpt>
      <trkpt lat="41.95338" lon="9.22442">
        <ele>1711.9</ele>
        <time>2017-06-27T10:44:19.893Z</time>
      </trkpt>
      <trkpt lat="41.95346" lon="9.22438">
        <ele>1712.78</ele>
        <time>2017-06-27T10:44:28.894Z</time>
      </trkpt>
      <trkpt lat="41.95351" lon="9.22438">
        <ele>1713.29</ele>
        <time>2017-06-27T10:44:38.894Z</time>
      </trkpt>
      <trkpt lat="41.95358" lon="9.22439">
        <ele>1713.7</ele>
        <time>2017-06-27T10:44:47.895Z</time>
      </trkpt>
      <trkpt lat="41.95364" lon="9.22439">
        <ele>1714.37</ele>
        <time>2017-06-27T10:44:57.896Z</time>
      </trkpt>
      <trkpt lat="41.95361" lon="9.22437">
        <ele>1714.75</ele>
        <time>2017-06-27T10:45:13.895Z</time>
      </trkpt>
      <trkpt lat="41.95356" lon="9.2243">
        <ele>1714.9</ele>
        <time>2017-06-27T10:45:23.895Z</time>
      </trkpt>
      <trkpt lat="41.9535" lon="9.22425">
        <ele>1715.1</ele>
        <time>2017-06-27T10:45:33.896Z</time>
      </trkpt>
      <trkpt lat="41.95349" lon="9.22424">
        <ele>1715.2</ele>
        <time>2017-06-27T10:45:43.895Z</time>
      </trkpt>
      <trkpt lat="41.95339" lon="9.22419">
        <ele>1715.57</ele>
        <time>2017-06-27T10:45:53.894Z</time>
      </trkpt>
      <trkpt lat="41.95344" lon="9.22416">
        <ele>1715.96</ele>
        <time>2017-06-27T10:46:03.896Z</time>
      </trkpt>
      <trkpt lat="41.95349" lon="9.22415">
        <ele>1716.37</ele>
        <time>2017-06-27T10:46:13.894Z</time>
      </trkpt>
      <trkpt lat="41.95357" lon="9.22411">
        <ele>1716.77</ele>
        <time>2017-06-27T10:46:23.906Z</time>
      </trkpt>
      <trkpt lat="41.95366" lon="9.22413">
        <ele>1717.19</ele>
        <time>2017-06-27T10:46:33.896Z</time>
      </trkpt>
      <trkpt lat="41.95371" lon="9.22411">
        <ele>1717.89</ele>
        <time>2017-06-27T10:46:43.895Z</time>
      </trkpt>
      <trkpt lat="41.95362" lon="9.22407">
        <ele>1718.86</ele>
        <time>2017-06-27T10:46:53.895Z</time>
      </trkpt>
      <trkpt lat="41.95356" lon="9.22404">
        <ele>1719.57</ele>
        <time>2017-06-27T10:47:03.896Z</time>
      </trkpt>
      <trkpt lat="41.95353" lon="9.224">
        <ele>1720.17</ele>
        <time>2017-06-27T10:47:13.895Z</time>
      </trkpt>
      <trkpt lat="41.95353" lon="9.22398">
        <ele>1720.5</ele>
        <time>2017-06-27T10:47:23.895Z</time>
      </trkpt>
      <trkpt lat="41.95344" lon="9.22396">
        <ele>1721.49</ele>
        <time>2017-06-27T10:47:33.896Z</time>
      </trkpt>
      <trkpt lat="41.95339" lon="9.22394">
        <ele>1722.27</ele>
        <time>2017-06-27T10:47:43.894Z</time>
      </trkpt>
      <trkpt lat="41.95333" lon="9.2239">
        <ele>1722.97</ele>
        <time>2017-06-27T10:47:52.895Z</time>
      </trkpt>
      <trkpt lat="41.95322" lon="9.22388">
        <ele>1723.57</ele>
        <time>2017-06-27T10:48:01.912Z</time>
      </trkpt>
      <trkpt lat="41.95319" lon="9.22386">
        <ele>1724.27</ele>
        <time>2017-06-27T10:48:11.893Z</time>
      </trkpt>
      <trkpt lat="41.95324" lon="9.22384">
        <ele>1724.7</ele>
        <time>2017-06-27T10:48:20.895Z</time>
      </trkpt>
      <trkpt lat="41.95334" lon="9.22382">
        <ele>1725.17</ele>
        <time>2017-06-27T10:48:30.894Z</time>
      </trkpt>
      <trkpt lat="41.95341" lon="9.2238">
        <ele>1725.57</ele>
        <time>2017-06-27T10:48:39.897Z</time>
      </trkpt>
      <trkpt lat="41.95346" lon="9.22377">
        <ele>1725.99</ele>
        <time>2017-06-27T10:48:49.895Z</time>
      </trkpt>
      <trkpt lat="41.95347" lon="9.22375">
        <ele>1726.4</ele>
        <time>2017-06-27T10:48:59.895Z</time>
      </trkpt>
      <trkpt lat="41.95355" lon="9.22368">
        <ele>1727.27</ele>
        <time>2017-06-27T10:49:09.896Z</time>
      </trkpt>
      <trkpt lat="41.95363" lon="9.22369">
        <ele>1727.97</ele>
        <time>2017-06-27T10:49:19.895Z</time>
      </trkpt>
      <trkpt lat="41.95368" lon="9.2237">
        <ele>1728.87</ele>
        <time>2017-06-27T10:49:29.894Z</time>
      </trkpt>
      <trkpt lat="41.95373" lon="9.22368">
        <ele>1729.6</ele>
        <time>2017-06-27T10:49:52.895Z</time>
      </trkpt>
      <trkpt lat="41.95374" lon="9.22365">
        <ele>1730.07</ele>
        <time>2017-06-27T10:50:01.896Z</time>
      </trkpt>
      <trkpt lat="41.95363" lon="9.22363">
        <ele>1731.26</ele>
        <time>2017-06-27T10:50:11.895Z</time>
      </trkpt>
      <trkpt lat="41.95358" lon="9.22359">
        <ele>1732.59</ele>
        <time>2017-06-27T10:50:20.896Z</time>
      </trkpt>
      <trkpt lat="41.95356" lon="9.22357">
        <ele>1734.54</ele>
        <time>2017-06-27T10:50:30.896Z</time>
      </trkpt>
      <trkpt lat="41.9535" lon="9.22354">
        <ele>1736.24</ele>
        <time>2017-06-27T10:50:39.897Z</time>
      </trkpt>
      <trkpt lat="41.95343" lon="9.22354">
        <ele>1737.84</ele>
        <time>2017-06-27T10:50:49.895Z</time>
      </trkpt>
      <trkpt lat="41.95342" lon="9.22352">
        <ele>1739.1</ele>
        <time>2017-06-27T10:50:59.895Z</time>
      </trkpt>
      <trkpt lat="41.95346" lon="9.22346">
        <ele>1742.25</ele>
        <time>2017-06-27T10:51:10.894Z</time>
      </trkpt>
      <trkpt lat="41.95345" lon="9.22342">
        <ele>1744.49</ele>
        <time>2017-06-27T10:51:20.894Z</time>
      </trkpt>
      <trkpt lat="41.95349" lon="9.22333">
        <ele>1746.63</ele>
        <time>2017-06-27T10:51:30.894Z</time>
      </trkpt>
      <trkpt lat="41.9535" lon="9.22329">
        <ele>1747.67</ele>
        <time>2017-06-27T10:51:39.896Z</time>
      </trkpt>
      <trkpt lat="41.95352" lon="9.22323">
        <ele>1748.6</ele>
        <time>2017-06-27T10:51:49.894Z</time>
      </trkpt>
      <trkpt lat="41.95344" lon="9.22319">
        <ele>1749</ele>
        <time>2017-06-27T10:51:59.894Z</time>
      </trkpt>
      <trkpt lat="41.95323" lon="9.2233">
        <ele>1754.06</ele>
        <time>2017-06-27T10:52:09.896Z</time>
      </trkpt>
      <trkpt lat="41.95314" lon="9.22334">
        <ele>1759.4</ele>
        <time>2017-06-27T10:52:19.894Z</time>
      </trkpt>
      <trkpt lat="41.9531" lon="9.22332">
        <ele>1761.77</ele>
        <time>2017-06-27T10:52:29.894Z</time>
      </trkpt>
      <trkpt lat="41.95307" lon="9.22331">
        <ele>1765.2</ele>
        <time>2017-06-27T10:52:39.896Z</time>
      </trkpt>
      <trkpt lat="41.95304" lon="9.22331">
        <ele>1767.93</ele>
        <time>2017-06-27T10:52:49.894Z</time>
      </trkpt>
      <trkpt lat="41.95299" lon="9.2233">
        <ele>1769.56</ele>
        <time>2017-06-27T10:52:59.894Z</time>
      </trkpt>
      <trkpt lat="41.95289" lon="9.22329">
        <ele>1770.73</ele>
        <time>2017-06-27T10:53:09.896Z</time>
      </trkpt>
      <trkpt lat="41.95287" lon="9.22328">
        <ele>1773.07</ele>
        <time>2017-06-27T10:53:19.894Z</time>
      </trkpt>
      <trkpt lat="41.95285" lon="9.22324">
        <ele>1774.77</ele>
        <time>2017-06-27T10:53:29.894Z</time>
      </trkpt>
      <trkpt lat="41.95283" lon="9.22325">
        <ele>1776.57</ele>
        <time>2017-06-27T10:53:39.896Z</time>
      </trkpt>
      <trkpt lat="41.95284" lon="9.22326">
        <ele>1778.4</ele>
        <time>2017-06-27T10:53:49.894Z</time>
      </trkpt>
      <trkpt lat="41.95274" lon="9.22325">
        <ele>1780.5</ele>
        <time>2017-06-27T10:54:04.894Z</time>
      </trkpt>
      <trkpt lat="41.95273" lon="9.22325">
        <ele>1782.3</ele>
        <time>2017-06-27T10:54:14.894Z</time>
      </trkpt>
      <trkpt lat="41.95265" lon="9.22322">
        <ele>1783.97</ele>
        <time>2017-06-27T10:54:24.894Z</time>
      </trkpt>
      <trkpt lat="41.95263" lon="9.22321">
        <ele>1786.42</ele>
        <time>2017-06-27T10:54:33.896Z</time>
      </trkpt>
      <trkpt lat="41.95258" lon="9.22323">
        <ele>1788.51</ele>
        <time>2017-06-27T10:54:43.894Z</time>
      </trkpt>
      <trkpt lat="41.95256" lon="9.22322">
        <ele>1789.6</ele>
        <time>2017-06-27T10:54:53.894Z</time>
      </trkpt>
      <trkpt lat="41.95259" lon="9.22323">
        <ele>1792.11</ele>
        <time>2017-06-27T10:55:03.895Z</time>
      </trkpt>
      <trkpt lat="41.95261" lon="9.22318">
        <ele>1793.86</ele>
        <time>2017-06-27T10:55:13.894Z</time>
      </trkpt>
      <trkpt lat="41.95264" lon="9.22318">
        <ele>1795.49</ele>
        <time>2017-06-27T10:55:23.894Z</time>
      </trkpt>
      <trkpt lat="41.95258" lon="9.22317">
        <ele>1796.55</ele>
        <time>2017-06-27T10:55:35.894Z</time>
      </trkpt>
      <trkpt lat="41.95249" lon="9.22318">
        <ele>1798.5</ele>
        <time>2017-06-27T10:55:55.895Z</time>
      </trkpt>
      <trkpt lat="41.95249" lon="9.22316">
        <ele>1799.74</ele>
        <time>2017-06-27T10:56:05.894Z</time>
      </trkpt>
      <trkpt lat="41.95253" lon="9.22312">
        <ele>1800.44</ele>
        <time>2017-06-27T10:56:14.895Z</time>
      </trkpt>
      <trkpt lat="41.95254" lon="9.2231">
        <ele>1801.1</ele>
        <time>2017-06-27T10:56:23.988Z</time>
      </trkpt>
      <trkpt lat="41.95264" lon="9.22309">
        <ele>1803.31</ele>
        <time>2017-06-27T10:56:33.897Z</time>
      </trkpt>
      <trkpt lat="41.95265" lon="9.22303">
        <ele>1804.94</ele>
        <time>2017-06-27T10:56:43.895Z</time>
      </trkpt>
      <trkpt lat="41.95262" lon="9.22301">
        <ele>1806.06</ele>
        <time>2017-06-27T10:56:52.897Z</time>
      </trkpt>
      <trkpt lat="41.95262" lon="9.22304">
        <ele>1807.8</ele>
        <time>2017-06-27T10:57:02.895Z</time>
      </trkpt>
      <trkpt lat="41.95263" lon="9.22305">
        <ele>1808.02</ele>
        <time>2017-06-27T10:57:13.895Z</time>
      </trkpt>
      <trkpt lat="41.95261" lon="9.22312">
        <ele>1808.69</ele>
        <time>2017-06-27T10:57:23.895Z</time>
      </trkpt>
      <trkpt lat="41.95259" lon="9.22312">
        <ele>1809.1</ele>
        <time>2017-06-27T10:57:33.897Z</time>
      </trkpt>
      <trkpt lat="41.9525" lon="9.22306">
        <ele>1810.27</ele>
        <time>2017-06-27T10:57:43.895Z</time>
      </trkpt>
      <trkpt lat="41.95245" lon="9.22301">
        <ele>1811.27</ele>
        <time>2017-06-27T10:57:53.895Z</time>
      </trkpt>
      <trkpt lat="41.9524" lon="9.22303">
        <ele>1812.46</ele>
        <time>2017-06-27T10:58:03.897Z</time>
      </trkpt>
      <trkpt lat="41.95237" lon="9.22297">
        <ele>1813.69</ele>
        <time>2017-06-27T10:58:13.895Z</time>
      </trkpt>
      <trkpt lat="41.95232" lon="9.22292">
        <ele>1815.17</ele>
        <time>2017-06-27T10:58:23.895Z</time>
      </trkpt>
      <trkpt lat="41.95229" lon="9.22286">
        <ele>1816.54</ele>
        <time>2017-06-27T10:58:32.896Z</time>
      </trkpt>
      <trkpt lat="41.95225" lon="9.2228">
        <ele>1817.74</ele>
        <time>2017-06-27T10:58:42.895Z</time>
      </trkpt>
      <trkpt lat="41.95217" lon="9.22276">
        <ele>1819.43</ele>
        <time>2017-06-27T10:58:51.897Z</time>
      </trkpt>
      <trkpt lat="41.9521" lon="9.22267">
        <ele>1821.56</ele>
        <time>2017-06-27T10:59:01.895Z</time>
      </trkpt>
      <trkpt lat="41.95207" lon="9.22261">
        <ele>1823.43</ele>
        <time>2017-06-27T10:59:11.895Z</time>
      </trkpt>
      <trkpt lat="41.95204" lon="9.22258">
        <ele>1825.53</ele>
        <time>2017-06-27T10:59:21.897Z</time>
      </trkpt>
      <trkpt lat="41.95199" lon="9.2226">
        <ele>1826.65</ele>
        <time>2017-06-27T10:59:31.895Z</time>
      </trkpt>
      <trkpt lat="41.95201" lon="9.22265">
        <ele>1828.92</ele>
        <time>2017-06-27T10:59:41.895Z</time>
      </trkpt>
      <trkpt lat="41.95201" lon="9.2227">
        <ele>1830.64</ele>
        <time>2017-06-27T10:59:51.897Z</time>
      </trkpt>
      <trkpt lat="41.952" lon="9.22275">
        <ele>1831.47</ele>
        <time>2017-06-27T11:00:06.895Z</time>
      </trkpt>
      <trkpt lat="41.95202" lon="9.22279">
        <ele>1831.9</ele>
        <time>2017-06-27T11:00:15.897Z</time>
      </trkpt>
      <trkpt lat="41.95206" lon="9.22285">
        <ele>1832.39</ele>
        <time>2017-06-27T11:00:25.895Z</time>
      </trkpt>
      <trkpt lat="41.95208" lon="9.22292">
        <ele>1833.09</ele>
        <time>2017-06-27T11:00:35.895Z</time>
      </trkpt>
      <trkpt lat="41.95207" lon="9.22297">
        <ele>1833.6</ele>
        <time>2017-06-27T11:00:45.897Z</time>
      </trkpt>
      <trkpt lat="41.95204" lon="9.22302">
        <ele>1834.6</ele>
        <time>2017-06-27T11:00:55.895Z</time>
      </trkpt>
      <trkpt lat="41.95199" lon="9.22303">
        <ele>1836.25</ele>
        <time>2017-06-27T11:01:22.895Z</time>
      </trkpt>
      <trkpt lat="41.95198" lon="9.22301">
        <ele>1837.5</ele>
        <time>2017-06-27T11:01:32.895Z</time>
      </trkpt>
      <trkpt lat="41.95192" lon="9.22306">
        <ele>1840.05</ele>
        <time>2017-06-27T11:01:56.895Z</time>
      </trkpt>
      <trkpt lat="41.9519" lon="9.22302">
        <ele>1842.56</ele>
        <time>2017-06-27T11:02:06.893Z</time>
      </trkpt>
      <trkpt lat="41.95185" lon="9.22296">
        <ele>1844.03</ele>
        <time>2017-06-27T11:02:15.897Z</time>
      </trkpt>
      <trkpt lat="41.95181" lon="9.2229">
        <ele>1845.65</ele>
        <time>2017-06-27T11:02:25.895Z</time>
      </trkpt>
      <trkpt lat="41.95181" lon="9.22284">
        <ele>1847.52</ele>
        <time>2017-06-27T11:02:35.895Z</time>
      </trkpt>
      <trkpt lat="41.95178" lon="9.2228">
        <ele>1849.44</ele>
        <time>2017-06-27T11:02:45.897Z</time>
      </trkpt>
      <trkpt lat="41.95174" lon="9.22278">
        <ele>1851.07</ele>
        <time>2017-06-27T11:02:55.895Z</time>
      </trkpt>
      <trkpt lat="41.95174" lon="9.2228">
        <ele>1853.43</ele>
        <time>2017-06-27T11:03:05.895Z</time>
      </trkpt>
      <trkpt lat="41.9517" lon="9.22287">
        <ele>1855.31</ele>
        <time>2017-06-27T11:03:15.897Z</time>
      </trkpt>
      <trkpt lat="41.95169" lon="9.22293">
        <ele>1857.63</ele>
        <time>2017-06-27T11:03:25.895Z</time>
      </trkpt>
      <trkpt lat="41.95168" lon="9.22301">
        <ele>1860.03</ele>
        <time>2017-06-27T11:03:35.895Z</time>
      </trkpt>
      <trkpt lat="41.95164" lon="9.22302">
        <ele>1862.41</ele>
        <time>2017-06-27T11:03:45.897Z</time>
      </trkpt>
      <trkpt lat="41.95161" lon="9.22299">
        <ele>1864.88</ele>
        <time>2017-06-27T11:03:55.895Z</time>
      </trkpt>
      <trkpt lat="41.95163" lon="9.22296">
        <ele>1866.3</ele>
        <time>2017-06-27T11:04:05.895Z</time>
      </trkpt>
      <trkpt lat="41.95163" lon="9.22299">
        <ele>1869.08</ele>
        <time>2017-06-27T11:04:18.895Z</time>
      </trkpt>
      <trkpt lat="41.95159" lon="9.22305">
        <ele>1871.16</ele>
        <time>2017-06-27T11:04:27.898Z</time>
      </trkpt>
      <trkpt lat="41.95158" lon="9.22311">
        <ele>1872.85</ele>
        <time>2017-06-27T11:04:37.894Z</time>
      </trkpt>
      <trkpt lat="41.95154" lon="9.22313">
        <ele>1873.92</ele>
        <time>2017-06-27T11:04:47.894Z</time>
      </trkpt>
      <trkpt lat="41.95154" lon="9.22317">
        <ele>1875.15</ele>
        <time>2017-06-27T11:04:58.894Z</time>
      </trkpt>
      <trkpt lat="41.9515" lon="9.22316">
        <ele>1876.85</ele>
        <time>2017-06-27T11:05:08.894Z</time>
      </trkpt>
      <trkpt lat="41.95147" lon="9.22313">
        <ele>1878.08</ele>
        <time>2017-06-27T11:05:18.894Z</time>
      </trkpt>
      <trkpt lat="41.9514" lon="9.22309">
        <ele>1879.15</ele>
        <time>2017-06-27T11:05:31.894Z</time>
      </trkpt>
      <trkpt lat="41.95137" lon="9.22305">
        <ele>1880.64</ele>
        <time>2017-06-27T11:05:41.894Z</time>
      </trkpt>
      <trkpt lat="41.95136" lon="9.22301">
        <ele>1881.92</ele>
        <time>2017-06-27T11:05:51.896Z</time>
      </trkpt>
      <trkpt lat="41.95131" lon="9.22298">
        <ele>1883.07</ele>
        <time>2017-06-27T11:06:01.895Z</time>
      </trkpt>
      <trkpt lat="41.95129" lon="9.22295">
        <ele>1883.8</ele>
        <time>2017-06-27T11:06:11.894Z</time>
      </trkpt>
      <trkpt lat="41.95122" lon="9.2229">
        <ele>1884.92</ele>
        <time>2017-06-27T11:06:21.896Z</time>
      </trkpt>
      <trkpt lat="41.95117" lon="9.22283">
        <ele>1886.54</ele>
        <time>2017-06-27T11:06:31.894Z</time>
      </trkpt>
      <trkpt lat="41.95118" lon="9.22276">
        <ele>1887.96</ele>
        <time>2017-06-27T11:06:41.894Z</time>
      </trkpt>
      <trkpt lat="41.95114" lon="9.22269">
        <ele>1889.37</ele>
        <time>2017-06-27T11:06:51.896Z</time>
      </trkpt>
      <trkpt lat="41.95111" lon="9.22262">
        <ele>1890.54</ele>
        <time>2017-06-27T11:07:01.894Z</time>
      </trkpt>
      <trkpt lat="41.9511" lon="9.22261">
        <ele>1891.2</ele>
        <time>2017-06-27T11:07:11.894Z</time>
      </trkpt>
      <trkpt lat="41.95106" lon="9.22262">
        <ele>1893.52</ele>
        <time>2017-06-27T11:07:21.896Z</time>
      </trkpt>
      <trkpt lat="41.95103" lon="9.22263">
        <ele>1895.3</ele>
        <time>2017-06-27T11:07:32.894Z</time>
      </trkpt>
      <trkpt lat="41.95099" lon="9.22263">
        <ele>1896.55</ele>
        <time>2017-06-27T11:07:51.896Z</time>
      </trkpt>
      <trkpt lat="41.95098" lon="9.22262">
        <ele>1897</ele>
        <time>2017-06-27T11:08:01.894Z</time>
      </trkpt>
      <trkpt lat="41.95091" lon="9.22265">
        <ele>1910.95</ele>
        <time>2017-06-27T11:11:34.894Z</time>
      </trkpt>
      <trkpt lat="41.95091" lon="9.22263">
        <ele>1917.8</ele>
        <time>2017-06-27T11:11:44.894Z</time>
      </trkpt>
      <trkpt lat="41.95088" lon="9.22264">
        <ele>1916.82</ele>
        <time>2017-06-27T11:12:08.894Z</time>
      </trkpt>
      <trkpt lat="41.95081" lon="9.22265">
        <ele>1918.07</ele>
        <time>2017-06-27T11:12:18.894Z</time>
      </trkpt>
      <trkpt lat="41.95075" lon="9.22265">
        <ele>1920.9</ele>
        <time>2017-06-27T11:12:27.896Z</time>
      </trkpt>
      <trkpt lat="41.95068" lon="9.22264">
        <ele>1919.17</ele>
        <time>2017-06-27T11:12:37.894Z</time>
      </trkpt>
      <trkpt lat="41.95063" lon="9.22259">
        <ele>1918.01</ele>
        <time>2017-06-27T11:12:47.894Z</time>
      </trkpt>
      <trkpt lat="41.95058" lon="9.22253">
        <ele>1918.85</ele>
        <time>2017-06-27T11:12:57.896Z</time>
      </trkpt>
      <trkpt lat="41.9505" lon="9.2225">
        <ele>1922.91</ele>
        <time>2017-06-27T11:13:07.894Z</time>
      </trkpt>
      <trkpt lat="41.95042" lon="9.22248">
        <ele>1924.91</ele>
        <time>2017-06-27T11:13:17.894Z</time>
      </trkpt>
      <trkpt lat="41.95036" lon="9.22248">
        <ele>1927.04</ele>
        <time>2017-06-27T11:13:26.895Z</time>
      </trkpt>
      <trkpt lat="41.95029" lon="9.22248">
        <ele>1930.1</ele>
        <time>2017-06-27T11:13:36.895Z</time>
      </trkpt>
      <trkpt lat="41.95025" lon="9.22243">
        <ele>1930.47</ele>
        <time>2017-06-27T11:13:45.896Z</time>
      </trkpt>
      <trkpt lat="41.95018" lon="9.22239">
        <ele>1931.32</ele>
        <time>2017-06-27T11:13:55.895Z</time>
      </trkpt>
      <trkpt lat="41.95012" lon="9.22237">
        <ele>1932.09</ele>
        <time>2017-06-27T11:14:05.894Z</time>
      </trkpt>
      <trkpt lat="41.95002" lon="9.22237">
        <ele>1934.28</ele>
        <time>2017-06-27T11:14:15.896Z</time>
      </trkpt>
      <trkpt lat="41.94993" lon="9.22239">
        <ele>1937.11</ele>
        <time>2017-06-27T11:14:25.894Z</time>
      </trkpt>
      <trkpt lat="41.94985" lon="9.22241">
        <ele>1938.66</ele>
        <time>2017-06-27T11:14:35.894Z</time>
      </trkpt>
      <trkpt lat="41.94976" lon="9.2224">
        <ele>1940.04</ele>
        <time>2017-06-27T11:14:45.896Z</time>
      </trkpt>
      <trkpt lat="41.94968" lon="9.22238">
        <ele>1939.62</ele>
        <time>2017-06-27T11:14:55.894Z</time>
      </trkpt>
      <trkpt lat="41.9496" lon="9.22237">
        <ele>1937.7</ele>
        <time>2017-06-27T11:15:04.921Z</time>
      </trkpt>
      <trkpt lat="41.9495" lon="9.22235">
        <ele>1938.72</ele>
        <time>2017-06-27T11:15:14.894Z</time>
      </trkpt>
      <trkpt lat="41.94941" lon="9.22233">
        <ele>1938</ele>
        <time>2017-06-27T11:15:24.894Z</time>
      </trkpt>
      <trkpt lat="41.94932" lon="9.2223">
        <ele>1938.51</ele>
        <time>2017-06-27T11:15:33.896Z</time>
      </trkpt>
      <trkpt lat="41.94925" lon="9.22229">
        <ele>1939.33</ele>
        <time>2017-06-27T11:15:43.894Z</time>
      </trkpt>
      <trkpt lat="41.94918" lon="9.22227">
        <ele>1939.22</ele>
        <time>2017-06-27T11:15:53.894Z</time>
      </trkpt>
      <trkpt lat="41.94912" lon="9.22226">
        <ele>1940.19</ele>
        <time>2017-06-27T11:16:03.896Z</time>
      </trkpt>
      <trkpt lat="41.94905" lon="9.22225">
        <ele>1940.33</ele>
        <time>2017-06-27T11:16:13.895Z</time>
      </trkpt>
      <trkpt lat="41.949" lon="9.22226">
        <ele>1940.51</ele>
        <time>2017-06-27T11:16:23.894Z</time>
      </trkpt>
      <trkpt lat="41.9489" lon="9.22227">
        <ele>1940.48</ele>
        <time>2017-06-27T11:16:33.896Z</time>
      </trkpt>
      <trkpt lat="41.94885" lon="9.22229">
        <ele>1939.84</ele>
        <time>2017-06-27T11:16:43.894Z</time>
      </trkpt>
      <trkpt lat="41.94875" lon="9.2223">
        <ele>1939.24</ele>
        <time>2017-06-27T11:16:53.894Z</time>
      </trkpt>
      <trkpt lat="41.94868" lon="9.22228">
        <ele>1938.53</ele>
        <time>2017-06-27T11:17:03.897Z</time>
      </trkpt>
      <trkpt lat="41.9486" lon="9.22229">
        <ele>1938.49</ele>
        <time>2017-06-27T11:17:13.892Z</time>
      </trkpt>
      <trkpt lat="41.94854" lon="9.22231">
        <ele>1937.04</ele>
        <time>2017-06-27T11:17:22.894Z</time>
      </trkpt>
      <trkpt lat="41.94846" lon="9.22234">
        <ele>1932.57</ele>
        <time>2017-06-27T11:17:31.895Z</time>
      </trkpt>
      <trkpt lat="41.94837" lon="9.22232">
        <ele>1929.91</ele>
        <time>2017-06-27T11:17:41.895Z</time>
      </trkpt>
      <trkpt lat="41.9483" lon="9.22228">
        <ele>1924.07</ele>
        <time>2017-06-27T11:17:51.897Z</time>
      </trkpt>
      <trkpt lat="41.94826" lon="9.2222">
        <ele>1919.89</ele>
        <time>2017-06-27T11:18:01.895Z</time>
      </trkpt>
      <trkpt lat="41.94819" lon="9.22211">
        <ele>1916.95</ele>
        <time>2017-06-27T11:18:11.894Z</time>
      </trkpt>
      <trkpt lat="41.94812" lon="9.22203">
        <ele>1915.05</ele>
        <time>2017-06-27T11:18:21.896Z</time>
      </trkpt>
      <trkpt lat="41.94807" lon="9.22197">
        <ele>1913.8</ele>
        <time>2017-06-27T11:18:31.894Z</time>
      </trkpt>
      <trkpt lat="41.94801" lon="9.22191">
        <ele>1913.59</ele>
        <time>2017-06-27T11:18:40.915Z</time>
      </trkpt>
      <trkpt lat="41.94795" lon="9.22189">
        <ele>1915.12</ele>
        <time>2017-06-27T11:18:50.894Z</time>
      </trkpt>
      <trkpt lat="41.94794" lon="9.22179">
        <ele>1918.47</ele>
        <time>2017-06-27T11:19:00.894Z</time>
      </trkpt>
      <trkpt lat="41.94791" lon="9.22174">
        <ele>1919.5</ele>
        <time>2017-06-27T11:19:09.896Z</time>
      </trkpt>
      <trkpt lat="41.94788" lon="9.2217">
        <ele>1919.6</ele>
        <time>2017-06-27T11:19:19.894Z</time>
      </trkpt>
      <trkpt lat="41.94781" lon="9.22172">
        <ele>1922.46</ele>
        <time>2017-06-27T11:19:29.894Z</time>
      </trkpt>
      <trkpt lat="41.94777" lon="9.22171">
        <ele>1923.72</ele>
        <time>2017-06-27T11:19:38.916Z</time>
      </trkpt>
      <trkpt lat="41.94773" lon="9.2217">
        <ele>1925.65</ele>
        <time>2017-06-27T11:19:48.894Z</time>
      </trkpt>
      <trkpt lat="41.94769" lon="9.22165">
        <ele>1926.49</ele>
        <time>2017-06-27T11:19:57.915Z</time>
      </trkpt>
      <trkpt lat="41.94765" lon="9.22161">
        <ele>1926.93</ele>
        <time>2017-06-27T11:20:07.895Z</time>
      </trkpt>
      <trkpt lat="41.9476" lon="9.22153">
        <ele>1928.31</ele>
        <time>2017-06-27T11:20:17.894Z</time>
      </trkpt>
      <trkpt lat="41.94754" lon="9.2215">
        <ele>1928.19</ele>
        <time>2017-06-27T11:20:27.896Z</time>
      </trkpt>
      <trkpt lat="41.94751" lon="9.22152">
        <ele>1928.69</ele>
        <time>2017-06-27T11:20:37.892Z</time>
      </trkpt>
      <trkpt lat="41.94745" lon="9.22151">
        <ele>1930.18</ele>
        <time>2017-06-27T11:20:46.894Z</time>
      </trkpt>
      <trkpt lat="41.94739" lon="9.22145">
        <ele>1931.32</ele>
        <time>2017-06-27T11:20:56.893Z</time>
      </trkpt>
      <trkpt lat="41.94734" lon="9.22145">
        <ele>1932.43</ele>
        <time>2017-06-27T11:21:06.893Z</time>
      </trkpt>
      <trkpt lat="41.94726" lon="9.22144">
        <ele>1934.04</ele>
        <time>2017-06-27T11:21:15.895Z</time>
      </trkpt>
      <trkpt lat="41.94719" lon="9.22141">
        <ele>1934.88</ele>
        <time>2017-06-27T11:21:24.945Z</time>
      </trkpt>
      <trkpt lat="41.94712" lon="9.22133">
        <ele>1933.83</ele>
        <time>2017-06-27T11:21:34.893Z</time>
      </trkpt>
      <trkpt lat="41.94705" lon="9.22132">
        <ele>1935.28</ele>
        <time>2017-06-27T11:21:44.893Z</time>
      </trkpt>
      <trkpt lat="41.94696" lon="9.22126">
        <ele>1936.37</ele>
        <time>2017-06-27T11:21:54.893Z</time>
      </trkpt>
      <trkpt lat="41.94691" lon="9.22117">
        <ele>1936.63</ele>
        <time>2017-06-27T11:22:03.895Z</time>
      </trkpt>
      <trkpt lat="41.94685" lon="9.2211">
        <ele>1936.23</ele>
        <time>2017-06-27T11:22:13.896Z</time>
      </trkpt>
      <trkpt lat="41.94678" lon="9.22103">
        <ele>1936.41</ele>
        <time>2017-06-27T11:22:23.893Z</time>
      </trkpt>
      <trkpt lat="41.94673" lon="9.2209">
        <ele>1935.41</ele>
        <time>2017-06-27T11:22:33.895Z</time>
      </trkpt>
      <trkpt lat="41.94667" lon="9.22077">
        <ele>1935.22</ele>
        <time>2017-06-27T11:22:43.893Z</time>
      </trkpt>
      <trkpt lat="41.94663" lon="9.22068">
        <ele>1934.79</ele>
        <time>2017-06-27T11:22:53.893Z</time>
      </trkpt>
      <trkpt lat="41.94656" lon="9.22063">
        <ele>1933.72</ele>
        <time>2017-06-27T11:23:03.895Z</time>
      </trkpt>
      <trkpt lat="41.94651" lon="9.22058">
        <ele>1932.32</ele>
        <time>2017-06-27T11:23:13.893Z</time>
      </trkpt>
      <trkpt lat="41.94647" lon="9.22052">
        <ele>1933.48</ele>
        <time>2017-06-27T11:23:23.893Z</time>
      </trkpt>
      <trkpt lat="41.94645" lon="9.22041">
        <ele>1934.81</ele>
        <time>2017-06-27T11:23:33.895Z</time>
      </trkpt>
      <trkpt lat="41.94641" lon="9.22035">
        <ele>1936.65</ele>
        <time>2017-06-27T11:23:43.915Z</time>
      </trkpt>
      <trkpt lat="41.94636" lon="9.22032">
        <ele>1937.84</ele>
        <time>2017-06-27T11:23:53.894Z</time>
      </trkpt>
      <trkpt lat="41.9463" lon="9.22027">
        <ele>1939.23</ele>
        <time>2017-06-27T11:24:03.895Z</time>
      </trkpt>
      <trkpt lat="41.94622" lon="9.22024">
        <ele>1940.33</ele>
        <time>2017-06-27T11:24:13.894Z</time>
      </trkpt>
      <trkpt lat="41.94616" lon="9.22018">
        <ele>1942.68</ele>
        <time>2017-06-27T11:24:23.893Z</time>
      </trkpt>
      <trkpt lat="41.9461" lon="9.22013">
        <ele>1945.47</ele>
        <time>2017-06-27T11:24:33.895Z</time>
      </trkpt>
      <trkpt lat="41.94603" lon="9.22008">
        <ele>1947.22</ele>
        <time>2017-06-27T11:24:43.893Z</time>
      </trkpt>
      <trkpt lat="41.94597" lon="9.22005">
        <ele>1947.3</ele>
        <time>2017-06-27T11:24:53.893Z</time>
      </trkpt>
      <trkpt lat="41.94591" lon="9.22007">
        <ele>1947.99</ele>
        <time>2017-06-27T11:25:02.894Z</time>
      </trkpt>
      <trkpt lat="41.94584" lon="9.2201">
        <ele>1949.46</ele>
        <time>2017-06-27T11:25:12.893Z</time>
      </trkpt>
      <trkpt lat="41.94581" lon="9.22015">
        <ele>1949.47</ele>
        <time>2017-06-27T11:25:21.895Z</time>
      </trkpt>
      <trkpt lat="41.94577" lon="9.22016">
        <ele>1951.77</ele>
        <time>2017-06-27T11:25:31.893Z</time>
      </trkpt>
      <trkpt lat="41.94572" lon="9.22012">
        <ele>1953.51</ele>
        <time>2017-06-27T11:25:41.893Z</time>
      </trkpt>
      <trkpt lat="41.94566" lon="9.22013">
        <ele>1956.71</ele>
        <time>2017-06-27T11:25:51.895Z</time>
      </trkpt>
      <trkpt lat="41.9456" lon="9.22011">
        <ele>1958.78</ele>
        <time>2017-06-27T11:26:01.894Z</time>
      </trkpt>
      <trkpt lat="41.94554" lon="9.22007">
        <ele>1959.55</ele>
        <time>2017-06-27T11:26:11.893Z</time>
      </trkpt>
      <trkpt lat="41.94549" lon="9.21999">
        <ele>1957.3</ele>
        <time>2017-06-27T11:26:21.895Z</time>
      </trkpt>
      <trkpt lat="41.94543" lon="9.21991">
        <ele>1954.65</ele>
        <time>2017-06-27T11:26:31.894Z</time>
      </trkpt>
      <trkpt lat="41.94536" lon="9.21988">
        <ele>1952.75</ele>
        <time>2017-06-27T11:26:41.893Z</time>
      </trkpt>
      <trkpt lat="41.9453" lon="9.21986">
        <ele>1956.54</ele>
        <time>2017-06-27T11:26:51.896Z</time>
      </trkpt>
      <trkpt lat="41.94527" lon="9.21982">
        <ele>1958.34</ele>
        <time>2017-06-27T11:27:01.894Z</time>
      </trkpt>
      <trkpt lat="41.94524" lon="9.2198">
        <ele>1958.52</ele>
        <time>2017-06-27T11:27:11.893Z</time>
      </trkpt>
      <trkpt lat="41.94523" lon="9.21978">
        <ele>1958.62</ele>
        <time>2017-06-27T11:27:21.895Z</time>
      </trkpt>
      <trkpt lat="41.94521" lon="9.2197">
        <ele>1954.54</ele>
        <time>2017-06-27T11:27:31.893Z</time>
      </trkpt>
      <trkpt lat="41.94519" lon="9.21963">
        <ele>1954.67</ele>
        <time>2017-06-27T11:27:41.893Z</time>
      </trkpt>
      <trkpt lat="41.94515" lon="9.21956">
        <ele>1955.95</ele>
        <time>2017-06-27T11:27:51.895Z</time>
      </trkpt>
      <trkpt lat="41.94512" lon="9.21956">
        <ele>1958.88</ele>
        <time>2017-06-27T11:28:01.893Z</time>
      </trkpt>
      <trkpt lat="41.94507" lon="9.21953">
        <ele>1961.22</ele>
        <time>2017-06-27T11:28:12.893Z</time>
      </trkpt>
      <trkpt lat="41.94508" lon="9.21945">
        <ele>1961.68</ele>
        <time>2017-06-27T11:28:21.895Z</time>
      </trkpt>
      <trkpt lat="41.94507" lon="9.21944">
        <ele>1960.55</ele>
        <time>2017-06-27T11:28:38.893Z</time>
      </trkpt>
      <trkpt lat="41.94506" lon="9.21943">
        <ele>1959.7</ele>
        <time>2017-06-27T11:28:56.893Z</time>
      </trkpt>
      <trkpt lat="41.94506" lon="9.21941">
        <ele>1957.08</ele>
        <time>2017-06-27T11:29:17.893Z</time>
      </trkpt>
      <trkpt lat="41.9451" lon="9.2194">
        <ele>1954.82</ele>
        <time>2017-06-27T11:31:53.893Z</time>
      </trkpt>
      <trkpt lat="41.94508" lon="9.21942">
        <ele>1957.9</ele>
        <time>2017-06-27T11:32:19.893Z</time>
      </trkpt>
      <trkpt lat="41.94507" lon="9.21943">
        <ele>1960.4</ele>
        <time>2017-06-27T11:32:29.893Z</time>
      </trkpt>
      <trkpt lat="41.94503" lon="9.21949">
        <ele>1965.42</ele>
        <time>2017-06-27T11:33:46.893Z</time>
      </trkpt>
      <trkpt lat="41.94507" lon="9.21942">
        <ele>1962.88</ele>
        <time>2017-06-27T11:38:20.892Z</time>
      </trkpt>
      <trkpt lat="41.94505" lon="9.21944">
        <ele>1962.9</ele>
        <time>2017-06-27T11:38:30.892Z</time>
      </trkpt>
      <trkpt lat="41.94507" lon="9.21949">
        <ele>1962.75</ele>
        <time>2017-06-27T11:40:59.892Z</time>
      </trkpt>
      <trkpt lat="41.94504" lon="9.21944">
        <ele>1959.92</ele>
        <time>2017-06-27T11:45:12.892Z</time>
      </trkpt>
      <trkpt lat="41.94506" lon="9.21943">
        <ele>1958.22</ele>
        <time>2017-06-27T11:45:24.892Z</time>
      </trkpt>
      <trkpt lat="41.94506" lon="9.21945">
        <ele>1959.95</ele>
        <time>2017-06-27T11:45:54.892Z</time>
      </trkpt>
      <trkpt lat="41.94505" lon="9.21949">
        <ele>1962.9</ele>
        <time>2017-06-27T11:46:41.888Z</time>
      </trkpt>
      <trkpt lat="41.94505" lon="9.21945">
        <ele>1960.2</ele>
        <time>2017-06-27T11:46:50.913Z</time>
      </trkpt>
      <trkpt lat="41.94507" lon="9.21943">
        <ele>1959.12</ele>
        <time>2017-06-27T11:47:00.642Z</time>
      </trkpt>
      <trkpt lat="41.94508" lon="9.21942">
        <ele>1955.37</ele>
        <time>2017-06-27T11:47:09.922Z</time>
      </trkpt>
      <trkpt lat="41.94506" lon="9.21947">
        <ele>1964.09</ele>
        <time>2017-06-27T11:47:19.892Z</time>
      </trkpt>
      <trkpt lat="41.94506" lon="9.21946">
        <ele>1962.4</ele>
        <time>2017-06-27T11:47:29.892Z</time>
      </trkpt>
      <trkpt lat="41.94505" lon="9.21945">
        <ele>1963.82</ele>
        <time>2017-06-27T11:47:42.890Z</time>
      </trkpt>
      <trkpt lat="41.94505" lon="9.21947">
        <ele>1963.57</ele>
        <time>2017-06-27T11:47:55.000Z</time>
      </trkpt>
      <trkpt lat="41.94505" lon="9.2195">
        <ele>1965.88</ele>
        <time>2017-06-27T11:48:32.919Z</time>
      </trkpt>
      <trkpt lat="41.94507" lon="9.21951">
        <ele>1967.9</ele>
        <time>2017-06-27T11:48:45.915Z</time>
      </trkpt>
      <trkpt lat="41.94506" lon="9.21948">
        <ele>1965.88</ele>
        <time>2017-06-27T11:48:56.931Z</time>
      </trkpt>
      <trkpt lat="41.94506" lon="9.21944">
        <ele>1956.7</ele>
        <time>2017-06-27T11:49:06.892Z</time>
      </trkpt>
      <trkpt lat="41.94505" lon="9.21941">
        <ele>1957.55</ele>
        <time>2017-06-27T11:49:15.895Z</time>
      </trkpt>
      <trkpt lat="41.94506" lon="9.21936">
        <ele>1952.04</ele>
        <time>2017-06-27T11:49:24.978Z</time>
      </trkpt>
      <trkpt lat="41.94507" lon="9.21942">
        <ele>1957.22</ele>
        <time>2017-06-27T11:49:34.923Z</time>
      </trkpt>
      <trkpt lat="41.94507" lon="9.2194">
        <ele>1957.04</ele>
        <time>2017-06-27T11:50:00.913Z</time>
      </trkpt>
      <trkpt lat="41.94507" lon="9.21939">
        <ele>1956.31</ele>
        <time>2017-06-27T11:50:19.970Z</time>
      </trkpt>
      <trkpt lat="41.94506" lon="9.2194">
        <ele>1956.2</ele>
        <time>2017-06-27T11:51:05.888Z</time>
      </trkpt>
      <trkpt lat="41.94506" lon="9.21941">
        <ele>1957.98</ele>
        <time>2017-06-27T11:51:33.904Z</time>
      </trkpt>
      <trkpt lat="41.94506" lon="9.21943">
        <ele>1959.4</ele>
        <time>2017-06-27T11:51:43.890Z</time>
      </trkpt>
      <trkpt lat="41.94506" lon="9.21946">
        <ele>1961.5</ele>
        <time>2017-06-27T11:52:08.888Z</time>
      </trkpt>
      <trkpt lat="41.94506" lon="9.21943">
        <ele>1960.6</ele>
        <time>2017-06-27T11:52:17.897Z</time>
      </trkpt>
      <trkpt lat="41.94507" lon="9.21944">
        <ele>1960.88</ele>
        <time>2017-06-27T11:52:58.891Z</time>
      </trkpt>
      <trkpt lat="41.94506" lon="9.21946">
        <ele>1964.1</ele>
        <time>2017-06-27T11:54:36.887Z</time>
      </trkpt>
      <trkpt lat="41.94507" lon="9.21947">
        <ele>1964.73</ele>
        <time>2017-06-27T11:54:47.890Z</time>
      </trkpt>
      <trkpt lat="41.94507" lon="9.21951">
        <ele>1968.2</ele>
        <time>2017-06-27T11:55:27.891Z</time>
      </trkpt>
      <trkpt lat="41.94507" lon="9.2195">
        <ele>1968.05</ele>
        <time>2017-06-27T11:55:37.885Z</time>
      </trkpt>
      <trkpt lat="41.94506" lon="9.21949">
        <ele>1967.85</ele>
        <time>2017-06-27T11:56:06.910Z</time>
      </trkpt>
      <trkpt lat="41.94505" lon="9.21951">
        <ele>1970</ele>
        <time>2017-06-27T11:56:16.910Z</time>
      </trkpt>
      <trkpt lat="41.94505" lon="9.21952">
        <ele>1972.9</ele>
        <time>2017-06-27T11:56:26.894Z</time>
      </trkpt>
      <trkpt lat="41.94506" lon="9.21952">
        <ele>1974.32</ele>
        <time>2017-06-27T11:56:38.887Z</time>
      </trkpt>
      <trkpt lat="41.94506" lon="9.21954">
        <ele>1975.81</ele>
        <time>2017-06-27T11:56:47.888Z</time>
      </trkpt>
      <trkpt lat="41.94506" lon="9.21956">
        <ele>1977.5</ele>
        <time>2017-06-27T11:56:56.903Z</time>
      </trkpt>
      <trkpt lat="41.94506" lon="9.21957">
        <ele>1978.06</ele>
        <time>2017-06-27T11:57:06.896Z</time>
      </trkpt>
      <trkpt lat="41.94503" lon="9.21955">
        <ele>1978.73</ele>
        <time>2017-06-27T11:57:15.921Z</time>
      </trkpt>
      <trkpt lat="41.94504" lon="9.21953">
        <ele>1974.64</ele>
        <time>2017-06-27T11:57:30.898Z</time>
      </trkpt>
      <trkpt lat="41.94507" lon="9.21949">
        <ele>1970.92</ele>
        <time>2017-06-27T11:57:55.887Z</time>
      </trkpt>
      <trkpt lat="41.94511" lon="9.21946">
        <ele>1968.21</ele>
        <time>2017-06-27T11:58:04.889Z</time>
      </trkpt>
      <trkpt lat="41.94508" lon="9.21945">
        <ele>1965.7</ele>
        <time>2017-06-27T11:58:36.889Z</time>
      </trkpt>
      <trkpt lat="41.94506" lon="9.21947">
        <ele>1965.92</ele>
        <time>2017-06-27T11:58:46.902Z</time>
      </trkpt>
      <trkpt lat="41.94506" lon="9.21944">
        <ele>1964.08</ele>
        <time>2017-06-27T11:58:56.889Z</time>
      </trkpt>
      <trkpt lat="41.94506" lon="9.21941">
        <ele>1960.5</ele>
        <time>2017-06-27T11:59:05.903Z</time>
      </trkpt>
      <trkpt lat="41.94506" lon="9.21944">
        <ele>1959.89</ele>
        <time>2017-06-27T11:59:28.889Z</time>
      </trkpt>
      <trkpt lat="41.94507" lon="9.21944">
        <ele>1963</ele>
        <time>2017-06-27T11:59:38.889Z</time>
      </trkpt>
      <trkpt lat="41.94506" lon="9.21944">
        <ele>1963.3</ele>
        <time>2017-06-27T12:00:01.886Z</time>
      </trkpt>
      <trkpt lat="41.94507" lon="9.21945">
        <ele>1964.68</ele>
        <time>2017-06-27T12:00:20.888Z</time>
      </trkpt>
      <trkpt lat="41.94505" lon="9.21946">
        <ele>1967.74</ele>
        <time>2017-06-27T12:00:29.924Z</time>
      </trkpt>
      <trkpt lat="41.94507" lon="9.21944">
        <ele>1968.05</ele>
        <time>2017-06-27T12:00:39.912Z</time>
      </trkpt>
      <trkpt lat="41.94508" lon="9.21943">
        <ele>1966.8</ele>
        <time>2017-06-27T12:00:57.891Z</time>
      </trkpt>
      <trkpt lat="41.94508" lon="9.21939">
        <ele>1961.3</ele>
        <time>2017-06-27T12:01:07.889Z</time>
      </trkpt>
      <trkpt lat="41.94507" lon="9.21938">
        <ele>1958.6</ele>
        <time>2017-06-27T12:02:01.887Z</time>
      </trkpt>
      <trkpt lat="41.94506" lon="9.21942">
        <ele>1960.67</ele>
        <time>2017-06-27T12:02:11.899Z</time>
      </trkpt>
      <trkpt lat="41.94506" lon="9.21943">
        <ele>1963.2</ele>
        <time>2017-06-27T12:02:30.891Z</time>
      </trkpt>
      <trkpt lat="41.94508" lon="9.21947">
        <ele>1969.33</ele>
        <time>2017-06-27T12:02:39.987Z</time>
      </trkpt>
      <trkpt lat="41.94507" lon="9.21946">
        <ele>1965.5</ele>
        <time>2017-06-27T12:02:49.914Z</time>
      </trkpt>
      <trkpt lat="41.94509" lon="9.21946">
        <ele>1973.68</ele>
        <time>2017-06-27T12:04:52.889Z</time>
      </trkpt>
      <trkpt lat="41.94511" lon="9.2194">
        <ele>1960.5</ele>
        <time>2017-06-27T12:05:01.890Z</time>
      </trkpt>
      <trkpt lat="41.94507" lon="9.21937">
        <ele>1954.19</ele>
        <time>2017-06-27T12:05:11.889Z</time>
      </trkpt>
      <trkpt lat="41.94507" lon="9.2194">
        <ele>1957.58</ele>
        <time>2017-06-27T12:05:33.888Z</time>
      </trkpt>
      <trkpt lat="41.94506" lon="9.21946">
        <ele>1967.72</ele>
        <time>2017-06-27T12:06:12.889Z</time>
      </trkpt>
      <trkpt lat="41.94507" lon="9.21949">
        <ele>1974.95</ele>
        <time>2017-06-27T12:06:31.889Z</time>
      </trkpt>
      <trkpt lat="41.94508" lon="9.21949">
        <ele>1977.58</ele>
        <time>2017-06-27T12:06:57.891Z</time>
      </trkpt>
      <trkpt lat="41.94508" lon="9.21951">
        <ele>1977.9</ele>
        <time>2017-06-27T12:07:07.899Z</time>
      </trkpt>
      <trkpt lat="41.94506" lon="9.21945">
        <ele>1970.46</ele>
        <time>2017-06-27T12:07:17.889Z</time>
      </trkpt>
      <trkpt lat="41.94507" lon="9.21947">
        <ele>1966.03</ele>
        <time>2017-06-27T12:07:28.918Z</time>
      </trkpt>
      <trkpt lat="41.94507" lon="9.21945">
        <ele>1963.2</ele>
        <time>2017-06-27T12:07:38.887Z</time>
      </trkpt>
      <trkpt lat="41.94509" lon="9.21943">
        <ele>1959.25</ele>
        <time>2017-06-27T12:07:47.889Z</time>
      </trkpt>
      <trkpt lat="41.94508" lon="9.21944">
        <ele>1963.8</ele>
        <time>2017-06-27T12:08:02.888Z</time>
      </trkpt>
      <trkpt lat="41.94504" lon="9.21946">
        <ele>1962.05</ele>
        <time>2017-06-27T12:08:56.887Z</time>
      </trkpt>
      <trkpt lat="41.94503" lon="9.21949">
        <ele>1964.04</ele>
        <time>2017-06-27T12:09:05.915Z</time>
      </trkpt>
      <trkpt lat="41.94503" lon="9.21954">
        <ele>1965.65</ele>
        <time>2017-06-27T12:09:15.886Z</time>
      </trkpt>
      <trkpt lat="41.94505" lon="9.21952">
        <ele>1966.49</ele>
        <time>2017-06-27T12:09:24.906Z</time>
      </trkpt>
      <trkpt lat="41.94502" lon="9.21941">
        <ele>1958.75</ele>
        <time>2017-06-27T12:09:41.910Z</time>
      </trkpt>
      <trkpt lat="41.94502" lon="9.21939">
        <ele>1952.4</ele>
        <time>2017-06-27T12:09:51.891Z</time>
      </trkpt>
      <trkpt lat="41.9451" lon="9.2194">
        <ele>1959.6</ele>
        <time>2017-06-27T12:10:10.888Z</time>
      </trkpt>
      <trkpt lat="41.94509" lon="9.21943">
        <ele>1965</ele>
        <time>2017-06-27T12:10:19.892Z</time>
      </trkpt>
      <trkpt lat="41.945" lon="9.21946">
        <ele>1969.88</ele>
        <time>2017-06-27T12:10:34.889Z</time>
      </trkpt>
      <trkpt lat="41.94501" lon="9.21944">
        <ele>1967.65</ele>
        <time>2017-06-27T12:10:50.889Z</time>
      </trkpt>
      <trkpt lat="41.94502" lon="9.21943">
        <ele>1971.43</ele>
        <time>2017-06-27T12:11:03.891Z</time>
      </trkpt>
      <trkpt lat="41.94502" lon="9.21942">
        <ele>1970.3</ele>
        <time>2017-06-27T12:11:13.888Z</time>
      </trkpt>
      <trkpt lat="41.94501" lon="9.21941">
        <ele>1961.3</ele>
        <time>2017-06-27T12:11:23.888Z</time>
      </trkpt>
      <trkpt lat="41.94501" lon="9.21943">
        <ele>1962.2</ele>
        <time>2017-06-27T12:11:33.899Z</time>
      </trkpt>
      <trkpt lat="41.94501" lon="9.21945">
        <ele>1960.2</ele>
        <time>2017-06-27T12:11:51.887Z</time>
      </trkpt>
      <trkpt lat="41.94502" lon="9.21945">
        <ele>1961.49</ele>
        <time>2017-06-27T12:12:00.910Z</time>
      </trkpt>
      <trkpt lat="41.94504" lon="9.21944">
        <ele>1961.8</ele>
        <time>2017-06-27T12:12:26.882Z</time>
      </trkpt>
      <trkpt lat="41.94505" lon="9.21946">
        <ele>1965.31</ele>
        <time>2017-06-27T12:12:35.906Z</time>
      </trkpt>
      <trkpt lat="41.94504" lon="9.21944">
        <ele>1962.11</ele>
        <time>2017-06-27T12:12:45.924Z</time>
      </trkpt>
      <trkpt lat="41.94505" lon="9.21944">
        <ele>1963.2</ele>
        <time>2017-06-27T12:12:55.899Z</time>
      </trkpt>
      <trkpt lat="41.94505" lon="9.21956">
        <ele>1973.4</ele>
        <time>2017-06-27T12:15:25.885Z</time>
      </trkpt>
      <trkpt lat="41.94502" lon="9.21954">
        <ele>1971.28</ele>
        <time>2017-06-27T12:15:46.885Z</time>
      </trkpt>
      <trkpt lat="41.94503" lon="9.21952">
        <ele>1970</ele>
        <time>2017-06-27T12:16:32.885Z</time>
      </trkpt>
      <trkpt lat="41.94502" lon="9.21957">
        <ele>1974.02</ele>
        <time>2017-06-27T12:17:08.885Z</time>
      </trkpt>
      <trkpt lat="41.94503" lon="9.21961">
        <ele>1975.92</ele>
        <time>2017-06-27T12:17:21.913Z</time>
      </trkpt>
      <trkpt lat="41.94507" lon="9.21965">
        <ele>1975.97</ele>
        <time>2017-06-27T12:17:31.887Z</time>
      </trkpt>
      <trkpt lat="41.94509" lon="9.21964">
        <ele>1973</ele>
        <time>2017-06-27T12:17:41.886Z</time>
      </trkpt>
      <trkpt lat="41.94514" lon="9.21965">
        <ele>1966.07</ele>
        <time>2017-06-27T12:17:50.911Z</time>
      </trkpt>
      <trkpt lat="41.94519" lon="9.21969">
        <ele>1956.48</ele>
        <time>2017-06-27T12:18:00.884Z</time>
      </trkpt>
      <trkpt lat="41.94523" lon="9.21972">
        <ele>1956.83</ele>
        <time>2017-06-27T12:18:09.888Z</time>
      </trkpt>
      <trkpt lat="41.94527" lon="9.21974">
        <ele>1955.95</ele>
        <time>2017-06-27T12:18:19.886Z</time>
      </trkpt>
      <trkpt lat="41.94529" lon="9.2198">
        <ele>1956.7</ele>
        <time>2017-06-27T12:18:29.886Z</time>
      </trkpt>
      <trkpt lat="41.94533" lon="9.21985">
        <ele>1955.33</ele>
        <time>2017-06-27T12:18:39.888Z</time>
      </trkpt>
      <trkpt lat="41.9453" lon="9.21996">
        <ele>1955.67</ele>
        <time>2017-06-27T12:18:49.886Z</time>
      </trkpt>
      <trkpt lat="41.94533" lon="9.2201">
        <ele>1954.2</ele>
        <time>2017-06-27T12:18:59.886Z</time>
      </trkpt>
      <trkpt lat="41.94529" lon="9.2202">
        <ele>1949.43</ele>
        <time>2017-06-27T12:19:09.888Z</time>
      </trkpt>
      <trkpt lat="41.94533" lon="9.22024">
        <ele>1945.16</ele>
        <time>2017-06-27T12:19:19.885Z</time>
      </trkpt>
      <trkpt lat="41.94529" lon="9.22033">
        <ele>1948.15</ele>
        <time>2017-06-27T12:19:29.886Z</time>
      </trkpt>
      <trkpt lat="41.9452" lon="9.22035">
        <ele>1946.64</ele>
        <time>2017-06-27T12:19:39.887Z</time>
      </trkpt>
      <trkpt lat="41.94515" lon="9.22032">
        <ele>1945.67</ele>
        <time>2017-06-27T12:19:49.885Z</time>
      </trkpt>
      <trkpt lat="41.94511" lon="9.22028">
        <ele>1942.97</ele>
        <time>2017-06-27T12:19:58.886Z</time>
      </trkpt>
      <trkpt lat="41.94508" lon="9.22029">
        <ele>1941.79</ele>
        <time>2017-06-27T12:20:08.886Z</time>
      </trkpt>
      <trkpt lat="41.94504" lon="9.2203">
        <ele>1945.2</ele>
        <time>2017-06-27T12:20:35.886Z</time>
      </trkpt>
      <trkpt lat="41.945" lon="9.22027">
        <ele>1947.95</ele>
        <time>2017-06-27T12:20:45.887Z</time>
      </trkpt>
      <trkpt lat="41.94494" lon="9.2202">
        <ele>1945.54</ele>
        <time>2017-06-27T12:20:55.884Z</time>
      </trkpt>
      <trkpt lat="41.9449" lon="9.22018">
        <ele>1943.17</ele>
        <time>2017-06-27T12:21:05.884Z</time>
      </trkpt>
      <trkpt lat="41.94482" lon="9.22012">
        <ele>1937.34</ele>
        <time>2017-06-27T12:21:15.886Z</time>
      </trkpt>
      <trkpt lat="41.94479" lon="9.22008">
        <ele>1933.06</ele>
        <time>2017-06-27T12:21:25.884Z</time>
      </trkpt>
      <trkpt lat="41.94474" lon="9.22001">
        <ele>1931.36</ele>
        <time>2017-06-27T12:21:34.886Z</time>
      </trkpt>
      <trkpt lat="41.94471" lon="9.21995">
        <ele>1931.43</ele>
        <time>2017-06-27T12:21:44.884Z</time>
      </trkpt>
      <trkpt lat="41.94467" lon="9.2199">
        <ele>1931.61</ele>
        <time>2017-06-27T12:21:54.884Z</time>
      </trkpt>
      <trkpt lat="41.94467" lon="9.21988">
        <ele>1931.6</ele>
        <time>2017-06-27T12:22:03.886Z</time>
      </trkpt>
      <trkpt lat="41.94465" lon="9.21983">
        <ele>1928.98</ele>
        <time>2017-06-27T12:22:16.884Z</time>
      </trkpt>
      <trkpt lat="41.94461" lon="9.2198">
        <ele>1929.91</ele>
        <time>2017-06-27T12:22:25.885Z</time>
      </trkpt>
      <trkpt lat="41.94452" lon="9.21977">
        <ele>1930.3</ele>
        <time>2017-06-27T12:22:35.885Z</time>
      </trkpt>
      <trkpt lat="41.94447" lon="9.2197">
        <ele>1931.47</ele>
        <time>2017-06-27T12:22:45.886Z</time>
      </trkpt>
      <trkpt lat="41.9444" lon="9.21965">
        <ele>1931.79</ele>
        <time>2017-06-27T12:22:55.884Z</time>
      </trkpt>
      <trkpt lat="41.94436" lon="9.21959">
        <ele>1932.18</ele>
        <time>2017-06-27T12:23:04.885Z</time>
      </trkpt>
      <trkpt lat="41.9443" lon="9.21948">
        <ele>1932.49</ele>
        <time>2017-06-27T12:23:14.884Z</time>
      </trkpt>
      <trkpt lat="41.94428" lon="9.21942">
        <ele>1933.8</ele>
        <time>2017-06-27T12:23:24.884Z</time>
      </trkpt>
      <trkpt lat="41.94421" lon="9.21937">
        <ele>1931.21</ele>
        <time>2017-06-27T12:23:33.886Z</time>
      </trkpt>
      <trkpt lat="41.94415" lon="9.21932">
        <ele>1928.7</ele>
        <time>2017-06-27T12:23:43.883Z</time>
      </trkpt>
      <trkpt lat="41.9441" lon="9.21928">
        <ele>1928.02</ele>
        <time>2017-06-27T12:23:52.884Z</time>
      </trkpt>
      <trkpt lat="41.9441" lon="9.21927">
        <ele>1929.8</ele>
        <time>2017-06-27T12:24:02.884Z</time>
      </trkpt>
      <trkpt lat="41.9441" lon="9.21924">
        <ele>1932.28</ele>
        <time>2017-06-27T12:24:26.884Z</time>
      </trkpt>
      <trkpt lat="41.94405" lon="9.21924">
        <ele>1934.65</ele>
        <time>2017-06-27T12:24:36.885Z</time>
      </trkpt>
      <trkpt lat="41.94401" lon="9.21919">
        <ele>1925.66</ele>
        <time>2017-06-27T12:24:45.886Z</time>
      </trkpt>
      <trkpt lat="41.94397" lon="9.21916">
        <ele>1920.27</ele>
        <time>2017-06-27T12:24:55.884Z</time>
      </trkpt>
      <trkpt lat="41.94398" lon="9.21909">
        <ele>1921.11</ele>
        <time>2017-06-27T12:25:05.884Z</time>
      </trkpt>
      <trkpt lat="41.94396" lon="9.21902">
        <ele>1921.65</ele>
        <time>2017-06-27T12:25:15.886Z</time>
      </trkpt>
      <trkpt lat="41.94395" lon="9.21897">
        <ele>1924.54</ele>
        <time>2017-06-27T12:25:25.884Z</time>
      </trkpt>
      <trkpt lat="41.94389" lon="9.21894">
        <ele>1923.4</ele>
        <time>2017-06-27T12:25:35.885Z</time>
      </trkpt>
      <trkpt lat="41.94383" lon="9.21887">
        <ele>1921.21</ele>
        <time>2017-06-27T12:25:45.887Z</time>
      </trkpt>
      <trkpt lat="41.9438" lon="9.2188">
        <ele>1923.29</ele>
        <time>2017-06-27T12:25:55.884Z</time>
      </trkpt>
      <trkpt lat="41.94374" lon="9.21876">
        <ele>1922.57</ele>
        <time>2017-06-27T12:26:05.884Z</time>
      </trkpt>
      <trkpt lat="41.94371" lon="9.21872">
        <ele>1921.78</ele>
        <time>2017-06-27T12:26:14.885Z</time>
      </trkpt>
      <trkpt lat="41.94368" lon="9.21864">
        <ele>1921.77</ele>
        <time>2017-06-27T12:26:24.884Z</time>
      </trkpt>
      <trkpt lat="41.94363" lon="9.21853">
        <ele>1921.1</ele>
        <time>2017-06-27T12:26:34.884Z</time>
      </trkpt>
      <trkpt lat="41.94359" lon="9.21846">
        <ele>1918.04</ele>
        <time>2017-06-27T12:26:44.885Z</time>
      </trkpt>
      <trkpt lat="41.94353" lon="9.21836">
        <ele>1916.79</ele>
        <time>2017-06-27T12:26:54.885Z</time>
      </trkpt>
      <trkpt lat="41.94349" lon="9.21828">
        <ele>1917.49</ele>
        <time>2017-06-27T12:27:03.886Z</time>
      </trkpt>
      <trkpt lat="41.94344" lon="9.21821">
        <ele>1913.89</ele>
        <time>2017-06-27T12:27:13.883Z</time>
      </trkpt>
      <trkpt lat="41.94336" lon="9.21819">
        <ele>1911.77</ele>
        <time>2017-06-27T12:27:22.884Z</time>
      </trkpt>
      <trkpt lat="41.9433" lon="9.21814">
        <ele>1908.51</ele>
        <time>2017-06-27T12:27:32.882Z</time>
      </trkpt>
      <trkpt lat="41.94325" lon="9.21813">
        <ele>1907.78</ele>
        <time>2017-06-27T12:27:41.890Z</time>
      </trkpt>
      <trkpt lat="41.94318" lon="9.21809">
        <ele>1906.63</ele>
        <time>2017-06-27T12:27:51.886Z</time>
      </trkpt>
      <trkpt lat="41.94309" lon="9.21808">
        <ele>1904.75</ele>
        <time>2017-06-27T12:28:01.885Z</time>
      </trkpt>
      <trkpt lat="41.94301" lon="9.21804">
        <ele>1901.41</ele>
        <time>2017-06-27T12:28:11.885Z</time>
      </trkpt>
      <trkpt lat="41.94297" lon="9.21801">
        <ele>1902</ele>
        <time>2017-06-27T12:28:21.886Z</time>
      </trkpt>
      <trkpt lat="41.94296" lon="9.21799">
        <ele>1900.72</ele>
        <time>2017-06-27T12:28:48.884Z</time>
      </trkpt>
      <trkpt lat="41.94291" lon="9.21797">
        <ele>1902.31</ele>
        <time>2017-06-27T12:28:57.887Z</time>
      </trkpt>
      <trkpt lat="41.94285" lon="9.21793">
        <ele>1900.72</ele>
        <time>2017-06-27T12:29:07.885Z</time>
      </trkpt>
      <trkpt lat="41.9428" lon="9.21787">
        <ele>1900.65</ele>
        <time>2017-06-27T12:29:17.883Z</time>
      </trkpt>
      <trkpt lat="41.94273" lon="9.21783">
        <ele>1900.05</ele>
        <time>2017-06-27T12:29:26.884Z</time>
      </trkpt>
      <trkpt lat="41.94267" lon="9.2178">
        <ele>1897.53</ele>
        <time>2017-06-27T12:29:36.884Z</time>
      </trkpt>
      <trkpt lat="41.94259" lon="9.21776">
        <ele>1896.75</ele>
        <time>2017-06-27T12:29:45.885Z</time>
      </trkpt>
      <trkpt lat="41.94251" lon="9.21772">
        <ele>1893.91</ele>
        <time>2017-06-27T12:29:55.883Z</time>
      </trkpt>
      <trkpt lat="41.94243" lon="9.21771">
        <ele>1891.78</ele>
        <time>2017-06-27T12:30:05.883Z</time>
      </trkpt>
      <trkpt lat="41.94244" lon="9.21769">
        <ele>1891.4</ele>
        <time>2017-06-27T12:30:15.885Z</time>
      </trkpt>
      <trkpt lat="41.9424" lon="9.21768">
        <ele>1893.28</ele>
        <time>2017-06-27T12:30:45.886Z</time>
      </trkpt>
      <trkpt lat="41.94237" lon="9.21765">
        <ele>1895.71</ele>
        <time>2017-06-27T12:30:55.884Z</time>
      </trkpt>
      <trkpt lat="41.94229" lon="9.21759">
        <ele>1894.04</ele>
        <time>2017-06-27T12:31:05.883Z</time>
      </trkpt>
      <trkpt lat="41.94219" lon="9.21752">
        <ele>1887.44</ele>
        <time>2017-06-27T12:31:15.885Z</time>
      </trkpt>
      <trkpt lat="41.94212" lon="9.21747">
        <ele>1886.21</ele>
        <time>2017-06-27T12:31:24.902Z</time>
      </trkpt>
      <trkpt lat="41.94202" lon="9.2174">
        <ele>1886.29</ele>
        <time>2017-06-27T12:31:34.883Z</time>
      </trkpt>
      <trkpt lat="41.94194" lon="9.21736">
        <ele>1885.97</ele>
        <time>2017-06-27T12:31:44.884Z</time>
      </trkpt>
      <trkpt lat="41.94189" lon="9.2173">
        <ele>1887.31</ele>
        <time>2017-06-27T12:31:54.883Z</time>
      </trkpt>
      <trkpt lat="41.94183" lon="9.21727">
        <ele>1885.8</ele>
        <time>2017-06-27T12:32:03.885Z</time>
      </trkpt>
      <trkpt lat="41.94174" lon="9.21724">
        <ele>1883.19</ele>
        <time>2017-06-27T12:32:13.883Z</time>
      </trkpt>
      <trkpt lat="41.94166" lon="9.21718">
        <ele>1882.28</ele>
        <time>2017-06-27T12:32:23.884Z</time>
      </trkpt>
      <trkpt lat="41.94161" lon="9.21714">
        <ele>1884.88</ele>
        <time>2017-06-27T12:32:33.885Z</time>
      </trkpt>
      <trkpt lat="41.94157" lon="9.21706">
        <ele>1887.8</ele>
        <time>2017-06-27T12:32:43.883Z</time>
      </trkpt>
      <trkpt lat="41.94151" lon="9.21702">
        <ele>1890.58</ele>
        <time>2017-06-27T12:32:53.883Z</time>
      </trkpt>
      <trkpt lat="41.94143" lon="9.21696">
        <ele>1891.96</ele>
        <time>2017-06-27T12:33:03.885Z</time>
      </trkpt>
      <trkpt lat="41.94138" lon="9.21686">
        <ele>1894.22</ele>
        <time>2017-06-27T12:33:13.883Z</time>
      </trkpt>
      <trkpt lat="41.94132" lon="9.21679">
        <ele>1895.28</ele>
        <time>2017-06-27T12:33:23.884Z</time>
      </trkpt>
      <trkpt lat="41.94127" lon="9.21673">
        <ele>1894.77</ele>
        <time>2017-06-27T12:33:32.915Z</time>
      </trkpt>
      <trkpt lat="41.9413" lon="9.2166">
        <ele>1895.62</ele>
        <time>2017-06-27T12:33:42.883Z</time>
      </trkpt>
      <trkpt lat="41.94126" lon="9.21656">
        <ele>1897.04</ele>
        <time>2017-06-27T12:33:51.885Z</time>
      </trkpt>
      <trkpt lat="41.94123" lon="9.21646">
        <ele>1898.89</ele>
        <time>2017-06-27T12:34:01.884Z</time>
      </trkpt>
      <trkpt lat="41.94122" lon="9.21637">
        <ele>1899.55</ele>
        <time>2017-06-27T12:34:11.905Z</time>
      </trkpt>
      <trkpt lat="41.94119" lon="9.21629">
        <ele>1900.25</ele>
        <time>2017-06-27T12:34:21.886Z</time>
      </trkpt>
      <trkpt lat="41.94115" lon="9.21619">
        <ele>1899.33</ele>
        <time>2017-06-27T12:34:31.884Z</time>
      </trkpt>
      <trkpt lat="41.94108" lon="9.21612">
        <ele>1900.67</ele>
        <time>2017-06-27T12:34:41.884Z</time>
      </trkpt>
      <trkpt lat="41.94103" lon="9.21604">
        <ele>1900.15</ele>
        <time>2017-06-27T12:34:51.886Z</time>
      </trkpt>
      <trkpt lat="41.94099" lon="9.21589">
        <ele>1899.92</ele>
        <time>2017-06-27T12:35:01.884Z</time>
      </trkpt>
      <trkpt lat="41.94096" lon="9.21578">
        <ele>1899.02</ele>
        <time>2017-06-27T12:35:11.884Z</time>
      </trkpt>
      <trkpt lat="41.94096" lon="9.21568">
        <ele>1899.15</ele>
        <time>2017-06-27T12:35:21.886Z</time>
      </trkpt>
      <trkpt lat="41.94095" lon="9.21559">
        <ele>1900.13</ele>
        <time>2017-06-27T12:35:31.884Z</time>
      </trkpt>
      <trkpt lat="41.94093" lon="9.21549">
        <ele>1901.53</ele>
        <time>2017-06-27T12:35:41.884Z</time>
      </trkpt>
      <trkpt lat="41.94095" lon="9.21539">
        <ele>1899.07</ele>
        <time>2017-06-27T12:35:51.886Z</time>
      </trkpt>
      <trkpt lat="41.94092" lon="9.2153">
        <ele>1899.95</ele>
        <time>2017-06-27T12:36:01.884Z</time>
      </trkpt>
      <trkpt lat="41.94091" lon="9.21517">
        <ele>1900.98</ele>
        <time>2017-06-27T12:36:11.884Z</time>
      </trkpt>
      <trkpt lat="41.9409" lon="9.21507">
        <ele>1901.92</ele>
        <time>2017-06-27T12:36:21.886Z</time>
      </trkpt>
      <trkpt lat="41.94094" lon="9.21496">
        <ele>1902.73</ele>
        <time>2017-06-27T12:36:31.884Z</time>
      </trkpt>
      <trkpt lat="41.94098" lon="9.21487">
        <ele>1902.26</ele>
        <time>2017-06-27T12:36:41.884Z</time>
      </trkpt>
      <trkpt lat="41.941" lon="9.21475">
        <ele>1905.34</ele>
        <time>2017-06-27T12:36:51.887Z</time>
      </trkpt>
      <trkpt lat="41.94105" lon="9.21472">
        <ele>1907.1</ele>
        <time>2017-06-27T12:37:01.884Z</time>
      </trkpt>
      <trkpt lat="41.94111" lon="9.21476">
        <ele>1906.84</ele>
        <time>2017-06-27T12:37:11.884Z</time>
      </trkpt>
      <trkpt lat="41.94116" lon="9.21479">
        <ele>1905.91</ele>
        <time>2017-06-27T12:37:21.886Z</time>
      </trkpt>
      <trkpt lat="41.94118" lon="9.21481">
        <ele>1907.65</ele>
        <time>2017-06-27T12:37:31.884Z</time>
      </trkpt>
      <trkpt lat="41.94116" lon="9.21476">
        <ele>1912.79</ele>
        <time>2017-06-27T12:37:41.884Z</time>
      </trkpt>
      <trkpt lat="41.94118" lon="9.21467">
        <ele>1914.22</ele>
        <time>2017-06-27T12:37:51.886Z</time>
      </trkpt>
      <trkpt lat="41.94117" lon="9.21459">
        <ele>1917.59</ele>
        <time>2017-06-27T12:38:01.884Z</time>
      </trkpt>
      <trkpt lat="41.94114" lon="9.21449">
        <ele>1920.84</ele>
        <time>2017-06-27T12:38:11.884Z</time>
      </trkpt>
      <trkpt lat="41.9411" lon="9.21439">
        <ele>1920.68</ele>
        <time>2017-06-27T12:38:21.886Z</time>
      </trkpt>
      <trkpt lat="41.94106" lon="9.21429">
        <ele>1919.47</ele>
        <time>2017-06-27T12:38:31.884Z</time>
      </trkpt>
      <trkpt lat="41.94099" lon="9.21421">
        <ele>1917.57</ele>
        <time>2017-06-27T12:38:41.884Z</time>
      </trkpt>
      <trkpt lat="41.94093" lon="9.21411">
        <ele>1917.26</ele>
        <time>2017-06-27T12:38:51.886Z</time>
      </trkpt>
      <trkpt lat="41.94086" lon="9.21404">
        <ele>1915.27</ele>
        <time>2017-06-27T12:39:01.884Z</time>
      </trkpt>
      <trkpt lat="41.94078" lon="9.21398">
        <ele>1916.11</ele>
        <time>2017-06-27T12:39:11.884Z</time>
      </trkpt>
      <trkpt lat="41.9407" lon="9.21391">
        <ele>1915.9</ele>
        <time>2017-06-27T12:39:21.886Z</time>
      </trkpt>
      <trkpt lat="41.94062" lon="9.21385">
        <ele>1916.55</ele>
        <time>2017-06-27T12:39:31.884Z</time>
      </trkpt>
      <trkpt lat="41.94055" lon="9.21374">
        <ele>1916.5</ele>
        <time>2017-06-27T12:39:41.885Z</time>
      </trkpt>
      <trkpt lat="41.94053" lon="9.21365">
        <ele>1916.24</ele>
        <time>2017-06-27T12:39:51.886Z</time>
      </trkpt>
      <trkpt lat="41.94046" lon="9.21357">
        <ele>1917.15</ele>
        <time>2017-06-27T12:40:01.884Z</time>
      </trkpt>
      <trkpt lat="41.94039" lon="9.21348">
        <ele>1916.88</ele>
        <time>2017-06-27T12:40:11.883Z</time>
      </trkpt>
      <trkpt lat="41.94032" lon="9.21344">
        <ele>1917.11</ele>
        <time>2017-06-27T12:40:21.885Z</time>
      </trkpt>
      <trkpt lat="41.94027" lon="9.21338">
        <ele>1919.54</ele>
        <time>2017-06-27T12:40:31.882Z</time>
      </trkpt>
      <trkpt lat="41.9402" lon="9.21334">
        <ele>1919.17</ele>
        <time>2017-06-27T12:40:41.883Z</time>
      </trkpt>
      <trkpt lat="41.94012" lon="9.21329">
        <ele>1919.76</ele>
        <time>2017-06-27T12:40:51.885Z</time>
      </trkpt>
      <trkpt lat="41.94004" lon="9.21328">
        <ele>1921.47</ele>
        <time>2017-06-27T12:41:01.882Z</time>
      </trkpt>
      <trkpt lat="41.93996" lon="9.21328">
        <ele>1921.04</ele>
        <time>2017-06-27T12:41:10.883Z</time>
      </trkpt>
      <trkpt lat="41.93986" lon="9.21328">
        <ele>1918.05</ele>
        <time>2017-06-27T12:41:20.882Z</time>
      </trkpt>
      <trkpt lat="41.93979" lon="9.2133">
        <ele>1919.08</ele>
        <time>2017-06-27T12:41:30.882Z</time>
      </trkpt>
      <trkpt lat="41.93972" lon="9.2133">
        <ele>1917.16</ele>
        <time>2017-06-27T12:41:39.885Z</time>
      </trkpt>
      <trkpt lat="41.93963" lon="9.21329">
        <ele>1916.25</ele>
        <time>2017-06-27T12:41:49.883Z</time>
      </trkpt>
      <trkpt lat="41.93958" lon="9.21331">
        <ele>1918.41</ele>
        <time>2017-06-27T12:41:58.912Z</time>
      </trkpt>
      <trkpt lat="41.93955" lon="9.21333">
        <ele>1920.1</ele>
        <time>2017-06-27T12:42:08.882Z</time>
      </trkpt>
      <trkpt lat="41.93956" lon="9.21336">
        <ele>1925.35</ele>
        <time>2017-06-27T12:43:38.883Z</time>
      </trkpt>
      <trkpt lat="41.93955" lon="9.21336">
        <ele>1927.68</ele>
        <time>2017-06-27T12:43:57.885Z</time>
      </trkpt>
      <trkpt lat="41.93946" lon="9.21331">
        <ele>1928.49</ele>
        <time>2017-06-27T12:44:07.883Z</time>
      </trkpt>
      <trkpt lat="41.93939" lon="9.21327">
        <ele>1929.85</ele>
        <time>2017-06-27T12:44:17.883Z</time>
      </trkpt>
      <trkpt lat="41.9393" lon="9.2132">
        <ele>1927.74</ele>
        <time>2017-06-27T12:44:27.885Z</time>
      </trkpt>
      <trkpt lat="41.93922" lon="9.21311">
        <ele>1926</ele>
        <time>2017-06-27T12:44:37.883Z</time>
      </trkpt>
      <trkpt lat="41.93913" lon="9.21301">
        <ele>1925.53</ele>
        <time>2017-06-27T12:44:47.883Z</time>
      </trkpt>
      <trkpt lat="41.93905" lon="9.21293">
        <ele>1923.57</ele>
        <time>2017-06-27T12:44:57.885Z</time>
      </trkpt>
      <trkpt lat="41.93897" lon="9.21287">
        <ele>1922.16</ele>
        <time>2017-06-27T12:45:07.881Z</time>
      </trkpt>
      <trkpt lat="41.93891" lon="9.21282">
        <ele>1921.06</ele>
        <time>2017-06-27T12:45:16.883Z</time>
      </trkpt>
      <trkpt lat="41.93883" lon="9.21275">
        <ele>1920.13</ele>
        <time>2017-06-27T12:45:26.883Z</time>
      </trkpt>
      <trkpt lat="41.93874" lon="9.21266">
        <ele>1919.21</ele>
        <time>2017-06-27T12:45:36.881Z</time>
      </trkpt>
      <trkpt lat="41.93868" lon="9.2126">
        <ele>1915.56</ele>
        <time>2017-06-27T12:45:45.886Z</time>
      </trkpt>
      <trkpt lat="41.93861" lon="9.21259">
        <ele>1913.52</ele>
        <time>2017-06-27T12:45:55.883Z</time>
      </trkpt>
      <trkpt lat="41.93852" lon="9.21253">
        <ele>1914.9</ele>
        <time>2017-06-27T12:46:05.883Z</time>
      </trkpt>
      <trkpt lat="41.93849" lon="9.21242">
        <ele>1913.37</ele>
        <time>2017-06-27T12:46:15.885Z</time>
      </trkpt>
      <trkpt lat="41.93844" lon="9.21233">
        <ele>1909.88</ele>
        <time>2017-06-27T12:46:25.883Z</time>
      </trkpt>
      <trkpt lat="41.93837" lon="9.21222">
        <ele>1906.91</ele>
        <time>2017-06-27T12:46:35.883Z</time>
      </trkpt>
      <trkpt lat="41.93834" lon="9.21219">
        <ele>1905.12</ele>
        <time>2017-06-27T12:46:45.885Z</time>
      </trkpt>
      <trkpt lat="41.93825" lon="9.21215">
        <ele>1904</ele>
        <time>2017-06-27T12:46:55.883Z</time>
      </trkpt>
      <trkpt lat="41.93818" lon="9.21209">
        <ele>1900.34</ele>
        <time>2017-06-27T12:47:05.883Z</time>
      </trkpt>
      <trkpt lat="41.9381" lon="9.21204">
        <ele>1896.43</ele>
        <time>2017-06-27T12:47:15.885Z</time>
      </trkpt>
      <trkpt lat="41.93804" lon="9.21202">
        <ele>1893.91</ele>
        <time>2017-06-27T12:47:25.883Z</time>
      </trkpt>
      <trkpt lat="41.93799" lon="9.21205">
        <ele>1891.51</ele>
        <time>2017-06-27T12:47:35.883Z</time>
      </trkpt>
      <trkpt lat="41.93792" lon="9.21211">
        <ele>1890.94</ele>
        <time>2017-06-27T12:47:45.885Z</time>
      </trkpt>
      <trkpt lat="41.93788" lon="9.21213">
        <ele>1891.1</ele>
        <time>2017-06-27T12:47:55.883Z</time>
      </trkpt>
      <trkpt lat="41.93785" lon="9.21214">
        <ele>1890.58</ele>
        <time>2017-06-27T12:48:11.883Z</time>
      </trkpt>
      <trkpt lat="41.93779" lon="9.21216">
        <ele>1888.27</ele>
        <time>2017-06-27T12:48:21.885Z</time>
      </trkpt>
      <trkpt lat="41.93771" lon="9.21217">
        <ele>1886.18</ele>
        <time>2017-06-27T12:48:31.883Z</time>
      </trkpt>
      <trkpt lat="41.93765" lon="9.21213">
        <ele>1883.43</ele>
        <time>2017-06-27T12:48:41.884Z</time>
      </trkpt>
      <trkpt lat="41.93759" lon="9.21212">
        <ele>1882.07</ele>
        <time>2017-06-27T12:48:51.885Z</time>
      </trkpt>
      <trkpt lat="41.93753" lon="9.21211">
        <ele>1878.42</ele>
        <time>2017-06-27T12:49:01.882Z</time>
      </trkpt>
      <trkpt lat="41.93747" lon="9.21206">
        <ele>1877.75</ele>
        <time>2017-06-27T12:49:10.883Z</time>
      </trkpt>
      <trkpt lat="41.93742" lon="9.21199">
        <ele>1874.8</ele>
        <time>2017-06-27T12:49:20.883Z</time>
      </trkpt>
      <trkpt lat="41.93737" lon="9.21198">
        <ele>1872.55</ele>
        <time>2017-06-27T12:49:30.883Z</time>
      </trkpt>
      <trkpt lat="41.9373" lon="9.21191">
        <ele>1872.69</ele>
        <time>2017-06-27T12:49:39.885Z</time>
      </trkpt>
      <trkpt lat="41.93724" lon="9.21179">
        <ele>1872.67</ele>
        <time>2017-06-27T12:49:49.883Z</time>
      </trkpt>
      <trkpt lat="41.93718" lon="9.21174">
        <ele>1871.19</ele>
        <time>2017-06-27T12:49:59.883Z</time>
      </trkpt>
      <trkpt lat="41.93714" lon="9.21168">
        <ele>1873.63</ele>
        <time>2017-06-27T12:50:09.885Z</time>
      </trkpt>
      <trkpt lat="41.93709" lon="9.21164">
        <ele>1871.63</ele>
        <time>2017-06-27T12:50:19.883Z</time>
      </trkpt>
      <trkpt lat="41.93711" lon="9.21156">
        <ele>1871.09</ele>
        <time>2017-06-27T12:50:29.883Z</time>
      </trkpt>
      <trkpt lat="41.93713" lon="9.21152">
        <ele>1871.25</ele>
        <time>2017-06-27T12:50:39.885Z</time>
      </trkpt>
      <trkpt lat="41.93719" lon="9.21143">
        <ele>1871.51</ele>
        <time>2017-06-27T12:50:49.883Z</time>
      </trkpt>
      <trkpt lat="41.93718" lon="9.21143">
        <ele>1871.2</ele>
        <time>2017-06-27T12:50:59.883Z</time>
      </trkpt>
      <trkpt lat="41.93718" lon="9.2114">
        <ele>1871.5</ele>
        <time>2017-06-27T12:51:26.883Z</time>
      </trkpt>
      <trkpt lat="41.93715" lon="9.21139">
        <ele>1872.7</ele>
        <time>2017-06-27T12:51:36.883Z</time>
      </trkpt>
      <trkpt lat="41.93712" lon="9.21137">
        <ele>1871.28</ele>
        <time>2017-06-27T12:52:54.885Z</time>
      </trkpt>
      <trkpt lat="41.93712" lon="9.21135">
        <ele>1876.51</ele>
        <time>2017-06-27T12:54:06.883Z</time>
      </trkpt>
      <trkpt lat="41.93715" lon="9.21125">
        <ele>1875.27</ele>
        <time>2017-06-27T12:54:15.886Z</time>
      </trkpt>
      <trkpt lat="41.93718" lon="9.21112">
        <ele>1874.81</ele>
        <time>2017-06-27T12:54:25.883Z</time>
      </trkpt>
      <trkpt lat="41.93718" lon="9.211">
        <ele>1870.69</ele>
        <time>2017-06-27T12:54:35.883Z</time>
      </trkpt>
      <trkpt lat="41.93716" lon="9.21093">
        <ele>1864.99</ele>
        <time>2017-06-27T12:54:45.886Z</time>
      </trkpt>
      <trkpt lat="41.93711" lon="9.21081">
        <ele>1863.64</ele>
        <time>2017-06-27T12:54:55.883Z</time>
      </trkpt>
      <trkpt lat="41.93713" lon="9.21067">
        <ele>1864.46</ele>
        <time>2017-06-27T12:55:05.882Z</time>
      </trkpt>
      <trkpt lat="41.93709" lon="9.21055">
        <ele>1863.27</ele>
        <time>2017-06-27T12:55:15.885Z</time>
      </trkpt>
      <trkpt lat="41.93705" lon="9.21048">
        <ele>1862.18</ele>
        <time>2017-06-27T12:55:25.882Z</time>
      </trkpt>
      <trkpt lat="41.93698" lon="9.21045">
        <ele>1860.66</ele>
        <time>2017-06-27T12:55:35.882Z</time>
      </trkpt>
      <trkpt lat="41.93694" lon="9.21037">
        <ele>1858.31</ele>
        <time>2017-06-27T12:55:45.884Z</time>
      </trkpt>
      <trkpt lat="41.93689" lon="9.2103">
        <ele>1856.12</ele>
        <time>2017-06-27T12:55:55.882Z</time>
      </trkpt>
      <trkpt lat="41.93684" lon="9.21024">
        <ele>1853.53</ele>
        <time>2017-06-27T12:56:05.882Z</time>
      </trkpt>
      <trkpt lat="41.93681" lon="9.21014">
        <ele>1849.08</ele>
        <time>2017-06-27T12:56:15.884Z</time>
      </trkpt>
      <trkpt lat="41.93678" lon="9.21008">
        <ele>1844.62</ele>
        <time>2017-06-27T12:56:25.881Z</time>
      </trkpt>
      <trkpt lat="41.9368" lon="9.20997">
        <ele>1843.53</ele>
        <time>2017-06-27T12:56:34.882Z</time>
      </trkpt>
      <trkpt lat="41.9368" lon="9.20988">
        <ele>1842.32</ele>
        <time>2017-06-27T12:56:44.882Z</time>
      </trkpt>
      <trkpt lat="41.93678" lon="9.20979">
        <ele>1840.68</ele>
        <time>2017-06-27T12:56:54.882Z</time>
      </trkpt>
      <trkpt lat="41.93676" lon="9.20972">
        <ele>1838.48</ele>
        <time>2017-06-27T12:57:03.884Z</time>
      </trkpt>
      <trkpt lat="41.9367" lon="9.20965">
        <ele>1835.59</ele>
        <time>2017-06-27T12:57:13.883Z</time>
      </trkpt>
      <trkpt lat="41.93668" lon="9.20954">
        <ele>1834.27</ele>
        <time>2017-06-27T12:57:23.882Z</time>
      </trkpt>
      <trkpt lat="41.93665" lon="9.20944">
        <ele>1833.07</ele>
        <time>2017-06-27T12:57:33.884Z</time>
      </trkpt>
      <trkpt lat="41.93665" lon="9.20931">
        <ele>1834.06</ele>
        <time>2017-06-27T12:57:43.882Z</time>
      </trkpt>
      <trkpt lat="41.93664" lon="9.2092">
        <ele>1832.45</ele>
        <time>2017-06-27T12:57:53.882Z</time>
      </trkpt>
      <trkpt lat="41.93665" lon="9.20909">
        <ele>1831.2</ele>
        <time>2017-06-27T12:58:03.896Z</time>
      </trkpt>
      <trkpt lat="41.93666" lon="9.20899">
        <ele>1829.33</ele>
        <time>2017-06-27T12:58:13.882Z</time>
      </trkpt>
      <trkpt lat="41.93669" lon="9.20889">
        <ele>1828.81</ele>
        <time>2017-06-27T12:58:23.884Z</time>
      </trkpt>
      <trkpt lat="41.93665" lon="9.20879">
        <ele>1827.19</ele>
        <time>2017-06-27T12:58:33.884Z</time>
      </trkpt>
      <trkpt lat="41.93663" lon="9.20875">
        <ele>1825.18</ele>
        <time>2017-06-27T12:59:03.884Z</time>
      </trkpt>
      <trkpt lat="41.93663" lon="9.2087">
        <ele>1825.35</ele>
        <time>2017-06-27T12:59:18.882Z</time>
      </trkpt>
      <trkpt lat="41.93665" lon="9.20868">
        <ele>1824.6</ele>
        <time>2017-06-27T12:59:27.884Z</time>
      </trkpt>
      <trkpt lat="41.93664" lon="9.20867">
        <ele>1827.76</ele>
        <time>2017-06-27T13:00:16.914Z</time>
      </trkpt>
      <trkpt lat="41.93661" lon="9.20861">
        <ele>1825.1</ele>
        <time>2017-06-27T13:00:26.906Z</time>
      </trkpt>
      <trkpt lat="41.93658" lon="9.2085">
        <ele>1823.2</ele>
        <time>2017-06-27T13:00:36.880Z</time>
      </trkpt>
      <trkpt lat="41.93662" lon="9.20845">
        <ele>1821.83</ele>
        <time>2017-06-27T13:00:45.884Z</time>
      </trkpt>
      <trkpt lat="41.93662" lon="9.20838">
        <ele>1822.2</ele>
        <time>2017-06-27T13:00:55.882Z</time>
      </trkpt>
      <trkpt lat="41.9366" lon="9.20828">
        <ele>1819.74</ele>
        <time>2017-06-27T13:01:05.882Z</time>
      </trkpt>
      <trkpt lat="41.93655" lon="9.20814">
        <ele>1815.81</ele>
        <time>2017-06-27T13:01:15.884Z</time>
      </trkpt>
      <trkpt lat="41.93649" lon="9.20803">
        <ele>1814.27</ele>
        <time>2017-06-27T13:01:25.882Z</time>
      </trkpt>
      <trkpt lat="41.93645" lon="9.20797">
        <ele>1811.35</ele>
        <time>2017-06-27T13:01:35.882Z</time>
      </trkpt>
      <trkpt lat="41.93643" lon="9.20791">
        <ele>1808.09</ele>
        <time>2017-06-27T13:01:45.884Z</time>
      </trkpt>
      <trkpt lat="41.93641" lon="9.20783">
        <ele>1807.66</ele>
        <time>2017-06-27T13:01:55.882Z</time>
      </trkpt>
      <trkpt lat="41.93636" lon="9.2078">
        <ele>1803.45</ele>
        <time>2017-06-27T13:02:05.882Z</time>
      </trkpt>
      <trkpt lat="41.93632" lon="9.20777">
        <ele>1803.42</ele>
        <time>2017-06-27T13:02:15.884Z</time>
      </trkpt>
      <trkpt lat="41.93628" lon="9.20771">
        <ele>1801.33</ele>
        <time>2017-06-27T13:02:25.882Z</time>
      </trkpt>
      <trkpt lat="41.93625" lon="9.20764">
        <ele>1798.12</ele>
        <time>2017-06-27T13:02:35.882Z</time>
      </trkpt>
      <trkpt lat="41.93621" lon="9.20757">
        <ele>1799.37</ele>
        <time>2017-06-27T13:02:45.885Z</time>
      </trkpt>
      <trkpt lat="41.93616" lon="9.20754">
        <ele>1797.6</ele>
        <time>2017-06-27T13:02:55.882Z</time>
      </trkpt>
      <trkpt lat="41.93613" lon="9.20745">
        <ele>1795.9</ele>
        <time>2017-06-27T13:03:05.882Z</time>
      </trkpt>
      <trkpt lat="41.9361" lon="9.2074">
        <ele>1793.31</ele>
        <time>2017-06-27T13:03:15.884Z</time>
      </trkpt>
      <trkpt lat="41.93605" lon="9.20737">
        <ele>1791.29</ele>
        <time>2017-06-27T13:03:25.882Z</time>
      </trkpt>
      <trkpt lat="41.93603" lon="9.20737">
        <ele>1792</ele>
        <time>2017-06-27T13:03:35.882Z</time>
      </trkpt>
      <trkpt lat="41.93595" lon="9.20734">
        <ele>1790.8</ele>
        <time>2017-06-27T13:09:19.882Z</time>
      </trkpt>
      <trkpt lat="41.93597" lon="9.20733">
        <ele>1786.03</ele>
        <time>2017-06-27T13:09:29.882Z</time>
      </trkpt>
      <trkpt lat="41.93594" lon="9.20729">
        <ele>1783.06</ele>
        <time>2017-06-27T13:09:39.884Z</time>
      </trkpt>
      <trkpt lat="41.93592" lon="9.20726">
        <ele>1781.55</ele>
        <time>2017-06-27T13:09:49.882Z</time>
      </trkpt>
      <trkpt lat="41.93591" lon="9.20723">
        <ele>1781.35</ele>
        <time>2017-06-27T13:09:59.882Z</time>
      </trkpt>
      <trkpt lat="41.93587" lon="9.20718">
        <ele>1781.69</ele>
        <time>2017-06-27T13:10:09.882Z</time>
      </trkpt>
      <trkpt lat="41.93584" lon="9.20715">
        <ele>1780.33</ele>
        <time>2017-06-27T13:10:23.882Z</time>
      </trkpt>
      <trkpt lat="41.93579" lon="9.20714">
        <ele>1774.91</ele>
        <time>2017-06-27T13:10:33.884Z</time>
      </trkpt>
      <trkpt lat="41.93577" lon="9.20708">
        <ele>1773.78</ele>
        <time>2017-06-27T13:10:43.882Z</time>
      </trkpt>
      <trkpt lat="41.93577" lon="9.20706">
        <ele>1769.25</ele>
        <time>2017-06-27T13:10:55.882Z</time>
      </trkpt>
      <trkpt lat="41.93572" lon="9.20705">
        <ele>1768.24</ele>
        <time>2017-06-27T13:11:05.880Z</time>
      </trkpt>
      <trkpt lat="41.93567" lon="9.20709">
        <ele>1765.87</ele>
        <time>2017-06-27T13:11:14.882Z</time>
      </trkpt>
      <trkpt lat="41.93568" lon="9.20702">
        <ele>1763.43</ele>
        <time>2017-06-27T13:11:24.882Z</time>
      </trkpt>
      <trkpt lat="41.93562" lon="9.20698">
        <ele>1762.45</ele>
        <time>2017-06-27T13:11:33.884Z</time>
      </trkpt>
      <trkpt lat="41.93558" lon="9.20701">
        <ele>1760.23</ele>
        <time>2017-06-27T13:11:43.882Z</time>
      </trkpt>
      <trkpt lat="41.93553" lon="9.20699">
        <ele>1759.21</ele>
        <time>2017-06-27T13:11:53.882Z</time>
      </trkpt>
      <trkpt lat="41.93546" lon="9.20694">
        <ele>1755.39</ele>
        <time>2017-06-27T13:12:03.885Z</time>
      </trkpt>
      <trkpt lat="41.93545" lon="9.20693">
        <ele>1755.7</ele>
        <time>2017-06-27T13:12:13.882Z</time>
      </trkpt>
      <trkpt lat="41.93542" lon="9.20687">
        <ele>1752.17</ele>
        <time>2017-06-27T13:12:23.882Z</time>
      </trkpt>
      <trkpt lat="41.93539" lon="9.2068">
        <ele>1749.48</ele>
        <time>2017-06-27T13:12:32.883Z</time>
      </trkpt>
      <trkpt lat="41.93537" lon="9.20673">
        <ele>1746.4</ele>
        <time>2017-06-27T13:12:42.884Z</time>
      </trkpt>
      <trkpt lat="41.93536" lon="9.20665">
        <ele>1743.62</ele>
        <time>2017-06-27T13:12:52.883Z</time>
      </trkpt>
      <trkpt lat="41.93535" lon="9.20663">
        <ele>1741.4</ele>
        <time>2017-06-27T13:13:02.883Z</time>
      </trkpt>
      <trkpt lat="41.93533" lon="9.20659">
        <ele>1739.5</ele>
        <time>2017-06-27T13:13:12.882Z</time>
      </trkpt>
      <trkpt lat="41.93531" lon="9.20658">
        <ele>1743.48</ele>
        <time>2017-06-27T13:13:33.884Z</time>
      </trkpt>
      <trkpt lat="41.9353" lon="9.20654">
        <ele>1746.09</ele>
        <time>2017-06-27T13:13:43.882Z</time>
      </trkpt>
      <trkpt lat="41.93531" lon="9.20647">
        <ele>1744.83</ele>
        <time>2017-06-27T13:13:53.882Z</time>
      </trkpt>
      <trkpt lat="41.93529" lon="9.20641">
        <ele>1739.21</ele>
        <time>2017-06-27T13:14:03.884Z</time>
      </trkpt>
      <trkpt lat="41.93526" lon="9.20636">
        <ele>1735.1</ele>
        <time>2017-06-27T13:14:13.882Z</time>
      </trkpt>
      <trkpt lat="41.93526" lon="9.20633">
        <ele>1733.7</ele>
        <time>2017-06-27T13:14:23.882Z</time>
      </trkpt>
      <trkpt lat="41.9352" lon="9.20632">
        <ele>1732.86</ele>
        <time>2017-06-27T13:14:33.884Z</time>
      </trkpt>
      <trkpt lat="41.93519" lon="9.20629">
        <ele>1739.8</ele>
        <time>2017-06-27T13:16:02.882Z</time>
      </trkpt>
      <trkpt lat="41.9352" lon="9.20626">
        <ele>1744.93</ele>
        <time>2017-06-27T13:16:12.882Z</time>
      </trkpt>
      <trkpt lat="41.9352" lon="9.20622">
        <ele>1744</ele>
        <time>2017-06-27T13:16:21.885Z</time>
      </trkpt>
      <trkpt lat="41.93519" lon="9.20619">
        <ele>1741.1</ele>
        <time>2017-06-27T13:16:31.882Z</time>
      </trkpt>
      <trkpt lat="41.9352" lon="9.20619">
        <ele>1741.4</ele>
        <time>2017-06-27T13:18:35.882Z</time>
      </trkpt>
      <trkpt lat="41.93523" lon="9.20626">
        <ele>1741.83</ele>
        <time>2017-06-27T13:18:45.884Z</time>
      </trkpt>
      <trkpt lat="41.9352" lon="9.20636">
        <ele>1744.65</ele>
        <time>2017-06-27T13:18:55.882Z</time>
      </trkpt>
      <trkpt lat="41.93519" lon="9.20635">
        <ele>1743</ele>
        <time>2017-06-27T13:19:20.882Z</time>
      </trkpt>
      <trkpt lat="41.93518" lon="9.20636">
        <ele>1738.45</ele>
        <time>2017-06-27T13:21:50.881Z</time>
      </trkpt>
      <trkpt lat="41.93521" lon="9.20633">
        <ele>1734.84</ele>
        <time>2017-06-27T13:22:00.882Z</time>
      </trkpt>
      <trkpt lat="41.93521" lon="9.20632">
        <ele>1736.6</ele>
        <time>2017-06-27T13:22:09.883Z</time>
      </trkpt>
    </trkseg>
  </trk>
</gpx>